<?xml version="1.0" encoding="UTF-8" standalone="no" ?>
<gpx xmlns="http://www.topografix.com/GPX/1/1" xmlns:xsi="http://www.w3.org/2001/XMLSchema-instance" xsi:schemaLocation="http://www.topografix.com/GPX/1/1 http://www.topografix.com/GPX/1/1/gpx.xsd" version="1.1" creator="VisuGPX - https://www.visugpx.com">
  <metadata>
    <name>Lyon Free VTT 2011</name>
    <desc><![CDATA[Lyon Free VTT 2011 avec Jean-Phi, Christophe & Pierre]]></desc>
  </metadata>
  <trk>
    <name><![CDATA[Mountain Biking 9/11/11 8:19 am]]></name>
    <trkseg>
      <trkpt lat="45.72401" lon="4.82629">
        <ele>162.3</ele>
        <time>2011-09-11T08:19:03Z</time>
      </trkpt>
      <trkpt lat="45.72407" lon="4.8264">
        <ele>162.3</ele>
        <time>2011-09-11T08:20:09Z</time>
      </trkpt>
      <trkpt lat="45.72412" lon="4.82651">
        <ele>162.2</ele>
        <time>2011-09-11T08:20:58Z</time>
      </trkpt>
      <trkpt lat="45.72422" lon="4.82655">
        <ele>162.4</ele>
        <time>2011-09-11T08:21:48Z</time>
      </trkpt>
      <trkpt lat="45.72423" lon="4.82668">
        <ele>162.6</ele>
        <time>2011-09-11T08:21:59Z</time>
      </trkpt>
      <trkpt lat="45.72424" lon="4.82683">
        <ele>162.7</ele>
        <time>2011-09-11T08:23:23Z</time>
      </trkpt>
      <trkpt lat="45.72426" lon="4.82697">
        <ele>162.7</ele>
        <time>2011-09-11T08:23:27Z</time>
      </trkpt>
      <trkpt lat="45.72428" lon="4.8271">
        <ele>162.9</ele>
        <time>2011-09-11T08:23:30Z</time>
      </trkpt>
      <trkpt lat="45.72431" lon="4.82724">
        <ele>163.1</ele>
        <time>2011-09-11T08:23:33Z</time>
      </trkpt>
      <trkpt lat="45.72434" lon="4.82738">
        <ele>163.3</ele>
        <time>2011-09-11T08:23:36Z</time>
      </trkpt>
      <trkpt lat="45.72437" lon="4.82751">
        <ele>163.7</ele>
        <time>2011-09-11T08:23:39Z</time>
      </trkpt>
      <trkpt lat="45.7244" lon="4.82764">
        <ele>164.2</ele>
        <time>2011-09-11T08:23:43Z</time>
      </trkpt>
      <trkpt lat="45.72437" lon="4.82779">
        <ele>164.6</ele>
        <time>2011-09-11T08:23:47Z</time>
      </trkpt>
      <trkpt lat="45.72428" lon="4.82785">
        <ele>165.1</ele>
        <time>2011-09-11T08:23:54Z</time>
      </trkpt>
      <trkpt lat="45.72417" lon="4.82789">
        <ele>165.4</ele>
        <time>2011-09-11T08:23:59Z</time>
      </trkpt>
      <trkpt lat="45.72412" lon="4.82801">
        <ele>165.6</ele>
        <time>2011-09-11T08:24:03Z</time>
      </trkpt>
      <trkpt lat="45.72414" lon="4.82816">
        <ele>165.9</ele>
        <time>2011-09-11T08:24:07Z</time>
      </trkpt>
      <trkpt lat="45.72415" lon="4.82829">
        <ele>166.2</ele>
        <time>2011-09-11T08:24:11Z</time>
      </trkpt>
      <trkpt lat="45.72421" lon="4.82839">
        <ele>166.3</ele>
        <time>2011-09-11T08:24:16Z</time>
      </trkpt>
      <trkpt lat="45.72432" lon="4.82835">
        <ele>166.4</ele>
        <time>2011-09-11T08:24:29Z</time>
      </trkpt>
      <trkpt lat="45.72443" lon="4.82839">
        <ele>166.5</ele>
        <time>2011-09-11T08:24:32Z</time>
      </trkpt>
      <trkpt lat="45.72446" lon="4.82853">
        <ele>166.3</ele>
        <time>2011-09-11T08:24:37Z</time>
      </trkpt>
      <trkpt lat="45.72447" lon="4.82867">
        <ele>166.1</ele>
        <time>2011-09-11T08:24:40Z</time>
      </trkpt>
      <trkpt lat="45.7245" lon="4.82883">
        <ele>165.8</ele>
        <time>2011-09-11T08:24:43Z</time>
      </trkpt>
      <trkpt lat="45.72454" lon="4.82897">
        <ele>165.5</ele>
        <time>2011-09-11T08:24:46Z</time>
      </trkpt>
      <trkpt lat="45.72457" lon="4.82911">
        <ele>165.3</ele>
        <time>2011-09-11T08:24:49Z</time>
      </trkpt>
      <trkpt lat="45.72461" lon="4.82926">
        <ele>165</ele>
        <time>2011-09-11T08:24:53Z</time>
      </trkpt>
      <trkpt lat="45.72459" lon="4.82941">
        <ele>164.7</ele>
        <time>2011-09-11T08:24:56Z</time>
      </trkpt>
      <trkpt lat="45.72454" lon="4.8296">
        <ele>164.5</ele>
        <time>2011-09-11T08:24:59Z</time>
      </trkpt>
      <trkpt lat="45.72456" lon="4.82976">
        <ele>164.5</ele>
        <time>2011-09-11T08:25:01Z</time>
      </trkpt>
      <trkpt lat="45.72456" lon="4.82994">
        <ele>164.5</ele>
        <time>2011-09-11T08:25:04Z</time>
      </trkpt>
      <trkpt lat="45.72454" lon="4.8301">
        <ele>164.5</ele>
        <time>2011-09-11T08:25:07Z</time>
      </trkpt>
      <trkpt lat="45.72451" lon="4.83027">
        <ele>164.5</ele>
        <time>2011-09-11T08:25:10Z</time>
      </trkpt>
      <trkpt lat="45.72447" lon="4.83044">
        <ele>164.5</ele>
        <time>2011-09-11T08:25:13Z</time>
      </trkpt>
      <trkpt lat="45.72443" lon="4.83056">
        <ele>164.5</ele>
        <time>2011-09-11T08:25:15Z</time>
      </trkpt>
      <trkpt lat="45.72439" lon="4.83068">
        <ele>164.6</ele>
        <time>2011-09-11T08:25:17Z</time>
      </trkpt>
      <trkpt lat="45.72433" lon="4.83079">
        <ele>165.2</ele>
        <time>2011-09-11T08:25:19Z</time>
      </trkpt>
      <trkpt lat="45.72424" lon="4.83083">
        <ele>165.7</ele>
        <time>2011-09-11T08:25:21Z</time>
      </trkpt>
      <trkpt lat="45.72414" lon="4.83084">
        <ele>166.3</ele>
        <time>2011-09-11T08:25:23Z</time>
      </trkpt>
      <trkpt lat="45.72404" lon="4.83083">
        <ele>166.8</ele>
        <time>2011-09-11T08:25:25Z</time>
      </trkpt>
      <trkpt lat="45.72393" lon="4.83082">
        <ele>167.3</ele>
        <time>2011-09-11T08:25:27Z</time>
      </trkpt>
      <trkpt lat="45.72381" lon="4.83078">
        <ele>167.7</ele>
        <time>2011-09-11T08:25:29Z</time>
      </trkpt>
      <trkpt lat="45.72371" lon="4.8308">
        <ele>168.4</ele>
        <time>2011-09-11T08:25:31Z</time>
      </trkpt>
      <trkpt lat="45.72365" lon="4.8309">
        <ele>169</ele>
        <time>2011-09-11T08:25:33Z</time>
      </trkpt>
      <trkpt lat="45.72359" lon="4.83101">
        <ele>169.6</ele>
        <time>2011-09-11T08:25:35Z</time>
      </trkpt>
      <trkpt lat="45.72354" lon="4.83112">
        <ele>170.3</ele>
        <time>2011-09-11T08:25:37Z</time>
      </trkpt>
      <trkpt lat="45.72344" lon="4.83125">
        <ele>170.9</ele>
        <time>2011-09-11T08:25:40Z</time>
      </trkpt>
      <trkpt lat="45.72338" lon="4.83139">
        <ele>171.1</ele>
        <time>2011-09-11T08:25:42Z</time>
      </trkpt>
      <trkpt lat="45.72332" lon="4.83153">
        <ele>171.2</ele>
        <time>2011-09-11T08:25:44Z</time>
      </trkpt>
      <trkpt lat="45.72326" lon="4.83167">
        <ele>171.3</ele>
        <time>2011-09-11T08:25:46Z</time>
      </trkpt>
      <trkpt lat="45.72321" lon="4.83181">
        <ele>171.4</ele>
        <time>2011-09-11T08:25:48Z</time>
      </trkpt>
      <trkpt lat="45.72317" lon="4.83195">
        <ele>171.2</ele>
        <time>2011-09-11T08:25:50Z</time>
      </trkpt>
      <trkpt lat="45.72312" lon="4.83208">
        <ele>171</ele>
        <time>2011-09-11T08:25:52Z</time>
      </trkpt>
      <trkpt lat="45.72307" lon="4.8322">
        <ele>170.6</ele>
        <time>2011-09-11T08:25:54Z</time>
      </trkpt>
      <trkpt lat="45.72301" lon="4.83233">
        <ele>170.3</ele>
        <time>2011-09-11T08:25:57Z</time>
      </trkpt>
      <trkpt lat="45.72295" lon="4.83248">
        <ele>169.9</ele>
        <time>2011-09-11T08:26:00Z</time>
      </trkpt>
      <trkpt lat="45.7229" lon="4.83263">
        <ele>169.5</ele>
        <time>2011-09-11T08:26:03Z</time>
      </trkpt>
      <trkpt lat="45.72285" lon="4.83277">
        <ele>169.2</ele>
        <time>2011-09-11T08:26:05Z</time>
      </trkpt>
      <trkpt lat="45.72277" lon="4.83287">
        <ele>168.8</ele>
        <time>2011-09-11T08:26:08Z</time>
      </trkpt>
      <trkpt lat="45.72267" lon="4.83277">
        <ele>168.5</ele>
        <time>2011-09-11T08:26:11Z</time>
      </trkpt>
      <trkpt lat="45.72259" lon="4.83263">
        <ele>168.3</ele>
        <time>2011-09-11T08:26:14Z</time>
      </trkpt>
      <trkpt lat="45.7225" lon="4.83253">
        <ele>167.8</ele>
        <time>2011-09-11T08:26:16Z</time>
      </trkpt>
      <trkpt lat="45.72243" lon="4.83243">
        <ele>167.6</ele>
        <time>2011-09-11T08:26:18Z</time>
      </trkpt>
      <trkpt lat="45.72235" lon="4.83233">
        <ele>167.4</ele>
        <time>2011-09-11T08:26:20Z</time>
      </trkpt>
      <trkpt lat="45.72227" lon="4.83226">
        <ele>167.1</ele>
        <time>2011-09-11T08:26:22Z</time>
      </trkpt>
      <trkpt lat="45.72218" lon="4.83223">
        <ele>166.8</ele>
        <time>2011-09-11T08:26:24Z</time>
      </trkpt>
      <trkpt lat="45.72205" lon="4.83222">
        <ele>166.5</ele>
        <time>2011-09-11T08:26:27Z</time>
      </trkpt>
      <trkpt lat="45.72194" lon="4.8322">
        <ele>166.3</ele>
        <time>2011-09-11T08:26:30Z</time>
      </trkpt>
      <trkpt lat="45.72185" lon="4.83217">
        <ele>166</ele>
        <time>2011-09-11T08:26:32Z</time>
      </trkpt>
      <trkpt lat="45.72175" lon="4.83213">
        <ele>165.7</ele>
        <time>2011-09-11T08:26:34Z</time>
      </trkpt>
      <trkpt lat="45.72167" lon="4.83207">
        <ele>165.3</ele>
        <time>2011-09-11T08:26:36Z</time>
      </trkpt>
      <trkpt lat="45.72157" lon="4.83196">
        <ele>164.8</ele>
        <time>2011-09-11T08:26:39Z</time>
      </trkpt>
      <trkpt lat="45.72148" lon="4.83184">
        <ele>164.5</ele>
        <time>2011-09-11T08:26:42Z</time>
      </trkpt>
      <trkpt lat="45.72139" lon="4.83173">
        <ele>164.1</ele>
        <time>2011-09-11T08:26:45Z</time>
      </trkpt>
      <trkpt lat="45.7213" lon="4.83162">
        <ele>163.8</ele>
        <time>2011-09-11T08:26:48Z</time>
      </trkpt>
      <trkpt lat="45.7212" lon="4.8315">
        <ele>163.5</ele>
        <time>2011-09-11T08:26:51Z</time>
      </trkpt>
      <trkpt lat="45.7211" lon="4.83138">
        <ele>163.3</ele>
        <time>2011-09-11T08:26:54Z</time>
      </trkpt>
      <trkpt lat="45.72101" lon="4.83125">
        <ele>163</ele>
        <time>2011-09-11T08:26:57Z</time>
      </trkpt>
      <trkpt lat="45.72094" lon="4.83116">
        <ele>162.7</ele>
        <time>2011-09-11T08:26:59Z</time>
      </trkpt>
      <trkpt lat="45.72084" lon="4.83104">
        <ele>162.6</ele>
        <time>2011-09-11T08:27:02Z</time>
      </trkpt>
      <trkpt lat="45.72085" lon="4.8309">
        <ele>162.5</ele>
        <time>2011-09-11T08:27:05Z</time>
      </trkpt>
      <trkpt lat="45.72094" lon="4.83078">
        <ele>162.6</ele>
        <time>2011-09-11T08:27:08Z</time>
      </trkpt>
      <trkpt lat="45.721" lon="4.83069">
        <ele>162.7</ele>
        <time>2011-09-11T08:27:10Z</time>
      </trkpt>
      <trkpt lat="45.72108" lon="4.83058">
        <ele>162.9</ele>
        <time>2011-09-11T08:27:12Z</time>
      </trkpt>
      <trkpt lat="45.72116" lon="4.83049">
        <ele>163.1</ele>
        <time>2011-09-11T08:27:14Z</time>
      </trkpt>
      <trkpt lat="45.72124" lon="4.83039">
        <ele>163.3</ele>
        <time>2011-09-11T08:27:16Z</time>
      </trkpt>
      <trkpt lat="45.72127" lon="4.83026">
        <ele>163.5</ele>
        <time>2011-09-11T08:27:18Z</time>
      </trkpt>
      <trkpt lat="45.72118" lon="4.83011">
        <ele>163.6</ele>
        <time>2011-09-11T08:27:21Z</time>
      </trkpt>
      <trkpt lat="45.72111" lon="4.83002">
        <ele>163.8</ele>
        <time>2011-09-11T08:27:23Z</time>
      </trkpt>
      <trkpt lat="45.72104" lon="4.82991">
        <ele>164</ele>
        <time>2011-09-11T08:27:25Z</time>
      </trkpt>
      <trkpt lat="45.72097" lon="4.8298">
        <ele>164</ele>
        <time>2011-09-11T08:27:27Z</time>
      </trkpt>
      <trkpt lat="45.72091" lon="4.82969">
        <ele>164</ele>
        <time>2011-09-11T08:27:29Z</time>
      </trkpt>
      <trkpt lat="45.72083" lon="4.82958">
        <ele>164</ele>
        <time>2011-09-11T08:27:31Z</time>
      </trkpt>
      <trkpt lat="45.72076" lon="4.82947">
        <ele>163.8</ele>
        <time>2011-09-11T08:27:33Z</time>
      </trkpt>
      <trkpt lat="45.7207" lon="4.82935">
        <ele>163.6</ele>
        <time>2011-09-11T08:27:35Z</time>
      </trkpt>
      <trkpt lat="45.72063" lon="4.82923">
        <ele>163.7</ele>
        <time>2011-09-11T08:27:37Z</time>
      </trkpt>
      <trkpt lat="45.72056" lon="4.82913">
        <ele>163.8</ele>
        <time>2011-09-11T08:27:39Z</time>
      </trkpt>
      <trkpt lat="45.72049" lon="4.82902">
        <ele>163.9</ele>
        <time>2011-09-11T08:27:41Z</time>
      </trkpt>
      <trkpt lat="45.72042" lon="4.82891">
        <ele>164</ele>
        <time>2011-09-11T08:27:43Z</time>
      </trkpt>
      <trkpt lat="45.72035" lon="4.8288">
        <ele>164.1</ele>
        <time>2011-09-11T08:27:45Z</time>
      </trkpt>
      <trkpt lat="45.72024" lon="4.82864">
        <ele>164.2</ele>
        <time>2011-09-11T08:27:48Z</time>
      </trkpt>
      <trkpt lat="45.72017" lon="4.82852">
        <ele>164.3</ele>
        <time>2011-09-11T08:27:50Z</time>
      </trkpt>
      <trkpt lat="45.7201" lon="4.8284">
        <ele>164.4</ele>
        <time>2011-09-11T08:27:52Z</time>
      </trkpt>
      <trkpt lat="45.72004" lon="4.82828">
        <ele>164.5</ele>
        <time>2011-09-11T08:27:54Z</time>
      </trkpt>
      <trkpt lat="45.71997" lon="4.82816">
        <ele>164.8</ele>
        <time>2011-09-11T08:27:56Z</time>
      </trkpt>
      <trkpt lat="45.7199" lon="4.82804">
        <ele>165.2</ele>
        <time>2011-09-11T08:27:58Z</time>
      </trkpt>
      <trkpt lat="45.71984" lon="4.82792">
        <ele>165.3</ele>
        <time>2011-09-11T08:28:00Z</time>
      </trkpt>
      <trkpt lat="45.71978" lon="4.82782">
        <ele>165.4</ele>
        <time>2011-09-11T08:28:02Z</time>
      </trkpt>
      <trkpt lat="45.71972" lon="4.82771">
        <ele>165.4</ele>
        <time>2011-09-11T08:28:04Z</time>
      </trkpt>
      <trkpt lat="45.7196" lon="4.82755">
        <ele>165.4</ele>
        <time>2011-09-11T08:28:07Z</time>
      </trkpt>
      <trkpt lat="45.71953" lon="4.82744">
        <ele>165.4</ele>
        <time>2011-09-11T08:28:09Z</time>
      </trkpt>
      <trkpt lat="45.71945" lon="4.82732">
        <ele>165.4</ele>
        <time>2011-09-11T08:28:11Z</time>
      </trkpt>
      <trkpt lat="45.71937" lon="4.82721">
        <ele>165.4</ele>
        <time>2011-09-11T08:28:13Z</time>
      </trkpt>
      <trkpt lat="45.71931" lon="4.82709">
        <ele>165.4</ele>
        <time>2011-09-11T08:28:15Z</time>
      </trkpt>
      <trkpt lat="45.71925" lon="4.82696">
        <ele>165.4</ele>
        <time>2011-09-11T08:28:17Z</time>
      </trkpt>
      <trkpt lat="45.71928" lon="4.8268">
        <ele>165</ele>
        <time>2011-09-11T08:28:20Z</time>
      </trkpt>
      <trkpt lat="45.71935" lon="4.82668">
        <ele>164.8</ele>
        <time>2011-09-11T08:28:23Z</time>
      </trkpt>
      <trkpt lat="45.71943" lon="4.82654">
        <ele>164.6</ele>
        <time>2011-09-11T08:28:26Z</time>
      </trkpt>
      <trkpt lat="45.71949" lon="4.82644">
        <ele>164.5</ele>
        <time>2011-09-11T08:28:28Z</time>
      </trkpt>
      <trkpt lat="45.71956" lon="4.82633">
        <ele>164.2</ele>
        <time>2011-09-11T08:28:30Z</time>
      </trkpt>
      <trkpt lat="45.71962" lon="4.82621">
        <ele>163.9</ele>
        <time>2011-09-11T08:28:32Z</time>
      </trkpt>
      <trkpt lat="45.71968" lon="4.8261">
        <ele>163.6</ele>
        <time>2011-09-11T08:28:34Z</time>
      </trkpt>
      <trkpt lat="45.71971" lon="4.82596">
        <ele>163.5</ele>
        <time>2011-09-11T08:28:37Z</time>
      </trkpt>
      <trkpt lat="45.71966" lon="4.82584">
        <ele>163.3</ele>
        <time>2011-09-11T08:28:39Z</time>
      </trkpt>
      <trkpt lat="45.71959" lon="4.82573">
        <ele>163.1</ele>
        <time>2011-09-11T08:28:41Z</time>
      </trkpt>
      <trkpt lat="45.71953" lon="4.82564">
        <ele>162.9</ele>
        <time>2011-09-11T08:28:43Z</time>
      </trkpt>
      <trkpt lat="45.71947" lon="4.82554">
        <ele>163</ele>
        <time>2011-09-11T08:28:45Z</time>
      </trkpt>
      <trkpt lat="45.71941" lon="4.82544">
        <ele>162.9</ele>
        <time>2011-09-11T08:28:47Z</time>
      </trkpt>
      <trkpt lat="45.71935" lon="4.82534">
        <ele>162.8</ele>
        <time>2011-09-11T08:28:49Z</time>
      </trkpt>
      <trkpt lat="45.71929" lon="4.82523">
        <ele>162.7</ele>
        <time>2011-09-11T08:28:51Z</time>
      </trkpt>
      <trkpt lat="45.71923" lon="4.82512">
        <ele>162.9</ele>
        <time>2011-09-11T08:28:53Z</time>
      </trkpt>
      <trkpt lat="45.71916" lon="4.82502">
        <ele>163.1</ele>
        <time>2011-09-11T08:28:55Z</time>
      </trkpt>
      <trkpt lat="45.7191" lon="4.82491">
        <ele>163.3</ele>
        <time>2011-09-11T08:28:57Z</time>
      </trkpt>
      <trkpt lat="45.71904" lon="4.82481">
        <ele>163.4</ele>
        <time>2011-09-11T08:28:59Z</time>
      </trkpt>
      <trkpt lat="45.71898" lon="4.82468">
        <ele>163.5</ele>
        <time>2011-09-11T08:29:02Z</time>
      </trkpt>
      <trkpt lat="45.71907" lon="4.82454">
        <ele>163.5</ele>
        <time>2011-09-11T08:29:05Z</time>
      </trkpt>
      <trkpt lat="45.71915" lon="4.82446">
        <ele>163.6</ele>
        <time>2011-09-11T08:29:07Z</time>
      </trkpt>
      <trkpt lat="45.71923" lon="4.8244">
        <ele>163.6</ele>
        <time>2011-09-11T08:29:09Z</time>
      </trkpt>
      <trkpt lat="45.71934" lon="4.8243">
        <ele>163.6</ele>
        <time>2011-09-11T08:29:12Z</time>
      </trkpt>
      <trkpt lat="45.71944" lon="4.8242">
        <ele>163.7</ele>
        <time>2011-09-11T08:29:15Z</time>
      </trkpt>
      <trkpt lat="45.71954" lon="4.82409">
        <ele>163.8</ele>
        <time>2011-09-11T08:29:18Z</time>
      </trkpt>
      <trkpt lat="45.71962" lon="4.82401">
        <ele>163.8</ele>
        <time>2011-09-11T08:29:20Z</time>
      </trkpt>
      <trkpt lat="45.71971" lon="4.82393">
        <ele>163.8</ele>
        <time>2011-09-11T08:29:22Z</time>
      </trkpt>
      <trkpt lat="45.7198" lon="4.82386">
        <ele>163.8</ele>
        <time>2011-09-11T08:29:24Z</time>
      </trkpt>
      <trkpt lat="45.71989" lon="4.82377">
        <ele>163.8</ele>
        <time>2011-09-11T08:29:26Z</time>
      </trkpt>
      <trkpt lat="45.71998" lon="4.82368">
        <ele>163.8</ele>
        <time>2011-09-11T08:29:28Z</time>
      </trkpt>
      <trkpt lat="45.72007" lon="4.82361">
        <ele>163.8</ele>
        <time>2011-09-11T08:29:30Z</time>
      </trkpt>
      <trkpt lat="45.72016" lon="4.82352">
        <ele>163.6</ele>
        <time>2011-09-11T08:29:32Z</time>
      </trkpt>
      <trkpt lat="45.72023" lon="4.82342">
        <ele>163.5</ele>
        <time>2011-09-11T08:29:34Z</time>
      </trkpt>
      <trkpt lat="45.72029" lon="4.82332">
        <ele>163.5</ele>
        <time>2011-09-11T08:29:36Z</time>
      </trkpt>
      <trkpt lat="45.72034" lon="4.82321">
        <ele>163.3</ele>
        <time>2011-09-11T08:29:38Z</time>
      </trkpt>
      <trkpt lat="45.72039" lon="4.82309">
        <ele>163.1</ele>
        <time>2011-09-11T08:29:40Z</time>
      </trkpt>
      <trkpt lat="45.72045" lon="4.82296">
        <ele>162.8</ele>
        <time>2011-09-11T08:29:42Z</time>
      </trkpt>
      <trkpt lat="45.72048" lon="4.82281">
        <ele>162.5</ele>
        <time>2011-09-11T08:29:44Z</time>
      </trkpt>
      <trkpt lat="45.72051" lon="4.82266">
        <ele>162.3</ele>
        <time>2011-09-11T08:29:46Z</time>
      </trkpt>
      <trkpt lat="45.72054" lon="4.8225">
        <ele>162</ele>
        <time>2011-09-11T08:29:48Z</time>
      </trkpt>
      <trkpt lat="45.72054" lon="4.82234">
        <ele>161.7</ele>
        <time>2011-09-11T08:29:50Z</time>
      </trkpt>
      <trkpt lat="45.72055" lon="4.82217">
        <ele>161.5</ele>
        <time>2011-09-11T08:29:52Z</time>
      </trkpt>
      <trkpt lat="45.7206" lon="4.82203">
        <ele>161.4</ele>
        <time>2011-09-11T08:29:54Z</time>
      </trkpt>
      <trkpt lat="45.7207" lon="4.82199">
        <ele>161.3</ele>
        <time>2011-09-11T08:29:56Z</time>
      </trkpt>
      <trkpt lat="45.7208" lon="4.82195">
        <ele>161.5</ele>
        <time>2011-09-11T08:29:58Z</time>
      </trkpt>
      <trkpt lat="45.72091" lon="4.82192">
        <ele>161.6</ele>
        <time>2011-09-11T08:30:00Z</time>
      </trkpt>
      <trkpt lat="45.72102" lon="4.8219">
        <ele>161.8</ele>
        <time>2011-09-11T08:30:02Z</time>
      </trkpt>
      <trkpt lat="45.72113" lon="4.82188">
        <ele>162.1</ele>
        <time>2011-09-11T08:30:04Z</time>
      </trkpt>
      <trkpt lat="45.72125" lon="4.82186">
        <ele>162.4</ele>
        <time>2011-09-11T08:30:06Z</time>
      </trkpt>
      <trkpt lat="45.72136" lon="4.82185">
        <ele>162.6</ele>
        <time>2011-09-11T08:30:08Z</time>
      </trkpt>
      <trkpt lat="45.72146" lon="4.82184">
        <ele>162.9</ele>
        <time>2011-09-11T08:30:10Z</time>
      </trkpt>
      <trkpt lat="45.72155" lon="4.82182">
        <ele>163.2</ele>
        <time>2011-09-11T08:30:12Z</time>
      </trkpt>
      <trkpt lat="45.72165" lon="4.82181">
        <ele>163.6</ele>
        <time>2011-09-11T08:30:14Z</time>
      </trkpt>
      <trkpt lat="45.72175" lon="4.82179">
        <ele>164.1</ele>
        <time>2011-09-11T08:30:16Z</time>
      </trkpt>
      <trkpt lat="45.72184" lon="4.82175">
        <ele>164.5</ele>
        <time>2011-09-11T08:30:18Z</time>
      </trkpt>
      <trkpt lat="45.72194" lon="4.82172">
        <ele>164.7</ele>
        <time>2011-09-11T08:30:20Z</time>
      </trkpt>
      <trkpt lat="45.72204" lon="4.8217">
        <ele>164.9</ele>
        <time>2011-09-11T08:30:22Z</time>
      </trkpt>
      <trkpt lat="45.72214" lon="4.82167">
        <ele>165.1</ele>
        <time>2011-09-11T08:30:24Z</time>
      </trkpt>
      <trkpt lat="45.72224" lon="4.82164">
        <ele>165.3</ele>
        <time>2011-09-11T08:30:26Z</time>
      </trkpt>
      <trkpt lat="45.72235" lon="4.82161">
        <ele>165.3</ele>
        <time>2011-09-11T08:30:28Z</time>
      </trkpt>
      <trkpt lat="45.72246" lon="4.82159">
        <ele>165.3</ele>
        <time>2011-09-11T08:30:30Z</time>
      </trkpt>
      <trkpt lat="45.72259" lon="4.82156">
        <ele>165.3</ele>
        <time>2011-09-11T08:30:32Z</time>
      </trkpt>
      <trkpt lat="45.72271" lon="4.82152">
        <ele>165.3</ele>
        <time>2011-09-11T08:30:34Z</time>
      </trkpt>
      <trkpt lat="45.72284" lon="4.8215">
        <ele>165.5</ele>
        <time>2011-09-11T08:30:36Z</time>
      </trkpt>
      <trkpt lat="45.72298" lon="4.82149">
        <ele>165.6</ele>
        <time>2011-09-11T08:30:38Z</time>
      </trkpt>
      <trkpt lat="45.7231" lon="4.82147">
        <ele>165.8</ele>
        <time>2011-09-11T08:30:40Z</time>
      </trkpt>
      <trkpt lat="45.72323" lon="4.82144">
        <ele>166</ele>
        <time>2011-09-11T08:30:42Z</time>
      </trkpt>
      <trkpt lat="45.72335" lon="4.8214">
        <ele>166.5</ele>
        <time>2011-09-11T08:30:44Z</time>
      </trkpt>
      <trkpt lat="45.72346" lon="4.82137">
        <ele>166.9</ele>
        <time>2011-09-11T08:30:46Z</time>
      </trkpt>
      <trkpt lat="45.72357" lon="4.82134">
        <ele>167.4</ele>
        <time>2011-09-11T08:30:48Z</time>
      </trkpt>
      <trkpt lat="45.72369" lon="4.82131">
        <ele>168</ele>
        <time>2011-09-11T08:30:50Z</time>
      </trkpt>
      <trkpt lat="45.72381" lon="4.8213">
        <ele>168.6</ele>
        <time>2011-09-11T08:30:52Z</time>
      </trkpt>
      <trkpt lat="45.72392" lon="4.82129">
        <ele>169.3</ele>
        <time>2011-09-11T08:30:54Z</time>
      </trkpt>
      <trkpt lat="45.72405" lon="4.82126">
        <ele>169.6</ele>
        <time>2011-09-11T08:30:56Z</time>
      </trkpt>
      <trkpt lat="45.72418" lon="4.82123">
        <ele>169.6</ele>
        <time>2011-09-11T08:30:58Z</time>
      </trkpt>
      <trkpt lat="45.7243" lon="4.8212">
        <ele>169.6</ele>
        <time>2011-09-11T08:31:00Z</time>
      </trkpt>
      <trkpt lat="45.72443" lon="4.82117">
        <ele>169.6</ele>
        <time>2011-09-11T08:31:02Z</time>
      </trkpt>
      <trkpt lat="45.72455" lon="4.82114">
        <ele>169.6</ele>
        <time>2011-09-11T08:31:04Z</time>
      </trkpt>
      <trkpt lat="45.72468" lon="4.8211">
        <ele>169.4</ele>
        <time>2011-09-11T08:31:06Z</time>
      </trkpt>
      <trkpt lat="45.7248" lon="4.82108">
        <ele>169.1</ele>
        <time>2011-09-11T08:31:08Z</time>
      </trkpt>
      <trkpt lat="45.72492" lon="4.82106">
        <ele>168.5</ele>
        <time>2011-09-11T08:31:10Z</time>
      </trkpt>
      <trkpt lat="45.72505" lon="4.82103">
        <ele>167.8</ele>
        <time>2011-09-11T08:31:12Z</time>
      </trkpt>
      <trkpt lat="45.72517" lon="4.821">
        <ele>167.2</ele>
        <time>2011-09-11T08:31:14Z</time>
      </trkpt>
      <trkpt lat="45.72529" lon="4.82099">
        <ele>166.5</ele>
        <time>2011-09-11T08:31:16Z</time>
      </trkpt>
      <trkpt lat="45.72542" lon="4.82097">
        <ele>166.2</ele>
        <time>2011-09-11T08:31:18Z</time>
      </trkpt>
      <trkpt lat="45.72555" lon="4.82093">
        <ele>165.8</ele>
        <time>2011-09-11T08:31:20Z</time>
      </trkpt>
      <trkpt lat="45.72568" lon="4.8209">
        <ele>165.5</ele>
        <time>2011-09-11T08:31:22Z</time>
      </trkpt>
      <trkpt lat="45.72581" lon="4.82087">
        <ele>164.9</ele>
        <time>2011-09-11T08:31:24Z</time>
      </trkpt>
      <trkpt lat="45.72594" lon="4.82085">
        <ele>164.4</ele>
        <time>2011-09-11T08:31:26Z</time>
      </trkpt>
      <trkpt lat="45.72605" lon="4.82087">
        <ele>163.8</ele>
        <time>2011-09-11T08:31:28Z</time>
      </trkpt>
      <trkpt lat="45.72616" lon="4.82087">
        <ele>163.3</ele>
        <time>2011-09-11T08:31:30Z</time>
      </trkpt>
      <trkpt lat="45.72627" lon="4.82086">
        <ele>163.1</ele>
        <time>2011-09-11T08:31:32Z</time>
      </trkpt>
      <trkpt lat="45.7264" lon="4.82084">
        <ele>162.9</ele>
        <time>2011-09-11T08:31:34Z</time>
      </trkpt>
      <trkpt lat="45.72652" lon="4.82082">
        <ele>163.4</ele>
        <time>2011-09-11T08:31:36Z</time>
      </trkpt>
      <trkpt lat="45.72664" lon="4.82085">
        <ele>163.8</ele>
        <time>2011-09-11T08:31:38Z</time>
      </trkpt>
      <trkpt lat="45.72676" lon="4.82086">
        <ele>164.3</ele>
        <time>2011-09-11T08:31:40Z</time>
      </trkpt>
      <trkpt lat="45.72689" lon="4.82086">
        <ele>164.7</ele>
        <time>2011-09-11T08:31:42Z</time>
      </trkpt>
      <trkpt lat="45.72701" lon="4.82087">
        <ele>165.2</ele>
        <time>2011-09-11T08:31:44Z</time>
      </trkpt>
      <trkpt lat="45.72716" lon="4.82092">
        <ele>165.8</ele>
        <time>2011-09-11T08:31:46Z</time>
      </trkpt>
      <trkpt lat="45.72729" lon="4.82098">
        <ele>166.5</ele>
        <time>2011-09-11T08:31:48Z</time>
      </trkpt>
      <trkpt lat="45.72738" lon="4.82098">
        <ele>167</ele>
        <time>2011-09-11T08:31:50Z</time>
      </trkpt>
      <trkpt lat="45.7275" lon="4.82095">
        <ele>167.5</ele>
        <time>2011-09-11T08:31:52Z</time>
      </trkpt>
      <trkpt lat="45.7276" lon="4.82094">
        <ele>168.1</ele>
        <time>2011-09-11T08:31:54Z</time>
      </trkpt>
      <trkpt lat="45.72772" lon="4.82094">
        <ele>168.6</ele>
        <time>2011-09-11T08:31:56Z</time>
      </trkpt>
      <trkpt lat="45.72782" lon="4.82096">
        <ele>168.5</ele>
        <time>2011-09-11T08:31:58Z</time>
      </trkpt>
      <trkpt lat="45.72794" lon="4.82102">
        <ele>168.5</ele>
        <time>2011-09-11T08:32:01Z</time>
      </trkpt>
      <trkpt lat="45.72809" lon="4.821">
        <ele>168.4</ele>
        <time>2011-09-11T08:32:04Z</time>
      </trkpt>
      <trkpt lat="45.7282" lon="4.82099">
        <ele>168.3</ele>
        <time>2011-09-11T08:32:06Z</time>
      </trkpt>
      <trkpt lat="45.72831" lon="4.821">
        <ele>167.9</ele>
        <time>2011-09-11T08:32:08Z</time>
      </trkpt>
      <trkpt lat="45.72842" lon="4.82098">
        <ele>167.5</ele>
        <time>2011-09-11T08:32:10Z</time>
      </trkpt>
      <trkpt lat="45.72852" lon="4.82094">
        <ele>167.2</ele>
        <time>2011-09-11T08:32:12Z</time>
      </trkpt>
      <trkpt lat="45.72863" lon="4.82092">
        <ele>166.9</ele>
        <time>2011-09-11T08:32:14Z</time>
      </trkpt>
      <trkpt lat="45.72873" lon="4.82095">
        <ele>166.6</ele>
        <time>2011-09-11T08:32:16Z</time>
      </trkpt>
      <trkpt lat="45.72883" lon="4.82097">
        <ele>166.4</ele>
        <time>2011-09-11T08:32:18Z</time>
      </trkpt>
      <trkpt lat="45.72895" lon="4.82096">
        <ele>166.1</ele>
        <time>2011-09-11T08:32:20Z</time>
      </trkpt>
      <trkpt lat="45.72907" lon="4.82098">
        <ele>165.8</ele>
        <time>2011-09-11T08:32:22Z</time>
      </trkpt>
      <trkpt lat="45.72916" lon="4.82104">
        <ele>165.5</ele>
        <time>2011-09-11T08:32:24Z</time>
      </trkpt>
      <trkpt lat="45.72925" lon="4.82116">
        <ele>165.5</ele>
        <time>2011-09-11T08:32:27Z</time>
      </trkpt>
      <trkpt lat="45.72931" lon="4.82126">
        <ele>165.4</ele>
        <time>2011-09-11T08:32:29Z</time>
      </trkpt>
      <trkpt lat="45.7294" lon="4.82138">
        <ele>165.5</ele>
        <time>2011-09-11T08:32:31Z</time>
      </trkpt>
      <trkpt lat="45.7295" lon="4.82149">
        <ele>165.7</ele>
        <time>2011-09-11T08:32:33Z</time>
      </trkpt>
      <trkpt lat="45.72961" lon="4.82158">
        <ele>165.9</ele>
        <time>2011-09-11T08:32:35Z</time>
      </trkpt>
      <trkpt lat="45.72971" lon="4.82162">
        <ele>166.1</ele>
        <time>2011-09-11T08:32:37Z</time>
      </trkpt>
      <trkpt lat="45.72979" lon="4.82155">
        <ele>166.3</ele>
        <time>2011-09-11T08:32:39Z</time>
      </trkpt>
      <trkpt lat="45.72983" lon="4.82144">
        <ele>166.5</ele>
        <time>2011-09-11T08:32:41Z</time>
      </trkpt>
      <trkpt lat="45.72988" lon="4.82131">
        <ele>166.6</ele>
        <time>2011-09-11T08:32:43Z</time>
      </trkpt>
      <trkpt lat="45.72993" lon="4.82117">
        <ele>166.8</ele>
        <time>2011-09-11T08:32:45Z</time>
      </trkpt>
      <trkpt lat="45.72997" lon="4.82105">
        <ele>166.5</ele>
        <time>2011-09-11T08:32:47Z</time>
      </trkpt>
      <trkpt lat="45.73008" lon="4.82095">
        <ele>166.1</ele>
        <time>2011-09-11T08:32:50Z</time>
      </trkpt>
      <trkpt lat="45.7302" lon="4.82095">
        <ele>165.6</ele>
        <time>2011-09-11T08:32:53Z</time>
      </trkpt>
      <trkpt lat="45.73033" lon="4.82099">
        <ele>165.2</ele>
        <time>2011-09-11T08:32:56Z</time>
      </trkpt>
      <trkpt lat="45.73046" lon="4.821">
        <ele>164.7</ele>
        <time>2011-09-11T08:32:59Z</time>
      </trkpt>
      <trkpt lat="45.73055" lon="4.82102">
        <ele>164.3</ele>
        <time>2011-09-11T08:33:01Z</time>
      </trkpt>
      <trkpt lat="45.73065" lon="4.82103">
        <ele>163.8</ele>
        <time>2011-09-11T08:33:03Z</time>
      </trkpt>
      <trkpt lat="45.73075" lon="4.82105">
        <ele>163.5</ele>
        <time>2011-09-11T08:33:05Z</time>
      </trkpt>
      <trkpt lat="45.73086" lon="4.82108">
        <ele>163.3</ele>
        <time>2011-09-11T08:33:07Z</time>
      </trkpt>
      <trkpt lat="45.73097" lon="4.8211">
        <ele>163</ele>
        <time>2011-09-11T08:33:09Z</time>
      </trkpt>
      <trkpt lat="45.73108" lon="4.82111">
        <ele>162.7</ele>
        <time>2011-09-11T08:33:11Z</time>
      </trkpt>
      <trkpt lat="45.73118" lon="4.82113">
        <ele>162.9</ele>
        <time>2011-09-11T08:33:13Z</time>
      </trkpt>
      <trkpt lat="45.7313" lon="4.82113">
        <ele>163.1</ele>
        <time>2011-09-11T08:33:15Z</time>
      </trkpt>
      <trkpt lat="45.73141" lon="4.82117">
        <ele>163.3</ele>
        <time>2011-09-11T08:33:17Z</time>
      </trkpt>
      <trkpt lat="45.73152" lon="4.82121">
        <ele>163.5</ele>
        <time>2011-09-11T08:33:19Z</time>
      </trkpt>
      <trkpt lat="45.73161" lon="4.82123">
        <ele>163.7</ele>
        <time>2011-09-11T08:33:21Z</time>
      </trkpt>
      <trkpt lat="45.73175" lon="4.82125">
        <ele>164</ele>
        <time>2011-09-11T08:33:24Z</time>
      </trkpt>
      <trkpt lat="45.73184" lon="4.82126">
        <ele>164.3</ele>
        <time>2011-09-11T08:33:26Z</time>
      </trkpt>
      <trkpt lat="45.73193" lon="4.82128">
        <ele>164.4</ele>
        <time>2011-09-11T08:33:28Z</time>
      </trkpt>
      <trkpt lat="45.73203" lon="4.82132">
        <ele>164.5</ele>
        <time>2011-09-11T08:33:30Z</time>
      </trkpt>
      <trkpt lat="45.73213" lon="4.82138">
        <ele>164.5</ele>
        <time>2011-09-11T08:33:32Z</time>
      </trkpt>
      <trkpt lat="45.73223" lon="4.82144">
        <ele>164.6</ele>
        <time>2011-09-11T08:33:34Z</time>
      </trkpt>
      <trkpt lat="45.73234" lon="4.82149">
        <ele>164.7</ele>
        <time>2011-09-11T08:33:36Z</time>
      </trkpt>
      <trkpt lat="45.73244" lon="4.82154">
        <ele>164.8</ele>
        <time>2011-09-11T08:33:38Z</time>
      </trkpt>
      <trkpt lat="45.73255" lon="4.82162">
        <ele>164.8</ele>
        <time>2011-09-11T08:33:41Z</time>
      </trkpt>
      <trkpt lat="45.73264" lon="4.82168">
        <ele>164.8</ele>
        <time>2011-09-11T08:33:43Z</time>
      </trkpt>
      <trkpt lat="45.73274" lon="4.82175">
        <ele>164.7</ele>
        <time>2011-09-11T08:33:45Z</time>
      </trkpt>
      <trkpt lat="45.73283" lon="4.82179">
        <ele>164.6</ele>
        <time>2011-09-11T08:33:47Z</time>
      </trkpt>
      <trkpt lat="45.73291" lon="4.82184">
        <ele>164.5</ele>
        <time>2011-09-11T08:33:49Z</time>
      </trkpt>
      <trkpt lat="45.73301" lon="4.82188">
        <ele>164.5</ele>
        <time>2011-09-11T08:33:51Z</time>
      </trkpt>
      <trkpt lat="45.73315" lon="4.82187">
        <ele>164.4</ele>
        <time>2011-09-11T08:33:54Z</time>
      </trkpt>
      <trkpt lat="45.73325" lon="4.82185">
        <ele>164.3</ele>
        <time>2011-09-11T08:33:56Z</time>
      </trkpt>
      <trkpt lat="45.73334" lon="4.82184">
        <ele>164.2</ele>
        <time>2011-09-11T08:33:58Z</time>
      </trkpt>
      <trkpt lat="45.73347" lon="4.82185">
        <ele>164.1</ele>
        <time>2011-09-11T08:34:01Z</time>
      </trkpt>
      <trkpt lat="45.73358" lon="4.82186">
        <ele>164</ele>
        <time>2011-09-11T08:34:04Z</time>
      </trkpt>
      <trkpt lat="45.73368" lon="4.82188">
        <ele>164</ele>
        <time>2011-09-11T08:34:06Z</time>
      </trkpt>
      <trkpt lat="45.73378" lon="4.8219">
        <ele>164</ele>
        <time>2011-09-11T08:34:08Z</time>
      </trkpt>
      <trkpt lat="45.73389" lon="4.82191">
        <ele>164</ele>
        <time>2011-09-11T08:34:10Z</time>
      </trkpt>
      <trkpt lat="45.734" lon="4.82194">
        <ele>164</ele>
        <time>2011-09-11T08:34:12Z</time>
      </trkpt>
      <trkpt lat="45.73412" lon="4.82198">
        <ele>164</ele>
        <time>2011-09-11T08:34:14Z</time>
      </trkpt>
      <trkpt lat="45.73425" lon="4.82203">
        <ele>164</ele>
        <time>2011-09-11T08:34:16Z</time>
      </trkpt>
      <trkpt lat="45.73437" lon="4.82205">
        <ele>164</ele>
        <time>2011-09-11T08:34:18Z</time>
      </trkpt>
      <trkpt lat="45.73451" lon="4.82207">
        <ele>164</ele>
        <time>2011-09-11T08:34:20Z</time>
      </trkpt>
      <trkpt lat="45.73464" lon="4.82213">
        <ele>164</ele>
        <time>2011-09-11T08:34:22Z</time>
      </trkpt>
      <trkpt lat="45.73476" lon="4.8222">
        <ele>164</ele>
        <time>2011-09-11T08:34:24Z</time>
      </trkpt>
      <trkpt lat="45.73487" lon="4.82226">
        <ele>164</ele>
        <time>2011-09-11T08:34:26Z</time>
      </trkpt>
      <trkpt lat="45.73496" lon="4.82233">
        <ele>164</ele>
        <time>2011-09-11T08:34:28Z</time>
      </trkpt>
      <trkpt lat="45.73505" lon="4.8224">
        <ele>164</ele>
        <time>2011-09-11T08:34:30Z</time>
      </trkpt>
      <trkpt lat="45.73512" lon="4.82247">
        <ele>164</ele>
        <time>2011-09-11T08:34:32Z</time>
      </trkpt>
      <trkpt lat="45.73523" lon="4.82254">
        <ele>164</ele>
        <time>2011-09-11T08:34:35Z</time>
      </trkpt>
      <trkpt lat="45.73535" lon="4.8226">
        <ele>164</ele>
        <time>2011-09-11T08:34:38Z</time>
      </trkpt>
      <trkpt lat="45.73545" lon="4.82268">
        <ele>164.1</ele>
        <time>2011-09-11T08:34:41Z</time>
      </trkpt>
      <trkpt lat="45.73555" lon="4.82277">
        <ele>164.2</ele>
        <time>2011-09-11T08:34:43Z</time>
      </trkpt>
      <trkpt lat="45.73564" lon="4.82284">
        <ele>164.3</ele>
        <time>2011-09-11T08:34:45Z</time>
      </trkpt>
      <trkpt lat="45.73574" lon="4.82289">
        <ele>164.3</ele>
        <time>2011-09-11T08:34:47Z</time>
      </trkpt>
      <trkpt lat="45.73585" lon="4.82297">
        <ele>164.3</ele>
        <time>2011-09-11T08:34:49Z</time>
      </trkpt>
      <trkpt lat="45.73597" lon="4.82308">
        <ele>164.3</ele>
        <time>2011-09-11T08:34:51Z</time>
      </trkpt>
      <trkpt lat="45.73608" lon="4.82319">
        <ele>164.3</ele>
        <time>2011-09-11T08:34:53Z</time>
      </trkpt>
      <trkpt lat="45.73619" lon="4.82328">
        <ele>164.3</ele>
        <time>2011-09-11T08:34:55Z</time>
      </trkpt>
      <trkpt lat="45.73629" lon="4.82334">
        <ele>164.3</ele>
        <time>2011-09-11T08:34:57Z</time>
      </trkpt>
      <trkpt lat="45.73637" lon="4.82341">
        <ele>164.3</ele>
        <time>2011-09-11T08:34:59Z</time>
      </trkpt>
      <trkpt lat="45.7365" lon="4.82346">
        <ele>164.3</ele>
        <time>2011-09-11T08:35:02Z</time>
      </trkpt>
      <trkpt lat="45.73659" lon="4.8235">
        <ele>164.3</ele>
        <time>2011-09-11T08:35:04Z</time>
      </trkpt>
      <trkpt lat="45.73669" lon="4.82355">
        <ele>164.3</ele>
        <time>2011-09-11T08:35:06Z</time>
      </trkpt>
      <trkpt lat="45.73679" lon="4.82364">
        <ele>164.3</ele>
        <time>2011-09-11T08:35:08Z</time>
      </trkpt>
      <trkpt lat="45.73689" lon="4.8237">
        <ele>164.4</ele>
        <time>2011-09-11T08:35:10Z</time>
      </trkpt>
      <trkpt lat="45.73701" lon="4.82376">
        <ele>164.5</ele>
        <time>2011-09-11T08:35:12Z</time>
      </trkpt>
      <trkpt lat="45.73712" lon="4.82382">
        <ele>164.5</ele>
        <time>2011-09-11T08:35:14Z</time>
      </trkpt>
      <trkpt lat="45.73722" lon="4.82388">
        <ele>164.6</ele>
        <time>2011-09-11T08:35:16Z</time>
      </trkpt>
      <trkpt lat="45.73731" lon="4.82394">
        <ele>164.7</ele>
        <time>2011-09-11T08:35:18Z</time>
      </trkpt>
      <trkpt lat="45.7374" lon="4.824">
        <ele>164.8</ele>
        <time>2011-09-11T08:35:20Z</time>
      </trkpt>
      <trkpt lat="45.73749" lon="4.82407">
        <ele>164.9</ele>
        <time>2011-09-11T08:35:22Z</time>
      </trkpt>
      <trkpt lat="45.73759" lon="4.82414">
        <ele>165</ele>
        <time>2011-09-11T08:35:24Z</time>
      </trkpt>
      <trkpt lat="45.73768" lon="4.82425">
        <ele>165.2</ele>
        <time>2011-09-11T08:35:26Z</time>
      </trkpt>
      <trkpt lat="45.73777" lon="4.82439">
        <ele>165.4</ele>
        <time>2011-09-11T08:35:28Z</time>
      </trkpt>
      <trkpt lat="45.73786" lon="4.82449">
        <ele>165.5</ele>
        <time>2011-09-11T08:35:30Z</time>
      </trkpt>
      <trkpt lat="45.73796" lon="4.82458">
        <ele>165.7</ele>
        <time>2011-09-11T08:35:32Z</time>
      </trkpt>
      <trkpt lat="45.73806" lon="4.82466">
        <ele>165.9</ele>
        <time>2011-09-11T08:35:34Z</time>
      </trkpt>
      <trkpt lat="45.73817" lon="4.82473">
        <ele>166.1</ele>
        <time>2011-09-11T08:35:36Z</time>
      </trkpt>
      <trkpt lat="45.73827" lon="4.8248">
        <ele>166.3</ele>
        <time>2011-09-11T08:35:38Z</time>
      </trkpt>
      <trkpt lat="45.73837" lon="4.82487">
        <ele>166.3</ele>
        <time>2011-09-11T08:35:40Z</time>
      </trkpt>
      <trkpt lat="45.73847" lon="4.82494">
        <ele>166.3</ele>
        <time>2011-09-11T08:35:42Z</time>
      </trkpt>
      <trkpt lat="45.73857" lon="4.82504">
        <ele>166.3</ele>
        <time>2011-09-11T08:35:44Z</time>
      </trkpt>
      <trkpt lat="45.73866" lon="4.82514">
        <ele>166.3</ele>
        <time>2011-09-11T08:35:46Z</time>
      </trkpt>
      <trkpt lat="45.73876" lon="4.82524">
        <ele>166.1</ele>
        <time>2011-09-11T08:35:48Z</time>
      </trkpt>
      <trkpt lat="45.73886" lon="4.82535">
        <ele>165.9</ele>
        <time>2011-09-11T08:35:50Z</time>
      </trkpt>
      <trkpt lat="45.73896" lon="4.82545">
        <ele>165.7</ele>
        <time>2011-09-11T08:35:52Z</time>
      </trkpt>
      <trkpt lat="45.73906" lon="4.82554">
        <ele>165.5</ele>
        <time>2011-09-11T08:35:54Z</time>
      </trkpt>
      <trkpt lat="45.73916" lon="4.82563">
        <ele>165.4</ele>
        <time>2011-09-11T08:35:56Z</time>
      </trkpt>
      <trkpt lat="45.73926" lon="4.82572">
        <ele>165.2</ele>
        <time>2011-09-11T08:35:58Z</time>
      </trkpt>
      <trkpt lat="45.73935" lon="4.8258">
        <ele>165</ele>
        <time>2011-09-11T08:36:00Z</time>
      </trkpt>
      <trkpt lat="45.73945" lon="4.82589">
        <ele>165</ele>
        <time>2011-09-11T08:36:02Z</time>
      </trkpt>
      <trkpt lat="45.73954" lon="4.82597">
        <ele>165</ele>
        <time>2011-09-11T08:36:04Z</time>
      </trkpt>
      <trkpt lat="45.73962" lon="4.82606">
        <ele>165</ele>
        <time>2011-09-11T08:36:06Z</time>
      </trkpt>
      <trkpt lat="45.73972" lon="4.82615">
        <ele>165</ele>
        <time>2011-09-11T08:36:08Z</time>
      </trkpt>
      <trkpt lat="45.73982" lon="4.82623">
        <ele>165</ele>
        <time>2011-09-11T08:36:10Z</time>
      </trkpt>
      <trkpt lat="45.73992" lon="4.82631">
        <ele>165</ele>
        <time>2011-09-11T08:36:12Z</time>
      </trkpt>
      <trkpt lat="45.74002" lon="4.8264">
        <ele>165</ele>
        <time>2011-09-11T08:36:14Z</time>
      </trkpt>
      <trkpt lat="45.74012" lon="4.82647">
        <ele>165</ele>
        <time>2011-09-11T08:36:16Z</time>
      </trkpt>
      <trkpt lat="45.74022" lon="4.82654">
        <ele>165</ele>
        <time>2011-09-11T08:36:18Z</time>
      </trkpt>
      <trkpt lat="45.74032" lon="4.8266">
        <ele>165</ele>
        <time>2011-09-11T08:36:20Z</time>
      </trkpt>
      <trkpt lat="45.74041" lon="4.82667">
        <ele>165</ele>
        <time>2011-09-11T08:36:22Z</time>
      </trkpt>
      <trkpt lat="45.74051" lon="4.82674">
        <ele>165</ele>
        <time>2011-09-11T08:36:24Z</time>
      </trkpt>
      <trkpt lat="45.7406" lon="4.8268">
        <ele>165</ele>
        <time>2011-09-11T08:36:26Z</time>
      </trkpt>
      <trkpt lat="45.74068" lon="4.82685">
        <ele>165.6</ele>
        <time>2011-09-11T08:36:28Z</time>
      </trkpt>
      <trkpt lat="45.74077" lon="4.82692">
        <ele>166.3</ele>
        <time>2011-09-11T08:36:30Z</time>
      </trkpt>
      <trkpt lat="45.74086" lon="4.82698">
        <ele>166.3</ele>
        <time>2011-09-11T08:36:32Z</time>
      </trkpt>
      <trkpt lat="45.74095" lon="4.82704">
        <ele>166.3</ele>
        <time>2011-09-11T08:36:34Z</time>
      </trkpt>
      <trkpt lat="45.74105" lon="4.82711">
        <ele>166.3</ele>
        <time>2011-09-11T08:36:36Z</time>
      </trkpt>
      <trkpt lat="45.74115" lon="4.82718">
        <ele>166.3</ele>
        <time>2011-09-11T08:36:38Z</time>
      </trkpt>
      <trkpt lat="45.74126" lon="4.82726">
        <ele>166.3</ele>
        <time>2011-09-11T08:36:40Z</time>
      </trkpt>
      <trkpt lat="45.74138" lon="4.82733">
        <ele>166.3</ele>
        <time>2011-09-11T08:36:42Z</time>
      </trkpt>
      <trkpt lat="45.74148" lon="4.82743">
        <ele>166.3</ele>
        <time>2011-09-11T08:36:44Z</time>
      </trkpt>
      <trkpt lat="45.74158" lon="4.82754">
        <ele>166.3</ele>
        <time>2011-09-11T08:36:46Z</time>
      </trkpt>
      <trkpt lat="45.74169" lon="4.82763">
        <ele>166.3</ele>
        <time>2011-09-11T08:36:48Z</time>
      </trkpt>
      <trkpt lat="45.7418" lon="4.82772">
        <ele>165.6</ele>
        <time>2011-09-11T08:36:50Z</time>
      </trkpt>
      <trkpt lat="45.74191" lon="4.82782">
        <ele>165</ele>
        <time>2011-09-11T08:36:52Z</time>
      </trkpt>
      <trkpt lat="45.74202" lon="4.82791">
        <ele>165</ele>
        <time>2011-09-11T08:36:54Z</time>
      </trkpt>
      <trkpt lat="45.74211" lon="4.828">
        <ele>165</ele>
        <time>2011-09-11T08:36:56Z</time>
      </trkpt>
      <trkpt lat="45.74221" lon="4.82809">
        <ele>165</ele>
        <time>2011-09-11T08:36:58Z</time>
      </trkpt>
      <trkpt lat="45.74232" lon="4.82817">
        <ele>165</ele>
        <time>2011-09-11T08:37:00Z</time>
      </trkpt>
      <trkpt lat="45.74242" lon="4.82825">
        <ele>165</ele>
        <time>2011-09-11T08:37:02Z</time>
      </trkpt>
      <trkpt lat="45.74252" lon="4.82834">
        <ele>165</ele>
        <time>2011-09-11T08:37:04Z</time>
      </trkpt>
      <trkpt lat="45.74262" lon="4.82842">
        <ele>165</ele>
        <time>2011-09-11T08:37:06Z</time>
      </trkpt>
      <trkpt lat="45.74272" lon="4.8285">
        <ele>165</ele>
        <time>2011-09-11T08:37:08Z</time>
      </trkpt>
      <trkpt lat="45.74282" lon="4.82858">
        <ele>165</ele>
        <time>2011-09-11T08:37:10Z</time>
      </trkpt>
      <trkpt lat="45.74291" lon="4.82867">
        <ele>165</ele>
        <time>2011-09-11T08:37:12Z</time>
      </trkpt>
      <trkpt lat="45.74301" lon="4.82875">
        <ele>165</ele>
        <time>2011-09-11T08:37:14Z</time>
      </trkpt>
      <trkpt lat="45.7431" lon="4.82883">
        <ele>165</ele>
        <time>2011-09-11T08:37:16Z</time>
      </trkpt>
      <trkpt lat="45.74319" lon="4.82892">
        <ele>165</ele>
        <time>2011-09-11T08:37:18Z</time>
      </trkpt>
      <trkpt lat="45.74328" lon="4.82901">
        <ele>165</ele>
        <time>2011-09-11T08:37:20Z</time>
      </trkpt>
      <trkpt lat="45.74337" lon="4.82911">
        <ele>165</ele>
        <time>2011-09-11T08:37:22Z</time>
      </trkpt>
      <trkpt lat="45.74346" lon="4.8292">
        <ele>165</ele>
        <time>2011-09-11T08:37:24Z</time>
      </trkpt>
      <trkpt lat="45.74355" lon="4.82929">
        <ele>165</ele>
        <time>2011-09-11T08:37:26Z</time>
      </trkpt>
      <trkpt lat="45.74364" lon="4.82936">
        <ele>165</ele>
        <time>2011-09-11T08:37:28Z</time>
      </trkpt>
      <trkpt lat="45.74373" lon="4.82943">
        <ele>165</ele>
        <time>2011-09-11T08:37:30Z</time>
      </trkpt>
      <trkpt lat="45.74383" lon="4.82951">
        <ele>165</ele>
        <time>2011-09-11T08:37:32Z</time>
      </trkpt>
      <trkpt lat="45.74392" lon="4.82958">
        <ele>165</ele>
        <time>2011-09-11T08:37:34Z</time>
      </trkpt>
      <trkpt lat="45.74401" lon="4.82964">
        <ele>165</ele>
        <time>2011-09-11T08:37:36Z</time>
      </trkpt>
      <trkpt lat="45.7441" lon="4.82972">
        <ele>165</ele>
        <time>2011-09-11T08:37:38Z</time>
      </trkpt>
      <trkpt lat="45.7442" lon="4.8298">
        <ele>165</ele>
        <time>2011-09-11T08:37:40Z</time>
      </trkpt>
      <trkpt lat="45.74429" lon="4.82989">
        <ele>165</ele>
        <time>2011-09-11T08:37:42Z</time>
      </trkpt>
      <trkpt lat="45.74439" lon="4.82998">
        <ele>165</ele>
        <time>2011-09-11T08:37:44Z</time>
      </trkpt>
      <trkpt lat="45.74448" lon="4.83007">
        <ele>165</ele>
        <time>2011-09-11T08:37:46Z</time>
      </trkpt>
      <trkpt lat="45.74456" lon="4.83016">
        <ele>165</ele>
        <time>2011-09-11T08:37:48Z</time>
      </trkpt>
      <trkpt lat="45.74465" lon="4.83024">
        <ele>165</ele>
        <time>2011-09-11T08:37:50Z</time>
      </trkpt>
      <trkpt lat="45.74474" lon="4.83034">
        <ele>165</ele>
        <time>2011-09-11T08:37:52Z</time>
      </trkpt>
      <trkpt lat="45.74482" lon="4.83043">
        <ele>165</ele>
        <time>2011-09-11T08:37:54Z</time>
      </trkpt>
      <trkpt lat="45.74491" lon="4.83053">
        <ele>165</ele>
        <time>2011-09-11T08:37:56Z</time>
      </trkpt>
      <trkpt lat="45.745" lon="4.83061">
        <ele>165</ele>
        <time>2011-09-11T08:37:58Z</time>
      </trkpt>
      <trkpt lat="45.74511" lon="4.83071">
        <ele>165</ele>
        <time>2011-09-11T08:38:00Z</time>
      </trkpt>
      <trkpt lat="45.74522" lon="4.83084">
        <ele>165.4</ele>
        <time>2011-09-11T08:38:02Z</time>
      </trkpt>
      <trkpt lat="45.74533" lon="4.83096">
        <ele>165.7</ele>
        <time>2011-09-11T08:38:04Z</time>
      </trkpt>
      <trkpt lat="45.74544" lon="4.83109">
        <ele>166.1</ele>
        <time>2011-09-11T08:38:06Z</time>
      </trkpt>
      <trkpt lat="45.74555" lon="4.83121">
        <ele>166.5</ele>
        <time>2011-09-11T08:38:08Z</time>
      </trkpt>
      <trkpt lat="45.74567" lon="4.83133">
        <ele>166.5</ele>
        <time>2011-09-11T08:38:10Z</time>
      </trkpt>
      <trkpt lat="45.74579" lon="4.83145">
        <ele>166.5</ele>
        <time>2011-09-11T08:38:12Z</time>
      </trkpt>
      <trkpt lat="45.74592" lon="4.83156">
        <ele>166.5</ele>
        <time>2011-09-11T08:38:14Z</time>
      </trkpt>
      <trkpt lat="45.74603" lon="4.8317">
        <ele>166.5</ele>
        <time>2011-09-11T08:38:16Z</time>
      </trkpt>
      <trkpt lat="45.74615" lon="4.83182">
        <ele>166.5</ele>
        <time>2011-09-11T08:38:18Z</time>
      </trkpt>
      <trkpt lat="45.7463" lon="4.83193">
        <ele>166.6</ele>
        <time>2011-09-11T08:38:20Z</time>
      </trkpt>
      <trkpt lat="45.74638" lon="4.83198">
        <ele>166.8</ele>
        <time>2011-09-11T08:38:21Z</time>
      </trkpt>
      <trkpt lat="45.74646" lon="4.83204">
        <ele>166.6</ele>
        <time>2011-09-11T08:38:22Z</time>
      </trkpt>
      <trkpt lat="45.74655" lon="4.83211">
        <ele>166.3</ele>
        <time>2011-09-11T08:38:23Z</time>
      </trkpt>
      <trkpt lat="45.74662" lon="4.83218">
        <ele>165.9</ele>
        <time>2011-09-11T08:38:24Z</time>
      </trkpt>
      <trkpt lat="45.74676" lon="4.83231">
        <ele>165.5</ele>
        <time>2011-09-11T08:38:26Z</time>
      </trkpt>
      <trkpt lat="45.74688" lon="4.83243">
        <ele>165.5</ele>
        <time>2011-09-11T08:38:28Z</time>
      </trkpt>
      <trkpt lat="45.747" lon="4.83254">
        <ele>166.3</ele>
        <time>2011-09-11T08:38:30Z</time>
      </trkpt>
      <trkpt lat="45.74711" lon="4.83264">
        <ele>167</ele>
        <time>2011-09-11T08:38:32Z</time>
      </trkpt>
      <trkpt lat="45.74723" lon="4.83274">
        <ele>167.7</ele>
        <time>2011-09-11T08:38:34Z</time>
      </trkpt>
      <trkpt lat="45.74737" lon="4.83284">
        <ele>167.7</ele>
        <time>2011-09-11T08:38:36Z</time>
      </trkpt>
      <trkpt lat="45.74751" lon="4.83295">
        <ele>167.5</ele>
        <time>2011-09-11T08:38:38Z</time>
      </trkpt>
      <trkpt lat="45.74764" lon="4.83304">
        <ele>167.4</ele>
        <time>2011-09-11T08:38:40Z</time>
      </trkpt>
      <trkpt lat="45.74778" lon="4.83314">
        <ele>167.2</ele>
        <time>2011-09-11T08:38:42Z</time>
      </trkpt>
      <trkpt lat="45.74791" lon="4.83324">
        <ele>167.2</ele>
        <time>2011-09-11T08:38:44Z</time>
      </trkpt>
      <trkpt lat="45.74805" lon="4.83335">
        <ele>167.2</ele>
        <time>2011-09-11T08:38:46Z</time>
      </trkpt>
      <trkpt lat="45.74818" lon="4.83343">
        <ele>167.1</ele>
        <time>2011-09-11T08:38:48Z</time>
      </trkpt>
      <trkpt lat="45.74831" lon="4.83354">
        <ele>167</ele>
        <time>2011-09-11T08:38:50Z</time>
      </trkpt>
      <trkpt lat="45.74844" lon="4.83364">
        <ele>166.2</ele>
        <time>2011-09-11T08:38:52Z</time>
      </trkpt>
      <trkpt lat="45.74857" lon="4.83373">
        <ele>165.4</ele>
        <time>2011-09-11T08:38:54Z</time>
      </trkpt>
      <trkpt lat="45.7487" lon="4.83382">
        <ele>164.5</ele>
        <time>2011-09-11T08:38:56Z</time>
      </trkpt>
      <trkpt lat="45.74882" lon="4.83392">
        <ele>164.5</ele>
        <time>2011-09-11T08:38:58Z</time>
      </trkpt>
      <trkpt lat="45.74895" lon="4.83403">
        <ele>164.4</ele>
        <time>2011-09-11T08:39:00Z</time>
      </trkpt>
      <trkpt lat="45.74908" lon="4.83411">
        <ele>164.3</ele>
        <time>2011-09-11T08:39:02Z</time>
      </trkpt>
      <trkpt lat="45.74919" lon="4.83419">
        <ele>164.3</ele>
        <time>2011-09-11T08:39:04Z</time>
      </trkpt>
      <trkpt lat="45.7493" lon="4.83428">
        <ele>164.1</ele>
        <time>2011-09-11T08:39:06Z</time>
      </trkpt>
      <trkpt lat="45.74941" lon="4.83436">
        <ele>163.9</ele>
        <time>2011-09-11T08:39:08Z</time>
      </trkpt>
      <trkpt lat="45.74951" lon="4.83446">
        <ele>163.8</ele>
        <time>2011-09-11T08:39:10Z</time>
      </trkpt>
      <trkpt lat="45.74961" lon="4.83454">
        <ele>163.7</ele>
        <time>2011-09-11T08:39:12Z</time>
      </trkpt>
      <trkpt lat="45.74971" lon="4.83462">
        <ele>163.6</ele>
        <time>2011-09-11T08:39:14Z</time>
      </trkpt>
      <trkpt lat="45.74982" lon="4.8347">
        <ele>163.5</ele>
        <time>2011-09-11T08:39:16Z</time>
      </trkpt>
      <trkpt lat="45.74993" lon="4.83478">
        <ele>163.5</ele>
        <time>2011-09-11T08:39:18Z</time>
      </trkpt>
      <trkpt lat="45.75005" lon="4.83487">
        <ele>163.5</ele>
        <time>2011-09-11T08:39:20Z</time>
      </trkpt>
      <trkpt lat="45.75015" lon="4.83496">
        <ele>163.6</ele>
        <time>2011-09-11T08:39:22Z</time>
      </trkpt>
      <trkpt lat="45.75025" lon="4.83504">
        <ele>163.7</ele>
        <time>2011-09-11T08:39:24Z</time>
      </trkpt>
      <trkpt lat="45.75033" lon="4.83514">
        <ele>163.7</ele>
        <time>2011-09-11T08:39:26Z</time>
      </trkpt>
      <trkpt lat="45.75043" lon="4.83525">
        <ele>163.9</ele>
        <time>2011-09-11T08:39:28Z</time>
      </trkpt>
      <trkpt lat="45.75052" lon="4.83535">
        <ele>164.1</ele>
        <time>2011-09-11T08:39:30Z</time>
      </trkpt>
      <trkpt lat="45.75064" lon="4.83546">
        <ele>164.3</ele>
        <time>2011-09-11T08:39:32Z</time>
      </trkpt>
      <trkpt lat="45.75076" lon="4.83556">
        <ele>164.5</ele>
        <time>2011-09-11T08:39:34Z</time>
      </trkpt>
      <trkpt lat="45.75088" lon="4.83566">
        <ele>164.6</ele>
        <time>2011-09-11T08:39:36Z</time>
      </trkpt>
      <trkpt lat="45.75101" lon="4.83576">
        <ele>164.8</ele>
        <time>2011-09-11T08:39:38Z</time>
      </trkpt>
      <trkpt lat="45.75114" lon="4.83585">
        <ele>165</ele>
        <time>2011-09-11T08:39:40Z</time>
      </trkpt>
      <trkpt lat="45.75126" lon="4.83593">
        <ele>165.3</ele>
        <time>2011-09-11T08:39:42Z</time>
      </trkpt>
      <trkpt lat="45.75138" lon="4.836">
        <ele>165.3</ele>
        <time>2011-09-11T08:39:44Z</time>
      </trkpt>
      <trkpt lat="45.75148" lon="4.83608">
        <ele>165.3</ele>
        <time>2011-09-11T08:39:46Z</time>
      </trkpt>
      <trkpt lat="45.75156" lon="4.83616">
        <ele>165.5</ele>
        <time>2011-09-11T08:39:48Z</time>
      </trkpt>
      <trkpt lat="45.75163" lon="4.83627">
        <ele>165.8</ele>
        <time>2011-09-11T08:39:51Z</time>
      </trkpt>
      <trkpt lat="45.75154" lon="4.83633">
        <ele>166.1</ele>
        <time>2011-09-11T08:39:57Z</time>
      </trkpt>
      <trkpt lat="45.75143" lon="4.83627">
        <ele>166.4</ele>
        <time>2011-09-11T08:40:01Z</time>
      </trkpt>
      <trkpt lat="45.75134" lon="4.83621">
        <ele>166.6</ele>
        <time>2011-09-11T08:40:04Z</time>
      </trkpt>
      <trkpt lat="45.75136" lon="4.83636">
        <ele>166.9</ele>
        <time>2011-09-11T08:40:14Z</time>
      </trkpt>
      <trkpt lat="45.75146" lon="4.83647">
        <ele>167.2</ele>
        <time>2011-09-11T08:40:17Z</time>
      </trkpt>
      <trkpt lat="45.75156" lon="4.83653">
        <ele>167.5</ele>
        <time>2011-09-11T08:40:22Z</time>
      </trkpt>
      <trkpt lat="45.75166" lon="4.83657">
        <ele>167.2</ele>
        <time>2011-09-11T08:40:26Z</time>
      </trkpt>
      <trkpt lat="45.75178" lon="4.83656">
        <ele>167.2</ele>
        <time>2011-09-11T08:40:29Z</time>
      </trkpt>
      <trkpt lat="45.75192" lon="4.83651">
        <ele>167.2</ele>
        <time>2011-09-11T08:40:32Z</time>
      </trkpt>
      <trkpt lat="45.75199" lon="4.83643">
        <ele>166.9</ele>
        <time>2011-09-11T08:40:34Z</time>
      </trkpt>
      <trkpt lat="45.75207" lon="4.83631">
        <ele>166.6</ele>
        <time>2011-09-11T08:40:36Z</time>
      </trkpt>
      <trkpt lat="45.75213" lon="4.83618">
        <ele>166.4</ele>
        <time>2011-09-11T08:40:38Z</time>
      </trkpt>
      <trkpt lat="45.75218" lon="4.83607">
        <ele>166.1</ele>
        <time>2011-09-11T08:40:40Z</time>
      </trkpt>
      <trkpt lat="45.75225" lon="4.83592">
        <ele>165.8</ele>
        <time>2011-09-11T08:40:43Z</time>
      </trkpt>
      <trkpt lat="45.7523" lon="4.83575">
        <ele>165.5</ele>
        <time>2011-09-11T08:40:46Z</time>
      </trkpt>
      <trkpt lat="45.75237" lon="4.83558">
        <ele>165.3</ele>
        <time>2011-09-11T08:40:49Z</time>
      </trkpt>
      <trkpt lat="45.75241" lon="4.83545">
        <ele>165</ele>
        <time>2011-09-11T08:40:51Z</time>
      </trkpt>
      <trkpt lat="45.75245" lon="4.83533">
        <ele>165</ele>
        <time>2011-09-11T08:40:53Z</time>
      </trkpt>
      <trkpt lat="45.75249" lon="4.83521">
        <ele>165</ele>
        <time>2011-09-11T08:40:55Z</time>
      </trkpt>
      <trkpt lat="45.75253" lon="4.83509">
        <ele>165</ele>
        <time>2011-09-11T08:40:57Z</time>
      </trkpt>
      <trkpt lat="45.75258" lon="4.83498">
        <ele>165</ele>
        <time>2011-09-11T08:40:59Z</time>
      </trkpt>
      <trkpt lat="45.75264" lon="4.83486">
        <ele>165</ele>
        <time>2011-09-11T08:41:01Z</time>
      </trkpt>
      <trkpt lat="45.7527" lon="4.83473">
        <ele>165</ele>
        <time>2011-09-11T08:41:03Z</time>
      </trkpt>
      <trkpt lat="45.75276" lon="4.83458">
        <ele>165</ele>
        <time>2011-09-11T08:41:05Z</time>
      </trkpt>
      <trkpt lat="45.75282" lon="4.83444">
        <ele>165.6</ele>
        <time>2011-09-11T08:41:07Z</time>
      </trkpt>
      <trkpt lat="45.75287" lon="4.8343">
        <ele>166.3</ele>
        <time>2011-09-11T08:41:09Z</time>
      </trkpt>
      <trkpt lat="45.75292" lon="4.83418">
        <ele>166.9</ele>
        <time>2011-09-11T08:41:11Z</time>
      </trkpt>
      <trkpt lat="45.75287" lon="4.83401">
        <ele>167.5</ele>
        <time>2011-09-11T08:41:14Z</time>
      </trkpt>
      <trkpt lat="45.75278" lon="4.83391">
        <ele>168.2</ele>
        <time>2011-09-11T08:41:16Z</time>
      </trkpt>
      <trkpt lat="45.75268" lon="4.83383">
        <ele>168.8</ele>
        <time>2011-09-11T08:41:18Z</time>
      </trkpt>
      <trkpt lat="45.75257" lon="4.83376">
        <ele>169.3</ele>
        <time>2011-09-11T08:41:20Z</time>
      </trkpt>
      <trkpt lat="45.75246" lon="4.83368">
        <ele>169.7</ele>
        <time>2011-09-11T08:41:22Z</time>
      </trkpt>
      <trkpt lat="45.75236" lon="4.8336">
        <ele>170.2</ele>
        <time>2011-09-11T08:41:24Z</time>
      </trkpt>
      <trkpt lat="45.75226" lon="4.83353">
        <ele>170.6</ele>
        <time>2011-09-11T08:41:26Z</time>
      </trkpt>
      <trkpt lat="45.75216" lon="4.83346">
        <ele>171.1</ele>
        <time>2011-09-11T08:41:28Z</time>
      </trkpt>
      <trkpt lat="45.75206" lon="4.83339">
        <ele>170.9</ele>
        <time>2011-09-11T08:41:30Z</time>
      </trkpt>
      <trkpt lat="45.75196" lon="4.83333">
        <ele>171.1</ele>
        <time>2011-09-11T08:41:32Z</time>
      </trkpt>
      <trkpt lat="45.75185" lon="4.83326">
        <ele>171.3</ele>
        <time>2011-09-11T08:41:34Z</time>
      </trkpt>
      <trkpt lat="45.75175" lon="4.83319">
        <ele>170.9</ele>
        <time>2011-09-11T08:41:36Z</time>
      </trkpt>
      <trkpt lat="45.75165" lon="4.83313">
        <ele>170.5</ele>
        <time>2011-09-11T08:41:38Z</time>
      </trkpt>
      <trkpt lat="45.75154" lon="4.83305">
        <ele>170.2</ele>
        <time>2011-09-11T08:41:40Z</time>
      </trkpt>
      <trkpt lat="45.75144" lon="4.83297">
        <ele>170</ele>
        <time>2011-09-11T08:41:42Z</time>
      </trkpt>
      <trkpt lat="45.75133" lon="4.8329">
        <ele>169.8</ele>
        <time>2011-09-11T08:41:44Z</time>
      </trkpt>
      <trkpt lat="45.75123" lon="4.83282">
        <ele>169.6</ele>
        <time>2011-09-11T08:41:46Z</time>
      </trkpt>
      <trkpt lat="45.75112" lon="4.83275">
        <ele>169.5</ele>
        <time>2011-09-11T08:41:48Z</time>
      </trkpt>
      <trkpt lat="45.75103" lon="4.8327">
        <ele>169.3</ele>
        <time>2011-09-11T08:41:50Z</time>
      </trkpt>
      <trkpt lat="45.75094" lon="4.83264">
        <ele>169.6</ele>
        <time>2011-09-11T08:41:52Z</time>
      </trkpt>
      <trkpt lat="45.75084" lon="4.83258">
        <ele>169.3</ele>
        <time>2011-09-11T08:41:56Z</time>
      </trkpt>
      <trkpt lat="45.75094" lon="4.83266">
        <ele>168.9</ele>
        <time>2011-09-11T08:42:07Z</time>
      </trkpt>
      <trkpt lat="45.75107" lon="4.83277">
        <ele>169.1</ele>
        <time>2011-09-11T08:42:09Z</time>
      </trkpt>
      <trkpt lat="45.7512" lon="4.83289">
        <ele>169.3</ele>
        <time>2011-09-11T08:42:11Z</time>
      </trkpt>
      <trkpt lat="45.75132" lon="4.83299">
        <ele>169.5</ele>
        <time>2011-09-11T08:42:13Z</time>
      </trkpt>
      <trkpt lat="45.75142" lon="4.83308">
        <ele>169.6</ele>
        <time>2011-09-11T08:42:15Z</time>
      </trkpt>
      <trkpt lat="45.75152" lon="4.83316">
        <ele>169.8</ele>
        <time>2011-09-11T08:42:17Z</time>
      </trkpt>
      <trkpt lat="45.75162" lon="4.83324">
        <ele>170.2</ele>
        <time>2011-09-11T08:42:19Z</time>
      </trkpt>
      <trkpt lat="45.75172" lon="4.83331">
        <ele>170.5</ele>
        <time>2011-09-11T08:42:21Z</time>
      </trkpt>
      <trkpt lat="45.75182" lon="4.83339">
        <ele>170.9</ele>
        <time>2011-09-11T08:42:23Z</time>
      </trkpt>
      <trkpt lat="45.75191" lon="4.83346">
        <ele>170.7</ele>
        <time>2011-09-11T08:42:25Z</time>
      </trkpt>
      <trkpt lat="45.75201" lon="4.83354">
        <ele>170.3</ele>
        <time>2011-09-11T08:42:27Z</time>
      </trkpt>
      <trkpt lat="45.75211" lon="4.8336">
        <ele>169.8</ele>
        <time>2011-09-11T08:42:29Z</time>
      </trkpt>
      <trkpt lat="45.75221" lon="4.83367">
        <ele>169.4</ele>
        <time>2011-09-11T08:42:31Z</time>
      </trkpt>
      <trkpt lat="45.75232" lon="4.83375">
        <ele>168.9</ele>
        <time>2011-09-11T08:42:33Z</time>
      </trkpt>
      <trkpt lat="45.75242" lon="4.83382">
        <ele>169</ele>
        <time>2011-09-11T08:42:35Z</time>
      </trkpt>
      <trkpt lat="45.75253" lon="4.8339">
        <ele>169.1</ele>
        <time>2011-09-11T08:42:37Z</time>
      </trkpt>
      <trkpt lat="45.75263" lon="4.83398">
        <ele>169.2</ele>
        <time>2011-09-11T08:42:39Z</time>
      </trkpt>
      <trkpt lat="45.75273" lon="4.83407">
        <ele>169.1</ele>
        <time>2011-09-11T08:42:41Z</time>
      </trkpt>
      <trkpt lat="45.75284" lon="4.8341">
        <ele>169</ele>
        <time>2011-09-11T08:42:44Z</time>
      </trkpt>
      <trkpt lat="45.7531" lon="4.83395">
        <ele>168.9</ele>
        <time>2011-09-11T08:42:52Z</time>
      </trkpt>
      <trkpt lat="45.75321" lon="4.83416">
        <ele>168.3</ele>
        <time>2011-09-11T08:42:54Z</time>
      </trkpt>
      <trkpt lat="45.75329" lon="4.8343">
        <ele>168.4</ele>
        <time>2011-09-11T08:42:55Z</time>
      </trkpt>
      <trkpt lat="45.75341" lon="4.83444">
        <ele>168.5</ele>
        <time>2011-09-11T08:42:57Z</time>
      </trkpt>
      <trkpt lat="45.75352" lon="4.83452">
        <ele>168.5</ele>
        <time>2011-09-11T08:42:59Z</time>
      </trkpt>
      <trkpt lat="45.75364" lon="4.83459">
        <ele>168.6</ele>
        <time>2011-09-11T08:43:01Z</time>
      </trkpt>
      <trkpt lat="45.75376" lon="4.83467">
        <ele>168.2</ele>
        <time>2011-09-11T08:43:03Z</time>
      </trkpt>
      <trkpt lat="45.75387" lon="4.83475">
        <ele>167.7</ele>
        <time>2011-09-11T08:43:05Z</time>
      </trkpt>
      <trkpt lat="45.75399" lon="4.83483">
        <ele>167.3</ele>
        <time>2011-09-11T08:43:07Z</time>
      </trkpt>
      <trkpt lat="45.75409" lon="4.83491">
        <ele>166.8</ele>
        <time>2011-09-11T08:43:09Z</time>
      </trkpt>
      <trkpt lat="45.7542" lon="4.83498">
        <ele>166.7</ele>
        <time>2011-09-11T08:43:11Z</time>
      </trkpt>
      <trkpt lat="45.7543" lon="4.83505">
        <ele>166.6</ele>
        <time>2011-09-11T08:43:13Z</time>
      </trkpt>
      <trkpt lat="45.75442" lon="4.83513">
        <ele>167.1</ele>
        <time>2011-09-11T08:43:16Z</time>
      </trkpt>
      <trkpt lat="45.75453" lon="4.8352">
        <ele>167</ele>
        <time>2011-09-11T08:43:19Z</time>
      </trkpt>
      <trkpt lat="45.75463" lon="4.83527">
        <ele>166.9</ele>
        <time>2011-09-11T08:43:22Z</time>
      </trkpt>
      <trkpt lat="45.75474" lon="4.83534">
        <ele>166.8</ele>
        <time>2011-09-11T08:43:25Z</time>
      </trkpt>
      <trkpt lat="45.75485" lon="4.83541">
        <ele>166.7</ele>
        <time>2011-09-11T08:43:28Z</time>
      </trkpt>
      <trkpt lat="45.75495" lon="4.83548">
        <ele>166.6</ele>
        <time>2011-09-11T08:43:31Z</time>
      </trkpt>
      <trkpt lat="45.75506" lon="4.83555">
        <ele>167.1</ele>
        <time>2011-09-11T08:43:34Z</time>
      </trkpt>
      <trkpt lat="45.75516" lon="4.83565">
        <ele>167.5</ele>
        <time>2011-09-11T08:43:37Z</time>
      </trkpt>
      <trkpt lat="45.75528" lon="4.83575">
        <ele>168</ele>
        <time>2011-09-11T08:43:40Z</time>
      </trkpt>
      <trkpt lat="45.75537" lon="4.83581">
        <ele>168.1</ele>
        <time>2011-09-11T08:43:42Z</time>
      </trkpt>
      <trkpt lat="45.75545" lon="4.83586">
        <ele>168.2</ele>
        <time>2011-09-11T08:43:44Z</time>
      </trkpt>
      <trkpt lat="45.75553" lon="4.83592">
        <ele>168.3</ele>
        <time>2011-09-11T08:43:47Z</time>
      </trkpt>
      <trkpt lat="45.75564" lon="4.83597">
        <ele>168.8</ele>
        <time>2011-09-11T08:43:51Z</time>
      </trkpt>
      <trkpt lat="45.75573" lon="4.83592">
        <ele>169.4</ele>
        <time>2011-09-11T08:43:54Z</time>
      </trkpt>
      <trkpt lat="45.75583" lon="4.83582">
        <ele>169.9</ele>
        <time>2011-09-11T08:43:57Z</time>
      </trkpt>
      <trkpt lat="45.75588" lon="4.83571">
        <ele>170.5</ele>
        <time>2011-09-11T08:43:59Z</time>
      </trkpt>
      <trkpt lat="45.75593" lon="4.83558">
        <ele>171</ele>
        <time>2011-09-11T08:44:01Z</time>
      </trkpt>
      <trkpt lat="45.75597" lon="4.83545">
        <ele>171</ele>
        <time>2011-09-11T08:44:03Z</time>
      </trkpt>
      <trkpt lat="45.75605" lon="4.83537">
        <ele>171.1</ele>
        <time>2011-09-11T08:44:05Z</time>
      </trkpt>
      <trkpt lat="45.75613" lon="4.83523">
        <ele>171.2</ele>
        <time>2011-09-11T08:44:08Z</time>
      </trkpt>
      <trkpt lat="45.75618" lon="4.8351">
        <ele>171.3</ele>
        <time>2011-09-11T08:44:10Z</time>
      </trkpt>
      <trkpt lat="45.75621" lon="4.83496">
        <ele>171.4</ele>
        <time>2011-09-11T08:44:12Z</time>
      </trkpt>
      <trkpt lat="45.75625" lon="4.8348">
        <ele>171.5</ele>
        <time>2011-09-11T08:44:14Z</time>
      </trkpt>
      <trkpt lat="45.75629" lon="4.83465">
        <ele>171.5</ele>
        <time>2011-09-11T08:44:16Z</time>
      </trkpt>
      <trkpt lat="45.75635" lon="4.83452">
        <ele>171.6</ele>
        <time>2011-09-11T08:44:19Z</time>
      </trkpt>
      <trkpt lat="45.75635" lon="4.83437">
        <ele>171.7</ele>
        <time>2011-09-11T08:44:24Z</time>
      </trkpt>
      <trkpt lat="45.75637" lon="4.83423">
        <ele>171.8</ele>
        <time>2011-09-11T08:44:27Z</time>
      </trkpt>
      <trkpt lat="45.75638" lon="4.83408">
        <ele>171.9</ele>
        <time>2011-09-11T08:44:29Z</time>
      </trkpt>
      <trkpt lat="45.7564" lon="4.83391">
        <ele>172</ele>
        <time>2011-09-11T08:44:31Z</time>
      </trkpt>
      <trkpt lat="45.75641" lon="4.83373">
        <ele>172</ele>
        <time>2011-09-11T08:44:33Z</time>
      </trkpt>
      <trkpt lat="45.75645" lon="4.83359">
        <ele>172.3</ele>
        <time>2011-09-11T08:44:35Z</time>
      </trkpt>
      <trkpt lat="45.75651" lon="4.83348">
        <ele>172.5</ele>
        <time>2011-09-11T08:44:37Z</time>
      </trkpt>
      <trkpt lat="45.75656" lon="4.83334">
        <ele>172.8</ele>
        <time>2011-09-11T08:44:39Z</time>
      </trkpt>
      <trkpt lat="45.7566" lon="4.83318">
        <ele>173.1</ele>
        <time>2011-09-11T08:44:41Z</time>
      </trkpt>
      <trkpt lat="45.75663" lon="4.83303">
        <ele>173.4</ele>
        <time>2011-09-11T08:44:43Z</time>
      </trkpt>
      <trkpt lat="45.75667" lon="4.83289">
        <ele>173.6</ele>
        <time>2011-09-11T08:44:45Z</time>
      </trkpt>
      <trkpt lat="45.7567" lon="4.83276">
        <ele>173.9</ele>
        <time>2011-09-11T08:44:47Z</time>
      </trkpt>
      <trkpt lat="45.75673" lon="4.83263">
        <ele>174.2</ele>
        <time>2011-09-11T08:44:49Z</time>
      </trkpt>
      <trkpt lat="45.75676" lon="4.83248">
        <ele>174.5</ele>
        <time>2011-09-11T08:44:51Z</time>
      </trkpt>
      <trkpt lat="45.75678" lon="4.83234">
        <ele>174.7</ele>
        <time>2011-09-11T08:44:53Z</time>
      </trkpt>
      <trkpt lat="45.7568" lon="4.83219">
        <ele>175</ele>
        <time>2011-09-11T08:44:55Z</time>
      </trkpt>
      <trkpt lat="45.75684" lon="4.83201">
        <ele>175.3</ele>
        <time>2011-09-11T08:44:58Z</time>
      </trkpt>
      <trkpt lat="45.75686" lon="4.83188">
        <ele>175.5</ele>
        <time>2011-09-11T08:45:00Z</time>
      </trkpt>
      <trkpt lat="45.75689" lon="4.83175">
        <ele>175.8</ele>
        <time>2011-09-11T08:45:02Z</time>
      </trkpt>
      <trkpt lat="45.75691" lon="4.8316">
        <ele>176.1</ele>
        <time>2011-09-11T08:45:04Z</time>
      </trkpt>
      <trkpt lat="45.75694" lon="4.83147">
        <ele>176.4</ele>
        <time>2011-09-11T08:45:06Z</time>
      </trkpt>
      <trkpt lat="45.75697" lon="4.83134">
        <ele>176.6</ele>
        <time>2011-09-11T08:45:08Z</time>
      </trkpt>
      <trkpt lat="45.757" lon="4.8312">
        <ele>176.9</ele>
        <time>2011-09-11T08:45:10Z</time>
      </trkpt>
      <trkpt lat="45.75702" lon="4.83106">
        <ele>177.2</ele>
        <time>2011-09-11T08:45:12Z</time>
      </trkpt>
      <trkpt lat="45.75704" lon="4.83092">
        <ele>177.5</ele>
        <time>2011-09-11T08:45:14Z</time>
      </trkpt>
      <trkpt lat="45.75706" lon="4.83078">
        <ele>177.9</ele>
        <time>2011-09-11T08:45:17Z</time>
      </trkpt>
      <trkpt lat="45.75703" lon="4.83064">
        <ele>178.3</ele>
        <time>2011-09-11T08:45:22Z</time>
      </trkpt>
      <trkpt lat="45.75694" lon="4.83059">
        <ele>178.4</ele>
        <time>2011-09-11T08:45:25Z</time>
      </trkpt>
      <trkpt lat="45.75684" lon="4.83059">
        <ele>178.5</ele>
        <time>2011-09-11T08:45:28Z</time>
      </trkpt>
      <trkpt lat="45.75671" lon="4.83055">
        <ele>178.6</ele>
        <time>2011-09-11T08:45:31Z</time>
      </trkpt>
      <trkpt lat="45.7566" lon="4.83049">
        <ele>178.8</ele>
        <time>2011-09-11T08:45:34Z</time>
      </trkpt>
      <trkpt lat="45.75651" lon="4.83044">
        <ele>179</ele>
        <time>2011-09-11T08:45:36Z</time>
      </trkpt>
      <trkpt lat="45.75641" lon="4.83039">
        <ele>179.2</ele>
        <time>2011-09-11T08:45:38Z</time>
      </trkpt>
      <trkpt lat="45.75631" lon="4.83035">
        <ele>179.4</ele>
        <time>2011-09-11T08:45:40Z</time>
      </trkpt>
      <trkpt lat="45.75621" lon="4.83031">
        <ele>179.5</ele>
        <time>2011-09-11T08:45:42Z</time>
      </trkpt>
      <trkpt lat="45.75611" lon="4.83027">
        <ele>179.6</ele>
        <time>2011-09-11T08:45:44Z</time>
      </trkpt>
      <trkpt lat="45.756" lon="4.83024">
        <ele>179.7</ele>
        <time>2011-09-11T08:45:46Z</time>
      </trkpt>
      <trkpt lat="45.7559" lon="4.83022">
        <ele>179.8</ele>
        <time>2011-09-11T08:45:48Z</time>
      </trkpt>
      <trkpt lat="45.75579" lon="4.83019">
        <ele>179.9</ele>
        <time>2011-09-11T08:45:50Z</time>
      </trkpt>
      <trkpt lat="45.75569" lon="4.83016">
        <ele>180</ele>
        <time>2011-09-11T08:45:52Z</time>
      </trkpt>
      <trkpt lat="45.75575" lon="4.83004">
        <ele>180</ele>
        <time>2011-09-11T08:45:56Z</time>
      </trkpt>
      <trkpt lat="45.75586" lon="4.82997">
        <ele>180</ele>
        <time>2011-09-11T08:45:58Z</time>
      </trkpt>
      <trkpt lat="45.75596" lon="4.82991">
        <ele>179.6</ele>
        <time>2011-09-11T08:46:00Z</time>
      </trkpt>
      <trkpt lat="45.75607" lon="4.82986">
        <ele>179.3</ele>
        <time>2011-09-11T08:46:02Z</time>
      </trkpt>
      <trkpt lat="45.75605" lon="4.82973">
        <ele>179</ele>
        <time>2011-09-11T08:46:09Z</time>
      </trkpt>
      <trkpt lat="45.75596" lon="4.82967">
        <ele>178.7</ele>
        <time>2011-09-11T08:46:10Z</time>
      </trkpt>
      <trkpt lat="45.75587" lon="4.82961">
        <ele>178.5</ele>
        <time>2011-09-11T08:46:11Z</time>
      </trkpt>
      <trkpt lat="45.75572" lon="4.82951">
        <ele>178.2</ele>
        <time>2011-09-11T08:46:13Z</time>
      </trkpt>
      <trkpt lat="45.75554" lon="4.82939">
        <ele>177.9</ele>
        <time>2011-09-11T08:46:15Z</time>
      </trkpt>
      <trkpt lat="45.75544" lon="4.8293">
        <ele>177.6</ele>
        <time>2011-09-11T08:46:16Z</time>
      </trkpt>
      <trkpt lat="45.75535" lon="4.82923">
        <ele>177.4</ele>
        <time>2011-09-11T08:46:17Z</time>
      </trkpt>
      <trkpt lat="45.75524" lon="4.82911">
        <ele>177.1</ele>
        <time>2011-09-11T08:46:19Z</time>
      </trkpt>
      <trkpt lat="45.7552" lon="4.82895">
        <ele>176.8</ele>
        <time>2011-09-11T08:46:21Z</time>
      </trkpt>
      <trkpt lat="45.75523" lon="4.82878">
        <ele>176.8</ele>
        <time>2011-09-11T08:46:23Z</time>
      </trkpt>
      <trkpt lat="45.75528" lon="4.82861">
        <ele>177.3</ele>
        <time>2011-09-11T08:46:25Z</time>
      </trkpt>
      <trkpt lat="45.75534" lon="4.82844">
        <ele>177.6</ele>
        <time>2011-09-11T08:46:27Z</time>
      </trkpt>
      <trkpt lat="45.7554" lon="4.82827">
        <ele>178</ele>
        <time>2011-09-11T08:46:29Z</time>
      </trkpt>
      <trkpt lat="45.75546" lon="4.82811">
        <ele>178.4</ele>
        <time>2011-09-11T08:46:31Z</time>
      </trkpt>
      <trkpt lat="45.75553" lon="4.82797">
        <ele>178.7</ele>
        <time>2011-09-11T08:46:33Z</time>
      </trkpt>
      <trkpt lat="45.7556" lon="4.82783">
        <ele>179.1</ele>
        <time>2011-09-11T08:46:35Z</time>
      </trkpt>
      <trkpt lat="45.75565" lon="4.82769">
        <ele>179.5</ele>
        <time>2011-09-11T08:46:37Z</time>
      </trkpt>
      <trkpt lat="45.7557" lon="4.82758">
        <ele>179.7</ele>
        <time>2011-09-11T08:46:39Z</time>
      </trkpt>
      <trkpt lat="45.75577" lon="4.82745">
        <ele>180.2</ele>
        <time>2011-09-11T08:46:43Z</time>
      </trkpt>
      <trkpt lat="45.7557" lon="4.82735">
        <ele>180.6</ele>
        <time>2011-09-11T08:46:45Z</time>
      </trkpt>
      <trkpt lat="45.75564" lon="4.82725">
        <ele>181.2</ele>
        <time>2011-09-11T08:46:47Z</time>
      </trkpt>
      <trkpt lat="45.75558" lon="4.82713">
        <ele>181.3</ele>
        <time>2011-09-11T08:46:49Z</time>
      </trkpt>
      <trkpt lat="45.7555" lon="4.82696">
        <ele>181.4</ele>
        <time>2011-09-11T08:46:52Z</time>
      </trkpt>
      <trkpt lat="45.75543" lon="4.82686">
        <ele>181.5</ele>
        <time>2011-09-11T08:46:54Z</time>
      </trkpt>
      <trkpt lat="45.75531" lon="4.82677">
        <ele>181.5</ele>
        <time>2011-09-11T08:46:57Z</time>
      </trkpt>
      <trkpt lat="45.75521" lon="4.82672">
        <ele>181.6</ele>
        <time>2011-09-11T08:46:59Z</time>
      </trkpt>
      <trkpt lat="45.75512" lon="4.82666">
        <ele>181.4</ele>
        <time>2011-09-11T08:47:01Z</time>
      </trkpt>
      <trkpt lat="45.75503" lon="4.8266">
        <ele>181.2</ele>
        <time>2011-09-11T08:47:03Z</time>
      </trkpt>
      <trkpt lat="45.75495" lon="4.82654">
        <ele>181.1</ele>
        <time>2011-09-11T08:47:05Z</time>
      </trkpt>
      <trkpt lat="45.75486" lon="4.82649">
        <ele>180.8</ele>
        <time>2011-09-11T08:47:07Z</time>
      </trkpt>
      <trkpt lat="45.75475" lon="4.8264">
        <ele>180.5</ele>
        <time>2011-09-11T08:47:10Z</time>
      </trkpt>
      <trkpt lat="45.75462" lon="4.82633">
        <ele>180.3</ele>
        <time>2011-09-11T08:47:13Z</time>
      </trkpt>
      <trkpt lat="45.75455" lon="4.82623">
        <ele>180</ele>
        <time>2011-09-11T08:47:15Z</time>
      </trkpt>
      <trkpt lat="45.75446" lon="4.82613">
        <ele>179.7</ele>
        <time>2011-09-11T08:47:18Z</time>
      </trkpt>
      <trkpt lat="45.75435" lon="4.82607">
        <ele>178.2</ele>
        <time>2011-09-11T08:47:22Z</time>
      </trkpt>
      <trkpt lat="45.75439" lon="4.82591">
        <ele>176.6</ele>
        <time>2011-09-11T08:47:27Z</time>
      </trkpt>
      <trkpt lat="45.75434" lon="4.82581">
        <ele>175.1</ele>
        <time>2011-09-11T08:47:29Z</time>
      </trkpt>
      <trkpt lat="45.75425" lon="4.82572">
        <ele>174.5</ele>
        <time>2011-09-11T08:47:31Z</time>
      </trkpt>
      <trkpt lat="45.75416" lon="4.82561">
        <ele>173.7</ele>
        <time>2011-09-11T08:47:33Z</time>
      </trkpt>
      <trkpt lat="45.75407" lon="4.82546">
        <ele>173</ele>
        <time>2011-09-11T08:47:35Z</time>
      </trkpt>
      <trkpt lat="45.75396" lon="4.82533">
        <ele>172.3</ele>
        <time>2011-09-11T08:47:37Z</time>
      </trkpt>
      <trkpt lat="45.75385" lon="4.82525">
        <ele>171.5</ele>
        <time>2011-09-11T08:47:39Z</time>
      </trkpt>
      <trkpt lat="45.75372" lon="4.82517">
        <ele>170.8</ele>
        <time>2011-09-11T08:47:41Z</time>
      </trkpt>
      <trkpt lat="45.75358" lon="4.8251">
        <ele>170.5</ele>
        <time>2011-09-11T08:47:43Z</time>
      </trkpt>
      <trkpt lat="45.75344" lon="4.82502">
        <ele>170.3</ele>
        <time>2011-09-11T08:47:45Z</time>
      </trkpt>
      <trkpt lat="45.75331" lon="4.82497">
        <ele>170.8</ele>
        <time>2011-09-11T08:47:47Z</time>
      </trkpt>
      <trkpt lat="45.75318" lon="4.82493">
        <ele>171.4</ele>
        <time>2011-09-11T08:47:49Z</time>
      </trkpt>
      <trkpt lat="45.75305" lon="4.82488">
        <ele>171.9</ele>
        <time>2011-09-11T08:47:51Z</time>
      </trkpt>
      <trkpt lat="45.75291" lon="4.8248">
        <ele>171.9</ele>
        <time>2011-09-11T08:47:53Z</time>
      </trkpt>
      <trkpt lat="45.75277" lon="4.82472">
        <ele>172</ele>
        <time>2011-09-11T08:47:55Z</time>
      </trkpt>
      <trkpt lat="45.75263" lon="4.82463">
        <ele>172.1</ele>
        <time>2011-09-11T08:47:57Z</time>
      </trkpt>
      <trkpt lat="45.75249" lon="4.82455">
        <ele>172.2</ele>
        <time>2011-09-11T08:47:59Z</time>
      </trkpt>
      <trkpt lat="45.75235" lon="4.82446">
        <ele>172.3</ele>
        <time>2011-09-11T08:48:01Z</time>
      </trkpt>
      <trkpt lat="45.75222" lon="4.82438">
        <ele>172.4</ele>
        <time>2011-09-11T08:48:03Z</time>
      </trkpt>
      <trkpt lat="45.75209" lon="4.82429">
        <ele>171.8</ele>
        <time>2011-09-11T08:48:05Z</time>
      </trkpt>
      <trkpt lat="45.75196" lon="4.82421">
        <ele>171.3</ele>
        <time>2011-09-11T08:48:07Z</time>
      </trkpt>
      <trkpt lat="45.75184" lon="4.82415">
        <ele>171.2</ele>
        <time>2011-09-11T08:48:09Z</time>
      </trkpt>
      <trkpt lat="45.75174" lon="4.82405">
        <ele>171.1</ele>
        <time>2011-09-11T08:48:12Z</time>
      </trkpt>
      <trkpt lat="45.75169" lon="4.82395">
        <ele>171</ele>
        <time>2011-09-11T08:48:16Z</time>
      </trkpt>
      <trkpt lat="45.75162" lon="4.82383">
        <ele>170.9</ele>
        <time>2011-09-11T08:48:21Z</time>
      </trkpt>
      <trkpt lat="45.75155" lon="4.82375">
        <ele>170.7</ele>
        <time>2011-09-11T08:48:24Z</time>
      </trkpt>
      <trkpt lat="45.75147" lon="4.82365">
        <ele>170.1</ele>
        <time>2011-09-11T08:48:27Z</time>
      </trkpt>
      <trkpt lat="45.75138" lon="4.82355">
        <ele>169.5</ele>
        <time>2011-09-11T08:48:30Z</time>
      </trkpt>
      <trkpt lat="45.7513" lon="4.82347">
        <ele>168.8</ele>
        <time>2011-09-11T08:48:33Z</time>
      </trkpt>
      <trkpt lat="45.75127" lon="4.82332">
        <ele>168.2</ele>
        <time>2011-09-11T08:48:36Z</time>
      </trkpt>
      <trkpt lat="45.75129" lon="4.82316">
        <ele>167.7</ele>
        <time>2011-09-11T08:48:39Z</time>
      </trkpt>
      <trkpt lat="45.75133" lon="4.82299">
        <ele>167.7</ele>
        <time>2011-09-11T08:48:42Z</time>
      </trkpt>
      <trkpt lat="45.75139" lon="4.82283">
        <ele>167.7</ele>
        <time>2011-09-11T08:48:45Z</time>
      </trkpt>
      <trkpt lat="45.75144" lon="4.82266">
        <ele>167.7</ele>
        <time>2011-09-11T08:48:48Z</time>
      </trkpt>
      <trkpt lat="45.75149" lon="4.8225">
        <ele>167.7</ele>
        <time>2011-09-11T08:48:51Z</time>
      </trkpt>
      <trkpt lat="45.75154" lon="4.82233">
        <ele>167.7</ele>
        <time>2011-09-11T08:48:54Z</time>
      </trkpt>
      <trkpt lat="45.75159" lon="4.82216">
        <ele>167.7</ele>
        <time>2011-09-11T08:48:57Z</time>
      </trkpt>
      <trkpt lat="45.75163" lon="4.82204">
        <ele>167.7</ele>
        <time>2011-09-11T08:48:59Z</time>
      </trkpt>
      <trkpt lat="45.75169" lon="4.82191">
        <ele>168.3</ele>
        <time>2011-09-11T08:49:02Z</time>
      </trkpt>
      <trkpt lat="45.7518" lon="4.82188">
        <ele>168.8</ele>
        <time>2011-09-11T08:49:07Z</time>
      </trkpt>
      <trkpt lat="45.75194" lon="4.822">
        <ele>169.4</ele>
        <time>2011-09-11T08:49:16Z</time>
      </trkpt>
      <trkpt lat="45.75201" lon="4.82215">
        <ele>169.9</ele>
        <time>2011-09-11T08:49:20Z</time>
      </trkpt>
      <trkpt lat="45.75208" lon="4.82225">
        <ele>170</ele>
        <time>2011-09-11T08:49:22Z</time>
      </trkpt>
      <trkpt lat="45.75218" lon="4.82237">
        <ele>170.1</ele>
        <time>2011-09-11T08:49:24Z</time>
      </trkpt>
      <trkpt lat="45.75228" lon="4.82245">
        <ele>170.2</ele>
        <time>2011-09-11T08:49:26Z</time>
      </trkpt>
      <trkpt lat="45.75237" lon="4.82252">
        <ele>170.3</ele>
        <time>2011-09-11T08:49:28Z</time>
      </trkpt>
      <trkpt lat="45.75247" lon="4.82259">
        <ele>169.8</ele>
        <time>2011-09-11T08:49:30Z</time>
      </trkpt>
      <trkpt lat="45.75257" lon="4.82268">
        <ele>169.4</ele>
        <time>2011-09-11T08:49:32Z</time>
      </trkpt>
      <trkpt lat="45.75268" lon="4.8228">
        <ele>169.4</ele>
        <time>2011-09-11T08:49:34Z</time>
      </trkpt>
      <trkpt lat="45.75278" lon="4.82292">
        <ele>168.8</ele>
        <time>2011-09-11T08:49:36Z</time>
      </trkpt>
      <trkpt lat="45.75287" lon="4.82299">
        <ele>168.3</ele>
        <time>2011-09-11T08:49:38Z</time>
      </trkpt>
      <trkpt lat="45.75299" lon="4.82311">
        <ele>167.7</ele>
        <time>2011-09-11T08:49:42Z</time>
      </trkpt>
      <trkpt lat="45.7531" lon="4.82318">
        <ele>167.2</ele>
        <time>2011-09-11T08:49:46Z</time>
      </trkpt>
      <trkpt lat="45.75318" lon="4.82326">
        <ele>166.6</ele>
        <time>2011-09-11T08:49:49Z</time>
      </trkpt>
      <trkpt lat="45.75328" lon="4.82332">
        <ele>166.9</ele>
        <time>2011-09-11T08:49:53Z</time>
      </trkpt>
      <trkpt lat="45.75337" lon="4.82337">
        <ele>167.2</ele>
        <time>2011-09-11T08:49:56Z</time>
      </trkpt>
      <trkpt lat="45.75347" lon="4.82343">
        <ele>167.5</ele>
        <time>2011-09-11T08:49:58Z</time>
      </trkpt>
      <trkpt lat="45.75361" lon="4.82349">
        <ele>168.3</ele>
        <time>2011-09-11T08:50:00Z</time>
      </trkpt>
      <trkpt lat="45.75375" lon="4.82355">
        <ele>169.1</ele>
        <time>2011-09-11T08:50:02Z</time>
      </trkpt>
      <trkpt lat="45.75384" lon="4.82357">
        <ele>169.9</ele>
        <time>2011-09-11T08:50:04Z</time>
      </trkpt>
      <trkpt lat="45.75395" lon="4.82358">
        <ele>169.9</ele>
        <time>2011-09-11T08:50:07Z</time>
      </trkpt>
      <trkpt lat="45.75404" lon="4.82364">
        <ele>169.9</ele>
        <time>2011-09-11T08:50:09Z</time>
      </trkpt>
      <trkpt lat="45.75417" lon="4.82372">
        <ele>169.9</ele>
        <time>2011-09-11T08:50:11Z</time>
      </trkpt>
      <trkpt lat="45.75429" lon="4.82377">
        <ele>169.9</ele>
        <time>2011-09-11T08:50:13Z</time>
      </trkpt>
      <trkpt lat="45.75439" lon="4.82383">
        <ele>169.9</ele>
        <time>2011-09-11T08:50:15Z</time>
      </trkpt>
      <trkpt lat="45.75449" lon="4.82387">
        <ele>169.1</ele>
        <time>2011-09-11T08:50:17Z</time>
      </trkpt>
      <trkpt lat="45.75458" lon="4.82391">
        <ele>168.3</ele>
        <time>2011-09-11T08:50:19Z</time>
      </trkpt>
      <trkpt lat="45.7547" lon="4.82395">
        <ele>167.5</ele>
        <time>2011-09-11T08:50:22Z</time>
      </trkpt>
      <trkpt lat="45.75483" lon="4.82401">
        <ele>166.6</ele>
        <time>2011-09-11T08:50:25Z</time>
      </trkpt>
      <trkpt lat="45.75492" lon="4.82404">
        <ele>165.8</ele>
        <time>2011-09-11T08:50:27Z</time>
      </trkpt>
      <trkpt lat="45.75502" lon="4.82408">
        <ele>165</ele>
        <time>2011-09-11T08:50:29Z</time>
      </trkpt>
      <trkpt lat="45.75513" lon="4.82413">
        <ele>165</ele>
        <time>2011-09-11T08:50:31Z</time>
      </trkpt>
      <trkpt lat="45.75524" lon="4.82417">
        <ele>165</ele>
        <time>2011-09-11T08:50:33Z</time>
      </trkpt>
      <trkpt lat="45.75536" lon="4.82422">
        <ele>165</ele>
        <time>2011-09-11T08:50:35Z</time>
      </trkpt>
      <trkpt lat="45.75547" lon="4.82427">
        <ele>165</ele>
        <time>2011-09-11T08:50:37Z</time>
      </trkpt>
      <trkpt lat="45.75558" lon="4.82433">
        <ele>165</ele>
        <time>2011-09-11T08:50:39Z</time>
      </trkpt>
      <trkpt lat="45.75569" lon="4.8244">
        <ele>165</ele>
        <time>2011-09-11T08:50:41Z</time>
      </trkpt>
      <trkpt lat="45.7558" lon="4.82444">
        <ele>166.3</ele>
        <time>2011-09-11T08:50:43Z</time>
      </trkpt>
      <trkpt lat="45.7559" lon="4.82449">
        <ele>167.5</ele>
        <time>2011-09-11T08:50:45Z</time>
      </trkpt>
      <trkpt lat="45.75599" lon="4.82453">
        <ele>168.8</ele>
        <time>2011-09-11T08:50:47Z</time>
      </trkpt>
      <trkpt lat="45.75612" lon="4.82461">
        <ele>170.1</ele>
        <time>2011-09-11T08:50:51Z</time>
      </trkpt>
      <trkpt lat="45.75623" lon="4.8247">
        <ele>171.4</ele>
        <time>2011-09-11T08:50:53Z</time>
      </trkpt>
      <trkpt lat="45.75633" lon="4.82479">
        <ele>172.6</ele>
        <time>2011-09-11T08:50:55Z</time>
      </trkpt>
      <trkpt lat="45.75641" lon="4.82485">
        <ele>173.9</ele>
        <time>2011-09-11T08:50:57Z</time>
      </trkpt>
      <trkpt lat="45.75649" lon="4.82492">
        <ele>175.2</ele>
        <time>2011-09-11T08:50:59Z</time>
      </trkpt>
      <trkpt lat="45.75659" lon="4.82498">
        <ele>175.5</ele>
        <time>2011-09-11T08:51:01Z</time>
      </trkpt>
      <trkpt lat="45.75669" lon="4.82504">
        <ele>175.7</ele>
        <time>2011-09-11T08:51:03Z</time>
      </trkpt>
      <trkpt lat="45.75679" lon="4.82511">
        <ele>176</ele>
        <time>2011-09-11T08:51:05Z</time>
      </trkpt>
      <trkpt lat="45.7569" lon="4.82524">
        <ele>175</ele>
        <time>2011-09-11T08:51:07Z</time>
      </trkpt>
      <trkpt lat="45.75701" lon="4.82536">
        <ele>174</ele>
        <time>2011-09-11T08:51:09Z</time>
      </trkpt>
      <trkpt lat="45.75713" lon="4.82549">
        <ele>173</ele>
        <time>2011-09-11T08:51:11Z</time>
      </trkpt>
      <trkpt lat="45.75728" lon="4.8256">
        <ele>172.7</ele>
        <time>2011-09-11T08:51:13Z</time>
      </trkpt>
      <trkpt lat="45.75741" lon="4.82573">
        <ele>172</ele>
        <time>2011-09-11T08:51:15Z</time>
      </trkpt>
      <trkpt lat="45.75756" lon="4.82585">
        <ele>171.3</ele>
        <time>2011-09-11T08:51:17Z</time>
      </trkpt>
      <trkpt lat="45.7577" lon="4.82596">
        <ele>170.5</ele>
        <time>2011-09-11T08:51:19Z</time>
      </trkpt>
      <trkpt lat="45.75783" lon="4.82608">
        <ele>169.8</ele>
        <time>2011-09-11T08:51:21Z</time>
      </trkpt>
      <trkpt lat="45.75797" lon="4.8262">
        <ele>170.1</ele>
        <time>2011-09-11T08:51:23Z</time>
      </trkpt>
      <trkpt lat="45.75809" lon="4.82632">
        <ele>170.4</ele>
        <time>2011-09-11T08:51:25Z</time>
      </trkpt>
      <trkpt lat="45.75821" lon="4.82645">
        <ele>170.6</ele>
        <time>2011-09-11T08:51:27Z</time>
      </trkpt>
      <trkpt lat="45.75831" lon="4.82657">
        <ele>170.9</ele>
        <time>2011-09-11T08:51:29Z</time>
      </trkpt>
      <trkpt lat="45.75841" lon="4.82665">
        <ele>171.7</ele>
        <time>2011-09-11T08:51:31Z</time>
      </trkpt>
      <trkpt lat="45.75851" lon="4.82674">
        <ele>172.5</ele>
        <time>2011-09-11T08:51:33Z</time>
      </trkpt>
      <trkpt lat="45.75859" lon="4.82682">
        <ele>172.6</ele>
        <time>2011-09-11T08:51:35Z</time>
      </trkpt>
      <trkpt lat="45.75871" lon="4.82682">
        <ele>173.2</ele>
        <time>2011-09-11T08:51:39Z</time>
      </trkpt>
      <trkpt lat="45.75879" lon="4.82673">
        <ele>174.1</ele>
        <time>2011-09-11T08:51:43Z</time>
      </trkpt>
      <trkpt lat="45.75888" lon="4.82665">
        <ele>175</ele>
        <time>2011-09-11T08:51:47Z</time>
      </trkpt>
      <trkpt lat="45.75898" lon="4.82657">
        <ele>175.9</ele>
        <time>2011-09-11T08:51:51Z</time>
      </trkpt>
      <trkpt lat="45.75905" lon="4.82646">
        <ele>176.4</ele>
        <time>2011-09-11T08:51:54Z</time>
      </trkpt>
      <trkpt lat="45.75912" lon="4.82633">
        <ele>176.8</ele>
        <time>2011-09-11T08:51:58Z</time>
      </trkpt>
      <trkpt lat="45.75908" lon="4.82621">
        <ele>177.3</ele>
        <time>2011-09-11T08:52:03Z</time>
      </trkpt>
      <trkpt lat="45.75895" lon="4.82618">
        <ele>177.7</ele>
        <time>2011-09-11T08:52:06Z</time>
      </trkpt>
      <trkpt lat="45.75886" lon="4.82614">
        <ele>177.6</ele>
        <time>2011-09-11T08:52:08Z</time>
      </trkpt>
      <trkpt lat="45.75877" lon="4.82611">
        <ele>177.5</ele>
        <time>2011-09-11T08:52:10Z</time>
      </trkpt>
      <trkpt lat="45.75868" lon="4.82608">
        <ele>177.5</ele>
        <time>2011-09-11T08:52:12Z</time>
      </trkpt>
      <trkpt lat="45.75849" lon="4.82598">
        <ele>177.4</ele>
        <time>2011-09-11T08:52:16Z</time>
      </trkpt>
      <trkpt lat="45.75839" lon="4.82591">
        <ele>176.9</ele>
        <time>2011-09-11T08:52:18Z</time>
      </trkpt>
      <trkpt lat="45.7583" lon="4.82584">
        <ele>177.2</ele>
        <time>2011-09-11T08:52:20Z</time>
      </trkpt>
      <trkpt lat="45.75818" lon="4.82576">
        <ele>177.5</ele>
        <time>2011-09-11T08:52:23Z</time>
      </trkpt>
      <trkpt lat="45.75809" lon="4.8257">
        <ele>178.2</ele>
        <time>2011-09-11T08:52:25Z</time>
      </trkpt>
      <trkpt lat="45.75801" lon="4.82564">
        <ele>178.9</ele>
        <time>2011-09-11T08:52:27Z</time>
      </trkpt>
      <trkpt lat="45.75796" lon="4.82552">
        <ele>179.6</ele>
        <time>2011-09-11T08:52:30Z</time>
      </trkpt>
      <trkpt lat="45.75801" lon="4.82537">
        <ele>180.4</ele>
        <time>2011-09-11T08:52:33Z</time>
      </trkpt>
      <trkpt lat="45.7581" lon="4.82527">
        <ele>181.1</ele>
        <time>2011-09-11T08:52:37Z</time>
      </trkpt>
      <trkpt lat="45.75819" lon="4.8253">
        <ele>181.8</ele>
        <time>2011-09-11T08:52:40Z</time>
      </trkpt>
      <trkpt lat="45.75831" lon="4.82533">
        <ele>181.8</ele>
        <time>2011-09-11T08:52:44Z</time>
      </trkpt>
      <trkpt lat="45.7584" lon="4.82536">
        <ele>182.3</ele>
        <time>2011-09-11T08:52:47Z</time>
      </trkpt>
      <trkpt lat="45.75851" lon="4.82542">
        <ele>182.7</ele>
        <time>2011-09-11T08:52:51Z</time>
      </trkpt>
      <trkpt lat="45.7586" lon="4.82545">
        <ele>182.5</ele>
        <time>2011-09-11T08:52:54Z</time>
      </trkpt>
      <trkpt lat="45.75869" lon="4.82547">
        <ele>183.5</ele>
        <time>2011-09-11T08:52:57Z</time>
      </trkpt>
      <trkpt lat="45.75881" lon="4.82551">
        <ele>184.6</ele>
        <time>2011-09-11T08:53:01Z</time>
      </trkpt>
      <trkpt lat="45.75891" lon="4.82555">
        <ele>185.7</ele>
        <time>2011-09-11T08:53:05Z</time>
      </trkpt>
      <trkpt lat="45.75913" lon="4.82564">
        <ele>186.8</ele>
        <time>2011-09-11T08:53:13Z</time>
      </trkpt>
      <trkpt lat="45.75929" lon="4.82556">
        <ele>187.9</ele>
        <time>2011-09-11T08:53:22Z</time>
      </trkpt>
      <trkpt lat="45.75924" lon="4.82534">
        <ele>189</ele>
        <time>2011-09-11T08:53:36Z</time>
      </trkpt>
      <trkpt lat="45.75918" lon="4.82521">
        <ele>189</ele>
        <time>2011-09-11T08:53:42Z</time>
      </trkpt>
      <trkpt lat="45.7591" lon="4.82511">
        <ele>192.2</ele>
        <time>2011-09-11T08:53:49Z</time>
      </trkpt>
      <trkpt lat="45.75902" lon="4.82502">
        <ele>194.9</ele>
        <time>2011-09-11T08:53:55Z</time>
      </trkpt>
      <trkpt lat="45.75895" lon="4.82493">
        <ele>197.6</ele>
        <time>2011-09-11T08:54:01Z</time>
      </trkpt>
      <trkpt lat="45.75885" lon="4.82479">
        <ele>200.4</ele>
        <time>2011-09-11T08:54:14Z</time>
      </trkpt>
      <trkpt lat="45.75875" lon="4.82473">
        <ele>201.7</ele>
        <time>2011-09-11T08:54:21Z</time>
      </trkpt>
      <trkpt lat="45.75869" lon="4.82463">
        <ele>203.1</ele>
        <time>2011-09-11T08:54:26Z</time>
      </trkpt>
      <trkpt lat="45.75863" lon="4.82453">
        <ele>204.5</ele>
        <time>2011-09-11T08:54:31Z</time>
      </trkpt>
      <trkpt lat="45.75855" lon="4.82445">
        <ele>207.7</ele>
        <time>2011-09-11T08:54:37Z</time>
      </trkpt>
      <trkpt lat="45.75848" lon="4.82435">
        <ele>211</ele>
        <time>2011-09-11T08:54:44Z</time>
      </trkpt>
      <trkpt lat="45.75842" lon="4.82424">
        <ele>214.3</ele>
        <time>2011-09-11T08:54:52Z</time>
      </trkpt>
      <trkpt lat="45.75835" lon="4.82408">
        <ele>218.6</ele>
        <time>2011-09-11T08:55:00Z</time>
      </trkpt>
      <trkpt lat="45.75827" lon="4.8239">
        <ele>218.9</ele>
        <time>2011-09-11T08:55:10Z</time>
      </trkpt>
      <trkpt lat="45.75823" lon="4.82377">
        <ele>219.2</ele>
        <time>2011-09-11T08:55:16Z</time>
      </trkpt>
      <trkpt lat="45.75814" lon="4.82369">
        <ele>219.5</ele>
        <time>2011-09-11T08:55:24Z</time>
      </trkpt>
      <trkpt lat="45.75805" lon="4.82366">
        <ele>219.7</ele>
        <time>2011-09-11T08:55:30Z</time>
      </trkpt>
      <trkpt lat="45.75796" lon="4.82368">
        <ele>220</ele>
        <time>2011-09-11T08:55:35Z</time>
      </trkpt>
      <trkpt lat="45.75787" lon="4.82366">
        <ele>220.3</ele>
        <time>2011-09-11T08:55:40Z</time>
      </trkpt>
      <trkpt lat="45.75777" lon="4.82366">
        <ele>222.3</ele>
        <time>2011-09-11T08:55:49Z</time>
      </trkpt>
      <trkpt lat="45.75772" lon="4.82353">
        <ele>222.4</ele>
        <time>2011-09-11T08:56:01Z</time>
      </trkpt>
      <trkpt lat="45.7577" lon="4.82341">
        <ele>222.5</ele>
        <time>2011-09-11T08:56:06Z</time>
      </trkpt>
      <trkpt lat="45.75769" lon="4.82326">
        <ele>222.5</ele>
        <time>2011-09-11T08:56:11Z</time>
      </trkpt>
      <trkpt lat="45.75769" lon="4.82313">
        <ele>222.6</ele>
        <time>2011-09-11T08:56:16Z</time>
      </trkpt>
      <trkpt lat="45.75768" lon="4.82298">
        <ele>224.4</ele>
        <time>2011-09-11T08:56:21Z</time>
      </trkpt>
      <trkpt lat="45.75769" lon="4.82285">
        <ele>226.8</ele>
        <time>2011-09-11T08:56:26Z</time>
      </trkpt>
      <trkpt lat="45.7577" lon="4.82272">
        <ele>229.3</ele>
        <time>2011-09-11T08:56:31Z</time>
      </trkpt>
      <trkpt lat="45.75771" lon="4.82258">
        <ele>231.7</ele>
        <time>2011-09-11T08:56:38Z</time>
      </trkpt>
      <trkpt lat="45.75769" lon="4.82242">
        <ele>234.2</ele>
        <time>2011-09-11T08:56:45Z</time>
      </trkpt>
      <trkpt lat="45.75767" lon="4.8223">
        <ele>236.6</ele>
        <time>2011-09-11T08:56:49Z</time>
      </trkpt>
      <trkpt lat="45.75767" lon="4.82216">
        <ele>237.4</ele>
        <time>2011-09-11T08:56:53Z</time>
      </trkpt>
      <trkpt lat="45.75762" lon="4.82203">
        <ele>238.4</ele>
        <time>2011-09-11T08:56:59Z</time>
      </trkpt>
      <trkpt lat="45.75755" lon="4.82194">
        <ele>239.4</ele>
        <time>2011-09-11T08:57:06Z</time>
      </trkpt>
      <trkpt lat="45.75764" lon="4.82192">
        <ele>240.4</ele>
        <time>2011-09-11T08:57:21Z</time>
      </trkpt>
      <trkpt lat="45.75775" lon="4.82197">
        <ele>241.4</ele>
        <time>2011-09-11T08:57:26Z</time>
      </trkpt>
      <trkpt lat="45.75785" lon="4.82199">
        <ele>242.4</ele>
        <time>2011-09-11T08:57:31Z</time>
      </trkpt>
      <trkpt lat="45.75794" lon="4.82202">
        <ele>242.6</ele>
        <time>2011-09-11T08:57:36Z</time>
      </trkpt>
      <trkpt lat="45.75803" lon="4.82207">
        <ele>242.9</ele>
        <time>2011-09-11T08:57:42Z</time>
      </trkpt>
      <trkpt lat="45.75812" lon="4.8221">
        <ele>243.2</ele>
        <time>2011-09-11T08:57:48Z</time>
      </trkpt>
      <trkpt lat="45.75809" lon="4.82197">
        <ele>244</ele>
        <time>2011-09-11T08:57:58Z</time>
      </trkpt>
      <trkpt lat="45.75812" lon="4.82183">
        <ele>244.8</ele>
        <time>2011-09-11T08:58:05Z</time>
      </trkpt>
      <trkpt lat="45.75813" lon="4.82169">
        <ele>245.6</ele>
        <time>2011-09-11T08:58:13Z</time>
      </trkpt>
      <trkpt lat="45.75815" lon="4.82154">
        <ele>246.2</ele>
        <time>2011-09-11T08:58:19Z</time>
      </trkpt>
      <trkpt lat="45.75817" lon="4.8214">
        <ele>246.7</ele>
        <time>2011-09-11T08:58:26Z</time>
      </trkpt>
      <trkpt lat="45.75823" lon="4.82129">
        <ele>247.3</ele>
        <time>2011-09-11T08:58:32Z</time>
      </trkpt>
      <trkpt lat="45.7583" lon="4.8212">
        <ele>247.8</ele>
        <time>2011-09-11T08:58:37Z</time>
      </trkpt>
      <trkpt lat="45.75839" lon="4.82115">
        <ele>249</ele>
        <time>2011-09-11T08:58:42Z</time>
      </trkpt>
      <trkpt lat="45.7585" lon="4.82116">
        <ele>250.2</ele>
        <time>2011-09-11T08:58:47Z</time>
      </trkpt>
      <trkpt lat="45.7586" lon="4.82119">
        <ele>250.9</ele>
        <time>2011-09-11T08:58:51Z</time>
      </trkpt>
      <trkpt lat="45.7587" lon="4.82124">
        <ele>252.1</ele>
        <time>2011-09-11T08:58:55Z</time>
      </trkpt>
      <trkpt lat="45.75879" lon="4.82127">
        <ele>252.7</ele>
        <time>2011-09-11T08:58:59Z</time>
      </trkpt>
      <trkpt lat="45.7589" lon="4.82131">
        <ele>253.4</ele>
        <time>2011-09-11T08:59:04Z</time>
      </trkpt>
      <trkpt lat="45.75899" lon="4.82134">
        <ele>254</ele>
        <time>2011-09-11T08:59:09Z</time>
      </trkpt>
      <trkpt lat="45.75908" lon="4.82139">
        <ele>254.6</ele>
        <time>2011-09-11T08:59:15Z</time>
      </trkpt>
      <trkpt lat="45.75916" lon="4.82132">
        <ele>255.3</ele>
        <time>2011-09-11T08:59:33Z</time>
      </trkpt>
      <trkpt lat="45.75913" lon="4.8212">
        <ele>256.5</ele>
        <time>2011-09-11T09:02:14Z</time>
      </trkpt>
      <trkpt lat="45.75914" lon="4.82104">
        <ele>257.6</ele>
        <time>2011-09-11T09:02:18Z</time>
      </trkpt>
      <trkpt lat="45.75913" lon="4.8209">
        <ele>258.2</ele>
        <time>2011-09-11T09:02:22Z</time>
      </trkpt>
      <trkpt lat="45.75912" lon="4.82074">
        <ele>258.7</ele>
        <time>2011-09-11T09:02:27Z</time>
      </trkpt>
      <trkpt lat="45.75912" lon="4.82061">
        <ele>259.7</ele>
        <time>2011-09-11T09:02:31Z</time>
      </trkpt>
      <trkpt lat="45.75914" lon="4.82047">
        <ele>260.3</ele>
        <time>2011-09-11T09:02:35Z</time>
      </trkpt>
      <trkpt lat="45.75915" lon="4.82032">
        <ele>260.8</ele>
        <time>2011-09-11T09:02:40Z</time>
      </trkpt>
      <trkpt lat="45.75918" lon="4.8202">
        <ele>262.3</ele>
        <time>2011-09-11T09:02:44Z</time>
      </trkpt>
      <trkpt lat="45.75925" lon="4.82009">
        <ele>263.7</ele>
        <time>2011-09-11T09:02:48Z</time>
      </trkpt>
      <trkpt lat="45.75936" lon="4.82005">
        <ele>265.2</ele>
        <time>2011-09-11T09:02:52Z</time>
      </trkpt>
      <trkpt lat="45.75946" lon="4.82007">
        <ele>266.6</ele>
        <time>2011-09-11T09:02:56Z</time>
      </trkpt>
      <trkpt lat="45.75955" lon="4.82011">
        <ele>267.5</ele>
        <time>2011-09-11T09:03:00Z</time>
      </trkpt>
      <trkpt lat="45.75966" lon="4.82015">
        <ele>268.5</ele>
        <time>2011-09-11T09:03:04Z</time>
      </trkpt>
      <trkpt lat="45.75976" lon="4.8202">
        <ele>269.5</ele>
        <time>2011-09-11T09:03:07Z</time>
      </trkpt>
      <trkpt lat="45.75986" lon="4.82024">
        <ele>270.5</ele>
        <time>2011-09-11T09:03:10Z</time>
      </trkpt>
      <trkpt lat="45.75994" lon="4.82032">
        <ele>271.5</ele>
        <time>2011-09-11T09:03:13Z</time>
      </trkpt>
      <trkpt lat="45.75997" lon="4.82047">
        <ele>272.5</ele>
        <time>2011-09-11T09:03:17Z</time>
      </trkpt>
      <trkpt lat="45.7599" lon="4.82059">
        <ele>273.5</ele>
        <time>2011-09-11T09:03:23Z</time>
      </trkpt>
      <trkpt lat="45.75989" lon="4.82073">
        <ele>271.6</ele>
        <time>2011-09-11T09:03:27Z</time>
      </trkpt>
      <trkpt lat="45.75982" lon="4.8209">
        <ele>269.7</ele>
        <time>2011-09-11T09:03:32Z</time>
      </trkpt>
      <trkpt lat="45.75976" lon="4.821">
        <ele>269.6</ele>
        <time>2011-09-11T09:03:35Z</time>
      </trkpt>
      <trkpt lat="45.75971" lon="4.82118">
        <ele>269.5</ele>
        <time>2011-09-11T09:03:38Z</time>
      </trkpt>
      <trkpt lat="45.75967" lon="4.82131">
        <ele>269.5</ele>
        <time>2011-09-11T09:03:40Z</time>
      </trkpt>
      <trkpt lat="45.75963" lon="4.82148">
        <ele>268.8</ele>
        <time>2011-09-11T09:03:43Z</time>
      </trkpt>
      <trkpt lat="45.75963" lon="4.82163">
        <ele>268.2</ele>
        <time>2011-09-11T09:03:46Z</time>
      </trkpt>
      <trkpt lat="45.75964" lon="4.8218">
        <ele>267.5</ele>
        <time>2011-09-11T09:03:49Z</time>
      </trkpt>
      <trkpt lat="45.75968" lon="4.82196">
        <ele>266.9</ele>
        <time>2011-09-11T09:03:52Z</time>
      </trkpt>
      <trkpt lat="45.7597" lon="4.82212">
        <ele>266.3</ele>
        <time>2011-09-11T09:03:55Z</time>
      </trkpt>
      <trkpt lat="45.75975" lon="4.82225">
        <ele>265.6</ele>
        <time>2011-09-11T09:03:58Z</time>
      </trkpt>
      <trkpt lat="45.75984" lon="4.82236">
        <ele>267</ele>
        <time>2011-09-11T09:04:02Z</time>
      </trkpt>
      <trkpt lat="45.75992" lon="4.82245">
        <ele>268.4</ele>
        <time>2011-09-11T09:04:05Z</time>
      </trkpt>
      <trkpt lat="45.76" lon="4.82252">
        <ele>266.8</ele>
        <time>2011-09-11T09:04:08Z</time>
      </trkpt>
      <trkpt lat="45.7601" lon="4.82255">
        <ele>265.3</ele>
        <time>2011-09-11T09:04:13Z</time>
      </trkpt>
      <trkpt lat="45.76019" lon="4.82261">
        <ele>263.7</ele>
        <time>2011-09-11T09:04:25Z</time>
      </trkpt>
      <trkpt lat="45.76024" lon="4.82273">
        <ele>264</ele>
        <time>2011-09-11T09:04:30Z</time>
      </trkpt>
      <trkpt lat="45.76024" lon="4.82287">
        <ele>264.3</ele>
        <time>2011-09-11T09:04:33Z</time>
      </trkpt>
      <trkpt lat="45.7603" lon="4.82305">
        <ele>264.5</ele>
        <time>2011-09-11T09:04:36Z</time>
      </trkpt>
      <trkpt lat="45.76036" lon="4.82314">
        <ele>264.8</ele>
        <time>2011-09-11T09:04:38Z</time>
      </trkpt>
      <trkpt lat="45.76043" lon="4.82325">
        <ele>265.1</ele>
        <time>2011-09-11T09:04:40Z</time>
      </trkpt>
      <trkpt lat="45.76053" lon="4.82337">
        <ele>265.4</ele>
        <time>2011-09-11T09:04:42Z</time>
      </trkpt>
      <trkpt lat="45.7606" lon="4.82345">
        <ele>265.6</ele>
        <time>2011-09-11T09:04:43Z</time>
      </trkpt>
      <trkpt lat="45.76074" lon="4.82354">
        <ele>266.5</ele>
        <time>2011-09-11T09:04:45Z</time>
      </trkpt>
      <trkpt lat="45.76087" lon="4.82358">
        <ele>268.5</ele>
        <time>2011-09-11T09:04:47Z</time>
      </trkpt>
      <trkpt lat="45.76099" lon="4.82359">
        <ele>270.5</ele>
        <time>2011-09-11T09:04:50Z</time>
      </trkpt>
      <trkpt lat="45.76112" lon="4.82361">
        <ele>272.5</ele>
        <time>2011-09-11T09:04:53Z</time>
      </trkpt>
      <trkpt lat="45.76122" lon="4.82361">
        <ele>273.2</ele>
        <time>2011-09-11T09:04:55Z</time>
      </trkpt>
      <trkpt lat="45.76132" lon="4.82362">
        <ele>273.8</ele>
        <time>2011-09-11T09:04:57Z</time>
      </trkpt>
      <trkpt lat="45.76144" lon="4.82362">
        <ele>274.5</ele>
        <time>2011-09-11T09:04:59Z</time>
      </trkpt>
      <trkpt lat="45.76153" lon="4.82363">
        <ele>275.1</ele>
        <time>2011-09-11T09:05:02Z</time>
      </trkpt>
      <trkpt lat="45.76166" lon="4.82364">
        <ele>275.7</ele>
        <time>2011-09-11T09:05:07Z</time>
      </trkpt>
      <trkpt lat="45.76175" lon="4.82357">
        <ele>276.4</ele>
        <time>2011-09-11T09:05:12Z</time>
      </trkpt>
      <trkpt lat="45.76188" lon="4.82356">
        <ele>277</ele>
        <time>2011-09-11T09:05:23Z</time>
      </trkpt>
      <trkpt lat="45.76198" lon="4.82358">
        <ele>277</ele>
        <time>2011-09-11T09:05:30Z</time>
      </trkpt>
      <trkpt lat="45.76186" lon="4.82341">
        <ele>276.8</ele>
        <time>2011-09-11T09:06:02Z</time>
      </trkpt>
      <trkpt lat="45.76181" lon="4.82326">
        <ele>276.6</ele>
        <time>2011-09-11T09:06:12Z</time>
      </trkpt>
      <trkpt lat="45.76173" lon="4.82318">
        <ele>276.5</ele>
        <time>2011-09-11T09:06:30Z</time>
      </trkpt>
      <trkpt lat="45.76188" lon="4.82316">
        <ele>276.3</ele>
        <time>2011-09-11T09:07:13Z</time>
      </trkpt>
      <trkpt lat="45.76206" lon="4.82317">
        <ele>276.1</ele>
        <time>2011-09-11T09:07:15Z</time>
      </trkpt>
      <trkpt lat="45.76217" lon="4.82315">
        <ele>275.9</ele>
        <time>2011-09-11T09:07:17Z</time>
      </trkpt>
      <trkpt lat="45.76227" lon="4.82314">
        <ele>275.7</ele>
        <time>2011-09-11T09:07:20Z</time>
      </trkpt>
      <trkpt lat="45.76238" lon="4.8231">
        <ele>275.5</ele>
        <time>2011-09-11T09:07:25Z</time>
      </trkpt>
      <trkpt lat="45.76247" lon="4.82308">
        <ele>275.8</ele>
        <time>2011-09-11T09:07:31Z</time>
      </trkpt>
      <trkpt lat="45.76258" lon="4.8231">
        <ele>277.7</ele>
        <time>2011-09-11T09:07:36Z</time>
      </trkpt>
      <trkpt lat="45.76268" lon="4.82312">
        <ele>277.5</ele>
        <time>2011-09-11T09:07:40Z</time>
      </trkpt>
      <trkpt lat="45.76277" lon="4.82314">
        <ele>279.6</ele>
        <time>2011-09-11T09:07:44Z</time>
      </trkpt>
      <trkpt lat="45.76287" lon="4.8231">
        <ele>279.6</ele>
        <time>2011-09-11T09:07:53Z</time>
      </trkpt>
      <trkpt lat="45.76296" lon="4.82306">
        <ele>281.7</ele>
        <time>2011-09-11T09:08:08Z</time>
      </trkpt>
      <trkpt lat="45.76288" lon="4.82301">
        <ele>283.8</ele>
        <time>2011-09-11T09:08:38Z</time>
      </trkpt>
      <trkpt lat="45.76278" lon="4.82303">
        <ele>285.9</ele>
        <time>2011-09-11T09:10:17Z</time>
      </trkpt>
      <trkpt lat="45.76268" lon="4.82298">
        <ele>288</ele>
        <time>2011-09-11T09:10:27Z</time>
      </trkpt>
      <trkpt lat="45.76277" lon="4.82308">
        <ele>290.1</ele>
        <time>2011-09-11T09:12:26Z</time>
      </trkpt>
      <trkpt lat="45.76266" lon="4.82299">
        <ele>292.2</ele>
        <time>2011-09-11T09:13:53Z</time>
      </trkpt>
      <trkpt lat="45.76266" lon="4.82285">
        <ele>293.5</ele>
        <time>2011-09-11T09:16:11Z</time>
      </trkpt>
      <trkpt lat="45.76267" lon="4.82271">
        <ele>293.3</ele>
        <time>2011-09-11T09:16:15Z</time>
      </trkpt>
      <trkpt lat="45.7627" lon="4.82252">
        <ele>295.2</ele>
        <time>2011-09-11T09:16:18Z</time>
      </trkpt>
      <trkpt lat="45.76275" lon="4.82238">
        <ele>295</ele>
        <time>2011-09-11T09:16:21Z</time>
      </trkpt>
      <trkpt lat="45.76279" lon="4.82223">
        <ele>296.9</ele>
        <time>2011-09-11T09:16:25Z</time>
      </trkpt>
      <trkpt lat="45.76291" lon="4.82217">
        <ele>296.8</ele>
        <time>2011-09-11T09:16:29Z</time>
      </trkpt>
      <trkpt lat="45.76302" lon="4.82213">
        <ele>296.6</ele>
        <time>2011-09-11T09:16:32Z</time>
      </trkpt>
      <trkpt lat="45.76314" lon="4.82216">
        <ele>296.5</ele>
        <time>2011-09-11T09:16:35Z</time>
      </trkpt>
      <trkpt lat="45.76327" lon="4.82218">
        <ele>296.3</ele>
        <time>2011-09-11T09:16:38Z</time>
      </trkpt>
      <trkpt lat="45.76339" lon="4.8222">
        <ele>296.1</ele>
        <time>2011-09-11T09:16:41Z</time>
      </trkpt>
      <trkpt lat="45.76351" lon="4.82224">
        <ele>295.9</ele>
        <time>2011-09-11T09:16:44Z</time>
      </trkpt>
      <trkpt lat="45.76357" lon="4.82214">
        <ele>296.1</ele>
        <time>2011-09-11T09:16:47Z</time>
      </trkpt>
      <trkpt lat="45.76356" lon="4.822">
        <ele>296.1</ele>
        <time>2011-09-11T09:16:49Z</time>
      </trkpt>
      <trkpt lat="45.76353" lon="4.82187">
        <ele>294.2</ele>
        <time>2011-09-11T09:16:51Z</time>
      </trkpt>
      <trkpt lat="45.76348" lon="4.82175">
        <ele>292.3</ele>
        <time>2011-09-11T09:16:53Z</time>
      </trkpt>
      <trkpt lat="45.76341" lon="4.82164">
        <ele>290.4</ele>
        <time>2011-09-11T09:16:55Z</time>
      </trkpt>
      <trkpt lat="45.76336" lon="4.82153">
        <ele>288.4</ele>
        <time>2011-09-11T09:16:57Z</time>
      </trkpt>
      <trkpt lat="45.76332" lon="4.8214">
        <ele>286.5</ele>
        <time>2011-09-11T09:16:59Z</time>
      </trkpt>
      <trkpt lat="45.76328" lon="4.82129">
        <ele>283.9</ele>
        <time>2011-09-11T09:17:01Z</time>
      </trkpt>
      <trkpt lat="45.76323" lon="4.82116">
        <ele>281.4</ele>
        <time>2011-09-11T09:17:03Z</time>
      </trkpt>
      <trkpt lat="45.76318" lon="4.82101">
        <ele>278.8</ele>
        <time>2011-09-11T09:17:05Z</time>
      </trkpt>
      <trkpt lat="45.76313" lon="4.82085">
        <ele>276.3</ele>
        <time>2011-09-11T09:17:07Z</time>
      </trkpt>
      <trkpt lat="45.76307" lon="4.82067">
        <ele>273.7</ele>
        <time>2011-09-11T09:17:09Z</time>
      </trkpt>
      <trkpt lat="45.76302" lon="4.82049">
        <ele>271.2</ele>
        <time>2011-09-11T09:17:11Z</time>
      </trkpt>
      <trkpt lat="45.76298" lon="4.82031">
        <ele>270.5</ele>
        <time>2011-09-11T09:17:13Z</time>
      </trkpt>
      <trkpt lat="45.76297" lon="4.82011">
        <ele>269.9</ele>
        <time>2011-09-11T09:17:15Z</time>
      </trkpt>
      <trkpt lat="45.76297" lon="4.81989">
        <ele>269.3</ele>
        <time>2011-09-11T09:17:17Z</time>
      </trkpt>
      <trkpt lat="45.763" lon="4.81967">
        <ele>268.6</ele>
        <time>2011-09-11T09:17:19Z</time>
      </trkpt>
      <trkpt lat="45.76305" lon="4.81946">
        <ele>268.9</ele>
        <time>2011-09-11T09:17:21Z</time>
      </trkpt>
      <trkpt lat="45.7631" lon="4.81926">
        <ele>269.8</ele>
        <time>2011-09-11T09:17:23Z</time>
      </trkpt>
      <trkpt lat="45.76314" lon="4.8191">
        <ele>270.7</ele>
        <time>2011-09-11T09:17:25Z</time>
      </trkpt>
      <trkpt lat="45.76319" lon="4.81897">
        <ele>271.6</ele>
        <time>2011-09-11T09:17:27Z</time>
      </trkpt>
      <trkpt lat="45.76324" lon="4.81879">
        <ele>272.5</ele>
        <time>2011-09-11T09:17:30Z</time>
      </trkpt>
      <trkpt lat="45.76326" lon="4.81865">
        <ele>273.9</ele>
        <time>2011-09-11T09:17:33Z</time>
      </trkpt>
      <trkpt lat="45.76326" lon="4.81851">
        <ele>275.3</ele>
        <time>2011-09-11T09:17:36Z</time>
      </trkpt>
      <trkpt lat="45.76325" lon="4.81835">
        <ele>276.6</ele>
        <time>2011-09-11T09:17:39Z</time>
      </trkpt>
      <trkpt lat="45.76324" lon="4.8182">
        <ele>278</ele>
        <time>2011-09-11T09:17:42Z</time>
      </trkpt>
      <trkpt lat="45.76322" lon="4.81804">
        <ele>279.4</ele>
        <time>2011-09-11T09:17:45Z</time>
      </trkpt>
      <trkpt lat="45.7632" lon="4.81789">
        <ele>280.5</ele>
        <time>2011-09-11T09:17:48Z</time>
      </trkpt>
      <trkpt lat="45.76319" lon="4.81771">
        <ele>280.6</ele>
        <time>2011-09-11T09:17:52Z</time>
      </trkpt>
      <trkpt lat="45.76319" lon="4.81754">
        <ele>280.8</ele>
        <time>2011-09-11T09:17:55Z</time>
      </trkpt>
      <trkpt lat="45.76318" lon="4.81736">
        <ele>281</ele>
        <time>2011-09-11T09:17:58Z</time>
      </trkpt>
      <trkpt lat="45.76316" lon="4.81719">
        <ele>281.2</ele>
        <time>2011-09-11T09:18:01Z</time>
      </trkpt>
      <trkpt lat="45.76316" lon="4.81704">
        <ele>281.5</ele>
        <time>2011-09-11T09:18:03Z</time>
      </trkpt>
      <trkpt lat="45.76316" lon="4.81685">
        <ele>281.5</ele>
        <time>2011-09-11T09:18:06Z</time>
      </trkpt>
      <trkpt lat="45.76315" lon="4.81672">
        <ele>281.4</ele>
        <time>2011-09-11T09:18:08Z</time>
      </trkpt>
      <trkpt lat="45.76313" lon="4.81657">
        <ele>281.3</ele>
        <time>2011-09-11T09:18:11Z</time>
      </trkpt>
      <trkpt lat="45.7631" lon="4.81644">
        <ele>281.2</ele>
        <time>2011-09-11T09:18:14Z</time>
      </trkpt>
      <trkpt lat="45.7631" lon="4.81629">
        <ele>281.1</ele>
        <time>2011-09-11T09:18:17Z</time>
      </trkpt>
      <trkpt lat="45.7631" lon="4.81613">
        <ele>281.6</ele>
        <time>2011-09-11T09:18:20Z</time>
      </trkpt>
      <trkpt lat="45.76308" lon="4.81597">
        <ele>282.2</ele>
        <time>2011-09-11T09:18:23Z</time>
      </trkpt>
      <trkpt lat="45.76306" lon="4.81581">
        <ele>282.7</ele>
        <time>2011-09-11T09:18:26Z</time>
      </trkpt>
      <trkpt lat="45.76302" lon="4.81563">
        <ele>283.9</ele>
        <time>2011-09-11T09:18:29Z</time>
      </trkpt>
      <trkpt lat="45.76299" lon="4.81549">
        <ele>285.1</ele>
        <time>2011-09-11T09:18:31Z</time>
      </trkpt>
      <trkpt lat="45.76296" lon="4.81536">
        <ele>285.9</ele>
        <time>2011-09-11T09:18:33Z</time>
      </trkpt>
      <trkpt lat="45.76294" lon="4.81523">
        <ele>286.7</ele>
        <time>2011-09-11T09:18:35Z</time>
      </trkpt>
      <trkpt lat="45.76293" lon="4.81508">
        <ele>287.5</ele>
        <time>2011-09-11T09:18:37Z</time>
      </trkpt>
      <trkpt lat="45.76292" lon="4.81492">
        <ele>288.4</ele>
        <time>2011-09-11T09:18:40Z</time>
      </trkpt>
      <trkpt lat="45.7629" lon="4.81479">
        <ele>289.2</ele>
        <time>2011-09-11T09:18:43Z</time>
      </trkpt>
      <trkpt lat="45.76288" lon="4.81462">
        <ele>290</ele>
        <time>2011-09-11T09:18:47Z</time>
      </trkpt>
      <trkpt lat="45.76285" lon="4.81446">
        <ele>290.5</ele>
        <time>2011-09-11T09:18:51Z</time>
      </trkpt>
      <trkpt lat="45.76285" lon="4.81431">
        <ele>290.9</ele>
        <time>2011-09-11T09:18:54Z</time>
      </trkpt>
      <trkpt lat="45.76285" lon="4.81418">
        <ele>291.4</ele>
        <time>2011-09-11T09:18:57Z</time>
      </trkpt>
      <trkpt lat="45.76284" lon="4.81403">
        <ele>291.2</ele>
        <time>2011-09-11T09:19:01Z</time>
      </trkpt>
      <trkpt lat="45.76282" lon="4.81389">
        <ele>291</ele>
        <time>2011-09-11T09:19:05Z</time>
      </trkpt>
      <trkpt lat="45.7628" lon="4.81376">
        <ele>290.4</ele>
        <time>2011-09-11T09:19:08Z</time>
      </trkpt>
      <trkpt lat="45.76278" lon="4.81364">
        <ele>289.7</ele>
        <time>2011-09-11T09:19:11Z</time>
      </trkpt>
      <trkpt lat="45.76275" lon="4.81348">
        <ele>289.1</ele>
        <time>2011-09-11T09:19:15Z</time>
      </trkpt>
      <trkpt lat="45.76276" lon="4.81327">
        <ele>288.5</ele>
        <time>2011-09-11T09:19:18Z</time>
      </trkpt>
      <trkpt lat="45.76277" lon="4.81311">
        <ele>287.8</ele>
        <time>2011-09-11T09:19:21Z</time>
      </trkpt>
      <trkpt lat="45.76271" lon="4.81298">
        <ele>287.2</ele>
        <time>2011-09-11T09:19:24Z</time>
      </trkpt>
      <trkpt lat="45.76263" lon="4.81287">
        <ele>287.1</ele>
        <time>2011-09-11T09:19:27Z</time>
      </trkpt>
      <trkpt lat="45.76251" lon="4.81283">
        <ele>287</ele>
        <time>2011-09-11T09:19:30Z</time>
      </trkpt>
      <trkpt lat="45.76238" lon="4.81283">
        <ele>286.9</ele>
        <time>2011-09-11T09:19:33Z</time>
      </trkpt>
      <trkpt lat="45.76228" lon="4.81283">
        <ele>286.8</ele>
        <time>2011-09-11T09:19:35Z</time>
      </trkpt>
      <trkpt lat="45.76219" lon="4.81284">
        <ele>286.7</ele>
        <time>2011-09-11T09:19:37Z</time>
      </trkpt>
      <trkpt lat="45.7621" lon="4.81285">
        <ele>287.3</ele>
        <time>2011-09-11T09:19:39Z</time>
      </trkpt>
      <trkpt lat="45.762" lon="4.81287">
        <ele>287.8</ele>
        <time>2011-09-11T09:19:41Z</time>
      </trkpt>
      <trkpt lat="45.76191" lon="4.81288">
        <ele>288.4</ele>
        <time>2011-09-11T09:19:43Z</time>
      </trkpt>
      <trkpt lat="45.76178" lon="4.81291">
        <ele>288.9</ele>
        <time>2011-09-11T09:19:46Z</time>
      </trkpt>
      <trkpt lat="45.76166" lon="4.81291">
        <ele>289.2</ele>
        <time>2011-09-11T09:19:49Z</time>
      </trkpt>
      <trkpt lat="45.76158" lon="4.81279">
        <ele>289.5</ele>
        <time>2011-09-11T09:19:52Z</time>
      </trkpt>
      <trkpt lat="45.76151" lon="4.81262">
        <ele>289.2</ele>
        <time>2011-09-11T09:19:55Z</time>
      </trkpt>
      <trkpt lat="45.76145" lon="4.8125">
        <ele>288.9</ele>
        <time>2011-09-11T09:19:57Z</time>
      </trkpt>
      <trkpt lat="45.76139" lon="4.81239">
        <ele>288.6</ele>
        <time>2011-09-11T09:19:59Z</time>
      </trkpt>
      <trkpt lat="45.76128" lon="4.81233">
        <ele>288.4</ele>
        <time>2011-09-11T09:20:02Z</time>
      </trkpt>
      <trkpt lat="45.76116" lon="4.81236">
        <ele>288.1</ele>
        <time>2011-09-11T09:20:05Z</time>
      </trkpt>
      <trkpt lat="45.76103" lon="4.81241">
        <ele>287.8</ele>
        <time>2011-09-11T09:20:08Z</time>
      </trkpt>
      <trkpt lat="45.76093" lon="4.81248">
        <ele>287.4</ele>
        <time>2011-09-11T09:20:11Z</time>
      </trkpt>
      <trkpt lat="45.7608" lon="4.81254">
        <ele>286.9</ele>
        <time>2011-09-11T09:20:14Z</time>
      </trkpt>
      <trkpt lat="45.76071" lon="4.81258">
        <ele>286.5</ele>
        <time>2011-09-11T09:20:16Z</time>
      </trkpt>
      <trkpt lat="45.76059" lon="4.81263">
        <ele>286.3</ele>
        <time>2011-09-11T09:20:19Z</time>
      </trkpt>
      <trkpt lat="45.76047" lon="4.8127">
        <ele>286.6</ele>
        <time>2011-09-11T09:20:22Z</time>
      </trkpt>
      <trkpt lat="45.76036" lon="4.81277">
        <ele>287</ele>
        <time>2011-09-11T09:20:25Z</time>
      </trkpt>
      <trkpt lat="45.76023" lon="4.81283">
        <ele>287.4</ele>
        <time>2011-09-11T09:20:28Z</time>
      </trkpt>
      <trkpt lat="45.76012" lon="4.8129">
        <ele>287.7</ele>
        <time>2011-09-11T09:20:31Z</time>
      </trkpt>
      <trkpt lat="45.76002" lon="4.81297">
        <ele>287.7</ele>
        <time>2011-09-11T09:20:34Z</time>
      </trkpt>
      <trkpt lat="45.75992" lon="4.81304">
        <ele>287.7</ele>
        <time>2011-09-11T09:20:37Z</time>
      </trkpt>
      <trkpt lat="45.75983" lon="4.81309">
        <ele>287.7</ele>
        <time>2011-09-11T09:20:39Z</time>
      </trkpt>
      <trkpt lat="45.75974" lon="4.81323">
        <ele>288.4</ele>
        <time>2011-09-11T09:20:42Z</time>
      </trkpt>
      <trkpt lat="45.75968" lon="4.81335">
        <ele>289</ele>
        <time>2011-09-11T09:20:44Z</time>
      </trkpt>
      <trkpt lat="45.75962" lon="4.81348">
        <ele>289.6</ele>
        <time>2011-09-11T09:20:46Z</time>
      </trkpt>
      <trkpt lat="45.75957" lon="4.8136">
        <ele>290.3</ele>
        <time>2011-09-11T09:20:48Z</time>
      </trkpt>
      <trkpt lat="45.75951" lon="4.81373">
        <ele>290.4</ele>
        <time>2011-09-11T09:20:50Z</time>
      </trkpt>
      <trkpt lat="45.75947" lon="4.81388">
        <ele>290.6</ele>
        <time>2011-09-11T09:20:52Z</time>
      </trkpt>
      <trkpt lat="45.75939" lon="4.81408">
        <ele>290.9</ele>
        <time>2011-09-11T09:20:54Z</time>
      </trkpt>
      <trkpt lat="45.75927" lon="4.8142">
        <ele>289.8</ele>
        <time>2011-09-11T09:20:56Z</time>
      </trkpt>
      <trkpt lat="45.75912" lon="4.8143">
        <ele>289.1</ele>
        <time>2011-09-11T09:20:58Z</time>
      </trkpt>
      <trkpt lat="45.75901" lon="4.81447">
        <ele>288.4</ele>
        <time>2011-09-11T09:21:00Z</time>
      </trkpt>
      <trkpt lat="45.75891" lon="4.81469">
        <ele>287.1</ele>
        <time>2011-09-11T09:21:02Z</time>
      </trkpt>
      <trkpt lat="45.75882" lon="4.81489">
        <ele>285.4</ele>
        <time>2011-09-11T09:21:04Z</time>
      </trkpt>
      <trkpt lat="45.75869" lon="4.815">
        <ele>283.6</ele>
        <time>2011-09-11T09:21:06Z</time>
      </trkpt>
      <trkpt lat="45.75855" lon="4.81496">
        <ele>283.6</ele>
        <time>2011-09-11T09:21:08Z</time>
      </trkpt>
      <trkpt lat="45.7585" lon="4.81479">
        <ele>283.6</ele>
        <time>2011-09-11T09:21:10Z</time>
      </trkpt>
      <trkpt lat="45.75859" lon="4.81462">
        <ele>281.9</ele>
        <time>2011-09-11T09:21:12Z</time>
      </trkpt>
      <trkpt lat="45.75872" lon="4.81444">
        <ele>280</ele>
        <time>2011-09-11T09:21:14Z</time>
      </trkpt>
      <trkpt lat="45.75879" lon="4.81436">
        <ele>278.1</ele>
        <time>2011-09-11T09:21:15Z</time>
      </trkpt>
      <trkpt lat="45.75887" lon="4.81414">
        <ele>277.5</ele>
        <time>2011-09-11T09:21:17Z</time>
      </trkpt>
      <trkpt lat="45.75889" lon="4.81392">
        <ele>277</ele>
        <time>2011-09-11T09:21:19Z</time>
      </trkpt>
      <trkpt lat="45.75874" lon="4.81379">
        <ele>276.5</ele>
        <time>2011-09-11T09:21:21Z</time>
      </trkpt>
      <trkpt lat="45.75864" lon="4.81382">
        <ele>276.5</ele>
        <time>2011-09-11T09:21:22Z</time>
      </trkpt>
      <trkpt lat="45.75857" lon="4.81393">
        <ele>276.5</ele>
        <time>2011-09-11T09:21:23Z</time>
      </trkpt>
      <trkpt lat="45.7585" lon="4.81402">
        <ele>276.3</ele>
        <time>2011-09-11T09:21:24Z</time>
      </trkpt>
      <trkpt lat="45.75842" lon="4.8141">
        <ele>274.4</ele>
        <time>2011-09-11T09:21:25Z</time>
      </trkpt>
      <trkpt lat="45.75827" lon="4.81411">
        <ele>272.5</ele>
        <time>2011-09-11T09:21:27Z</time>
      </trkpt>
      <trkpt lat="45.75813" lon="4.81406">
        <ele>272.3</ele>
        <time>2011-09-11T09:21:29Z</time>
      </trkpt>
      <trkpt lat="45.75803" lon="4.81396">
        <ele>272.1</ele>
        <time>2011-09-11T09:21:31Z</time>
      </trkpt>
      <trkpt lat="45.75792" lon="4.81397">
        <ele>271.8</ele>
        <time>2011-09-11T09:21:34Z</time>
      </trkpt>
      <trkpt lat="45.75784" lon="4.81403">
        <ele>271.5</ele>
        <time>2011-09-11T09:21:36Z</time>
      </trkpt>
      <trkpt lat="45.75775" lon="4.81408">
        <ele>271.3</ele>
        <time>2011-09-11T09:21:38Z</time>
      </trkpt>
      <trkpt lat="45.75764" lon="4.81406">
        <ele>270.7</ele>
        <time>2011-09-11T09:21:40Z</time>
      </trkpt>
      <trkpt lat="45.75752" lon="4.81393">
        <ele>270.2</ele>
        <time>2011-09-11T09:21:42Z</time>
      </trkpt>
      <trkpt lat="45.75738" lon="4.8138">
        <ele>269.6</ele>
        <time>2011-09-11T09:21:44Z</time>
      </trkpt>
      <trkpt lat="45.75725" lon="4.81368">
        <ele>269.3</ele>
        <time>2011-09-11T09:21:46Z</time>
      </trkpt>
      <trkpt lat="45.75711" lon="4.81357">
        <ele>268.9</ele>
        <time>2011-09-11T09:21:48Z</time>
      </trkpt>
      <trkpt lat="45.75696" lon="4.81346">
        <ele>268.6</ele>
        <time>2011-09-11T09:21:50Z</time>
      </trkpt>
      <trkpt lat="45.75681" lon="4.81339">
        <ele>268.4</ele>
        <time>2011-09-11T09:21:52Z</time>
      </trkpt>
      <trkpt lat="45.75669" lon="4.81331">
        <ele>268.1</ele>
        <time>2011-09-11T09:21:54Z</time>
      </trkpt>
      <trkpt lat="45.75663" lon="4.8132">
        <ele>267.9</ele>
        <time>2011-09-11T09:21:56Z</time>
      </trkpt>
      <trkpt lat="45.7567" lon="4.81303">
        <ele>267.7</ele>
        <time>2011-09-11T09:21:59Z</time>
      </trkpt>
      <trkpt lat="45.75678" lon="4.81295">
        <ele>267.6</ele>
        <time>2011-09-11T09:22:01Z</time>
      </trkpt>
      <trkpt lat="45.75685" lon="4.81286">
        <ele>267.8</ele>
        <time>2011-09-11T09:22:03Z</time>
      </trkpt>
      <trkpt lat="45.75692" lon="4.81275">
        <ele>267.8</ele>
        <time>2011-09-11T09:22:05Z</time>
      </trkpt>
      <trkpt lat="45.75699" lon="4.81262">
        <ele>267.8</ele>
        <time>2011-09-11T09:22:07Z</time>
      </trkpt>
      <trkpt lat="45.75706" lon="4.8125">
        <ele>267.8</ele>
        <time>2011-09-11T09:22:09Z</time>
      </trkpt>
      <trkpt lat="45.75713" lon="4.81237">
        <ele>267.8</ele>
        <time>2011-09-11T09:22:11Z</time>
      </trkpt>
      <trkpt lat="45.7572" lon="4.81225">
        <ele>267.7</ele>
        <time>2011-09-11T09:22:13Z</time>
      </trkpt>
      <trkpt lat="45.75727" lon="4.81212">
        <ele>267.6</ele>
        <time>2011-09-11T09:22:15Z</time>
      </trkpt>
      <trkpt lat="45.75733" lon="4.81199">
        <ele>267.2</ele>
        <time>2011-09-11T09:22:17Z</time>
      </trkpt>
      <trkpt lat="45.75739" lon="4.81187">
        <ele>266.7</ele>
        <time>2011-09-11T09:22:19Z</time>
      </trkpt>
      <trkpt lat="45.75745" lon="4.81175">
        <ele>266.3</ele>
        <time>2011-09-11T09:22:21Z</time>
      </trkpt>
      <trkpt lat="45.75751" lon="4.81162">
        <ele>265.7</ele>
        <time>2011-09-11T09:22:23Z</time>
      </trkpt>
      <trkpt lat="45.75757" lon="4.8115">
        <ele>265.2</ele>
        <time>2011-09-11T09:22:25Z</time>
      </trkpt>
      <trkpt lat="45.75762" lon="4.81136">
        <ele>265</ele>
        <time>2011-09-11T09:22:28Z</time>
      </trkpt>
      <trkpt lat="45.75764" lon="4.81119">
        <ele>264.8</ele>
        <time>2011-09-11T09:22:31Z</time>
      </trkpt>
      <trkpt lat="45.75767" lon="4.81103">
        <ele>264.6</ele>
        <time>2011-09-11T09:22:34Z</time>
      </trkpt>
      <trkpt lat="45.75771" lon="4.81084">
        <ele>264.5</ele>
        <time>2011-09-11T09:22:37Z</time>
      </trkpt>
      <trkpt lat="45.75775" lon="4.8107">
        <ele>264.3</ele>
        <time>2011-09-11T09:22:39Z</time>
      </trkpt>
      <trkpt lat="45.75778" lon="4.81054">
        <ele>263.7</ele>
        <time>2011-09-11T09:22:41Z</time>
      </trkpt>
      <trkpt lat="45.75782" lon="4.81038">
        <ele>263.8</ele>
        <time>2011-09-11T09:22:43Z</time>
      </trkpt>
      <trkpt lat="45.75785" lon="4.81023">
        <ele>263.9</ele>
        <time>2011-09-11T09:22:45Z</time>
      </trkpt>
      <trkpt lat="45.75789" lon="4.81006">
        <ele>264</ele>
        <time>2011-09-11T09:22:47Z</time>
      </trkpt>
      <trkpt lat="45.75791" lon="4.80988">
        <ele>264.1</ele>
        <time>2011-09-11T09:22:49Z</time>
      </trkpt>
      <trkpt lat="45.75794" lon="4.80971">
        <ele>264.2</ele>
        <time>2011-09-11T09:22:51Z</time>
      </trkpt>
      <trkpt lat="45.75797" lon="4.80954">
        <ele>263.9</ele>
        <time>2011-09-11T09:22:53Z</time>
      </trkpt>
      <trkpt lat="45.75799" lon="4.80937">
        <ele>263.6</ele>
        <time>2011-09-11T09:22:55Z</time>
      </trkpt>
      <trkpt lat="45.75802" lon="4.8092">
        <ele>263.4</ele>
        <time>2011-09-11T09:22:57Z</time>
      </trkpt>
      <trkpt lat="45.75804" lon="4.80905">
        <ele>263.1</ele>
        <time>2011-09-11T09:22:59Z</time>
      </trkpt>
      <trkpt lat="45.75806" lon="4.80889">
        <ele>262.8</ele>
        <time>2011-09-11T09:23:01Z</time>
      </trkpt>
      <trkpt lat="45.75809" lon="4.80874">
        <ele>262.9</ele>
        <time>2011-09-11T09:23:03Z</time>
      </trkpt>
      <trkpt lat="45.75812" lon="4.80858">
        <ele>262.6</ele>
        <time>2011-09-11T09:23:05Z</time>
      </trkpt>
      <trkpt lat="45.75815" lon="4.80843">
        <ele>262.4</ele>
        <time>2011-09-11T09:23:07Z</time>
      </trkpt>
      <trkpt lat="45.75819" lon="4.80828">
        <ele>262.1</ele>
        <time>2011-09-11T09:23:09Z</time>
      </trkpt>
      <trkpt lat="45.75823" lon="4.80812">
        <ele>261.8</ele>
        <time>2011-09-11T09:23:11Z</time>
      </trkpt>
      <trkpt lat="45.75827" lon="4.80797">
        <ele>261.5</ele>
        <time>2011-09-11T09:23:13Z</time>
      </trkpt>
      <trkpt lat="45.7583" lon="4.80782">
        <ele>261.5</ele>
        <time>2011-09-11T09:23:15Z</time>
      </trkpt>
      <trkpt lat="45.75833" lon="4.80765">
        <ele>261.5</ele>
        <time>2011-09-11T09:23:17Z</time>
      </trkpt>
      <trkpt lat="45.75836" lon="4.80749">
        <ele>261.5</ele>
        <time>2011-09-11T09:23:19Z</time>
      </trkpt>
      <trkpt lat="45.75841" lon="4.80732">
        <ele>261.5</ele>
        <time>2011-09-11T09:23:21Z</time>
      </trkpt>
      <trkpt lat="45.75847" lon="4.80715">
        <ele>261.5</ele>
        <time>2011-09-11T09:23:23Z</time>
      </trkpt>
      <trkpt lat="45.75852" lon="4.807">
        <ele>261.3</ele>
        <time>2011-09-11T09:23:25Z</time>
      </trkpt>
      <trkpt lat="45.75857" lon="4.80685">
        <ele>261.1</ele>
        <time>2011-09-11T09:23:27Z</time>
      </trkpt>
      <trkpt lat="45.75864" lon="4.8067">
        <ele>260.9</ele>
        <time>2011-09-11T09:23:29Z</time>
      </trkpt>
      <trkpt lat="45.7587" lon="4.80655">
        <ele>260.7</ele>
        <time>2011-09-11T09:23:31Z</time>
      </trkpt>
      <trkpt lat="45.75876" lon="4.80637">
        <ele>260.5</ele>
        <time>2011-09-11T09:23:33Z</time>
      </trkpt>
      <trkpt lat="45.75882" lon="4.80622">
        <ele>260.4</ele>
        <time>2011-09-11T09:23:35Z</time>
      </trkpt>
      <trkpt lat="45.75888" lon="4.80611">
        <ele>260.1</ele>
        <time>2011-09-11T09:23:37Z</time>
      </trkpt>
      <trkpt lat="45.75894" lon="4.80596">
        <ele>259.8</ele>
        <time>2011-09-11T09:23:40Z</time>
      </trkpt>
      <trkpt lat="45.75899" lon="4.80583">
        <ele>259.5</ele>
        <time>2011-09-11T09:23:45Z</time>
      </trkpt>
      <trkpt lat="45.75902" lon="4.80569">
        <ele>259.3</ele>
        <time>2011-09-11T09:24:06Z</time>
      </trkpt>
      <trkpt lat="45.75911" lon="4.80557">
        <ele>259</ele>
        <time>2011-09-11T09:24:47Z</time>
      </trkpt>
      <trkpt lat="45.75922" lon="4.80557">
        <ele>258.4</ele>
        <time>2011-09-11T09:26:30Z</time>
      </trkpt>
      <trkpt lat="45.75931" lon="4.80561">
        <ele>257.7</ele>
        <time>2011-09-11T09:27:13Z</time>
      </trkpt>
      <trkpt lat="45.75941" lon="4.80562">
        <ele>257.1</ele>
        <time>2011-09-11T09:28:57Z</time>
      </trkpt>
      <trkpt lat="45.7595" lon="4.80558">
        <ele>256.5</ele>
        <time>2011-09-11T09:30:27Z</time>
      </trkpt>
      <trkpt lat="45.75959" lon="4.80561">
        <ele>255.8</ele>
        <time>2011-09-11T09:32:07Z</time>
      </trkpt>
      <trkpt lat="45.75969" lon="4.80564">
        <ele>255.2</ele>
        <time>2011-09-11T09:32:42Z</time>
      </trkpt>
      <trkpt lat="45.7598" lon="4.80565">
        <ele>254.8</ele>
        <time>2011-09-11T09:34:00Z</time>
      </trkpt>
      <trkpt lat="45.7599" lon="4.80557">
        <ele>254.5</ele>
        <time>2011-09-11T09:35:09Z</time>
      </trkpt>
      <trkpt lat="45.76001" lon="4.80564">
        <ele>254.1</ele>
        <time>2011-09-11T09:35:57Z</time>
      </trkpt>
      <trkpt lat="45.76012" lon="4.8056">
        <ele>253.7</ele>
        <time>2011-09-11T09:40:08Z</time>
      </trkpt>
      <trkpt lat="45.76022" lon="4.80558">
        <ele>252.7</ele>
        <time>2011-09-11T09:41:43Z</time>
      </trkpt>
      <trkpt lat="45.76026" lon="4.80546">
        <ele>252.4</ele>
        <time>2011-09-11T09:43:09Z</time>
      </trkpt>
      <trkpt lat="45.76031" lon="4.80534">
        <ele>252</ele>
        <time>2011-09-11T09:43:27Z</time>
      </trkpt>
      <trkpt lat="45.76035" lon="4.80523">
        <ele>251.5</ele>
        <time>2011-09-11T09:43:48Z</time>
      </trkpt>
      <trkpt lat="45.76042" lon="4.80509">
        <ele>251.2</ele>
        <time>2011-09-11T09:44:17Z</time>
      </trkpt>
      <trkpt lat="45.76051" lon="4.80503">
        <ele>250.7</ele>
        <time>2011-09-11T09:44:41Z</time>
      </trkpt>
      <trkpt lat="45.76053" lon="4.80489">
        <ele>250.3</ele>
        <time>2011-09-11T09:45:00Z</time>
      </trkpt>
      <trkpt lat="45.76056" lon="4.80474">
        <ele>249.5</ele>
        <time>2011-09-11T09:45:10Z</time>
      </trkpt>
      <trkpt lat="45.76062" lon="4.80464">
        <ele>248.8</ele>
        <time>2011-09-11T09:45:29Z</time>
      </trkpt>
      <trkpt lat="45.76071" lon="4.80467">
        <ele>248.1</ele>
        <time>2011-09-11T09:46:07Z</time>
      </trkpt>
      <trkpt lat="45.76078" lon="4.80459">
        <ele>247.4</ele>
        <time>2011-09-11T09:46:17Z</time>
      </trkpt>
      <trkpt lat="45.7608" lon="4.80444">
        <ele>247.5</ele>
        <time>2011-09-11T09:46:21Z</time>
      </trkpt>
      <trkpt lat="45.76082" lon="4.80431">
        <ele>247.7</ele>
        <time>2011-09-11T09:46:26Z</time>
      </trkpt>
      <trkpt lat="45.76083" lon="4.80417">
        <ele>247.9</ele>
        <time>2011-09-11T09:46:32Z</time>
      </trkpt>
      <trkpt lat="45.76081" lon="4.80404">
        <ele>248.2</ele>
        <time>2011-09-11T09:46:39Z</time>
      </trkpt>
      <trkpt lat="45.76079" lon="4.80391">
        <ele>248.4</ele>
        <time>2011-09-11T09:46:45Z</time>
      </trkpt>
      <trkpt lat="45.76081" lon="4.80376">
        <ele>249.5</ele>
        <time>2011-09-11T09:46:50Z</time>
      </trkpt>
      <trkpt lat="45.76084" lon="4.8036">
        <ele>250.5</ele>
        <time>2011-09-11T09:46:54Z</time>
      </trkpt>
      <trkpt lat="45.76088" lon="4.80345">
        <ele>251.6</ele>
        <time>2011-09-11T09:46:58Z</time>
      </trkpt>
      <trkpt lat="45.76091" lon="4.80333">
        <ele>252.7</ele>
        <time>2011-09-11T09:47:01Z</time>
      </trkpt>
      <trkpt lat="45.76094" lon="4.80315">
        <ele>253.8</ele>
        <time>2011-09-11T09:47:04Z</time>
      </trkpt>
      <trkpt lat="45.76096" lon="4.80301">
        <ele>254.5</ele>
        <time>2011-09-11T09:47:07Z</time>
      </trkpt>
      <trkpt lat="45.76102" lon="4.80288">
        <ele>255</ele>
        <time>2011-09-11T09:47:10Z</time>
      </trkpt>
      <trkpt lat="45.7611" lon="4.80274">
        <ele>256.6</ele>
        <time>2011-09-11T09:47:13Z</time>
      </trkpt>
      <trkpt lat="45.76116" lon="4.80264">
        <ele>258.3</ele>
        <time>2011-09-11T09:47:17Z</time>
      </trkpt>
      <trkpt lat="45.76121" lon="4.80249">
        <ele>259.9</ele>
        <time>2011-09-11T09:47:24Z</time>
      </trkpt>
      <trkpt lat="45.7613" lon="4.80239">
        <ele>261.5</ele>
        <time>2011-09-11T09:47:27Z</time>
      </trkpt>
      <trkpt lat="45.7614" lon="4.80226">
        <ele>262.4</ele>
        <time>2011-09-11T09:47:30Z</time>
      </trkpt>
      <trkpt lat="45.76149" lon="4.80214">
        <ele>263.2</ele>
        <time>2011-09-11T09:47:33Z</time>
      </trkpt>
      <trkpt lat="45.76156" lon="4.802">
        <ele>264</ele>
        <time>2011-09-11T09:47:36Z</time>
      </trkpt>
      <trkpt lat="45.76163" lon="4.80188">
        <ele>265.2</ele>
        <time>2011-09-11T09:47:39Z</time>
      </trkpt>
      <trkpt lat="45.76172" lon="4.80178">
        <ele>266.4</ele>
        <time>2011-09-11T09:47:42Z</time>
      </trkpt>
      <trkpt lat="45.7618" lon="4.80167">
        <ele>267</ele>
        <time>2011-09-11T09:47:45Z</time>
      </trkpt>
      <trkpt lat="45.76188" lon="4.80157">
        <ele>267.6</ele>
        <time>2011-09-11T09:47:48Z</time>
      </trkpt>
      <trkpt lat="45.76195" lon="4.80145">
        <ele>267.1</ele>
        <time>2011-09-11T09:47:51Z</time>
      </trkpt>
      <trkpt lat="45.76202" lon="4.80131">
        <ele>266.5</ele>
        <time>2011-09-11T09:47:54Z</time>
      </trkpt>
      <trkpt lat="45.76208" lon="4.8012">
        <ele>266.4</ele>
        <time>2011-09-11T09:47:56Z</time>
      </trkpt>
      <trkpt lat="45.76213" lon="4.80109">
        <ele>266.2</ele>
        <time>2011-09-11T09:47:58Z</time>
      </trkpt>
      <trkpt lat="45.76219" lon="4.80095">
        <ele>266</ele>
        <time>2011-09-11T09:48:01Z</time>
      </trkpt>
      <trkpt lat="45.76224" lon="4.80077">
        <ele>265.8</ele>
        <time>2011-09-11T09:48:04Z</time>
      </trkpt>
      <trkpt lat="45.76228" lon="4.80065">
        <ele>265.6</ele>
        <time>2011-09-11T09:48:06Z</time>
      </trkpt>
      <trkpt lat="45.76231" lon="4.80053">
        <ele>265.1</ele>
        <time>2011-09-11T09:48:08Z</time>
      </trkpt>
      <trkpt lat="45.76234" lon="4.80035">
        <ele>264.5</ele>
        <time>2011-09-11T09:48:11Z</time>
      </trkpt>
      <trkpt lat="45.76237" lon="4.80022">
        <ele>264.9</ele>
        <time>2011-09-11T09:48:13Z</time>
      </trkpt>
      <trkpt lat="45.76239" lon="4.80008">
        <ele>265.3</ele>
        <time>2011-09-11T09:48:15Z</time>
      </trkpt>
      <trkpt lat="45.76241" lon="4.79993">
        <ele>265.6</ele>
        <time>2011-09-11T09:48:17Z</time>
      </trkpt>
      <trkpt lat="45.76243" lon="4.79976">
        <ele>266</ele>
        <time>2011-09-11T09:48:19Z</time>
      </trkpt>
      <trkpt lat="45.76245" lon="4.79959">
        <ele>265.7</ele>
        <time>2011-09-11T09:48:21Z</time>
      </trkpt>
      <trkpt lat="45.76247" lon="4.79942">
        <ele>265.5</ele>
        <time>2011-09-11T09:48:23Z</time>
      </trkpt>
      <trkpt lat="45.76248" lon="4.79925">
        <ele>265.2</ele>
        <time>2011-09-11T09:48:25Z</time>
      </trkpt>
      <trkpt lat="45.76247" lon="4.79909">
        <ele>264.9</ele>
        <time>2011-09-11T09:48:27Z</time>
      </trkpt>
      <trkpt lat="45.76247" lon="4.79891">
        <ele>264.6</ele>
        <time>2011-09-11T09:48:29Z</time>
      </trkpt>
      <trkpt lat="45.76247" lon="4.79873">
        <ele>263.6</ele>
        <time>2011-09-11T09:48:31Z</time>
      </trkpt>
      <trkpt lat="45.76245" lon="4.79854">
        <ele>262.6</ele>
        <time>2011-09-11T09:48:33Z</time>
      </trkpt>
      <trkpt lat="45.76244" lon="4.79839">
        <ele>261.6</ele>
        <time>2011-09-11T09:48:35Z</time>
      </trkpt>
      <trkpt lat="45.76243" lon="4.79822">
        <ele>260.6</ele>
        <time>2011-09-11T09:48:37Z</time>
      </trkpt>
      <trkpt lat="45.76239" lon="4.79804">
        <ele>260.3</ele>
        <time>2011-09-11T09:48:39Z</time>
      </trkpt>
      <trkpt lat="45.76234" lon="4.79787">
        <ele>259.9</ele>
        <time>2011-09-11T09:48:41Z</time>
      </trkpt>
      <trkpt lat="45.7623" lon="4.79771">
        <ele>259.8</ele>
        <time>2011-09-11T09:48:43Z</time>
      </trkpt>
      <trkpt lat="45.76223" lon="4.79755">
        <ele>258.8</ele>
        <time>2011-09-11T09:48:46Z</time>
      </trkpt>
      <trkpt lat="45.76218" lon="4.79744">
        <ele>257.8</ele>
        <time>2011-09-11T09:48:48Z</time>
      </trkpt>
      <trkpt lat="45.76204" lon="4.7971">
        <ele>256.9</ele>
        <time>2011-09-11T09:48:53Z</time>
      </trkpt>
      <trkpt lat="45.76202" lon="4.79691">
        <ele>256</ele>
        <time>2011-09-11T09:48:56Z</time>
      </trkpt>
      <trkpt lat="45.76207" lon="4.79669">
        <ele>255.8</ele>
        <time>2011-09-11T09:48:58Z</time>
      </trkpt>
      <trkpt lat="45.76215" lon="4.7965">
        <ele>255.6</ele>
        <time>2011-09-11T09:49:00Z</time>
      </trkpt>
      <trkpt lat="45.76227" lon="4.79638">
        <ele>255.5</ele>
        <time>2011-09-11T09:49:02Z</time>
      </trkpt>
      <trkpt lat="45.7624" lon="4.79628">
        <ele>254.5</ele>
        <time>2011-09-11T09:49:04Z</time>
      </trkpt>
      <trkpt lat="45.76251" lon="4.79617">
        <ele>252.8</ele>
        <time>2011-09-11T09:49:06Z</time>
      </trkpt>
      <trkpt lat="45.76257" lon="4.79593">
        <ele>251.2</ele>
        <time>2011-09-11T09:49:08Z</time>
      </trkpt>
      <trkpt lat="45.76266" lon="4.79579">
        <ele>249.5</ele>
        <time>2011-09-11T09:49:10Z</time>
      </trkpt>
      <trkpt lat="45.76281" lon="4.79574">
        <ele>248.8</ele>
        <time>2011-09-11T09:49:12Z</time>
      </trkpt>
      <trkpt lat="45.76296" lon="4.79566">
        <ele>248.1</ele>
        <time>2011-09-11T09:49:14Z</time>
      </trkpt>
      <trkpt lat="45.76307" lon="4.79557">
        <ele>247.3</ele>
        <time>2011-09-11T09:49:16Z</time>
      </trkpt>
      <trkpt lat="45.76317" lon="4.79556">
        <ele>246.5</ele>
        <time>2011-09-11T09:49:18Z</time>
      </trkpt>
      <trkpt lat="45.76323" lon="4.79565">
        <ele>245.6</ele>
        <time>2011-09-11T09:49:20Z</time>
      </trkpt>
      <trkpt lat="45.76327" lon="4.79579">
        <ele>244.8</ele>
        <time>2011-09-11T09:49:22Z</time>
      </trkpt>
      <trkpt lat="45.76329" lon="4.79592">
        <ele>244</ele>
        <time>2011-09-11T09:49:24Z</time>
      </trkpt>
      <trkpt lat="45.76337" lon="4.79601">
        <ele>244</ele>
        <time>2011-09-11T09:49:29Z</time>
      </trkpt>
      <trkpt lat="45.76347" lon="4.79591">
        <ele>243.5</ele>
        <time>2011-09-11T09:49:32Z</time>
      </trkpt>
      <trkpt lat="45.76349" lon="4.79576">
        <ele>242.9</ele>
        <time>2011-09-11T09:49:36Z</time>
      </trkpt>
      <trkpt lat="45.76349" lon="4.79558">
        <ele>242.4</ele>
        <time>2011-09-11T09:50:09Z</time>
      </trkpt>
      <trkpt lat="45.76359" lon="4.79561">
        <ele>241.8</ele>
        <time>2011-09-11T09:50:13Z</time>
      </trkpt>
      <trkpt lat="45.76373" lon="4.79561">
        <ele>241.3</ele>
        <time>2011-09-11T09:50:16Z</time>
      </trkpt>
      <trkpt lat="45.76383" lon="4.79556">
        <ele>240.7</ele>
        <time>2011-09-11T09:50:18Z</time>
      </trkpt>
      <trkpt lat="45.76394" lon="4.79551">
        <ele>240.2</ele>
        <time>2011-09-11T09:50:20Z</time>
      </trkpt>
      <trkpt lat="45.76406" lon="4.79547">
        <ele>239.5</ele>
        <time>2011-09-11T09:50:22Z</time>
      </trkpt>
      <trkpt lat="45.76418" lon="4.79542">
        <ele>238.7</ele>
        <time>2011-09-11T09:50:24Z</time>
      </trkpt>
      <trkpt lat="45.7643" lon="4.79538">
        <ele>238</ele>
        <time>2011-09-11T09:50:26Z</time>
      </trkpt>
      <trkpt lat="45.76443" lon="4.79535">
        <ele>237.3</ele>
        <time>2011-09-11T09:50:28Z</time>
      </trkpt>
      <trkpt lat="45.76455" lon="4.79532">
        <ele>237.1</ele>
        <time>2011-09-11T09:50:30Z</time>
      </trkpt>
      <trkpt lat="45.76468" lon="4.79531">
        <ele>236.9</ele>
        <time>2011-09-11T09:50:32Z</time>
      </trkpt>
      <trkpt lat="45.7648" lon="4.79531">
        <ele>236.6</ele>
        <time>2011-09-11T09:50:34Z</time>
      </trkpt>
      <trkpt lat="45.76493" lon="4.79534">
        <ele>236.4</ele>
        <time>2011-09-11T09:50:36Z</time>
      </trkpt>
      <trkpt lat="45.76507" lon="4.79538">
        <ele>236.1</ele>
        <time>2011-09-11T09:50:38Z</time>
      </trkpt>
      <trkpt lat="45.76521" lon="4.79539">
        <ele>235.8</ele>
        <time>2011-09-11T09:50:40Z</time>
      </trkpt>
      <trkpt lat="45.76538" lon="4.79536">
        <ele>235.5</ele>
        <time>2011-09-11T09:50:42Z</time>
      </trkpt>
      <trkpt lat="45.76552" lon="4.79524">
        <ele>235.8</ele>
        <time>2011-09-11T09:50:44Z</time>
      </trkpt>
      <trkpt lat="45.76563" lon="4.79505">
        <ele>236.1</ele>
        <time>2011-09-11T09:50:46Z</time>
      </trkpt>
      <trkpt lat="45.76568" lon="4.79488">
        <ele>236.4</ele>
        <time>2011-09-11T09:50:48Z</time>
      </trkpt>
      <trkpt lat="45.76575" lon="4.79476">
        <ele>236.6</ele>
        <time>2011-09-11T09:50:51Z</time>
      </trkpt>
      <trkpt lat="45.76584" lon="4.79468">
        <ele>236.9</ele>
        <time>2011-09-11T09:50:53Z</time>
      </trkpt>
      <trkpt lat="45.76592" lon="4.79461">
        <ele>236</ele>
        <time>2011-09-11T09:50:55Z</time>
      </trkpt>
      <trkpt lat="45.766" lon="4.79453">
        <ele>235.2</ele>
        <time>2011-09-11T09:50:57Z</time>
      </trkpt>
      <trkpt lat="45.76608" lon="4.79444">
        <ele>233.8</ele>
        <time>2011-09-11T09:50:59Z</time>
      </trkpt>
      <trkpt lat="45.76616" lon="4.79436">
        <ele>232.5</ele>
        <time>2011-09-11T09:51:01Z</time>
      </trkpt>
      <trkpt lat="45.76625" lon="4.79429">
        <ele>231.1</ele>
        <time>2011-09-11T09:51:04Z</time>
      </trkpt>
      <trkpt lat="45.7663" lon="4.79444">
        <ele>231.1</ele>
        <time>2011-09-11T09:51:09Z</time>
      </trkpt>
      <trkpt lat="45.7663" lon="4.79458">
        <ele>230.4</ele>
        <time>2011-09-11T09:51:11Z</time>
      </trkpt>
      <trkpt lat="45.76629" lon="4.79476">
        <ele>229.6</ele>
        <time>2011-09-11T09:51:13Z</time>
      </trkpt>
      <trkpt lat="45.76628" lon="4.79496">
        <ele>228.9</ele>
        <time>2011-09-11T09:51:15Z</time>
      </trkpt>
      <trkpt lat="45.76628" lon="4.79518">
        <ele>228.2</ele>
        <time>2011-09-11T09:51:17Z</time>
      </trkpt>
      <trkpt lat="45.76628" lon="4.79539">
        <ele>227.5</ele>
        <time>2011-09-11T09:51:19Z</time>
      </trkpt>
      <trkpt lat="45.76627" lon="4.79557">
        <ele>227.9</ele>
        <time>2011-09-11T09:51:21Z</time>
      </trkpt>
      <trkpt lat="45.76625" lon="4.79572">
        <ele>228.5</ele>
        <time>2011-09-11T09:51:23Z</time>
      </trkpt>
      <trkpt lat="45.76622" lon="4.79585">
        <ele>229.7</ele>
        <time>2011-09-11T09:51:25Z</time>
      </trkpt>
      <trkpt lat="45.7662" lon="4.79598">
        <ele>230.9</ele>
        <time>2011-09-11T09:51:27Z</time>
      </trkpt>
      <trkpt lat="45.76617" lon="4.7961">
        <ele>232.1</ele>
        <time>2011-09-11T09:51:29Z</time>
      </trkpt>
      <trkpt lat="45.76615" lon="4.79623">
        <ele>231.9</ele>
        <time>2011-09-11T09:51:31Z</time>
      </trkpt>
      <trkpt lat="45.76613" lon="4.79636">
        <ele>232.1</ele>
        <time>2011-09-11T09:51:33Z</time>
      </trkpt>
      <trkpt lat="45.76611" lon="4.7965">
        <ele>231.8</ele>
        <time>2011-09-11T09:51:35Z</time>
      </trkpt>
      <trkpt lat="45.76607" lon="4.79664">
        <ele>231.5</ele>
        <time>2011-09-11T09:51:37Z</time>
      </trkpt>
      <trkpt lat="45.76603" lon="4.79679">
        <ele>231.3</ele>
        <time>2011-09-11T09:51:39Z</time>
      </trkpt>
      <trkpt lat="45.76599" lon="4.79693">
        <ele>231</ele>
        <time>2011-09-11T09:51:41Z</time>
      </trkpt>
      <trkpt lat="45.76594" lon="4.79708">
        <ele>230.7</ele>
        <time>2011-09-11T09:51:43Z</time>
      </trkpt>
      <trkpt lat="45.7659" lon="4.79725">
        <ele>229.6</ele>
        <time>2011-09-11T09:51:45Z</time>
      </trkpt>
      <trkpt lat="45.76584" lon="4.79744">
        <ele>228.5</ele>
        <time>2011-09-11T09:51:47Z</time>
      </trkpt>
      <trkpt lat="45.76579" lon="4.79762">
        <ele>227.5</ele>
        <time>2011-09-11T09:51:49Z</time>
      </trkpt>
      <trkpt lat="45.76575" lon="4.79779">
        <ele>226.4</ele>
        <time>2011-09-11T09:51:51Z</time>
      </trkpt>
      <trkpt lat="45.76572" lon="4.79794">
        <ele>224.4</ele>
        <time>2011-09-11T09:51:53Z</time>
      </trkpt>
      <trkpt lat="45.76568" lon="4.7981">
        <ele>224.2</ele>
        <time>2011-09-11T09:51:55Z</time>
      </trkpt>
      <trkpt lat="45.76563" lon="4.79828">
        <ele>224.5</ele>
        <time>2011-09-11T09:51:57Z</time>
      </trkpt>
      <trkpt lat="45.76558" lon="4.79846">
        <ele>224.7</ele>
        <time>2011-09-11T09:51:59Z</time>
      </trkpt>
      <trkpt lat="45.76553" lon="4.79863">
        <ele>225</ele>
        <time>2011-09-11T09:52:01Z</time>
      </trkpt>
      <trkpt lat="45.76548" lon="4.79879">
        <ele>225.3</ele>
        <time>2011-09-11T09:52:03Z</time>
      </trkpt>
      <trkpt lat="45.76543" lon="4.79893">
        <ele>225.5</ele>
        <time>2011-09-11T09:52:05Z</time>
      </trkpt>
      <trkpt lat="45.76538" lon="4.79906">
        <ele>225.4</ele>
        <time>2011-09-11T09:52:07Z</time>
      </trkpt>
      <trkpt lat="45.76533" lon="4.79919">
        <ele>225.2</ele>
        <time>2011-09-11T09:52:09Z</time>
      </trkpt>
      <trkpt lat="45.76528" lon="4.79934">
        <ele>225</ele>
        <time>2011-09-11T09:52:11Z</time>
      </trkpt>
      <trkpt lat="45.76521" lon="4.79947">
        <ele>224.8</ele>
        <time>2011-09-11T09:52:13Z</time>
      </trkpt>
      <trkpt lat="45.76513" lon="4.79957">
        <ele>225.5</ele>
        <time>2011-09-11T09:52:15Z</time>
      </trkpt>
      <trkpt lat="45.76505" lon="4.79966">
        <ele>224.5</ele>
        <time>2011-09-11T09:52:17Z</time>
      </trkpt>
      <trkpt lat="45.76497" lon="4.79976">
        <ele>223.4</ele>
        <time>2011-09-11T09:52:19Z</time>
      </trkpt>
      <trkpt lat="45.7649" lon="4.79986">
        <ele>224.2</ele>
        <time>2011-09-11T09:52:21Z</time>
      </trkpt>
      <trkpt lat="45.76483" lon="4.79998">
        <ele>223.9</ele>
        <time>2011-09-11T09:52:23Z</time>
      </trkpt>
      <trkpt lat="45.76477" lon="4.80009">
        <ele>223.6</ele>
        <time>2011-09-11T09:52:25Z</time>
      </trkpt>
      <trkpt lat="45.7647" lon="4.80021">
        <ele>223.4</ele>
        <time>2011-09-11T09:52:27Z</time>
      </trkpt>
      <trkpt lat="45.76464" lon="4.80033">
        <ele>224.2</ele>
        <time>2011-09-11T09:52:29Z</time>
      </trkpt>
      <trkpt lat="45.76458" lon="4.80043">
        <ele>225</ele>
        <time>2011-09-11T09:52:31Z</time>
      </trkpt>
      <trkpt lat="45.76452" lon="4.80058">
        <ele>225.8</ele>
        <time>2011-09-11T09:52:34Z</time>
      </trkpt>
      <trkpt lat="45.76447" lon="4.80074">
        <ele>225.4</ele>
        <time>2011-09-11T09:52:38Z</time>
      </trkpt>
      <trkpt lat="45.76443" lon="4.80089">
        <ele>224.9</ele>
        <time>2011-09-11T09:52:41Z</time>
      </trkpt>
      <trkpt lat="45.76436" lon="4.80104">
        <ele>224.5</ele>
        <time>2011-09-11T09:52:44Z</time>
      </trkpt>
      <trkpt lat="45.76428" lon="4.80116">
        <ele>226.5</ele>
        <time>2011-09-11T09:52:46Z</time>
      </trkpt>
      <trkpt lat="45.76421" lon="4.80128">
        <ele>226.7</ele>
        <time>2011-09-11T09:52:48Z</time>
      </trkpt>
      <trkpt lat="45.7641" lon="4.80143">
        <ele>228</ele>
        <time>2011-09-11T09:52:51Z</time>
      </trkpt>
      <trkpt lat="45.764" lon="4.80153">
        <ele>228.2</ele>
        <time>2011-09-11T09:52:53Z</time>
      </trkpt>
      <trkpt lat="45.7639" lon="4.80163">
        <ele>228.4</ele>
        <time>2011-09-11T09:52:55Z</time>
      </trkpt>
      <trkpt lat="45.7638" lon="4.80173">
        <ele>228.5</ele>
        <time>2011-09-11T09:52:57Z</time>
      </trkpt>
      <trkpt lat="45.76371" lon="4.80183">
        <ele>228.7</ele>
        <time>2011-09-11T09:53:00Z</time>
      </trkpt>
      <trkpt lat="45.76365" lon="4.80194">
        <ele>228.9</ele>
        <time>2011-09-11T09:53:03Z</time>
      </trkpt>
      <trkpt lat="45.76342" lon="4.80225">
        <ele>230.5</ele>
        <time>2011-09-11T09:53:13Z</time>
      </trkpt>
      <trkpt lat="45.76333" lon="4.80238">
        <ele>232.2</ele>
        <time>2011-09-11T09:53:15Z</time>
      </trkpt>
      <trkpt lat="45.76323" lon="4.80252">
        <ele>234.3</ele>
        <time>2011-09-11T09:53:17Z</time>
      </trkpt>
      <trkpt lat="45.7631" lon="4.80277">
        <ele>233.8</ele>
        <time>2011-09-11T09:53:21Z</time>
      </trkpt>
      <trkpt lat="45.76306" lon="4.8029">
        <ele>233.4</ele>
        <time>2011-09-11T09:53:22Z</time>
      </trkpt>
      <trkpt lat="45.76302" lon="4.80309">
        <ele>232.9</ele>
        <time>2011-09-11T09:53:25Z</time>
      </trkpt>
      <trkpt lat="45.76296" lon="4.80321">
        <ele>233.5</ele>
        <time>2011-09-11T09:53:27Z</time>
      </trkpt>
      <trkpt lat="45.76291" lon="4.80335">
        <ele>234.5</ele>
        <time>2011-09-11T09:53:30Z</time>
      </trkpt>
      <trkpt lat="45.76285" lon="4.80346">
        <ele>235.4</ele>
        <time>2011-09-11T09:53:34Z</time>
      </trkpt>
      <trkpt lat="45.76279" lon="4.80357">
        <ele>236.3</ele>
        <time>2011-09-11T09:53:39Z</time>
      </trkpt>
      <trkpt lat="45.76269" lon="4.80365">
        <ele>237.2</ele>
        <time>2011-09-11T09:53:43Z</time>
      </trkpt>
      <trkpt lat="45.7626" lon="4.80373">
        <ele>237.9</ele>
        <time>2011-09-11T09:53:46Z</time>
      </trkpt>
      <trkpt lat="45.76249" lon="4.80391">
        <ele>238.6</ele>
        <time>2011-09-11T09:53:49Z</time>
      </trkpt>
      <trkpt lat="45.7625" lon="4.80406">
        <ele>238.9</ele>
        <time>2011-09-11T09:53:53Z</time>
      </trkpt>
      <trkpt lat="45.76257" lon="4.80419">
        <ele>239</ele>
        <time>2011-09-11T09:53:57Z</time>
      </trkpt>
      <trkpt lat="45.76265" lon="4.80427">
        <ele>239.1</ele>
        <time>2011-09-11T09:54:00Z</time>
      </trkpt>
      <trkpt lat="45.76273" lon="4.80436">
        <ele>239.2</ele>
        <time>2011-09-11T09:54:04Z</time>
      </trkpt>
      <trkpt lat="45.76281" lon="4.80444">
        <ele>239.3</ele>
        <time>2011-09-11T09:54:08Z</time>
      </trkpt>
      <trkpt lat="45.76291" lon="4.80448">
        <ele>239.1</ele>
        <time>2011-09-11T09:54:12Z</time>
      </trkpt>
      <trkpt lat="45.76302" lon="4.80452">
        <ele>238.9</ele>
        <time>2011-09-11T09:54:17Z</time>
      </trkpt>
      <trkpt lat="45.76311" lon="4.80455">
        <ele>238.7</ele>
        <time>2011-09-11T09:54:21Z</time>
      </trkpt>
      <trkpt lat="45.76321" lon="4.80456">
        <ele>238.5</ele>
        <time>2011-09-11T09:54:25Z</time>
      </trkpt>
      <trkpt lat="45.76331" lon="4.80453">
        <ele>238.2</ele>
        <time>2011-09-11T09:54:28Z</time>
      </trkpt>
      <trkpt lat="45.7634" lon="4.80451">
        <ele>237.8</ele>
        <time>2011-09-11T09:54:30Z</time>
      </trkpt>
      <trkpt lat="45.7635" lon="4.80452">
        <ele>237.5</ele>
        <time>2011-09-11T09:54:32Z</time>
      </trkpt>
      <trkpt lat="45.76361" lon="4.80452">
        <ele>237.3</ele>
        <time>2011-09-11T09:54:35Z</time>
      </trkpt>
      <trkpt lat="45.76372" lon="4.80452">
        <ele>237.1</ele>
        <time>2011-09-11T09:54:38Z</time>
      </trkpt>
      <trkpt lat="45.76384" lon="4.80452">
        <ele>236.9</ele>
        <time>2011-09-11T09:54:41Z</time>
      </trkpt>
      <trkpt lat="45.76396" lon="4.80452">
        <ele>236.7</ele>
        <time>2011-09-11T09:54:44Z</time>
      </trkpt>
      <trkpt lat="45.76408" lon="4.80455">
        <ele>236.5</ele>
        <time>2011-09-11T09:54:48Z</time>
      </trkpt>
      <trkpt lat="45.76418" lon="4.8046">
        <ele>236.4</ele>
        <time>2011-09-11T09:54:51Z</time>
      </trkpt>
      <trkpt lat="45.76427" lon="4.8045">
        <ele>236.2</ele>
        <time>2011-09-11T09:54:55Z</time>
      </trkpt>
      <trkpt lat="45.76433" lon="4.80438">
        <ele>234.9</ele>
        <time>2011-09-11T09:55:01Z</time>
      </trkpt>
      <trkpt lat="45.76439" lon="4.80453">
        <ele>233</ele>
        <time>2011-09-11T09:55:04Z</time>
      </trkpt>
      <trkpt lat="45.76449" lon="4.80453">
        <ele>231.1</ele>
        <time>2011-09-11T09:55:09Z</time>
      </trkpt>
      <trkpt lat="45.76454" lon="4.80435">
        <ele>230</ele>
        <time>2011-09-11T09:55:12Z</time>
      </trkpt>
      <trkpt lat="45.76462" lon="4.80446">
        <ele>228.9</ele>
        <time>2011-09-11T09:55:21Z</time>
      </trkpt>
      <trkpt lat="45.76467" lon="4.80458">
        <ele>227.8</ele>
        <time>2011-09-11T09:55:28Z</time>
      </trkpt>
      <trkpt lat="45.76476" lon="4.80471">
        <ele>226.7</ele>
        <time>2011-09-11T09:55:34Z</time>
      </trkpt>
      <trkpt lat="45.76487" lon="4.80471">
        <ele>226.7</ele>
        <time>2011-09-11T09:55:36Z</time>
      </trkpt>
      <trkpt lat="45.76498" lon="4.80463">
        <ele>225.8</ele>
        <time>2011-09-11T09:55:38Z</time>
      </trkpt>
      <trkpt lat="45.76509" lon="4.80452">
        <ele>224.5</ele>
        <time>2011-09-11T09:55:40Z</time>
      </trkpt>
      <trkpt lat="45.76502" lon="4.80414">
        <ele>223.3</ele>
        <time>2011-09-11T09:55:46Z</time>
      </trkpt>
      <trkpt lat="45.76474" lon="4.80414">
        <ele>223.1</ele>
        <time>2011-09-11T09:55:50Z</time>
      </trkpt>
      <trkpt lat="45.76445" lon="4.80403">
        <ele>223.7</ele>
        <time>2011-09-11T09:55:56Z</time>
      </trkpt>
      <trkpt lat="45.76457" lon="4.80372">
        <ele>224.5</ele>
        <time>2011-09-11T09:56:09Z</time>
      </trkpt>
      <trkpt lat="45.76469" lon="4.80347">
        <ele>224.5</ele>
        <time>2011-09-11T09:56:11Z</time>
      </trkpt>
      <trkpt lat="45.76479" lon="4.80344">
        <ele>224.5</ele>
        <time>2011-09-11T09:56:13Z</time>
      </trkpt>
      <trkpt lat="45.76486" lon="4.80356">
        <ele>224.5</ele>
        <time>2011-09-11T09:56:17Z</time>
      </trkpt>
      <trkpt lat="45.76489" lon="4.80375">
        <ele>224.5</ele>
        <time>2011-09-11T09:56:20Z</time>
      </trkpt>
      <trkpt lat="45.76489" lon="4.80389">
        <ele>223.5</ele>
        <time>2011-09-11T09:56:22Z</time>
      </trkpt>
      <trkpt lat="45.76489" lon="4.80402">
        <ele>223.3</ele>
        <time>2011-09-11T09:56:24Z</time>
      </trkpt>
      <trkpt lat="45.76489" lon="4.8042">
        <ele>223.5</ele>
        <time>2011-09-11T09:56:27Z</time>
      </trkpt>
      <trkpt lat="45.76487" lon="4.80434">
        <ele>223.6</ele>
        <time>2011-09-11T09:56:29Z</time>
      </trkpt>
      <trkpt lat="45.76486" lon="4.80448">
        <ele>223</ele>
        <time>2011-09-11T09:56:31Z</time>
      </trkpt>
      <trkpt lat="45.76483" lon="4.80461">
        <ele>224.5</ele>
        <time>2011-09-11T09:56:33Z</time>
      </trkpt>
      <trkpt lat="45.76474" lon="4.80466">
        <ele>225.7</ele>
        <time>2011-09-11T09:56:36Z</time>
      </trkpt>
      <trkpt lat="45.76472" lon="4.80452">
        <ele>227</ele>
        <time>2011-09-11T09:56:41Z</time>
      </trkpt>
      <trkpt lat="45.76475" lon="4.80465">
        <ele>228.3</ele>
        <time>2011-09-11T09:56:57Z</time>
      </trkpt>
      <trkpt lat="45.76468" lon="4.80476">
        <ele>229.5</ele>
        <time>2011-09-11T09:57:01Z</time>
      </trkpt>
      <trkpt lat="45.76462" lon="4.80487">
        <ele>229.3</ele>
        <time>2011-09-11T09:57:06Z</time>
      </trkpt>
      <trkpt lat="45.76456" lon="4.80497">
        <ele>229</ele>
        <time>2011-09-11T09:57:11Z</time>
      </trkpt>
      <trkpt lat="45.76447" lon="4.80505">
        <ele>228.7</ele>
        <time>2011-09-11T09:57:16Z</time>
      </trkpt>
      <trkpt lat="45.76426" lon="4.80529">
        <ele>228.5</ele>
        <time>2011-09-11T09:57:29Z</time>
      </trkpt>
      <trkpt lat="45.76415" lon="4.80539">
        <ele>228.2</ele>
        <time>2011-09-11T09:57:32Z</time>
      </trkpt>
      <trkpt lat="45.76405" lon="4.80549">
        <ele>230.3</ele>
        <time>2011-09-11T09:57:35Z</time>
      </trkpt>
      <trkpt lat="45.764" lon="4.8056">
        <ele>230.3</ele>
        <time>2011-09-11T09:57:38Z</time>
      </trkpt>
      <trkpt lat="45.76397" lon="4.80573">
        <ele>229</ele>
        <time>2011-09-11T09:57:43Z</time>
      </trkpt>
      <trkpt lat="45.76392" lon="4.80584">
        <ele>227.7</ele>
        <time>2011-09-11T09:57:46Z</time>
      </trkpt>
      <trkpt lat="45.76385" lon="4.80596">
        <ele>225.7</ele>
        <time>2011-09-11T09:57:49Z</time>
      </trkpt>
      <trkpt lat="45.76375" lon="4.80609">
        <ele>223.7</ele>
        <time>2011-09-11T09:58:00Z</time>
      </trkpt>
      <trkpt lat="45.76369" lon="4.8062">
        <ele>224</ele>
        <time>2011-09-11T09:58:04Z</time>
      </trkpt>
      <trkpt lat="45.76368" lon="4.80636">
        <ele>224.3</ele>
        <time>2011-09-11T09:58:07Z</time>
      </trkpt>
      <trkpt lat="45.76376" lon="4.80649">
        <ele>224.9</ele>
        <time>2011-09-11T09:58:10Z</time>
      </trkpt>
      <trkpt lat="45.76384" lon="4.80658">
        <ele>225.5</ele>
        <time>2011-09-11T09:58:15Z</time>
      </trkpt>
      <trkpt lat="45.76388" lon="4.80671">
        <ele>226.2</ele>
        <time>2011-09-11T09:58:19Z</time>
      </trkpt>
      <trkpt lat="45.7637" lon="4.80693">
        <ele>225.3</ele>
        <time>2011-09-11T09:58:36Z</time>
      </trkpt>
      <trkpt lat="45.7636" lon="4.80711">
        <ele>224.4</ele>
        <time>2011-09-11T09:58:38Z</time>
      </trkpt>
      <trkpt lat="45.7635" lon="4.80722">
        <ele>224.7</ele>
        <time>2011-09-11T09:58:41Z</time>
      </trkpt>
      <trkpt lat="45.76342" lon="4.80727">
        <ele>225.1</ele>
        <time>2011-09-11T09:58:44Z</time>
      </trkpt>
      <trkpt lat="45.76333" lon="4.80732">
        <ele>226.3</ele>
        <time>2011-09-11T09:58:47Z</time>
      </trkpt>
      <trkpt lat="45.76324" lon="4.80741">
        <ele>227.5</ele>
        <time>2011-09-11T09:58:51Z</time>
      </trkpt>
      <trkpt lat="45.76313" lon="4.80749">
        <ele>227.9</ele>
        <time>2011-09-11T09:58:55Z</time>
      </trkpt>
      <trkpt lat="45.76305" lon="4.80756">
        <ele>228.4</ele>
        <time>2011-09-11T09:58:58Z</time>
      </trkpt>
      <trkpt lat="45.76295" lon="4.80764">
        <ele>228.5</ele>
        <time>2011-09-11T09:59:02Z</time>
      </trkpt>
      <trkpt lat="45.76287" lon="4.80771">
        <ele>228.5</ele>
        <time>2011-09-11T09:59:05Z</time>
      </trkpt>
      <trkpt lat="45.76277" lon="4.80778">
        <ele>228.6</ele>
        <time>2011-09-11T09:59:09Z</time>
      </trkpt>
      <trkpt lat="45.76267" lon="4.80782">
        <ele>228.7</ele>
        <time>2011-09-11T09:59:12Z</time>
      </trkpt>
      <trkpt lat="45.76257" lon="4.80787">
        <ele>228.8</ele>
        <time>2011-09-11T09:59:15Z</time>
      </trkpt>
      <trkpt lat="45.76247" lon="4.80781">
        <ele>229.9</ele>
        <time>2011-09-11T09:59:21Z</time>
      </trkpt>
      <trkpt lat="45.76239" lon="4.80772">
        <ele>231</ele>
        <time>2011-09-11T09:59:27Z</time>
      </trkpt>
      <trkpt lat="45.76231" lon="4.8076">
        <ele>232</ele>
        <time>2011-09-11T09:59:34Z</time>
      </trkpt>
      <trkpt lat="45.76223" lon="4.80752">
        <ele>233</ele>
        <time>2011-09-11T09:59:41Z</time>
      </trkpt>
      <trkpt lat="45.76214" lon="4.80748">
        <ele>234</ele>
        <time>2011-09-11T09:59:47Z</time>
      </trkpt>
      <trkpt lat="45.76203" lon="4.80747">
        <ele>235</ele>
        <time>2011-09-11T09:59:52Z</time>
      </trkpt>
      <trkpt lat="45.76193" lon="4.8075">
        <ele>236</ele>
        <time>2011-09-11T09:59:57Z</time>
      </trkpt>
      <trkpt lat="45.76184" lon="4.80755">
        <ele>237</ele>
        <time>2011-09-11T10:00:02Z</time>
      </trkpt>
      <trkpt lat="45.76174" lon="4.8076">
        <ele>238</ele>
        <time>2011-09-11T10:00:07Z</time>
      </trkpt>
      <trkpt lat="45.76164" lon="4.80762">
        <ele>239.5</ele>
        <time>2011-09-11T10:00:11Z</time>
      </trkpt>
      <trkpt lat="45.76155" lon="4.80766">
        <ele>240.9</ele>
        <time>2011-09-11T10:00:15Z</time>
      </trkpt>
      <trkpt lat="45.76145" lon="4.80775">
        <ele>241.4</ele>
        <time>2011-09-11T10:00:20Z</time>
      </trkpt>
      <trkpt lat="45.76139" lon="4.80784">
        <ele>241.8</ele>
        <time>2011-09-11T10:00:23Z</time>
      </trkpt>
      <trkpt lat="45.76131" lon="4.80793">
        <ele>242.3</ele>
        <time>2011-09-11T10:00:26Z</time>
      </trkpt>
      <trkpt lat="45.76124" lon="4.80802">
        <ele>242.7</ele>
        <time>2011-09-11T10:00:29Z</time>
      </trkpt>
      <trkpt lat="45.76116" lon="4.80814">
        <ele>243.2</ele>
        <time>2011-09-11T10:00:32Z</time>
      </trkpt>
      <trkpt lat="45.76109" lon="4.80829">
        <ele>243.6</ele>
        <time>2011-09-11T10:00:35Z</time>
      </trkpt>
      <trkpt lat="45.76104" lon="4.80846">
        <ele>244.1</ele>
        <time>2011-09-11T10:00:37Z</time>
      </trkpt>
      <trkpt lat="45.761" lon="4.80859">
        <ele>244.5</ele>
        <time>2011-09-11T10:00:39Z</time>
      </trkpt>
      <trkpt lat="45.76096" lon="4.80878">
        <ele>245</ele>
        <time>2011-09-11T10:00:41Z</time>
      </trkpt>
      <trkpt lat="45.76093" lon="4.80894">
        <ele>245.4</ele>
        <time>2011-09-11T10:00:44Z</time>
      </trkpt>
      <trkpt lat="45.76091" lon="4.80911">
        <ele>245.7</ele>
        <time>2011-09-11T10:00:47Z</time>
      </trkpt>
      <trkpt lat="45.76088" lon="4.80928">
        <ele>246.1</ele>
        <time>2011-09-11T10:00:50Z</time>
      </trkpt>
      <trkpt lat="45.76084" lon="4.80943">
        <ele>246.5</ele>
        <time>2011-09-11T10:00:53Z</time>
      </trkpt>
      <trkpt lat="45.76077" lon="4.80955">
        <ele>247.4</ele>
        <time>2011-09-11T10:00:57Z</time>
      </trkpt>
      <trkpt lat="45.76068" lon="4.80966">
        <ele>248.3</ele>
        <time>2011-09-11T10:01:01Z</time>
      </trkpt>
      <trkpt lat="45.76062" lon="4.80977">
        <ele>249.2</ele>
        <time>2011-09-11T10:01:04Z</time>
      </trkpt>
      <trkpt lat="45.76055" lon="4.80987">
        <ele>250.1</ele>
        <time>2011-09-11T10:01:07Z</time>
      </trkpt>
      <trkpt lat="45.76048" lon="4.80997">
        <ele>251</ele>
        <time>2011-09-11T10:01:10Z</time>
      </trkpt>
      <trkpt lat="45.76041" lon="4.81006">
        <ele>252</ele>
        <time>2011-09-11T10:01:13Z</time>
      </trkpt>
      <trkpt lat="45.76034" lon="4.81015">
        <ele>252.9</ele>
        <time>2011-09-11T10:01:16Z</time>
      </trkpt>
      <trkpt lat="45.76028" lon="4.81026">
        <ele>252.9</ele>
        <time>2011-09-11T10:01:19Z</time>
      </trkpt>
      <trkpt lat="45.76022" lon="4.81037">
        <ele>252.9</ele>
        <time>2011-09-11T10:01:22Z</time>
      </trkpt>
      <trkpt lat="45.76018" lon="4.81051">
        <ele>252.9</ele>
        <time>2011-09-11T10:01:26Z</time>
      </trkpt>
      <trkpt lat="45.7603" lon="4.81056">
        <ele>252.9</ele>
        <time>2011-09-11T10:01:31Z</time>
      </trkpt>
      <trkpt lat="45.76039" lon="4.81054">
        <ele>252.4</ele>
        <time>2011-09-11T10:01:33Z</time>
      </trkpt>
      <trkpt lat="45.76048" lon="4.81053">
        <ele>251.8</ele>
        <time>2011-09-11T10:01:35Z</time>
      </trkpt>
      <trkpt lat="45.76061" lon="4.8105">
        <ele>251.3</ele>
        <time>2011-09-11T10:01:38Z</time>
      </trkpt>
      <trkpt lat="45.76073" lon="4.81048">
        <ele>251.2</ele>
        <time>2011-09-11T10:01:41Z</time>
      </trkpt>
      <trkpt lat="45.76085" lon="4.81045">
        <ele>251.1</ele>
        <time>2011-09-11T10:01:44Z</time>
      </trkpt>
      <trkpt lat="45.76097" lon="4.81042">
        <ele>250.9</ele>
        <time>2011-09-11T10:01:47Z</time>
      </trkpt>
      <trkpt lat="45.76109" lon="4.81038">
        <ele>250.8</ele>
        <time>2011-09-11T10:01:50Z</time>
      </trkpt>
      <trkpt lat="45.7612" lon="4.81035">
        <ele>251.3</ele>
        <time>2011-09-11T10:01:53Z</time>
      </trkpt>
      <trkpt lat="45.76132" lon="4.81032">
        <ele>251.7</ele>
        <time>2011-09-11T10:01:57Z</time>
      </trkpt>
      <trkpt lat="45.76142" lon="4.81028">
        <ele>252.2</ele>
        <time>2011-09-11T10:02:02Z</time>
      </trkpt>
      <trkpt lat="45.76151" lon="4.81025">
        <ele>252.6</ele>
        <time>2011-09-11T10:02:07Z</time>
      </trkpt>
      <trkpt lat="45.7616" lon="4.81022">
        <ele>253.1</ele>
        <time>2011-09-11T10:02:13Z</time>
      </trkpt>
      <trkpt lat="45.7617" lon="4.8102">
        <ele>254.7</ele>
        <time>2011-09-11T10:02:20Z</time>
      </trkpt>
      <trkpt lat="45.7618" lon="4.81018">
        <ele>256.4</ele>
        <time>2011-09-11T10:02:26Z</time>
      </trkpt>
      <trkpt lat="45.7619" lon="4.81017">
        <ele>257.5</ele>
        <time>2011-09-11T10:02:32Z</time>
      </trkpt>
      <trkpt lat="45.76199" lon="4.81018">
        <ele>258.7</ele>
        <time>2011-09-11T10:02:38Z</time>
      </trkpt>
      <trkpt lat="45.76209" lon="4.8102">
        <ele>259.9</ele>
        <time>2011-09-11T10:02:44Z</time>
      </trkpt>
      <trkpt lat="45.76219" lon="4.81019">
        <ele>261.1</ele>
        <time>2011-09-11T10:02:50Z</time>
      </trkpt>
      <trkpt lat="45.76228" lon="4.81016">
        <ele>262.3</ele>
        <time>2011-09-11T10:02:56Z</time>
      </trkpt>
      <trkpt lat="45.76237" lon="4.81014">
        <ele>263.5</ele>
        <time>2011-09-11T10:03:02Z</time>
      </trkpt>
      <trkpt lat="45.76247" lon="4.81013">
        <ele>265.3</ele>
        <time>2011-09-11T10:03:09Z</time>
      </trkpt>
      <trkpt lat="45.76256" lon="4.81006">
        <ele>267.1</ele>
        <time>2011-09-11T10:03:16Z</time>
      </trkpt>
      <trkpt lat="45.76263" lon="4.80997">
        <ele>268.9</ele>
        <time>2011-09-11T10:03:21Z</time>
      </trkpt>
      <trkpt lat="45.76272" lon="4.80991">
        <ele>269.5</ele>
        <time>2011-09-11T10:03:25Z</time>
      </trkpt>
      <trkpt lat="45.76283" lon="4.80987">
        <ele>270.2</ele>
        <time>2011-09-11T10:03:28Z</time>
      </trkpt>
      <trkpt lat="45.76295" lon="4.80984">
        <ele>270.8</ele>
        <time>2011-09-11T10:03:31Z</time>
      </trkpt>
      <trkpt lat="45.76307" lon="4.8098">
        <ele>271.5</ele>
        <time>2011-09-11T10:03:34Z</time>
      </trkpt>
      <trkpt lat="45.7632" lon="4.80976">
        <ele>272.1</ele>
        <time>2011-09-11T10:03:37Z</time>
      </trkpt>
      <trkpt lat="45.76331" lon="4.80973">
        <ele>271.2</ele>
        <time>2011-09-11T10:03:39Z</time>
      </trkpt>
      <trkpt lat="45.76341" lon="4.80971">
        <ele>270.8</ele>
        <time>2011-09-11T10:03:41Z</time>
      </trkpt>
      <trkpt lat="45.76351" lon="4.80968">
        <ele>270.5</ele>
        <time>2011-09-11T10:03:43Z</time>
      </trkpt>
      <trkpt lat="45.7636" lon="4.80964">
        <ele>269.5</ele>
        <time>2011-09-11T10:03:45Z</time>
      </trkpt>
      <trkpt lat="45.7637" lon="4.80961">
        <ele>268.5</ele>
        <time>2011-09-11T10:03:47Z</time>
      </trkpt>
      <trkpt lat="45.76379" lon="4.80957">
        <ele>267.5</ele>
        <time>2011-09-11T10:03:49Z</time>
      </trkpt>
      <trkpt lat="45.7639" lon="4.80953">
        <ele>266.5</ele>
        <time>2011-09-11T10:03:51Z</time>
      </trkpt>
      <trkpt lat="45.76401" lon="4.80948">
        <ele>266.7</ele>
        <time>2011-09-11T10:03:53Z</time>
      </trkpt>
      <trkpt lat="45.76412" lon="4.80943">
        <ele>267</ele>
        <time>2011-09-11T10:03:55Z</time>
      </trkpt>
      <trkpt lat="45.76424" lon="4.80937">
        <ele>267.3</ele>
        <time>2011-09-11T10:03:57Z</time>
      </trkpt>
      <trkpt lat="45.76434" lon="4.80944">
        <ele>267.5</ele>
        <time>2011-09-11T10:03:59Z</time>
      </trkpt>
      <trkpt lat="45.7644" lon="4.80957">
        <ele>269.4</ele>
        <time>2011-09-11T10:04:01Z</time>
      </trkpt>
      <trkpt lat="45.76446" lon="4.80972">
        <ele>270.9</ele>
        <time>2011-09-11T10:04:03Z</time>
      </trkpt>
      <trkpt lat="45.76452" lon="4.80987">
        <ele>272</ele>
        <time>2011-09-11T10:04:05Z</time>
      </trkpt>
      <trkpt lat="45.76456" lon="4.81002">
        <ele>273.1</ele>
        <time>2011-09-11T10:04:07Z</time>
      </trkpt>
      <trkpt lat="45.7646" lon="4.81019">
        <ele>274.2</ele>
        <time>2011-09-11T10:04:09Z</time>
      </trkpt>
      <trkpt lat="45.76463" lon="4.81036">
        <ele>275.3</ele>
        <time>2011-09-11T10:04:11Z</time>
      </trkpt>
      <trkpt lat="45.76466" lon="4.81054">
        <ele>275.7</ele>
        <time>2011-09-11T10:04:13Z</time>
      </trkpt>
      <trkpt lat="45.7647" lon="4.81074">
        <ele>274.9</ele>
        <time>2011-09-11T10:04:15Z</time>
      </trkpt>
      <trkpt lat="45.76471" lon="4.81097">
        <ele>274.1</ele>
        <time>2011-09-11T10:04:17Z</time>
      </trkpt>
      <trkpt lat="45.76472" lon="4.81117">
        <ele>273.3</ele>
        <time>2011-09-11T10:04:19Z</time>
      </trkpt>
      <trkpt lat="45.76473" lon="4.81137">
        <ele>273.5</ele>
        <time>2011-09-11T10:04:21Z</time>
      </trkpt>
      <trkpt lat="45.76475" lon="4.81155">
        <ele>273.4</ele>
        <time>2011-09-11T10:04:23Z</time>
      </trkpt>
      <trkpt lat="45.76475" lon="4.81172">
        <ele>273</ele>
        <time>2011-09-11T10:04:25Z</time>
      </trkpt>
      <trkpt lat="45.76471" lon="4.81188">
        <ele>273.1</ele>
        <time>2011-09-11T10:04:27Z</time>
      </trkpt>
      <trkpt lat="45.76464" lon="4.81202">
        <ele>273.2</ele>
        <time>2011-09-11T10:04:29Z</time>
      </trkpt>
      <trkpt lat="45.76459" lon="4.81212">
        <ele>273.3</ele>
        <time>2011-09-11T10:04:31Z</time>
      </trkpt>
      <trkpt lat="45.76452" lon="4.81224">
        <ele>273.4</ele>
        <time>2011-09-11T10:04:34Z</time>
      </trkpt>
      <trkpt lat="45.76445" lon="4.81234">
        <ele>274.1</ele>
        <time>2011-09-11T10:04:37Z</time>
      </trkpt>
      <trkpt lat="45.76438" lon="4.81246">
        <ele>274.8</ele>
        <time>2011-09-11T10:04:41Z</time>
      </trkpt>
      <trkpt lat="45.7643" lon="4.81257">
        <ele>275.5</ele>
        <time>2011-09-11T10:04:45Z</time>
      </trkpt>
      <trkpt lat="45.76421" lon="4.81266">
        <ele>277</ele>
        <time>2011-09-11T10:04:49Z</time>
      </trkpt>
      <trkpt lat="45.7641" lon="4.81273">
        <ele>277.5</ele>
        <time>2011-09-11T10:04:53Z</time>
      </trkpt>
      <trkpt lat="45.76401" lon="4.8128">
        <ele>278.2</ele>
        <time>2011-09-11T10:04:56Z</time>
      </trkpt>
      <trkpt lat="45.76393" lon="4.81287">
        <ele>278.9</ele>
        <time>2011-09-11T10:04:59Z</time>
      </trkpt>
      <trkpt lat="45.76386" lon="4.81298">
        <ele>279.6</ele>
        <time>2011-09-11T10:05:02Z</time>
      </trkpt>
      <trkpt lat="45.76379" lon="4.81308">
        <ele>280.4</ele>
        <time>2011-09-11T10:05:05Z</time>
      </trkpt>
      <trkpt lat="45.76371" lon="4.81314">
        <ele>281.1</ele>
        <time>2011-09-11T10:05:08Z</time>
      </trkpt>
      <trkpt lat="45.76359" lon="4.81316">
        <ele>281.8</ele>
        <time>2011-09-11T10:05:12Z</time>
      </trkpt>
      <trkpt lat="45.76348" lon="4.81314">
        <ele>282.5</ele>
        <time>2011-09-11T10:05:16Z</time>
      </trkpt>
      <trkpt lat="45.76337" lon="4.8131">
        <ele>283.9</ele>
        <time>2011-09-11T10:05:20Z</time>
      </trkpt>
      <trkpt lat="45.76325" lon="4.8131">
        <ele>285.3</ele>
        <time>2011-09-11T10:05:24Z</time>
      </trkpt>
      <trkpt lat="45.76314" lon="4.8131">
        <ele>285.9</ele>
        <time>2011-09-11T10:05:28Z</time>
      </trkpt>
      <trkpt lat="45.76305" lon="4.81309">
        <ele>286.5</ele>
        <time>2011-09-11T10:05:32Z</time>
      </trkpt>
      <trkpt lat="45.76294" lon="4.8131">
        <ele>287.2</ele>
        <time>2011-09-11T10:05:37Z</time>
      </trkpt>
      <trkpt lat="45.76286" lon="4.81324">
        <ele>287.8</ele>
        <time>2011-09-11T10:06:07Z</time>
      </trkpt>
      <trkpt lat="45.76289" lon="4.8134">
        <ele>288.5</ele>
        <time>2011-09-11T10:07:08Z</time>
      </trkpt>
      <trkpt lat="45.76286" lon="4.81352">
        <ele>289.1</ele>
        <time>2011-09-11T10:07:22Z</time>
      </trkpt>
      <trkpt lat="45.7629" lon="4.81364">
        <ele>289.7</ele>
        <time>2011-09-11T10:08:10Z</time>
      </trkpt>
      <trkpt lat="45.76288" lon="4.81351">
        <ele>290.4</ele>
        <time>2011-09-11T10:12:47Z</time>
      </trkpt>
      <trkpt lat="45.76287" lon="4.81337">
        <ele>290.4</ele>
        <time>2011-09-11T10:12:54Z</time>
      </trkpt>
      <trkpt lat="45.76288" lon="4.81321">
        <ele>289.9</ele>
        <time>2011-09-11T10:14:02Z</time>
      </trkpt>
      <trkpt lat="45.76287" lon="4.81335">
        <ele>289.5</ele>
        <time>2011-09-11T10:14:44Z</time>
      </trkpt>
      <trkpt lat="45.76289" lon="4.81348">
        <ele>289</ele>
        <time>2011-09-11T10:14:53Z</time>
      </trkpt>
      <trkpt lat="45.76291" lon="4.81362">
        <ele>288.5</ele>
        <time>2011-09-11T10:15:03Z</time>
      </trkpt>
      <trkpt lat="45.76293" lon="4.81375">
        <ele>288.1</ele>
        <time>2011-09-11T10:15:10Z</time>
      </trkpt>
      <trkpt lat="45.76295" lon="4.81388">
        <ele>287.6</ele>
        <time>2011-09-11T10:15:20Z</time>
      </trkpt>
      <trkpt lat="45.76296" lon="4.81403">
        <ele>287.2</ele>
        <time>2011-09-11T10:15:26Z</time>
      </trkpt>
      <trkpt lat="45.76298" lon="4.81416">
        <ele>286.7</ele>
        <time>2011-09-11T10:15:30Z</time>
      </trkpt>
      <trkpt lat="45.76302" lon="4.81433">
        <ele>286.3</ele>
        <time>2011-09-11T10:15:34Z</time>
      </trkpt>
      <trkpt lat="45.76304" lon="4.81446">
        <ele>285.8</ele>
        <time>2011-09-11T10:15:36Z</time>
      </trkpt>
      <trkpt lat="45.76308" lon="4.81462">
        <ele>286</ele>
        <time>2011-09-11T10:15:38Z</time>
      </trkpt>
      <trkpt lat="45.76312" lon="4.81479">
        <ele>285.6</ele>
        <time>2011-09-11T10:15:40Z</time>
      </trkpt>
      <trkpt lat="45.7632" lon="4.81493">
        <ele>285.3</ele>
        <time>2011-09-11T10:15:42Z</time>
      </trkpt>
      <trkpt lat="45.76329" lon="4.81504">
        <ele>284.9</ele>
        <time>2011-09-11T10:18:46Z</time>
      </trkpt>
      <trkpt lat="45.76335" lon="4.81515">
        <ele>284.5</ele>
        <time>2011-09-11T10:20:04Z</time>
      </trkpt>
      <trkpt lat="45.76337" lon="4.81529">
        <ele>284.2</ele>
        <time>2011-09-11T10:20:44Z</time>
      </trkpt>
      <trkpt lat="45.76341" lon="4.81549">
        <ele>283.8</ele>
        <time>2011-09-11T10:20:46Z</time>
      </trkpt>
      <trkpt lat="45.76342" lon="4.81569">
        <ele>283.3</ele>
        <time>2011-09-11T10:20:48Z</time>
      </trkpt>
      <trkpt lat="45.7634" lon="4.81583">
        <ele>282.9</ele>
        <time>2011-09-11T10:20:50Z</time>
      </trkpt>
      <trkpt lat="45.76342" lon="4.81597">
        <ele>282.5</ele>
        <time>2011-09-11T10:20:52Z</time>
      </trkpt>
      <trkpt lat="45.7634" lon="4.81613">
        <ele>282.2</ele>
        <time>2011-09-11T10:20:54Z</time>
      </trkpt>
      <trkpt lat="45.76342" lon="4.81628">
        <ele>281.8</ele>
        <time>2011-09-11T10:20:56Z</time>
      </trkpt>
      <trkpt lat="45.76354" lon="4.81635">
        <ele>281.8</ele>
        <time>2011-09-11T10:20:59Z</time>
      </trkpt>
      <trkpt lat="45.76362" lon="4.81624">
        <ele>281.8</ele>
        <time>2011-09-11T10:21:02Z</time>
      </trkpt>
      <trkpt lat="45.7636" lon="4.81606">
        <ele>281.8</ele>
        <time>2011-09-11T10:21:05Z</time>
      </trkpt>
      <trkpt lat="45.76359" lon="4.8159">
        <ele>281.8</ele>
        <time>2011-09-11T10:21:08Z</time>
      </trkpt>
      <trkpt lat="45.76361" lon="4.81573">
        <ele>281.8</ele>
        <time>2011-09-11T10:21:11Z</time>
      </trkpt>
      <trkpt lat="45.76364" lon="4.81561">
        <ele>281.8</ele>
        <time>2011-09-11T10:21:14Z</time>
      </trkpt>
      <trkpt lat="45.76372" lon="4.81551">
        <ele>282</ele>
        <time>2011-09-11T10:21:19Z</time>
      </trkpt>
      <trkpt lat="45.76371" lon="4.81565">
        <ele>280</ele>
        <time>2011-09-11T10:21:22Z</time>
      </trkpt>
      <trkpt lat="45.76369" lon="4.81585">
        <ele>278</ele>
        <time>2011-09-11T10:21:24Z</time>
      </trkpt>
      <trkpt lat="45.7637" lon="4.816">
        <ele>276</ele>
        <time>2011-09-11T10:21:27Z</time>
      </trkpt>
      <trkpt lat="45.76372" lon="4.81612">
        <ele>274</ele>
        <time>2011-09-11T10:21:30Z</time>
      </trkpt>
      <trkpt lat="45.76381" lon="4.81603">
        <ele>271.4</ele>
        <time>2011-09-11T10:21:36Z</time>
      </trkpt>
      <trkpt lat="45.76391" lon="4.81601">
        <ele>268.7</ele>
        <time>2011-09-11T10:21:40Z</time>
      </trkpt>
      <trkpt lat="45.76397" lon="4.81615">
        <ele>266.1</ele>
        <time>2011-09-11T10:21:44Z</time>
      </trkpt>
      <trkpt lat="45.76396" lon="4.81628">
        <ele>263.5</ele>
        <time>2011-09-11T10:21:47Z</time>
      </trkpt>
      <trkpt lat="45.76405" lon="4.81628">
        <ele>260.8</ele>
        <time>2011-09-11T10:21:55Z</time>
      </trkpt>
      <trkpt lat="45.76412" lon="4.8164">
        <ele>258.2</ele>
        <time>2011-09-11T10:22:08Z</time>
      </trkpt>
      <trkpt lat="45.76424" lon="4.81635">
        <ele>255.5</ele>
        <time>2011-09-11T10:22:15Z</time>
      </trkpt>
      <trkpt lat="45.76428" lon="4.8165">
        <ele>252.6</ele>
        <time>2011-09-11T10:22:21Z</time>
      </trkpt>
      <trkpt lat="45.76439" lon="4.81653">
        <ele>249.7</ele>
        <time>2011-09-11T10:22:27Z</time>
      </trkpt>
      <trkpt lat="45.76445" lon="4.81664">
        <ele>246.8</ele>
        <time>2011-09-11T10:22:29Z</time>
      </trkpt>
      <trkpt lat="45.76449" lon="4.81678">
        <ele>243.9</ele>
        <time>2011-09-11T10:22:33Z</time>
      </trkpt>
      <trkpt lat="45.76458" lon="4.81685">
        <ele>241.6</ele>
        <time>2011-09-11T10:22:36Z</time>
      </trkpt>
      <trkpt lat="45.76469" lon="4.8168">
        <ele>239.4</ele>
        <time>2011-09-11T10:22:40Z</time>
      </trkpt>
      <trkpt lat="45.76477" lon="4.81687">
        <ele>237.1</ele>
        <time>2011-09-11T10:22:42Z</time>
      </trkpt>
      <trkpt lat="45.76487" lon="4.81693">
        <ele>234.8</ele>
        <time>2011-09-11T10:22:44Z</time>
      </trkpt>
      <trkpt lat="45.76499" lon="4.81695">
        <ele>232.3</ele>
        <time>2011-09-11T10:22:46Z</time>
      </trkpt>
      <trkpt lat="45.76511" lon="4.81694">
        <ele>229.7</ele>
        <time>2011-09-11T10:22:49Z</time>
      </trkpt>
      <trkpt lat="45.7652" lon="4.81687">
        <ele>225.7</ele>
        <time>2011-09-11T10:22:55Z</time>
      </trkpt>
      <trkpt lat="45.76529" lon="4.81692">
        <ele>222.9</ele>
        <time>2011-09-11T10:23:38Z</time>
      </trkpt>
      <trkpt lat="45.76534" lon="4.81704">
        <ele>222.6</ele>
        <time>2011-09-11T10:23:54Z</time>
      </trkpt>
      <trkpt lat="45.76531" lon="4.81719">
        <ele>222.4</ele>
        <time>2011-09-11T10:23:58Z</time>
      </trkpt>
      <trkpt lat="45.76541" lon="4.81718">
        <ele>222.1</ele>
        <time>2011-09-11T10:24:02Z</time>
      </trkpt>
      <trkpt lat="45.7655" lon="4.81707">
        <ele>221.8</ele>
        <time>2011-09-11T10:24:05Z</time>
      </trkpt>
      <trkpt lat="45.76548" lon="4.81724">
        <ele>221.2</ele>
        <time>2011-09-11T10:24:10Z</time>
      </trkpt>
      <trkpt lat="45.76542" lon="4.81734">
        <ele>220.5</ele>
        <time>2011-09-11T10:24:12Z</time>
      </trkpt>
      <trkpt lat="45.76536" lon="4.81747">
        <ele>219.9</ele>
        <time>2011-09-11T10:24:14Z</time>
      </trkpt>
      <trkpt lat="45.76531" lon="4.81762">
        <ele>219.5</ele>
        <time>2011-09-11T10:24:16Z</time>
      </trkpt>
      <trkpt lat="45.76526" lon="4.81779">
        <ele>219.2</ele>
        <time>2011-09-11T10:24:18Z</time>
      </trkpt>
      <trkpt lat="45.76524" lon="4.81796">
        <ele>219.6</ele>
        <time>2011-09-11T10:24:20Z</time>
      </trkpt>
      <trkpt lat="45.76524" lon="4.81811">
        <ele>221.2</ele>
        <time>2011-09-11T10:24:22Z</time>
      </trkpt>
      <trkpt lat="45.76523" lon="4.81829">
        <ele>220.2</ele>
        <time>2011-09-11T10:24:25Z</time>
      </trkpt>
      <trkpt lat="45.76521" lon="4.81847">
        <ele>219.2</ele>
        <time>2011-09-11T10:24:28Z</time>
      </trkpt>
      <trkpt lat="45.76518" lon="4.81865">
        <ele>218.2</ele>
        <time>2011-09-11T10:24:31Z</time>
      </trkpt>
      <trkpt lat="45.76517" lon="4.81878">
        <ele>217.4</ele>
        <time>2011-09-11T10:24:33Z</time>
      </trkpt>
      <trkpt lat="45.76515" lon="4.81893">
        <ele>216.9</ele>
        <time>2011-09-11T10:24:35Z</time>
      </trkpt>
      <trkpt lat="45.76512" lon="4.8191">
        <ele>216.5</ele>
        <time>2011-09-11T10:24:37Z</time>
      </trkpt>
      <trkpt lat="45.7651" lon="4.81931">
        <ele>216</ele>
        <time>2011-09-11T10:24:39Z</time>
      </trkpt>
      <trkpt lat="45.76506" lon="4.81955">
        <ele>215.5</ele>
        <time>2011-09-11T10:24:41Z</time>
      </trkpt>
      <trkpt lat="45.76503" lon="4.81967">
        <ele>215.1</ele>
        <time>2011-09-11T10:24:42Z</time>
      </trkpt>
      <trkpt lat="45.76501" lon="4.8198">
        <ele>215.3</ele>
        <time>2011-09-11T10:24:43Z</time>
      </trkpt>
      <trkpt lat="45.765" lon="4.81993">
        <ele>216.5</ele>
        <time>2011-09-11T10:24:44Z</time>
      </trkpt>
      <trkpt lat="45.76501" lon="4.82015">
        <ele>217.6</ele>
        <time>2011-09-11T10:24:46Z</time>
      </trkpt>
      <trkpt lat="45.76509" lon="4.82029">
        <ele>218.8</ele>
        <time>2011-09-11T10:24:48Z</time>
      </trkpt>
      <trkpt lat="45.76516" lon="4.82043">
        <ele>218.5</ele>
        <time>2011-09-11T10:24:51Z</time>
      </trkpt>
      <trkpt lat="45.76522" lon="4.82055">
        <ele>217.9</ele>
        <time>2011-09-11T10:24:54Z</time>
      </trkpt>
      <trkpt lat="45.76528" lon="4.82067">
        <ele>217.4</ele>
        <time>2011-09-11T10:24:57Z</time>
      </trkpt>
      <trkpt lat="45.76534" lon="4.82079">
        <ele>216.8</ele>
        <time>2011-09-11T10:25:00Z</time>
      </trkpt>
      <trkpt lat="45.7654" lon="4.82091">
        <ele>216.3</ele>
        <time>2011-09-11T10:25:03Z</time>
      </trkpt>
      <trkpt lat="45.76548" lon="4.82103">
        <ele>215.7</ele>
        <time>2011-09-11T10:25:06Z</time>
      </trkpt>
      <trkpt lat="45.76559" lon="4.8211">
        <ele>215.2</ele>
        <time>2011-09-11T10:25:09Z</time>
      </trkpt>
      <trkpt lat="45.76569" lon="4.82117">
        <ele>214.6</ele>
        <time>2011-09-11T10:25:12Z</time>
      </trkpt>
      <trkpt lat="45.7658" lon="4.82123">
        <ele>211.8</ele>
        <time>2011-09-11T10:25:15Z</time>
      </trkpt>
      <trkpt lat="45.76592" lon="4.82127">
        <ele>209</ele>
        <time>2011-09-11T10:25:18Z</time>
      </trkpt>
      <trkpt lat="45.76601" lon="4.8213">
        <ele>206.2</ele>
        <time>2011-09-11T10:25:20Z</time>
      </trkpt>
      <trkpt lat="45.7661" lon="4.82133">
        <ele>204.9</ele>
        <time>2011-09-11T10:25:22Z</time>
      </trkpt>
      <trkpt lat="45.76619" lon="4.82137">
        <ele>206.6</ele>
        <time>2011-09-11T10:25:24Z</time>
      </trkpt>
      <trkpt lat="45.76629" lon="4.82148">
        <ele>208.8</ele>
        <time>2011-09-11T10:25:27Z</time>
      </trkpt>
      <trkpt lat="45.76633" lon="4.82166">
        <ele>211</ele>
        <time>2011-09-11T10:25:30Z</time>
      </trkpt>
      <trkpt lat="45.76631" lon="4.82182">
        <ele>210.5</ele>
        <time>2011-09-11T10:25:32Z</time>
      </trkpt>
      <trkpt lat="45.76629" lon="4.82198">
        <ele>210.1</ele>
        <time>2011-09-11T10:25:34Z</time>
      </trkpt>
      <trkpt lat="45.76627" lon="4.82214">
        <ele>212.3</ele>
        <time>2011-09-11T10:25:36Z</time>
      </trkpt>
      <trkpt lat="45.76627" lon="4.82232">
        <ele>214.5</ele>
        <time>2011-09-11T10:25:38Z</time>
      </trkpt>
      <trkpt lat="45.76628" lon="4.82252">
        <ele>217.9</ele>
        <time>2011-09-11T10:25:40Z</time>
      </trkpt>
      <trkpt lat="45.76629" lon="4.82272">
        <ele>221.4</ele>
        <time>2011-09-11T10:25:42Z</time>
      </trkpt>
      <trkpt lat="45.76629" lon="4.82292">
        <ele>224.3</ele>
        <time>2011-09-11T10:25:44Z</time>
      </trkpt>
      <trkpt lat="45.76625" lon="4.82312">
        <ele>227.2</ele>
        <time>2011-09-11T10:25:46Z</time>
      </trkpt>
      <trkpt lat="45.76621" lon="4.82333">
        <ele>227.1</ele>
        <time>2011-09-11T10:25:48Z</time>
      </trkpt>
      <trkpt lat="45.76618" lon="4.82353">
        <ele>226.5</ele>
        <time>2011-09-11T10:25:50Z</time>
      </trkpt>
      <trkpt lat="45.76621" lon="4.82372">
        <ele>225.5</ele>
        <time>2011-09-11T10:25:52Z</time>
      </trkpt>
      <trkpt lat="45.76624" lon="4.82392">
        <ele>227.2</ele>
        <time>2011-09-11T10:25:54Z</time>
      </trkpt>
      <trkpt lat="45.76626" lon="4.82414">
        <ele>228.8</ele>
        <time>2011-09-11T10:25:56Z</time>
      </trkpt>
      <trkpt lat="45.76623" lon="4.82436">
        <ele>227.8</ele>
        <time>2011-09-11T10:25:58Z</time>
      </trkpt>
      <trkpt lat="45.76621" lon="4.82457">
        <ele>226.8</ele>
        <time>2011-09-11T10:26:00Z</time>
      </trkpt>
      <trkpt lat="45.76619" lon="4.82481">
        <ele>224.4</ele>
        <time>2011-09-11T10:26:02Z</time>
      </trkpt>
      <trkpt lat="45.76615" lon="4.82499">
        <ele>221.9</ele>
        <time>2011-09-11T10:26:04Z</time>
      </trkpt>
      <trkpt lat="45.76613" lon="4.82514">
        <ele>220</ele>
        <time>2011-09-11T10:26:07Z</time>
      </trkpt>
      <trkpt lat="45.7661" lon="4.82529">
        <ele>218.1</ele>
        <time>2011-09-11T10:26:11Z</time>
      </trkpt>
      <trkpt lat="45.76609" lon="4.82542">
        <ele>214.8</ele>
        <time>2011-09-11T10:26:15Z</time>
      </trkpt>
      <trkpt lat="45.76607" lon="4.82561">
        <ele>211.5</ele>
        <time>2011-09-11T10:26:21Z</time>
      </trkpt>
      <trkpt lat="45.76604" lon="4.82586">
        <ele>208.7</ele>
        <time>2011-09-11T10:26:31Z</time>
      </trkpt>
      <trkpt lat="45.76602" lon="4.82603">
        <ele>205.9</ele>
        <time>2011-09-11T10:26:38Z</time>
      </trkpt>
      <trkpt lat="45.76602" lon="4.8262">
        <ele>203.1</ele>
        <time>2011-09-11T10:26:44Z</time>
      </trkpt>
      <trkpt lat="45.76609" lon="4.82633">
        <ele>200.3</ele>
        <time>2011-09-11T10:26:47Z</time>
      </trkpt>
      <trkpt lat="45.76612" lon="4.82646">
        <ele>196.6</ele>
        <time>2011-09-11T10:26:53Z</time>
      </trkpt>
      <trkpt lat="45.76607" lon="4.82662">
        <ele>194.5</ele>
        <time>2011-09-11T10:26:57Z</time>
      </trkpt>
      <trkpt lat="45.76604" lon="4.8268">
        <ele>192.3</ele>
        <time>2011-09-11T10:27:00Z</time>
      </trkpt>
      <trkpt lat="45.76603" lon="4.82696">
        <ele>190.1</ele>
        <time>2011-09-11T10:27:02Z</time>
      </trkpt>
      <trkpt lat="45.76598" lon="4.82709">
        <ele>187.9</ele>
        <time>2011-09-11T10:27:04Z</time>
      </trkpt>
      <trkpt lat="45.7659" lon="4.82718">
        <ele>186.5</ele>
        <time>2011-09-11T10:27:06Z</time>
      </trkpt>
      <trkpt lat="45.76593" lon="4.82732">
        <ele>185.2</ele>
        <time>2011-09-11T10:28:13Z</time>
      </trkpt>
      <trkpt lat="45.76603" lon="4.82739">
        <ele>183.8</ele>
        <time>2011-09-11T10:28:16Z</time>
      </trkpt>
      <trkpt lat="45.76614" lon="4.82741">
        <ele>182.5</ele>
        <time>2011-09-11T10:28:19Z</time>
      </trkpt>
      <trkpt lat="45.76623" lon="4.82742">
        <ele>181.1</ele>
        <time>2011-09-11T10:28:21Z</time>
      </trkpt>
      <trkpt lat="45.76634" lon="4.82742">
        <ele>179.7</ele>
        <time>2011-09-11T10:28:23Z</time>
      </trkpt>
      <trkpt lat="45.76661" lon="4.8276">
        <ele>178.1</ele>
        <time>2011-09-11T10:28:28Z</time>
      </trkpt>
      <trkpt lat="45.76673" lon="4.82771">
        <ele>176.5</ele>
        <time>2011-09-11T10:28:30Z</time>
      </trkpt>
      <trkpt lat="45.76684" lon="4.82779">
        <ele>174.8</ele>
        <time>2011-09-11T10:28:32Z</time>
      </trkpt>
      <trkpt lat="45.76696" lon="4.82775">
        <ele>173.2</ele>
        <time>2011-09-11T10:28:34Z</time>
      </trkpt>
      <trkpt lat="45.76708" lon="4.82766">
        <ele>171.5</ele>
        <time>2011-09-11T10:28:36Z</time>
      </trkpt>
      <trkpt lat="45.76719" lon="4.82754">
        <ele>170.5</ele>
        <time>2011-09-11T10:28:38Z</time>
      </trkpt>
      <trkpt lat="45.76728" lon="4.82742">
        <ele>169.4</ele>
        <time>2011-09-11T10:28:40Z</time>
      </trkpt>
      <trkpt lat="45.76736" lon="4.82728">
        <ele>168.3</ele>
        <time>2011-09-11T10:28:42Z</time>
      </trkpt>
      <trkpt lat="45.76742" lon="4.82716">
        <ele>167.2</ele>
        <time>2011-09-11T10:28:44Z</time>
      </trkpt>
      <trkpt lat="45.76747" lon="4.82703">
        <ele>166.1</ele>
        <time>2011-09-11T10:28:46Z</time>
      </trkpt>
      <trkpt lat="45.76751" lon="4.82691">
        <ele>165</ele>
        <time>2011-09-11T10:28:48Z</time>
      </trkpt>
      <trkpt lat="45.76757" lon="4.82671">
        <ele>165</ele>
        <time>2011-09-11T10:28:51Z</time>
      </trkpt>
      <trkpt lat="45.76762" lon="4.82655">
        <ele>165</ele>
        <time>2011-09-11T10:28:53Z</time>
      </trkpt>
      <trkpt lat="45.76765" lon="4.82636">
        <ele>165</ele>
        <time>2011-09-11T10:28:55Z</time>
      </trkpt>
      <trkpt lat="45.76768" lon="4.82618">
        <ele>165</ele>
        <time>2011-09-11T10:28:57Z</time>
      </trkpt>
      <trkpt lat="45.76769" lon="4.82601">
        <ele>165</ele>
        <time>2011-09-11T10:28:59Z</time>
      </trkpt>
      <trkpt lat="45.76769" lon="4.82584">
        <ele>165</ele>
        <time>2011-09-11T10:29:01Z</time>
      </trkpt>
      <trkpt lat="45.76768" lon="4.82568">
        <ele>165</ele>
        <time>2011-09-11T10:29:03Z</time>
      </trkpt>
      <trkpt lat="45.76767" lon="4.82552">
        <ele>165</ele>
        <time>2011-09-11T10:29:05Z</time>
      </trkpt>
      <trkpt lat="45.76766" lon="4.82537">
        <ele>165</ele>
        <time>2011-09-11T10:29:07Z</time>
      </trkpt>
      <trkpt lat="45.76764" lon="4.82521">
        <ele>165</ele>
        <time>2011-09-11T10:29:09Z</time>
      </trkpt>
      <trkpt lat="45.76762" lon="4.82504">
        <ele>165</ele>
        <time>2011-09-11T10:29:11Z</time>
      </trkpt>
      <trkpt lat="45.7676" lon="4.82486">
        <ele>165</ele>
        <time>2011-09-11T10:29:13Z</time>
      </trkpt>
      <trkpt lat="45.76758" lon="4.82468">
        <ele>165</ele>
        <time>2011-09-11T10:29:15Z</time>
      </trkpt>
      <trkpt lat="45.76756" lon="4.8245">
        <ele>165</ele>
        <time>2011-09-11T10:29:17Z</time>
      </trkpt>
      <trkpt lat="45.76754" lon="4.82432">
        <ele>165</ele>
        <time>2011-09-11T10:29:19Z</time>
      </trkpt>
      <trkpt lat="45.76753" lon="4.82413">
        <ele>165</ele>
        <time>2011-09-11T10:29:21Z</time>
      </trkpt>
      <trkpt lat="45.76752" lon="4.82394">
        <ele>165</ele>
        <time>2011-09-11T10:29:23Z</time>
      </trkpt>
      <trkpt lat="45.7675" lon="4.82375">
        <ele>165</ele>
        <time>2011-09-11T10:29:25Z</time>
      </trkpt>
      <trkpt lat="45.76749" lon="4.82358">
        <ele>165</ele>
        <time>2011-09-11T10:29:27Z</time>
      </trkpt>
      <trkpt lat="45.76748" lon="4.82342">
        <ele>165</ele>
        <time>2011-09-11T10:29:29Z</time>
      </trkpt>
      <trkpt lat="45.76747" lon="4.82327">
        <ele>165</ele>
        <time>2011-09-11T10:29:31Z</time>
      </trkpt>
      <trkpt lat="45.76746" lon="4.82313">
        <ele>165</ele>
        <time>2011-09-11T10:29:33Z</time>
      </trkpt>
      <trkpt lat="45.76745" lon="4.82294">
        <ele>165</ele>
        <time>2011-09-11T10:29:36Z</time>
      </trkpt>
      <trkpt lat="45.76743" lon="4.82276">
        <ele>165</ele>
        <time>2011-09-11T10:29:39Z</time>
      </trkpt>
      <trkpt lat="45.76742" lon="4.82259">
        <ele>165</ele>
        <time>2011-09-11T10:29:42Z</time>
      </trkpt>
      <trkpt lat="45.76739" lon="4.82244">
        <ele>165</ele>
        <time>2011-09-11T10:29:45Z</time>
      </trkpt>
      <trkpt lat="45.76737" lon="4.8223">
        <ele>165</ele>
        <time>2011-09-11T10:29:48Z</time>
      </trkpt>
      <trkpt lat="45.76733" lon="4.82217">
        <ele>167.8</ele>
        <time>2011-09-11T10:29:51Z</time>
      </trkpt>
      <trkpt lat="45.76729" lon="4.82205">
        <ele>167.8</ele>
        <time>2011-09-11T10:29:54Z</time>
      </trkpt>
      <trkpt lat="45.76724" lon="4.8219">
        <ele>167.8</ele>
        <time>2011-09-11T10:29:58Z</time>
      </trkpt>
      <trkpt lat="45.7672" lon="4.82178">
        <ele>167.8</ele>
        <time>2011-09-11T10:30:01Z</time>
      </trkpt>
      <trkpt lat="45.76715" lon="4.82162">
        <ele>167.8</ele>
        <time>2011-09-11T10:30:04Z</time>
      </trkpt>
      <trkpt lat="45.76709" lon="4.82144">
        <ele>167.8</ele>
        <time>2011-09-11T10:30:07Z</time>
      </trkpt>
      <trkpt lat="45.76706" lon="4.82131">
        <ele>167.8</ele>
        <time>2011-09-11T10:30:09Z</time>
      </trkpt>
      <trkpt lat="45.76703" lon="4.82118">
        <ele>167.8</ele>
        <time>2011-09-11T10:30:11Z</time>
      </trkpt>
      <trkpt lat="45.76699" lon="4.82106">
        <ele>167.8</ele>
        <time>2011-09-11T10:30:13Z</time>
      </trkpt>
      <trkpt lat="45.76695" lon="4.82093">
        <ele>167.8</ele>
        <time>2011-09-11T10:30:15Z</time>
      </trkpt>
      <trkpt lat="45.76691" lon="4.82081">
        <ele>167.8</ele>
        <time>2011-09-11T10:30:17Z</time>
      </trkpt>
      <trkpt lat="45.76686" lon="4.82066">
        <ele>165</ele>
        <time>2011-09-11T10:30:21Z</time>
      </trkpt>
      <trkpt lat="45.76685" lon="4.82047">
        <ele>165</ele>
        <time>2011-09-11T10:30:27Z</time>
      </trkpt>
      <trkpt lat="45.76681" lon="4.82029">
        <ele>165</ele>
        <time>2011-09-11T10:30:29Z</time>
      </trkpt>
      <trkpt lat="45.76678" lon="4.82007">
        <ele>165</ele>
        <time>2011-09-11T10:30:31Z</time>
      </trkpt>
      <trkpt lat="45.76674" lon="4.81988">
        <ele>165</ele>
        <time>2011-09-11T10:30:33Z</time>
      </trkpt>
      <trkpt lat="45.76671" lon="4.81969">
        <ele>165</ele>
        <time>2011-09-11T10:30:35Z</time>
      </trkpt>
      <trkpt lat="45.76668" lon="4.81948">
        <ele>165</ele>
        <time>2011-09-11T10:30:37Z</time>
      </trkpt>
      <trkpt lat="45.76664" lon="4.81927">
        <ele>165</ele>
        <time>2011-09-11T10:30:39Z</time>
      </trkpt>
      <trkpt lat="45.76661" lon="4.81906">
        <ele>165</ele>
        <time>2011-09-11T10:30:41Z</time>
      </trkpt>
      <trkpt lat="45.76658" lon="4.81887">
        <ele>165</ele>
        <time>2011-09-11T10:30:43Z</time>
      </trkpt>
      <trkpt lat="45.76656" lon="4.81869">
        <ele>165</ele>
        <time>2011-09-11T10:30:45Z</time>
      </trkpt>
      <trkpt lat="45.76655" lon="4.81853">
        <ele>165</ele>
        <time>2011-09-11T10:30:47Z</time>
      </trkpt>
      <trkpt lat="45.76653" lon="4.81837">
        <ele>165</ele>
        <time>2011-09-11T10:30:49Z</time>
      </trkpt>
      <trkpt lat="45.76653" lon="4.81821">
        <ele>165</ele>
        <time>2011-09-11T10:30:51Z</time>
      </trkpt>
      <trkpt lat="45.76653" lon="4.81806">
        <ele>165</ele>
        <time>2011-09-11T10:30:53Z</time>
      </trkpt>
      <trkpt lat="45.76654" lon="4.81792">
        <ele>165</ele>
        <time>2011-09-11T10:30:55Z</time>
      </trkpt>
      <trkpt lat="45.76654" lon="4.81774">
        <ele>166.6</ele>
        <time>2011-09-11T10:30:58Z</time>
      </trkpt>
      <trkpt lat="45.76653" lon="4.8176">
        <ele>168.3</ele>
        <time>2011-09-11T10:31:01Z</time>
      </trkpt>
      <trkpt lat="45.76655" lon="4.81742">
        <ele>169.9</ele>
        <time>2011-09-11T10:31:04Z</time>
      </trkpt>
      <trkpt lat="45.76657" lon="4.81729">
        <ele>171.5</ele>
        <time>2011-09-11T10:31:06Z</time>
      </trkpt>
      <trkpt lat="45.76659" lon="4.81714">
        <ele>173.5</ele>
        <time>2011-09-11T10:31:08Z</time>
      </trkpt>
      <trkpt lat="45.76662" lon="4.81698">
        <ele>175.4</ele>
        <time>2011-09-11T10:31:10Z</time>
      </trkpt>
      <trkpt lat="45.76666" lon="4.81681">
        <ele>177.3</ele>
        <time>2011-09-11T10:31:12Z</time>
      </trkpt>
      <trkpt lat="45.76669" lon="4.81665">
        <ele>179.2</ele>
        <time>2011-09-11T10:31:14Z</time>
      </trkpt>
      <trkpt lat="45.76673" lon="4.81648">
        <ele>181.1</ele>
        <time>2011-09-11T10:31:16Z</time>
      </trkpt>
      <trkpt lat="45.76676" lon="4.8163">
        <ele>183</ele>
        <time>2011-09-11T10:31:18Z</time>
      </trkpt>
      <trkpt lat="45.7668" lon="4.81613">
        <ele>184.9</ele>
        <time>2011-09-11T10:31:20Z</time>
      </trkpt>
      <trkpt lat="45.76684" lon="4.81595">
        <ele>183.3</ele>
        <time>2011-09-11T10:31:22Z</time>
      </trkpt>
      <trkpt lat="45.76689" lon="4.81579">
        <ele>181.6</ele>
        <time>2011-09-11T10:31:24Z</time>
      </trkpt>
      <trkpt lat="45.76694" lon="4.81563">
        <ele>180</ele>
        <time>2011-09-11T10:31:26Z</time>
      </trkpt>
      <trkpt lat="45.767" lon="4.81547">
        <ele>178.4</ele>
        <time>2011-09-11T10:31:28Z</time>
      </trkpt>
      <trkpt lat="45.76706" lon="4.81531">
        <ele>176.5</ele>
        <time>2011-09-11T10:31:30Z</time>
      </trkpt>
      <trkpt lat="45.76713" lon="4.81516">
        <ele>174.5</ele>
        <time>2011-09-11T10:31:32Z</time>
      </trkpt>
      <trkpt lat="45.76719" lon="4.815">
        <ele>172.6</ele>
        <time>2011-09-11T10:31:34Z</time>
      </trkpt>
      <trkpt lat="45.76726" lon="4.81485">
        <ele>170.7</ele>
        <time>2011-09-11T10:31:36Z</time>
      </trkpt>
      <trkpt lat="45.76732" lon="4.81472">
        <ele>168.8</ele>
        <time>2011-09-11T10:31:38Z</time>
      </trkpt>
      <trkpt lat="45.76738" lon="4.8146">
        <ele>167.8</ele>
        <time>2011-09-11T10:31:40Z</time>
      </trkpt>
      <trkpt lat="45.76744" lon="4.81445">
        <ele>166.8</ele>
        <time>2011-09-11T10:31:42Z</time>
      </trkpt>
      <trkpt lat="45.76751" lon="4.81427">
        <ele>166.8</ele>
        <time>2011-09-11T10:31:44Z</time>
      </trkpt>
      <trkpt lat="45.76759" lon="4.81407">
        <ele>166.8</ele>
        <time>2011-09-11T10:31:46Z</time>
      </trkpt>
      <trkpt lat="45.76768" lon="4.81389">
        <ele>166.8</ele>
        <time>2011-09-11T10:31:48Z</time>
      </trkpt>
      <trkpt lat="45.76777" lon="4.81372">
        <ele>166.8</ele>
        <time>2011-09-11T10:31:50Z</time>
      </trkpt>
      <trkpt lat="45.76787" lon="4.81354">
        <ele>167.4</ele>
        <time>2011-09-11T10:31:52Z</time>
      </trkpt>
      <trkpt lat="45.768" lon="4.81338">
        <ele>167.9</ele>
        <time>2011-09-11T10:31:54Z</time>
      </trkpt>
      <trkpt lat="45.76815" lon="4.81324">
        <ele>167.9</ele>
        <time>2011-09-11T10:31:56Z</time>
      </trkpt>
      <trkpt lat="45.76831" lon="4.81313">
        <ele>167.9</ele>
        <time>2011-09-11T10:31:58Z</time>
      </trkpt>
      <trkpt lat="45.76847" lon="4.81304">
        <ele>167.9</ele>
        <time>2011-09-11T10:32:00Z</time>
      </trkpt>
      <trkpt lat="45.76863" lon="4.81298">
        <ele>167</ele>
        <time>2011-09-11T10:32:02Z</time>
      </trkpt>
      <trkpt lat="45.7688" lon="4.81292">
        <ele>166.1</ele>
        <time>2011-09-11T10:32:04Z</time>
      </trkpt>
      <trkpt lat="45.76896" lon="4.81286">
        <ele>166.1</ele>
        <time>2011-09-11T10:32:06Z</time>
      </trkpt>
      <trkpt lat="45.76912" lon="4.81281">
        <ele>166.1</ele>
        <time>2011-09-11T10:32:08Z</time>
      </trkpt>
      <trkpt lat="45.76925" lon="4.81277">
        <ele>166.1</ele>
        <time>2011-09-11T10:32:10Z</time>
      </trkpt>
      <trkpt lat="45.76936" lon="4.81275">
        <ele>166.1</ele>
        <time>2011-09-11T10:32:12Z</time>
      </trkpt>
      <trkpt lat="45.76947" lon="4.81273">
        <ele>165.5</ele>
        <time>2011-09-11T10:32:14Z</time>
      </trkpt>
      <trkpt lat="45.76956" lon="4.81272">
        <ele>165</ele>
        <time>2011-09-11T10:32:16Z</time>
      </trkpt>
      <trkpt lat="45.76967" lon="4.8127">
        <ele>165</ele>
        <time>2011-09-11T10:32:19Z</time>
      </trkpt>
      <trkpt lat="45.76976" lon="4.81267">
        <ele>165</ele>
        <time>2011-09-11T10:32:22Z</time>
      </trkpt>
      <trkpt lat="45.76986" lon="4.81264">
        <ele>165</ele>
        <time>2011-09-11T10:32:25Z</time>
      </trkpt>
      <trkpt lat="45.76993" lon="4.81271">
        <ele>165</ele>
        <time>2011-09-11T10:32:28Z</time>
      </trkpt>
      <trkpt lat="45.76995" lon="4.81289">
        <ele>165</ele>
        <time>2011-09-11T10:32:31Z</time>
      </trkpt>
      <trkpt lat="45.76997" lon="4.81304">
        <ele>165</ele>
        <time>2011-09-11T10:32:34Z</time>
      </trkpt>
      <trkpt lat="45.76999" lon="4.81318">
        <ele>165.6</ele>
        <time>2011-09-11T10:32:37Z</time>
      </trkpt>
      <trkpt lat="45.77002" lon="4.81332">
        <ele>166.3</ele>
        <time>2011-09-11T10:32:40Z</time>
      </trkpt>
      <trkpt lat="45.77004" lon="4.81346">
        <ele>166.9</ele>
        <time>2011-09-11T10:32:43Z</time>
      </trkpt>
      <trkpt lat="45.77007" lon="4.81359">
        <ele>167.5</ele>
        <time>2011-09-11T10:32:46Z</time>
      </trkpt>
      <trkpt lat="45.7701" lon="4.81375">
        <ele>168.2</ele>
        <time>2011-09-11T10:32:49Z</time>
      </trkpt>
      <trkpt lat="45.7701" lon="4.81394">
        <ele>168.8</ele>
        <time>2011-09-11T10:32:52Z</time>
      </trkpt>
      <trkpt lat="45.77003" lon="4.81406">
        <ele>168.8</ele>
        <time>2011-09-11T10:32:55Z</time>
      </trkpt>
      <trkpt lat="45.76994" lon="4.81411">
        <ele>168.8</ele>
        <time>2011-09-11T10:32:58Z</time>
      </trkpt>
      <trkpt lat="45.76985" lon="4.81417">
        <ele>168.8</ele>
        <time>2011-09-11T10:33:01Z</time>
      </trkpt>
      <trkpt lat="45.76974" lon="4.81424">
        <ele>168.8</ele>
        <time>2011-09-11T10:33:04Z</time>
      </trkpt>
      <trkpt lat="45.76965" lon="4.81444">
        <ele>168.8</ele>
        <time>2011-09-11T10:33:27Z</time>
      </trkpt>
      <trkpt lat="45.76955" lon="4.81449">
        <ele>169.6</ele>
        <time>2011-09-11T10:33:30Z</time>
      </trkpt>
      <trkpt lat="45.76942" lon="4.81448">
        <ele>169.7</ele>
        <time>2011-09-11T10:33:33Z</time>
      </trkpt>
      <trkpt lat="45.7693" lon="4.8145">
        <ele>169.8</ele>
        <time>2011-09-11T10:33:35Z</time>
      </trkpt>
      <trkpt lat="45.76916" lon="4.81454">
        <ele>169.9</ele>
        <time>2011-09-11T10:33:37Z</time>
      </trkpt>
      <trkpt lat="45.76899" lon="4.81461">
        <ele>170</ele>
        <time>2011-09-11T10:33:39Z</time>
      </trkpt>
      <trkpt lat="45.76883" lon="4.81469">
        <ele>170.1</ele>
        <time>2011-09-11T10:33:41Z</time>
      </trkpt>
      <trkpt lat="45.76871" lon="4.81477">
        <ele>170.8</ele>
        <time>2011-09-11T10:33:43Z</time>
      </trkpt>
      <trkpt lat="45.7686" lon="4.81484">
        <ele>171.5</ele>
        <time>2011-09-11T10:33:45Z</time>
      </trkpt>
      <trkpt lat="45.7685" lon="4.81492">
        <ele>172.2</ele>
        <time>2011-09-11T10:33:47Z</time>
      </trkpt>
      <trkpt lat="45.76841" lon="4.81501">
        <ele>172.8</ele>
        <time>2011-09-11T10:33:49Z</time>
      </trkpt>
      <trkpt lat="45.76834" lon="4.81511">
        <ele>173.5</ele>
        <time>2011-09-11T10:33:51Z</time>
      </trkpt>
      <trkpt lat="45.7683" lon="4.81523">
        <ele>172.6</ele>
        <time>2011-09-11T10:33:53Z</time>
      </trkpt>
      <trkpt lat="45.76825" lon="4.81536">
        <ele>172.5</ele>
        <time>2011-09-11T10:33:55Z</time>
      </trkpt>
      <trkpt lat="45.7682" lon="4.81549">
        <ele>172.5</ele>
        <time>2011-09-11T10:33:57Z</time>
      </trkpt>
      <trkpt lat="45.76815" lon="4.81561">
        <ele>171.7</ele>
        <time>2011-09-11T10:33:59Z</time>
      </trkpt>
      <trkpt lat="45.76808" lon="4.81576">
        <ele>171</ele>
        <time>2011-09-11T10:34:02Z</time>
      </trkpt>
      <trkpt lat="45.76802" lon="4.81588">
        <ele>170.3</ele>
        <time>2011-09-11T10:34:05Z</time>
      </trkpt>
      <trkpt lat="45.76796" lon="4.81602">
        <ele>169.5</ele>
        <time>2011-09-11T10:34:09Z</time>
      </trkpt>
      <trkpt lat="45.76793" lon="4.81618">
        <ele>168.8</ele>
        <time>2011-09-11T10:34:12Z</time>
      </trkpt>
      <trkpt lat="45.76789" lon="4.81636">
        <ele>168.2</ele>
        <time>2011-09-11T10:34:15Z</time>
      </trkpt>
      <trkpt lat="45.76785" lon="4.81654">
        <ele>167.9</ele>
        <time>2011-09-11T10:34:18Z</time>
      </trkpt>
      <trkpt lat="45.76781" lon="4.81672">
        <ele>167.6</ele>
        <time>2011-09-11T10:34:21Z</time>
      </trkpt>
      <trkpt lat="45.76778" lon="4.81685">
        <ele>167.4</ele>
        <time>2011-09-11T10:34:23Z</time>
      </trkpt>
      <trkpt lat="45.76775" lon="4.81698">
        <ele>167.1</ele>
        <time>2011-09-11T10:34:25Z</time>
      </trkpt>
      <trkpt lat="45.76773" lon="4.8171">
        <ele>166.8</ele>
        <time>2011-09-11T10:34:27Z</time>
      </trkpt>
      <trkpt lat="45.7677" lon="4.81726">
        <ele>167.3</ele>
        <time>2011-09-11T10:34:30Z</time>
      </trkpt>
      <trkpt lat="45.76766" lon="4.81744">
        <ele>167.7</ele>
        <time>2011-09-11T10:34:33Z</time>
      </trkpt>
      <trkpt lat="45.76763" lon="4.81762">
        <ele>168.2</ele>
        <time>2011-09-11T10:34:36Z</time>
      </trkpt>
      <trkpt lat="45.76761" lon="4.81775">
        <ele>168.6</ele>
        <time>2011-09-11T10:34:38Z</time>
      </trkpt>
      <trkpt lat="45.76758" lon="4.81788">
        <ele>169.1</ele>
        <time>2011-09-11T10:34:40Z</time>
      </trkpt>
      <trkpt lat="45.76756" lon="4.81802">
        <ele>169.5</ele>
        <time>2011-09-11T10:34:42Z</time>
      </trkpt>
      <trkpt lat="45.76754" lon="4.81816">
        <ele>170.2</ele>
        <time>2011-09-11T10:34:44Z</time>
      </trkpt>
      <trkpt lat="45.76752" lon="4.8183">
        <ele>170.8</ele>
        <time>2011-09-11T10:34:46Z</time>
      </trkpt>
      <trkpt lat="45.76751" lon="4.81845">
        <ele>171.5</ele>
        <time>2011-09-11T10:34:48Z</time>
      </trkpt>
      <trkpt lat="45.76751" lon="4.81859">
        <ele>172.1</ele>
        <time>2011-09-11T10:34:50Z</time>
      </trkpt>
      <trkpt lat="45.76752" lon="4.81874">
        <ele>172.7</ele>
        <time>2011-09-11T10:34:52Z</time>
      </trkpt>
      <trkpt lat="45.76754" lon="4.81888">
        <ele>173.3</ele>
        <time>2011-09-11T10:34:54Z</time>
      </trkpt>
      <trkpt lat="45.76755" lon="4.81903">
        <ele>173.5</ele>
        <time>2011-09-11T10:34:56Z</time>
      </trkpt>
      <trkpt lat="45.76756" lon="4.81917">
        <ele>173.6</ele>
        <time>2011-09-11T10:34:58Z</time>
      </trkpt>
      <trkpt lat="45.76758" lon="4.8193">
        <ele>173.8</ele>
        <time>2011-09-11T10:35:00Z</time>
      </trkpt>
      <trkpt lat="45.7676" lon="4.81944">
        <ele>174</ele>
        <time>2011-09-11T10:35:02Z</time>
      </trkpt>
      <trkpt lat="45.76763" lon="4.81958">
        <ele>174.2</ele>
        <time>2011-09-11T10:35:04Z</time>
      </trkpt>
      <trkpt lat="45.76766" lon="4.81972">
        <ele>173.8</ele>
        <time>2011-09-11T10:35:06Z</time>
      </trkpt>
      <trkpt lat="45.76768" lon="4.81987">
        <ele>173.2</ele>
        <time>2011-09-11T10:35:08Z</time>
      </trkpt>
      <trkpt lat="45.76771" lon="4.82001">
        <ele>172.5</ele>
        <time>2011-09-11T10:35:10Z</time>
      </trkpt>
      <trkpt lat="45.76773" lon="4.82015">
        <ele>171.9</ele>
        <time>2011-09-11T10:35:12Z</time>
      </trkpt>
      <trkpt lat="45.76775" lon="4.8203">
        <ele>171.3</ele>
        <time>2011-09-11T10:35:14Z</time>
      </trkpt>
      <trkpt lat="45.76778" lon="4.82047">
        <ele>170.3</ele>
        <time>2011-09-11T10:35:16Z</time>
      </trkpt>
      <trkpt lat="45.76781" lon="4.82065">
        <ele>171.2</ele>
        <time>2011-09-11T10:35:18Z</time>
      </trkpt>
      <trkpt lat="45.76783" lon="4.82084">
        <ele>172.1</ele>
        <time>2011-09-11T10:35:20Z</time>
      </trkpt>
      <trkpt lat="45.76784" lon="4.82103">
        <ele>173</ele>
        <time>2011-09-11T10:35:22Z</time>
      </trkpt>
      <trkpt lat="45.76787" lon="4.82123">
        <ele>173.7</ele>
        <time>2011-09-11T10:35:24Z</time>
      </trkpt>
      <trkpt lat="45.76791" lon="4.82145">
        <ele>174.2</ele>
        <time>2011-09-11T10:35:26Z</time>
      </trkpt>
      <trkpt lat="45.76795" lon="4.82168">
        <ele>174.6</ele>
        <time>2011-09-11T10:35:28Z</time>
      </trkpt>
      <trkpt lat="45.76799" lon="4.82191">
        <ele>175.4</ele>
        <time>2011-09-11T10:35:30Z</time>
      </trkpt>
      <trkpt lat="45.76802" lon="4.82215">
        <ele>176.1</ele>
        <time>2011-09-11T10:35:32Z</time>
      </trkpt>
      <trkpt lat="45.76808" lon="4.8226">
        <ele>176.8</ele>
        <time>2011-09-11T10:35:36Z</time>
      </trkpt>
      <trkpt lat="45.76812" lon="4.82303">
        <ele>177.5</ele>
        <time>2011-09-11T10:35:40Z</time>
      </trkpt>
      <trkpt lat="45.76815" lon="4.82322">
        <ele>178.5</ele>
        <time>2011-09-11T10:35:42Z</time>
      </trkpt>
      <trkpt lat="45.76816" lon="4.82338">
        <ele>177.8</ele>
        <time>2011-09-11T10:35:44Z</time>
      </trkpt>
      <trkpt lat="45.76821" lon="4.82358">
        <ele>177.2</ele>
        <time>2011-09-11T10:35:48Z</time>
      </trkpt>
      <trkpt lat="45.76827" lon="4.82368">
        <ele>176.5</ele>
        <time>2011-09-11T10:35:51Z</time>
      </trkpt>
      <trkpt lat="45.76829" lon="4.82384">
        <ele>176.1</ele>
        <time>2011-09-11T10:35:54Z</time>
      </trkpt>
      <trkpt lat="45.7683" lon="4.82401">
        <ele>175.5</ele>
        <time>2011-09-11T10:35:57Z</time>
      </trkpt>
      <trkpt lat="45.76831" lon="4.82418">
        <ele>174.8</ele>
        <time>2011-09-11T10:36:00Z</time>
      </trkpt>
      <trkpt lat="45.76831" lon="4.82433">
        <ele>174.2</ele>
        <time>2011-09-11T10:36:03Z</time>
      </trkpt>
      <trkpt lat="45.76832" lon="4.82448">
        <ele>174</ele>
        <time>2011-09-11T10:36:06Z</time>
      </trkpt>
      <trkpt lat="45.76837" lon="4.82465">
        <ele>175.9</ele>
        <time>2011-09-11T10:36:10Z</time>
      </trkpt>
      <trkpt lat="45.76847" lon="4.82469">
        <ele>177.8</ele>
        <time>2011-09-11T10:36:14Z</time>
      </trkpt>
      <trkpt lat="45.76858" lon="4.82469">
        <ele>179.9</ele>
        <time>2011-09-11T10:36:20Z</time>
      </trkpt>
      <trkpt lat="45.76869" lon="4.82467">
        <ele>182</ele>
        <time>2011-09-11T10:36:33Z</time>
      </trkpt>
      <trkpt lat="45.76879" lon="4.82464">
        <ele>184.1</ele>
        <time>2011-09-11T10:36:41Z</time>
      </trkpt>
      <trkpt lat="45.76891" lon="4.82461">
        <ele>186.2</ele>
        <time>2011-09-11T10:37:00Z</time>
      </trkpt>
      <trkpt lat="45.76899" lon="4.82453">
        <ele>188.3</ele>
        <time>2011-09-11T10:37:08Z</time>
      </trkpt>
      <trkpt lat="45.7691" lon="4.82464">
        <ele>190.8</ele>
        <time>2011-09-11T10:37:27Z</time>
      </trkpt>
      <trkpt lat="45.76916" lon="4.82452">
        <ele>193.4</ele>
        <time>2011-09-11T10:37:51Z</time>
      </trkpt>
      <trkpt lat="45.7692" lon="4.82438">
        <ele>196.6</ele>
        <time>2011-09-11T10:37:55Z</time>
      </trkpt>
      <trkpt lat="45.76926" lon="4.82425">
        <ele>199.5</ele>
        <time>2011-09-11T10:38:03Z</time>
      </trkpt>
      <trkpt lat="45.76916" lon="4.82409">
        <ele>200.2</ele>
        <time>2011-09-11T10:38:14Z</time>
      </trkpt>
      <trkpt lat="45.76904" lon="4.82402">
        <ele>200.9</ele>
        <time>2011-09-11T10:38:19Z</time>
      </trkpt>
      <trkpt lat="45.76897" lon="4.82393">
        <ele>201.6</ele>
        <time>2011-09-11T10:38:25Z</time>
      </trkpt>
      <trkpt lat="45.76897" lon="4.82379">
        <ele>202.4</ele>
        <time>2011-09-11T10:38:34Z</time>
      </trkpt>
      <trkpt lat="45.76895" lon="4.82366">
        <ele>203.1</ele>
        <time>2011-09-11T10:38:45Z</time>
      </trkpt>
      <trkpt lat="45.76899" lon="4.82355">
        <ele>203.9</ele>
        <time>2011-09-11T10:38:56Z</time>
      </trkpt>
      <trkpt lat="45.76906" lon="4.82346">
        <ele>204.7</ele>
        <time>2011-09-11T10:39:02Z</time>
      </trkpt>
      <trkpt lat="45.76912" lon="4.82335">
        <ele>205.5</ele>
        <time>2011-09-11T10:39:08Z</time>
      </trkpt>
      <trkpt lat="45.76917" lon="4.82321">
        <ele>206.4</ele>
        <time>2011-09-11T10:39:15Z</time>
      </trkpt>
      <trkpt lat="45.76917" lon="4.82305">
        <ele>206.5</ele>
        <time>2011-09-11T10:39:21Z</time>
      </trkpt>
      <trkpt lat="45.76917" lon="4.82289">
        <ele>207</ele>
        <time>2011-09-11T10:39:24Z</time>
      </trkpt>
      <trkpt lat="45.76918" lon="4.82276">
        <ele>207.5</ele>
        <time>2011-09-11T10:39:26Z</time>
      </trkpt>
      <trkpt lat="45.76919" lon="4.82261">
        <ele>208.1</ele>
        <time>2011-09-11T10:39:29Z</time>
      </trkpt>
      <trkpt lat="45.7692" lon="4.82248">
        <ele>208.6</ele>
        <time>2011-09-11T10:39:32Z</time>
      </trkpt>
      <trkpt lat="45.76921" lon="4.82231">
        <ele>209.2</ele>
        <time>2011-09-11T10:39:36Z</time>
      </trkpt>
      <trkpt lat="45.76918" lon="4.82217">
        <ele>209.7</ele>
        <time>2011-09-11T10:39:39Z</time>
      </trkpt>
      <trkpt lat="45.76915" lon="4.82204">
        <ele>210.4</ele>
        <time>2011-09-11T10:39:41Z</time>
      </trkpt>
      <trkpt lat="45.76911" lon="4.82192">
        <ele>211</ele>
        <time>2011-09-11T10:39:43Z</time>
      </trkpt>
      <trkpt lat="45.76906" lon="4.82179">
        <ele>211.6</ele>
        <time>2011-09-11T10:39:45Z</time>
      </trkpt>
      <trkpt lat="45.76902" lon="4.82164">
        <ele>212.3</ele>
        <time>2011-09-11T10:39:47Z</time>
      </trkpt>
      <trkpt lat="45.769" lon="4.82146">
        <ele>212.9</ele>
        <time>2011-09-11T10:39:49Z</time>
      </trkpt>
      <trkpt lat="45.769" lon="4.82131">
        <ele>213.1</ele>
        <time>2011-09-11T10:39:51Z</time>
      </trkpt>
      <trkpt lat="45.76899" lon="4.82116">
        <ele>213.5</ele>
        <time>2011-09-11T10:39:53Z</time>
      </trkpt>
      <trkpt lat="45.76896" lon="4.82102">
        <ele>213.8</ele>
        <time>2011-09-11T10:39:55Z</time>
      </trkpt>
      <trkpt lat="45.76893" lon="4.82087">
        <ele>214.2</ele>
        <time>2011-09-11T10:39:57Z</time>
      </trkpt>
      <trkpt lat="45.7689" lon="4.82073">
        <ele>214.5</ele>
        <time>2011-09-11T10:39:59Z</time>
      </trkpt>
      <trkpt lat="45.76892" lon="4.82058">
        <ele>214.9</ele>
        <time>2011-09-11T10:40:02Z</time>
      </trkpt>
      <trkpt lat="45.76892" lon="4.82041">
        <ele>215.3</ele>
        <time>2011-09-11T10:40:09Z</time>
      </trkpt>
      <trkpt lat="45.76891" lon="4.82018">
        <ele>215.6</ele>
        <time>2011-09-11T10:41:12Z</time>
      </trkpt>
      <trkpt lat="45.76891" lon="4.82001">
        <ele>216</ele>
        <time>2011-09-11T10:41:24Z</time>
      </trkpt>
      <trkpt lat="45.76891" lon="4.81985">
        <ele>216.4</ele>
        <time>2011-09-11T10:41:28Z</time>
      </trkpt>
      <trkpt lat="45.76889" lon="4.81969">
        <ele>216.7</ele>
        <time>2011-09-11T10:41:33Z</time>
      </trkpt>
      <trkpt lat="45.76888" lon="4.81954">
        <ele>217.1</ele>
        <time>2011-09-11T10:41:37Z</time>
      </trkpt>
      <trkpt lat="45.76887" lon="4.8194">
        <ele>216.6</ele>
        <time>2011-09-11T10:41:40Z</time>
      </trkpt>
      <trkpt lat="45.76885" lon="4.81927">
        <ele>216.2</ele>
        <time>2011-09-11T10:41:43Z</time>
      </trkpt>
      <trkpt lat="45.76885" lon="4.81914">
        <ele>215.7</ele>
        <time>2011-09-11T10:41:45Z</time>
      </trkpt>
      <trkpt lat="45.76888" lon="4.81901">
        <ele>215.3</ele>
        <time>2011-09-11T10:41:47Z</time>
      </trkpt>
      <trkpt lat="45.7689" lon="4.81888">
        <ele>214.8</ele>
        <time>2011-09-11T10:41:49Z</time>
      </trkpt>
      <trkpt lat="45.76892" lon="4.81871">
        <ele>214.2</ele>
        <time>2011-09-11T10:41:51Z</time>
      </trkpt>
      <trkpt lat="45.76895" lon="4.81854">
        <ele>213.2</ele>
        <time>2011-09-11T10:41:53Z</time>
      </trkpt>
      <trkpt lat="45.76897" lon="4.81838">
        <ele>212.2</ele>
        <time>2011-09-11T10:41:55Z</time>
      </trkpt>
      <trkpt lat="45.76899" lon="4.81824">
        <ele>211.2</ele>
        <time>2011-09-11T10:41:57Z</time>
      </trkpt>
      <trkpt lat="45.76901" lon="4.8181">
        <ele>210.2</ele>
        <time>2011-09-11T10:41:59Z</time>
      </trkpt>
      <trkpt lat="45.76903" lon="4.81796">
        <ele>209.2</ele>
        <time>2011-09-11T10:42:01Z</time>
      </trkpt>
      <trkpt lat="45.76905" lon="4.81783">
        <ele>207.8</ele>
        <time>2011-09-11T10:42:03Z</time>
      </trkpt>
      <trkpt lat="45.76908" lon="4.8177">
        <ele>206.5</ele>
        <time>2011-09-11T10:42:05Z</time>
      </trkpt>
      <trkpt lat="45.76911" lon="4.81758">
        <ele>205.1</ele>
        <time>2011-09-11T10:42:07Z</time>
      </trkpt>
      <trkpt lat="45.76914" lon="4.81745">
        <ele>203.7</ele>
        <time>2011-09-11T10:42:09Z</time>
      </trkpt>
      <trkpt lat="45.76918" lon="4.81726">
        <ele>202.4</ele>
        <time>2011-09-11T10:42:12Z</time>
      </trkpt>
      <trkpt lat="45.76919" lon="4.81709">
        <ele>201</ele>
        <time>2011-09-11T10:42:15Z</time>
      </trkpt>
      <trkpt lat="45.76922" lon="4.81689">
        <ele>200.7</ele>
        <time>2011-09-11T10:42:18Z</time>
      </trkpt>
      <trkpt lat="45.76929" lon="4.81675">
        <ele>200.5</ele>
        <time>2011-09-11T10:42:20Z</time>
      </trkpt>
      <trkpt lat="45.76939" lon="4.81661">
        <ele>200.2</ele>
        <time>2011-09-11T10:42:22Z</time>
      </trkpt>
      <trkpt lat="45.76951" lon="4.81648">
        <ele>199.9</ele>
        <time>2011-09-11T10:42:24Z</time>
      </trkpt>
      <trkpt lat="45.76964" lon="4.81634">
        <ele>199.6</ele>
        <time>2011-09-11T10:42:26Z</time>
      </trkpt>
      <trkpt lat="45.76976" lon="4.8162">
        <ele>200.4</ele>
        <time>2011-09-11T10:42:28Z</time>
      </trkpt>
      <trkpt lat="45.7699" lon="4.81607">
        <ele>201.1</ele>
        <time>2011-09-11T10:42:30Z</time>
      </trkpt>
      <trkpt lat="45.76998" lon="4.81601">
        <ele>203</ele>
        <time>2011-09-11T10:42:31Z</time>
      </trkpt>
      <trkpt lat="45.77007" lon="4.81597">
        <ele>204.9</ele>
        <time>2011-09-11T10:42:32Z</time>
      </trkpt>
      <trkpt lat="45.77016" lon="4.81594">
        <ele>206.8</ele>
        <time>2011-09-11T10:42:33Z</time>
      </trkpt>
      <trkpt lat="45.77032" lon="4.81588">
        <ele>208.7</ele>
        <time>2011-09-11T10:42:35Z</time>
      </trkpt>
      <trkpt lat="45.77043" lon="4.81586">
        <ele>209.9</ele>
        <time>2011-09-11T10:42:37Z</time>
      </trkpt>
      <trkpt lat="45.77053" lon="4.81584">
        <ele>211.1</ele>
        <time>2011-09-11T10:42:39Z</time>
      </trkpt>
      <trkpt lat="45.77063" lon="4.81583">
        <ele>212.3</ele>
        <time>2011-09-11T10:42:41Z</time>
      </trkpt>
      <trkpt lat="45.77073" lon="4.81583">
        <ele>213.7</ele>
        <time>2011-09-11T10:42:43Z</time>
      </trkpt>
      <trkpt lat="45.77082" lon="4.81585">
        <ele>215.2</ele>
        <time>2011-09-11T10:42:45Z</time>
      </trkpt>
      <trkpt lat="45.77107" lon="4.81589">
        <ele>216.6</ele>
        <time>2011-09-11T10:42:51Z</time>
      </trkpt>
      <trkpt lat="45.77118" lon="4.81592">
        <ele>216.5</ele>
        <time>2011-09-11T10:42:54Z</time>
      </trkpt>
      <trkpt lat="45.77127" lon="4.81593">
        <ele>215.1</ele>
        <time>2011-09-11T10:42:57Z</time>
      </trkpt>
      <trkpt lat="45.77135" lon="4.81582">
        <ele>213.7</ele>
        <time>2011-09-11T10:43:01Z</time>
      </trkpt>
      <trkpt lat="45.77139" lon="4.81568">
        <ele>212.4</ele>
        <time>2011-09-11T10:43:03Z</time>
      </trkpt>
      <trkpt lat="45.77144" lon="4.81553">
        <ele>211</ele>
        <time>2011-09-11T10:43:06Z</time>
      </trkpt>
      <trkpt lat="45.77149" lon="4.8154">
        <ele>209.6</ele>
        <time>2011-09-11T10:43:18Z</time>
      </trkpt>
      <trkpt lat="45.7716" lon="4.81538">
        <ele>209.9</ele>
        <time>2011-09-11T10:43:20Z</time>
      </trkpt>
      <trkpt lat="45.77171" lon="4.81536">
        <ele>209.9</ele>
        <time>2011-09-11T10:43:23Z</time>
      </trkpt>
      <trkpt lat="45.7718" lon="4.81536">
        <ele>209.6</ele>
        <time>2011-09-11T10:43:26Z</time>
      </trkpt>
      <trkpt lat="45.77192" lon="4.81536">
        <ele>209.4</ele>
        <time>2011-09-11T10:43:30Z</time>
      </trkpt>
      <trkpt lat="45.772" lon="4.81543">
        <ele>209.1</ele>
        <time>2011-09-11T10:43:34Z</time>
      </trkpt>
      <trkpt lat="45.77208" lon="4.8155">
        <ele>210.5</ele>
        <time>2011-09-11T10:43:38Z</time>
      </trkpt>
      <trkpt lat="45.7722" lon="4.81552">
        <ele>211.8</ele>
        <time>2011-09-11T10:43:42Z</time>
      </trkpt>
      <trkpt lat="45.77229" lon="4.81557">
        <ele>213.2</ele>
        <time>2011-09-11T10:43:45Z</time>
      </trkpt>
      <trkpt lat="45.77241" lon="4.81561">
        <ele>214.8</ele>
        <time>2011-09-11T10:43:48Z</time>
      </trkpt>
      <trkpt lat="45.77255" lon="4.8156">
        <ele>216.5</ele>
        <time>2011-09-11T10:43:51Z</time>
      </trkpt>
      <trkpt lat="45.77265" lon="4.8156">
        <ele>218.1</ele>
        <time>2011-09-11T10:43:53Z</time>
      </trkpt>
      <trkpt lat="45.77274" lon="4.81558">
        <ele>218.1</ele>
        <time>2011-09-11T10:43:56Z</time>
      </trkpt>
      <trkpt lat="45.77284" lon="4.81557">
        <ele>216.1</ele>
        <time>2011-09-11T10:43:59Z</time>
      </trkpt>
      <trkpt lat="45.77293" lon="4.81556">
        <ele>214.1</ele>
        <time>2011-09-11T10:44:01Z</time>
      </trkpt>
      <trkpt lat="45.77303" lon="4.81554">
        <ele>212.1</ele>
        <time>2011-09-11T10:44:03Z</time>
      </trkpt>
      <trkpt lat="45.77314" lon="4.81554">
        <ele>210.1</ele>
        <time>2011-09-11T10:44:07Z</time>
      </trkpt>
      <trkpt lat="45.77324" lon="4.81552">
        <ele>208.1</ele>
        <time>2011-09-11T10:44:11Z</time>
      </trkpt>
      <trkpt lat="45.77335" lon="4.81545">
        <ele>206.2</ele>
        <time>2011-09-11T10:44:14Z</time>
      </trkpt>
      <trkpt lat="45.77344" lon="4.8154">
        <ele>204.3</ele>
        <time>2011-09-11T10:44:16Z</time>
      </trkpt>
      <trkpt lat="45.77356" lon="4.81534">
        <ele>202.1</ele>
        <time>2011-09-11T10:44:18Z</time>
      </trkpt>
      <trkpt lat="45.77367" lon="4.81526">
        <ele>199.9</ele>
        <time>2011-09-11T10:44:20Z</time>
      </trkpt>
      <trkpt lat="45.77377" lon="4.81518">
        <ele>197.7</ele>
        <time>2011-09-11T10:44:22Z</time>
      </trkpt>
      <trkpt lat="45.77388" lon="4.81512">
        <ele>195.5</ele>
        <time>2011-09-11T10:44:24Z</time>
      </trkpt>
      <trkpt lat="45.77399" lon="4.81512">
        <ele>195.6</ele>
        <time>2011-09-11T10:44:26Z</time>
      </trkpt>
      <trkpt lat="45.77408" lon="4.81512">
        <ele>195.7</ele>
        <time>2011-09-11T10:44:28Z</time>
      </trkpt>
      <trkpt lat="45.7742" lon="4.81508">
        <ele>196.8</ele>
        <time>2011-09-11T10:44:31Z</time>
      </trkpt>
      <trkpt lat="45.7743" lon="4.81503">
        <ele>197.9</ele>
        <time>2011-09-11T10:44:33Z</time>
      </trkpt>
      <trkpt lat="45.77442" lon="4.81502">
        <ele>199</ele>
        <time>2011-09-11T10:44:35Z</time>
      </trkpt>
      <trkpt lat="45.77452" lon="4.81502">
        <ele>200</ele>
        <time>2011-09-11T10:44:37Z</time>
      </trkpt>
      <trkpt lat="45.77461" lon="4.81502">
        <ele>201</ele>
        <time>2011-09-11T10:44:40Z</time>
      </trkpt>
      <trkpt lat="45.7747" lon="4.81504">
        <ele>202</ele>
        <time>2011-09-11T10:44:45Z</time>
      </trkpt>
      <trkpt lat="45.77481" lon="4.81504">
        <ele>203</ele>
        <time>2011-09-11T10:44:50Z</time>
      </trkpt>
      <trkpt lat="45.77491" lon="4.81505">
        <ele>204</ele>
        <time>2011-09-11T10:44:54Z</time>
      </trkpt>
      <trkpt lat="45.77502" lon="4.81505">
        <ele>205.6</ele>
        <time>2011-09-11T10:44:59Z</time>
      </trkpt>
      <trkpt lat="45.77512" lon="4.81505">
        <ele>207.3</ele>
        <time>2011-09-11T10:45:02Z</time>
      </trkpt>
      <trkpt lat="45.77522" lon="4.81505">
        <ele>208.9</ele>
        <time>2011-09-11T10:45:05Z</time>
      </trkpt>
      <trkpt lat="45.77531" lon="4.81503">
        <ele>209.5</ele>
        <time>2011-09-11T10:45:07Z</time>
      </trkpt>
      <trkpt lat="45.77543" lon="4.81498">
        <ele>210.2</ele>
        <time>2011-09-11T10:45:09Z</time>
      </trkpt>
      <trkpt lat="45.77557" lon="4.81491">
        <ele>210.8</ele>
        <time>2011-09-11T10:45:11Z</time>
      </trkpt>
      <trkpt lat="45.77571" lon="4.81487">
        <ele>211.5</ele>
        <time>2011-09-11T10:45:13Z</time>
      </trkpt>
      <trkpt lat="45.77582" lon="4.81487">
        <ele>212.1</ele>
        <time>2011-09-11T10:45:16Z</time>
      </trkpt>
      <trkpt lat="45.77592" lon="4.81489">
        <ele>214.5</ele>
        <time>2011-09-11T10:45:21Z</time>
      </trkpt>
      <trkpt lat="45.77602" lon="4.81504">
        <ele>217</ele>
        <time>2011-09-11T10:45:33Z</time>
      </trkpt>
      <trkpt lat="45.77605" lon="4.81516">
        <ele>219.5</ele>
        <time>2011-09-11T10:45:40Z</time>
      </trkpt>
      <trkpt lat="45.77613" lon="4.81539">
        <ele>221.2</ele>
        <time>2011-09-11T10:45:51Z</time>
      </trkpt>
      <trkpt lat="45.77621" lon="4.81543">
        <ele>222.9</ele>
        <time>2011-09-11T10:45:59Z</time>
      </trkpt>
      <trkpt lat="45.77636" lon="4.81536">
        <ele>224.6</ele>
        <time>2011-09-11T10:46:14Z</time>
      </trkpt>
      <trkpt lat="45.7764" lon="4.81523">
        <ele>226.4</ele>
        <time>2011-09-11T10:46:18Z</time>
      </trkpt>
      <trkpt lat="45.77642" lon="4.81536">
        <ele>228.1</ele>
        <time>2011-09-11T10:46:28Z</time>
      </trkpt>
      <trkpt lat="45.77643" lon="4.81552">
        <ele>229.2</ele>
        <time>2011-09-11T10:46:33Z</time>
      </trkpt>
      <trkpt lat="45.77642" lon="4.81568">
        <ele>230.3</ele>
        <time>2011-09-11T10:46:37Z</time>
      </trkpt>
      <trkpt lat="45.7764" lon="4.81582">
        <ele>232.5</ele>
        <time>2011-09-11T10:46:42Z</time>
      </trkpt>
      <trkpt lat="45.77637" lon="4.81597">
        <ele>233</ele>
        <time>2011-09-11T10:46:49Z</time>
      </trkpt>
      <trkpt lat="45.77631" lon="4.8161">
        <ele>233.5</ele>
        <time>2011-09-11T10:46:53Z</time>
      </trkpt>
      <trkpt lat="45.77624" lon="4.81619">
        <ele>233.9</ele>
        <time>2011-09-11T10:46:56Z</time>
      </trkpt>
      <trkpt lat="45.77615" lon="4.81627">
        <ele>234.5</ele>
        <time>2011-09-11T10:46:59Z</time>
      </trkpt>
      <trkpt lat="45.77606" lon="4.81632">
        <ele>235</ele>
        <time>2011-09-11T10:47:02Z</time>
      </trkpt>
      <trkpt lat="45.77597" lon="4.81638">
        <ele>235.5</ele>
        <time>2011-09-11T10:47:05Z</time>
      </trkpt>
      <trkpt lat="45.77583" lon="4.8165">
        <ele>236.1</ele>
        <time>2011-09-11T10:47:12Z</time>
      </trkpt>
      <trkpt lat="45.77573" lon="4.81654">
        <ele>236.6</ele>
        <time>2011-09-11T10:47:16Z</time>
      </trkpt>
      <trkpt lat="45.77564" lon="4.81658">
        <ele>237.8</ele>
        <time>2011-09-11T10:47:19Z</time>
      </trkpt>
      <trkpt lat="45.77554" lon="4.81662">
        <ele>239</ele>
        <time>2011-09-11T10:47:22Z</time>
      </trkpt>
      <trkpt lat="45.77545" lon="4.81667">
        <ele>239</ele>
        <time>2011-09-11T10:47:25Z</time>
      </trkpt>
      <trkpt lat="45.77536" lon="4.81672">
        <ele>239.4</ele>
        <time>2011-09-11T10:47:28Z</time>
      </trkpt>
      <trkpt lat="45.77525" lon="4.81679">
        <ele>239.7</ele>
        <time>2011-09-11T10:47:31Z</time>
      </trkpt>
      <trkpt lat="45.77513" lon="4.81684">
        <ele>240.1</ele>
        <time>2011-09-11T10:47:34Z</time>
      </trkpt>
      <trkpt lat="45.77503" lon="4.81691">
        <ele>240.5</ele>
        <time>2011-09-11T10:47:37Z</time>
      </trkpt>
      <trkpt lat="45.77495" lon="4.81701">
        <ele>240.8</ele>
        <time>2011-09-11T10:47:40Z</time>
      </trkpt>
      <trkpt lat="45.77496" lon="4.81715">
        <ele>241.2</ele>
        <time>2011-09-11T10:47:43Z</time>
      </trkpt>
      <trkpt lat="45.77499" lon="4.8173">
        <ele>241.5</ele>
        <time>2011-09-11T10:47:46Z</time>
      </trkpt>
      <trkpt lat="45.77504" lon="4.81744">
        <ele>241.7</ele>
        <time>2011-09-11T10:47:49Z</time>
      </trkpt>
      <trkpt lat="45.77511" lon="4.81755">
        <ele>242</ele>
        <time>2011-09-11T10:47:52Z</time>
      </trkpt>
      <trkpt lat="45.7752" lon="4.8177">
        <ele>242.3</ele>
        <time>2011-09-11T10:47:57Z</time>
      </trkpt>
      <trkpt lat="45.77526" lon="4.81781">
        <ele>242.5</ele>
        <time>2011-09-11T10:48:01Z</time>
      </trkpt>
      <trkpt lat="45.77548" lon="4.81777">
        <ele>242.5</ele>
        <time>2011-09-11T10:48:13Z</time>
      </trkpt>
      <trkpt lat="45.77559" lon="4.8177">
        <ele>242.4</ele>
        <time>2011-09-11T10:48:17Z</time>
      </trkpt>
      <trkpt lat="45.77571" lon="4.8176">
        <ele>242.3</ele>
        <time>2011-09-11T10:48:20Z</time>
      </trkpt>
      <trkpt lat="45.7758" lon="4.81754">
        <ele>241.9</ele>
        <time>2011-09-11T10:48:22Z</time>
      </trkpt>
      <trkpt lat="45.77588" lon="4.81747">
        <ele>241.3</ele>
        <time>2011-09-11T10:48:24Z</time>
      </trkpt>
      <trkpt lat="45.77599" lon="4.81737">
        <ele>240.6</ele>
        <time>2011-09-11T10:48:27Z</time>
      </trkpt>
      <trkpt lat="45.77607" lon="4.81727">
        <ele>240.1</ele>
        <time>2011-09-11T10:48:30Z</time>
      </trkpt>
      <trkpt lat="45.77615" lon="4.81714">
        <ele>239.5</ele>
        <time>2011-09-11T10:48:33Z</time>
      </trkpt>
      <trkpt lat="45.77624" lon="4.81701">
        <ele>239</ele>
        <time>2011-09-11T10:48:36Z</time>
      </trkpt>
      <trkpt lat="45.77631" lon="4.81688">
        <ele>238.2</ele>
        <time>2011-09-11T10:48:39Z</time>
      </trkpt>
      <trkpt lat="45.77637" lon="4.81678">
        <ele>237.4</ele>
        <time>2011-09-11T10:48:42Z</time>
      </trkpt>
      <trkpt lat="45.77644" lon="4.81668">
        <ele>236.5</ele>
        <time>2011-09-11T10:48:45Z</time>
      </trkpt>
      <trkpt lat="45.77651" lon="4.81657">
        <ele>235.7</ele>
        <time>2011-09-11T10:48:48Z</time>
      </trkpt>
      <trkpt lat="45.77657" lon="4.81645">
        <ele>234.9</ele>
        <time>2011-09-11T10:48:51Z</time>
      </trkpt>
      <trkpt lat="45.77657" lon="4.81629">
        <ele>234.4</ele>
        <time>2011-09-11T10:48:55Z</time>
      </trkpt>
      <trkpt lat="45.77659" lon="4.81612">
        <ele>234.2</ele>
        <time>2011-09-11T10:49:00Z</time>
      </trkpt>
      <trkpt lat="45.7766" lon="4.81596">
        <ele>234</ele>
        <time>2011-09-11T10:49:03Z</time>
      </trkpt>
      <trkpt lat="45.7766" lon="4.81581">
        <ele>233.8</ele>
        <time>2011-09-11T10:49:07Z</time>
      </trkpt>
      <trkpt lat="45.77661" lon="4.81566">
        <ele>233.6</ele>
        <time>2011-09-11T10:49:11Z</time>
      </trkpt>
      <trkpt lat="45.77661" lon="4.81552">
        <ele>233.5</ele>
        <time>2011-09-11T10:49:14Z</time>
      </trkpt>
      <trkpt lat="45.77658" lon="4.81539">
        <ele>233.3</ele>
        <time>2011-09-11T10:49:17Z</time>
      </trkpt>
      <trkpt lat="45.77655" lon="4.81523">
        <ele>233.1</ele>
        <time>2011-09-11T10:49:20Z</time>
      </trkpt>
      <trkpt lat="45.77653" lon="4.81508">
        <ele>232.9</ele>
        <time>2011-09-11T10:49:23Z</time>
      </trkpt>
      <trkpt lat="45.7765" lon="4.81493">
        <ele>232.7</ele>
        <time>2011-09-11T10:49:26Z</time>
      </trkpt>
      <trkpt lat="45.77647" lon="4.8148">
        <ele>232.5</ele>
        <time>2011-09-11T10:49:29Z</time>
      </trkpt>
      <trkpt lat="45.77646" lon="4.81465">
        <ele>232.4</ele>
        <time>2011-09-11T10:49:33Z</time>
      </trkpt>
      <trkpt lat="45.77646" lon="4.8145">
        <ele>232.1</ele>
        <time>2011-09-11T10:49:37Z</time>
      </trkpt>
      <trkpt lat="45.77649" lon="4.81437">
        <ele>231.8</ele>
        <time>2011-09-11T10:49:41Z</time>
      </trkpt>
      <trkpt lat="45.77654" lon="4.81425">
        <ele>229.8</ele>
        <time>2011-09-11T10:49:45Z</time>
      </trkpt>
      <trkpt lat="45.77661" lon="4.81415">
        <ele>227.8</ele>
        <time>2011-09-11T10:49:50Z</time>
      </trkpt>
      <trkpt lat="45.77667" lon="4.81405">
        <ele>225.8</ele>
        <time>2011-09-11T10:49:54Z</time>
      </trkpt>
      <trkpt lat="45.77676" lon="4.81396">
        <ele>225.5</ele>
        <time>2011-09-11T10:49:57Z</time>
      </trkpt>
      <trkpt lat="45.77685" lon="4.81386">
        <ele>225.3</ele>
        <time>2011-09-11T10:50:01Z</time>
      </trkpt>
      <trkpt lat="45.77694" lon="4.8138">
        <ele>225</ele>
        <time>2011-09-11T10:50:04Z</time>
      </trkpt>
      <trkpt lat="45.77701" lon="4.81369">
        <ele>224.7</ele>
        <time>2011-09-11T10:50:08Z</time>
      </trkpt>
      <trkpt lat="45.77708" lon="4.81359">
        <ele>224.5</ele>
        <time>2011-09-11T10:50:12Z</time>
      </trkpt>
      <trkpt lat="45.77713" lon="4.81347">
        <ele>224.2</ele>
        <time>2011-09-11T10:50:16Z</time>
      </trkpt>
      <trkpt lat="45.77722" lon="4.8135">
        <ele>223.9</ele>
        <time>2011-09-11T10:50:21Z</time>
      </trkpt>
      <trkpt lat="45.77727" lon="4.81362">
        <ele>223.6</ele>
        <time>2011-09-11T10:50:24Z</time>
      </trkpt>
      <trkpt lat="45.77734" lon="4.81371">
        <ele>225.8</ele>
        <time>2011-09-11T10:50:27Z</time>
      </trkpt>
      <trkpt lat="45.77745" lon="4.81375">
        <ele>228</ele>
        <time>2011-09-11T10:50:30Z</time>
      </trkpt>
      <trkpt lat="45.77756" lon="4.81377">
        <ele>230.2</ele>
        <time>2011-09-11T10:50:34Z</time>
      </trkpt>
      <trkpt lat="45.77765" lon="4.81379">
        <ele>230.9</ele>
        <time>2011-09-11T10:50:37Z</time>
      </trkpt>
      <trkpt lat="45.77776" lon="4.81383">
        <ele>231.5</ele>
        <time>2011-09-11T10:50:41Z</time>
      </trkpt>
      <trkpt lat="45.77781" lon="4.81394">
        <ele>232.1</ele>
        <time>2011-09-11T10:50:45Z</time>
      </trkpt>
      <trkpt lat="45.77784" lon="4.81408">
        <ele>232.7</ele>
        <time>2011-09-11T10:50:49Z</time>
      </trkpt>
      <trkpt lat="45.77787" lon="4.81423">
        <ele>233.4</ele>
        <time>2011-09-11T10:50:52Z</time>
      </trkpt>
      <trkpt lat="45.77791" lon="4.81442">
        <ele>234</ele>
        <time>2011-09-11T10:50:55Z</time>
      </trkpt>
      <trkpt lat="45.77794" lon="4.8146">
        <ele>234.6</ele>
        <time>2011-09-11T10:50:58Z</time>
      </trkpt>
      <trkpt lat="45.77798" lon="4.81475">
        <ele>235.3</ele>
        <time>2011-09-11T10:51:01Z</time>
      </trkpt>
      <trkpt lat="45.77807" lon="4.81489">
        <ele>235.3</ele>
        <time>2011-09-11T10:51:04Z</time>
      </trkpt>
      <trkpt lat="45.77814" lon="4.81503">
        <ele>235.3</ele>
        <time>2011-09-11T10:51:07Z</time>
      </trkpt>
      <trkpt lat="45.77816" lon="4.81517">
        <ele>235.3</ele>
        <time>2011-09-11T10:51:10Z</time>
      </trkpt>
      <trkpt lat="45.77818" lon="4.8153">
        <ele>235.3</ele>
        <time>2011-09-11T10:51:14Z</time>
      </trkpt>
      <trkpt lat="45.77817" lon="4.81545">
        <ele>235.5</ele>
        <time>2011-09-11T10:51:19Z</time>
      </trkpt>
      <trkpt lat="45.77818" lon="4.8156">
        <ele>235.5</ele>
        <time>2011-09-11T10:51:23Z</time>
      </trkpt>
      <trkpt lat="45.77821" lon="4.81573">
        <ele>235.6</ele>
        <time>2011-09-11T10:51:28Z</time>
      </trkpt>
      <trkpt lat="45.77825" lon="4.81586">
        <ele>235.7</ele>
        <time>2011-09-11T10:51:33Z</time>
      </trkpt>
      <trkpt lat="45.77835" lon="4.81589">
        <ele>235.9</ele>
        <time>2011-09-11T10:51:37Z</time>
      </trkpt>
      <trkpt lat="45.77844" lon="4.8159">
        <ele>236.1</ele>
        <time>2011-09-11T10:51:42Z</time>
      </trkpt>
      <trkpt lat="45.77855" lon="4.81594">
        <ele>236.3</ele>
        <time>2011-09-11T10:52:36Z</time>
      </trkpt>
      <trkpt lat="45.77866" lon="4.81593">
        <ele>236.4</ele>
        <time>2011-09-11T10:53:11Z</time>
      </trkpt>
      <trkpt lat="45.77876" lon="4.81591">
        <ele>236.5</ele>
        <time>2011-09-11T10:53:15Z</time>
      </trkpt>
      <trkpt lat="45.77886" lon="4.8159">
        <ele>236.5</ele>
        <time>2011-09-11T10:53:18Z</time>
      </trkpt>
      <trkpt lat="45.77897" lon="4.8159">
        <ele>236.6</ele>
        <time>2011-09-11T10:53:21Z</time>
      </trkpt>
      <trkpt lat="45.77908" lon="4.8159">
        <ele>236.4</ele>
        <time>2011-09-11T10:53:24Z</time>
      </trkpt>
      <trkpt lat="45.7792" lon="4.81591">
        <ele>236.1</ele>
        <time>2011-09-11T10:53:27Z</time>
      </trkpt>
      <trkpt lat="45.77933" lon="4.8159">
        <ele>235.8</ele>
        <time>2011-09-11T10:53:29Z</time>
      </trkpt>
      <trkpt lat="45.77945" lon="4.8159">
        <ele>235.5</ele>
        <time>2011-09-11T10:53:32Z</time>
      </trkpt>
      <trkpt lat="45.77957" lon="4.81589">
        <ele>235.2</ele>
        <time>2011-09-11T10:53:35Z</time>
      </trkpt>
      <trkpt lat="45.7797" lon="4.81587">
        <ele>234.8</ele>
        <time>2011-09-11T10:53:38Z</time>
      </trkpt>
      <trkpt lat="45.77979" lon="4.81586">
        <ele>234.5</ele>
        <time>2011-09-11T10:53:40Z</time>
      </trkpt>
      <trkpt lat="45.77988" lon="4.81586">
        <ele>234.1</ele>
        <time>2011-09-11T10:53:42Z</time>
      </trkpt>
      <trkpt lat="45.77997" lon="4.81587">
        <ele>233.7</ele>
        <time>2011-09-11T10:53:44Z</time>
      </trkpt>
      <trkpt lat="45.78006" lon="4.81587">
        <ele>233.2</ele>
        <time>2011-09-11T10:53:46Z</time>
      </trkpt>
      <trkpt lat="45.78016" lon="4.81588">
        <ele>232.6</ele>
        <time>2011-09-11T10:53:48Z</time>
      </trkpt>
      <trkpt lat="45.78025" lon="4.81588">
        <ele>232.5</ele>
        <time>2011-09-11T10:53:50Z</time>
      </trkpt>
      <trkpt lat="45.78034" lon="4.81588">
        <ele>232.3</ele>
        <time>2011-09-11T10:53:52Z</time>
      </trkpt>
      <trkpt lat="45.78043" lon="4.81589">
        <ele>232.1</ele>
        <time>2011-09-11T10:53:54Z</time>
      </trkpt>
      <trkpt lat="45.78052" lon="4.81589">
        <ele>231.9</ele>
        <time>2011-09-11T10:53:56Z</time>
      </trkpt>
      <trkpt lat="45.78065" lon="4.8159">
        <ele>231.7</ele>
        <time>2011-09-11T10:53:59Z</time>
      </trkpt>
      <trkpt lat="45.78077" lon="4.81592">
        <ele>231.3</ele>
        <time>2011-09-11T10:54:02Z</time>
      </trkpt>
      <trkpt lat="45.78089" lon="4.81593">
        <ele>230.8</ele>
        <time>2011-09-11T10:54:05Z</time>
      </trkpt>
      <trkpt lat="45.78098" lon="4.81593">
        <ele>230.4</ele>
        <time>2011-09-11T10:54:08Z</time>
      </trkpt>
      <trkpt lat="45.78108" lon="4.81595">
        <ele>229.9</ele>
        <time>2011-09-11T10:54:11Z</time>
      </trkpt>
      <trkpt lat="45.7812" lon="4.81597">
        <ele>229.6</ele>
        <time>2011-09-11T10:54:15Z</time>
      </trkpt>
      <trkpt lat="45.7813" lon="4.81599">
        <ele>229.4</ele>
        <time>2011-09-11T10:54:18Z</time>
      </trkpt>
      <trkpt lat="45.78143" lon="4.81601">
        <ele>229.1</ele>
        <time>2011-09-11T10:54:21Z</time>
      </trkpt>
      <trkpt lat="45.78155" lon="4.81604">
        <ele>228.8</ele>
        <time>2011-09-11T10:54:24Z</time>
      </trkpt>
      <trkpt lat="45.78156" lon="4.81591">
        <ele>228.5</ele>
        <time>2011-09-11T10:54:29Z</time>
      </trkpt>
      <trkpt lat="45.78148" lon="4.81585">
        <ele>228.3</ele>
        <time>2011-09-11T10:54:32Z</time>
      </trkpt>
      <trkpt lat="45.78159" lon="4.8158">
        <ele>226.6</ele>
        <time>2011-09-11T10:54:39Z</time>
      </trkpt>
      <trkpt lat="45.78168" lon="4.81576">
        <ele>225.3</ele>
        <time>2011-09-11T10:54:47Z</time>
      </trkpt>
      <trkpt lat="45.78158" lon="4.8157">
        <ele>223.9</ele>
        <time>2011-09-11T10:54:50Z</time>
      </trkpt>
      <trkpt lat="45.78164" lon="4.8156">
        <ele>222.5</ele>
        <time>2011-09-11T10:54:59Z</time>
      </trkpt>
      <trkpt lat="45.78174" lon="4.81561">
        <ele>221.2</ele>
        <time>2011-09-11T10:55:02Z</time>
      </trkpt>
      <trkpt lat="45.78182" lon="4.8154">
        <ele>219.8</ele>
        <time>2011-09-11T10:55:14Z</time>
      </trkpt>
      <trkpt lat="45.78175" lon="4.81534">
        <ele>218.5</ele>
        <time>2011-09-11T10:55:18Z</time>
      </trkpt>
      <trkpt lat="45.78166" lon="4.81526">
        <ele>217.1</ele>
        <time>2011-09-11T10:55:21Z</time>
      </trkpt>
      <trkpt lat="45.78167" lon="4.81513">
        <ele>216.1</ele>
        <time>2011-09-11T10:55:26Z</time>
      </trkpt>
      <trkpt lat="45.78177" lon="4.81516">
        <ele>215.1</ele>
        <time>2011-09-11T10:55:29Z</time>
      </trkpt>
      <trkpt lat="45.78186" lon="4.81518">
        <ele>214.1</ele>
        <time>2011-09-11T10:55:32Z</time>
      </trkpt>
      <trkpt lat="45.78199" lon="4.81527">
        <ele>214.5</ele>
        <time>2011-09-11T10:55:41Z</time>
      </trkpt>
      <trkpt lat="45.78205" lon="4.81542">
        <ele>214.8</ele>
        <time>2011-09-11T10:55:48Z</time>
      </trkpt>
      <trkpt lat="45.7821" lon="4.81554">
        <ele>215.2</ele>
        <time>2011-09-11T10:55:55Z</time>
      </trkpt>
      <trkpt lat="45.78216" lon="4.81565">
        <ele>215.5</ele>
        <time>2011-09-11T10:56:02Z</time>
      </trkpt>
      <trkpt lat="45.78224" lon="4.81572">
        <ele>215.9</ele>
        <time>2011-09-11T10:56:09Z</time>
      </trkpt>
      <trkpt lat="45.78232" lon="4.81579">
        <ele>217.3</ele>
        <time>2011-09-11T10:56:14Z</time>
      </trkpt>
      <trkpt lat="45.7824" lon="4.8159">
        <ele>218.6</ele>
        <time>2011-09-11T10:56:18Z</time>
      </trkpt>
      <trkpt lat="45.78246" lon="4.81602">
        <ele>220</ele>
        <time>2011-09-11T10:56:23Z</time>
      </trkpt>
      <trkpt lat="45.78252" lon="4.81615">
        <ele>221</ele>
        <time>2011-09-11T10:56:29Z</time>
      </trkpt>
      <trkpt lat="45.78256" lon="4.81629">
        <ele>222</ele>
        <time>2011-09-11T10:56:35Z</time>
      </trkpt>
      <trkpt lat="45.78258" lon="4.81648">
        <ele>223.7</ele>
        <time>2011-09-11T10:56:42Z</time>
      </trkpt>
      <trkpt lat="45.78259" lon="4.81662">
        <ele>225.5</ele>
        <time>2011-09-11T10:56:47Z</time>
      </trkpt>
      <trkpt lat="45.78258" lon="4.81682">
        <ele>227.2</ele>
        <time>2011-09-11T10:56:55Z</time>
      </trkpt>
      <trkpt lat="45.78253" lon="4.81699">
        <ele>228.9</ele>
        <time>2011-09-11T10:57:03Z</time>
      </trkpt>
      <trkpt lat="45.78245" lon="4.81708">
        <ele>230.6</ele>
        <time>2011-09-11T10:57:09Z</time>
      </trkpt>
      <trkpt lat="45.78237" lon="4.8172">
        <ele>232.4</ele>
        <time>2011-09-11T10:57:14Z</time>
      </trkpt>
      <trkpt lat="45.78231" lon="4.8173">
        <ele>233.1</ele>
        <time>2011-09-11T10:57:18Z</time>
      </trkpt>
      <trkpt lat="45.78223" lon="4.81742">
        <ele>234</ele>
        <time>2011-09-11T10:57:23Z</time>
      </trkpt>
      <trkpt lat="45.78215" lon="4.81753">
        <ele>234.9</ele>
        <time>2011-09-11T10:57:28Z</time>
      </trkpt>
      <trkpt lat="45.78212" lon="4.81769">
        <ele>235.8</ele>
        <time>2011-09-11T10:57:32Z</time>
      </trkpt>
      <trkpt lat="45.7821" lon="4.81782">
        <ele>236.7</ele>
        <time>2011-09-11T10:57:36Z</time>
      </trkpt>
      <trkpt lat="45.78212" lon="4.81795">
        <ele>236.9</ele>
        <time>2011-09-11T10:57:40Z</time>
      </trkpt>
      <trkpt lat="45.78218" lon="4.81806">
        <ele>237.1</ele>
        <time>2011-09-11T10:57:43Z</time>
      </trkpt>
      <trkpt lat="45.78227" lon="4.81817">
        <ele>237.3</ele>
        <time>2011-09-11T10:57:47Z</time>
      </trkpt>
      <trkpt lat="45.78237" lon="4.8182">
        <ele>237.5</ele>
        <time>2011-09-11T10:57:52Z</time>
      </trkpt>
      <trkpt lat="45.78246" lon="4.81819">
        <ele>237.5</ele>
        <time>2011-09-11T10:57:56Z</time>
      </trkpt>
      <trkpt lat="45.78255" lon="4.81817">
        <ele>237.2</ele>
        <time>2011-09-11T10:57:59Z</time>
      </trkpt>
      <trkpt lat="45.78266" lon="4.81813">
        <ele>236.9</ele>
        <time>2011-09-11T10:58:02Z</time>
      </trkpt>
      <trkpt lat="45.78279" lon="4.81808">
        <ele>236.5</ele>
        <time>2011-09-11T10:58:05Z</time>
      </trkpt>
      <trkpt lat="45.78287" lon="4.81803">
        <ele>236</ele>
        <time>2011-09-11T10:58:07Z</time>
      </trkpt>
      <trkpt lat="45.783" lon="4.81797">
        <ele>235.8</ele>
        <time>2011-09-11T10:58:10Z</time>
      </trkpt>
      <trkpt lat="45.78313" lon="4.81793">
        <ele>235.6</ele>
        <time>2011-09-11T10:58:13Z</time>
      </trkpt>
      <trkpt lat="45.78325" lon="4.81789">
        <ele>235.5</ele>
        <time>2011-09-11T10:58:16Z</time>
      </trkpt>
      <trkpt lat="45.78337" lon="4.81784">
        <ele>235.3</ele>
        <time>2011-09-11T10:58:19Z</time>
      </trkpt>
      <trkpt lat="45.78349" lon="4.81785">
        <ele>235.1</ele>
        <time>2011-09-11T10:58:22Z</time>
      </trkpt>
      <trkpt lat="45.78357" lon="4.818">
        <ele>234.9</ele>
        <time>2011-09-11T10:58:25Z</time>
      </trkpt>
      <trkpt lat="45.7836" lon="4.81813">
        <ele>234.9</ele>
        <time>2011-09-11T10:58:27Z</time>
      </trkpt>
      <trkpt lat="45.78361" lon="4.81826">
        <ele>235.2</ele>
        <time>2011-09-11T10:58:29Z</time>
      </trkpt>
      <trkpt lat="45.78362" lon="4.8184">
        <ele>235.5</ele>
        <time>2011-09-11T10:58:31Z</time>
      </trkpt>
      <trkpt lat="45.78362" lon="4.81859">
        <ele>235.7</ele>
        <time>2011-09-11T10:58:34Z</time>
      </trkpt>
      <trkpt lat="45.78362" lon="4.81877">
        <ele>236</ele>
        <time>2011-09-11T10:58:37Z</time>
      </trkpt>
      <trkpt lat="45.78362" lon="4.81891">
        <ele>236</ele>
        <time>2011-09-11T10:58:39Z</time>
      </trkpt>
      <trkpt lat="45.78361" lon="4.81904">
        <ele>236</ele>
        <time>2011-09-11T10:58:41Z</time>
      </trkpt>
      <trkpt lat="45.7836" lon="4.81919">
        <ele>236</ele>
        <time>2011-09-11T10:58:43Z</time>
      </trkpt>
      <trkpt lat="45.78359" lon="4.81933">
        <ele>236</ele>
        <time>2011-09-11T10:58:45Z</time>
      </trkpt>
      <trkpt lat="45.78358" lon="4.81948">
        <ele>236</ele>
        <time>2011-09-11T10:58:47Z</time>
      </trkpt>
      <trkpt lat="45.78357" lon="4.81963">
        <ele>236</ele>
        <time>2011-09-11T10:58:49Z</time>
      </trkpt>
      <trkpt lat="45.78356" lon="4.81977">
        <ele>236</ele>
        <time>2011-09-11T10:58:51Z</time>
      </trkpt>
      <trkpt lat="45.78355" lon="4.81991">
        <ele>236.1</ele>
        <time>2011-09-11T10:58:53Z</time>
      </trkpt>
      <trkpt lat="45.78354" lon="4.82006">
        <ele>236.2</ele>
        <time>2011-09-11T10:58:55Z</time>
      </trkpt>
      <trkpt lat="45.78354" lon="4.82021">
        <ele>236.3</ele>
        <time>2011-09-11T10:58:57Z</time>
      </trkpt>
      <trkpt lat="45.78354" lon="4.82035">
        <ele>236.4</ele>
        <time>2011-09-11T10:58:59Z</time>
      </trkpt>
      <trkpt lat="45.78353" lon="4.82049">
        <ele>236.4</ele>
        <time>2011-09-11T10:59:01Z</time>
      </trkpt>
      <trkpt lat="45.78353" lon="4.82064">
        <ele>236.4</ele>
        <time>2011-09-11T10:59:04Z</time>
      </trkpt>
      <trkpt lat="45.78358" lon="4.82075">
        <ele>236.4</ele>
        <time>2011-09-11T10:59:19Z</time>
      </trkpt>
      <trkpt lat="45.78366" lon="4.82079">
        <ele>236.4</ele>
        <time>2011-09-11T10:59:22Z</time>
      </trkpt>
      <trkpt lat="45.78377" lon="4.82081">
        <ele>236.4</ele>
        <time>2011-09-11T10:59:25Z</time>
      </trkpt>
      <trkpt lat="45.78388" lon="4.82083">
        <ele>236.4</ele>
        <time>2011-09-11T10:59:28Z</time>
      </trkpt>
      <trkpt lat="45.784" lon="4.82088">
        <ele>236.6</ele>
        <time>2011-09-11T10:59:31Z</time>
      </trkpt>
      <trkpt lat="45.78408" lon="4.82095">
        <ele>236.8</ele>
        <time>2011-09-11T10:59:33Z</time>
      </trkpt>
      <trkpt lat="45.78415" lon="4.82105">
        <ele>237</ele>
        <time>2011-09-11T10:59:35Z</time>
      </trkpt>
      <trkpt lat="45.78421" lon="4.82116">
        <ele>237.2</ele>
        <time>2011-09-11T10:59:37Z</time>
      </trkpt>
      <trkpt lat="45.78426" lon="4.82133">
        <ele>237.4</ele>
        <time>2011-09-11T10:59:40Z</time>
      </trkpt>
      <trkpt lat="45.78427" lon="4.8215">
        <ele>237.8</ele>
        <time>2011-09-11T10:59:43Z</time>
      </trkpt>
      <trkpt lat="45.78427" lon="4.82167">
        <ele>238.3</ele>
        <time>2011-09-11T10:59:46Z</time>
      </trkpt>
      <trkpt lat="45.78427" lon="4.82183">
        <ele>238.7</ele>
        <time>2011-09-11T10:59:49Z</time>
      </trkpt>
      <trkpt lat="45.78427" lon="4.82199">
        <ele>239.2</ele>
        <time>2011-09-11T10:59:52Z</time>
      </trkpt>
      <trkpt lat="45.78427" lon="4.82215">
        <ele>239.6</ele>
        <time>2011-09-11T10:59:55Z</time>
      </trkpt>
      <trkpt lat="45.78427" lon="4.8223">
        <ele>240.1</ele>
        <time>2011-09-11T10:59:58Z</time>
      </trkpt>
      <trkpt lat="45.78427" lon="4.82244">
        <ele>240.6</ele>
        <time>2011-09-11T11:00:01Z</time>
      </trkpt>
      <trkpt lat="45.78428" lon="4.82258">
        <ele>241.2</ele>
        <time>2011-09-11T11:00:04Z</time>
      </trkpt>
      <trkpt lat="45.78428" lon="4.82272">
        <ele>241.7</ele>
        <time>2011-09-11T11:00:07Z</time>
      </trkpt>
      <trkpt lat="45.78429" lon="4.82286">
        <ele>242.3</ele>
        <time>2011-09-11T11:00:10Z</time>
      </trkpt>
      <trkpt lat="45.78429" lon="4.823">
        <ele>242.8</ele>
        <time>2011-09-11T11:00:13Z</time>
      </trkpt>
      <trkpt lat="45.78429" lon="4.82315">
        <ele>243.3</ele>
        <time>2011-09-11T11:00:16Z</time>
      </trkpt>
      <trkpt lat="45.78429" lon="4.82328">
        <ele>243.7</ele>
        <time>2011-09-11T11:00:19Z</time>
      </trkpt>
      <trkpt lat="45.78436" lon="4.82346">
        <ele>244.2</ele>
        <time>2011-09-11T11:00:26Z</time>
      </trkpt>
      <trkpt lat="45.78445" lon="4.82348">
        <ele>244.6</ele>
        <time>2011-09-11T11:00:31Z</time>
      </trkpt>
      <trkpt lat="45.78457" lon="4.82349">
        <ele>245.1</ele>
        <time>2011-09-11T11:00:34Z</time>
      </trkpt>
      <trkpt lat="45.78468" lon="4.82349">
        <ele>245.5</ele>
        <time>2011-09-11T11:00:36Z</time>
      </trkpt>
      <trkpt lat="45.7848" lon="4.82347">
        <ele>245.4</ele>
        <time>2011-09-11T11:00:38Z</time>
      </trkpt>
      <trkpt lat="45.78492" lon="4.82343">
        <ele>245.2</ele>
        <time>2011-09-11T11:00:40Z</time>
      </trkpt>
      <trkpt lat="45.78505" lon="4.82335">
        <ele>245</ele>
        <time>2011-09-11T11:00:42Z</time>
      </trkpt>
      <trkpt lat="45.78519" lon="4.82328">
        <ele>244.3</ele>
        <time>2011-09-11T11:00:44Z</time>
      </trkpt>
      <trkpt lat="45.78533" lon="4.82321">
        <ele>243.5</ele>
        <time>2011-09-11T11:00:46Z</time>
      </trkpt>
      <trkpt lat="45.78547" lon="4.82316">
        <ele>242.7</ele>
        <time>2011-09-11T11:00:48Z</time>
      </trkpt>
      <trkpt lat="45.78562" lon="4.8231">
        <ele>241.9</ele>
        <time>2011-09-11T11:00:50Z</time>
      </trkpt>
      <trkpt lat="45.78579" lon="4.82302">
        <ele>241.1</ele>
        <time>2011-09-11T11:00:52Z</time>
      </trkpt>
      <trkpt lat="45.78592" lon="4.82297">
        <ele>240.3</ele>
        <time>2011-09-11T11:00:54Z</time>
      </trkpt>
      <trkpt lat="45.78603" lon="4.82292">
        <ele>239.5</ele>
        <time>2011-09-11T11:00:57Z</time>
      </trkpt>
      <trkpt lat="45.78616" lon="4.82291">
        <ele>238.1</ele>
        <time>2011-09-11T11:01:23Z</time>
      </trkpt>
      <trkpt lat="45.78626" lon="4.82279">
        <ele>235</ele>
        <time>2011-09-11T11:01:27Z</time>
      </trkpt>
      <trkpt lat="45.78627" lon="4.82263">
        <ele>231.9</ele>
        <time>2011-09-11T11:01:29Z</time>
      </trkpt>
      <trkpt lat="45.78625" lon="4.82249">
        <ele>228.8</ele>
        <time>2011-09-11T11:01:31Z</time>
      </trkpt>
      <trkpt lat="45.78625" lon="4.82233">
        <ele>226.3</ele>
        <time>2011-09-11T11:01:33Z</time>
      </trkpt>
      <trkpt lat="45.78627" lon="4.82219">
        <ele>223.7</ele>
        <time>2011-09-11T11:01:35Z</time>
      </trkpt>
      <trkpt lat="45.78632" lon="4.82202">
        <ele>221.2</ele>
        <time>2011-09-11T11:01:38Z</time>
      </trkpt>
      <trkpt lat="45.78638" lon="4.82191">
        <ele>218.6</ele>
        <time>2011-09-11T11:01:40Z</time>
      </trkpt>
      <trkpt lat="45.78645" lon="4.82179">
        <ele>216.1</ele>
        <time>2011-09-11T11:01:42Z</time>
      </trkpt>
      <trkpt lat="45.78655" lon="4.82168">
        <ele>213.5</ele>
        <time>2011-09-11T11:01:44Z</time>
      </trkpt>
      <trkpt lat="45.78666" lon="4.8216">
        <ele>211</ele>
        <time>2011-09-11T11:01:47Z</time>
      </trkpt>
      <trkpt lat="45.78676" lon="4.82168">
        <ele>209</ele>
        <time>2011-09-11T11:01:59Z</time>
      </trkpt>
      <trkpt lat="45.78682" lon="4.8218">
        <ele>206.3</ele>
        <time>2011-09-11T11:02:03Z</time>
      </trkpt>
      <trkpt lat="45.7869" lon="4.82183">
        <ele>203.5</ele>
        <time>2011-09-11T11:02:09Z</time>
      </trkpt>
      <trkpt lat="45.78697" lon="4.82169">
        <ele>200.8</ele>
        <time>2011-09-11T11:02:13Z</time>
      </trkpt>
      <trkpt lat="45.78703" lon="4.82151">
        <ele>198.7</ele>
        <time>2011-09-11T11:02:19Z</time>
      </trkpt>
      <trkpt lat="45.7871" lon="4.82163">
        <ele>196.6</ele>
        <time>2011-09-11T11:02:22Z</time>
      </trkpt>
      <trkpt lat="45.78716" lon="4.8218">
        <ele>194.5</ele>
        <time>2011-09-11T11:02:24Z</time>
      </trkpt>
      <trkpt lat="45.7872" lon="4.82192">
        <ele>192.5</ele>
        <time>2011-09-11T11:02:25Z</time>
      </trkpt>
      <trkpt lat="45.78727" lon="4.82212">
        <ele>190.4</ele>
        <time>2011-09-11T11:02:27Z</time>
      </trkpt>
      <trkpt lat="45.78731" lon="4.82225">
        <ele>188.3</ele>
        <time>2011-09-11T11:02:29Z</time>
      </trkpt>
      <trkpt lat="45.78741" lon="4.82231">
        <ele>186.2</ele>
        <time>2011-09-11T11:02:32Z</time>
      </trkpt>
      <trkpt lat="45.78752" lon="4.8223">
        <ele>182.7</ele>
        <time>2011-09-11T11:02:34Z</time>
      </trkpt>
      <trkpt lat="45.78764" lon="4.82231">
        <ele>182</ele>
        <time>2011-09-11T11:02:37Z</time>
      </trkpt>
      <trkpt lat="45.78773" lon="4.82234">
        <ele>181.3</ele>
        <time>2011-09-11T11:02:41Z</time>
      </trkpt>
      <trkpt lat="45.78782" lon="4.82241">
        <ele>180.5</ele>
        <time>2011-09-11T11:02:44Z</time>
      </trkpt>
      <trkpt lat="45.7879" lon="4.82249">
        <ele>179.2</ele>
        <time>2011-09-11T11:02:46Z</time>
      </trkpt>
      <trkpt lat="45.78798" lon="4.8226">
        <ele>178.3</ele>
        <time>2011-09-11T11:02:48Z</time>
      </trkpt>
      <trkpt lat="45.78807" lon="4.82269">
        <ele>177.4</ele>
        <time>2011-09-11T11:02:50Z</time>
      </trkpt>
      <trkpt lat="45.78815" lon="4.82278">
        <ele>176.5</ele>
        <time>2011-09-11T11:02:52Z</time>
      </trkpt>
      <trkpt lat="45.78824" lon="4.82287">
        <ele>175.5</ele>
        <time>2011-09-11T11:02:54Z</time>
      </trkpt>
      <trkpt lat="45.78832" lon="4.82298">
        <ele>174.6</ele>
        <time>2011-09-11T11:02:56Z</time>
      </trkpt>
      <trkpt lat="45.7884" lon="4.82309">
        <ele>173.7</ele>
        <time>2011-09-11T11:02:58Z</time>
      </trkpt>
      <trkpt lat="45.78845" lon="4.8232">
        <ele>174.5</ele>
        <time>2011-09-11T11:03:00Z</time>
      </trkpt>
      <trkpt lat="45.78848" lon="4.82334">
        <ele>175.4</ele>
        <time>2011-09-11T11:03:03Z</time>
      </trkpt>
      <trkpt lat="45.78855" lon="4.82351">
        <ele>175.5</ele>
        <time>2011-09-11T11:03:06Z</time>
      </trkpt>
      <trkpt lat="45.78859" lon="4.82363">
        <ele>175.5</ele>
        <time>2011-09-11T11:03:08Z</time>
      </trkpt>
      <trkpt lat="45.78866" lon="4.82378">
        <ele>175.6</ele>
        <time>2011-09-11T11:03:11Z</time>
      </trkpt>
      <trkpt lat="45.78873" lon="4.82392">
        <ele>175.3</ele>
        <time>2011-09-11T11:03:14Z</time>
      </trkpt>
      <trkpt lat="45.78881" lon="4.82405">
        <ele>175.2</ele>
        <time>2011-09-11T11:03:17Z</time>
      </trkpt>
      <trkpt lat="45.78888" lon="4.8242">
        <ele>175.1</ele>
        <time>2011-09-11T11:03:20Z</time>
      </trkpt>
      <trkpt lat="45.78894" lon="4.82437">
        <ele>175</ele>
        <time>2011-09-11T11:03:23Z</time>
      </trkpt>
      <trkpt lat="45.789" lon="4.82452">
        <ele>174.9</ele>
        <time>2011-09-11T11:03:26Z</time>
      </trkpt>
      <trkpt lat="45.78907" lon="4.82466">
        <ele>174.8</ele>
        <time>2011-09-11T11:03:29Z</time>
      </trkpt>
      <trkpt lat="45.78914" lon="4.82478">
        <ele>174.4</ele>
        <time>2011-09-11T11:03:32Z</time>
      </trkpt>
      <trkpt lat="45.78922" lon="4.82491">
        <ele>174.4</ele>
        <time>2011-09-11T11:03:35Z</time>
      </trkpt>
      <trkpt lat="45.7893" lon="4.82503">
        <ele>175.1</ele>
        <time>2011-09-11T11:03:38Z</time>
      </trkpt>
      <trkpt lat="45.78939" lon="4.82515">
        <ele>175.8</ele>
        <time>2011-09-11T11:03:41Z</time>
      </trkpt>
      <trkpt lat="45.78945" lon="4.82527">
        <ele>176.5</ele>
        <time>2011-09-11T11:03:43Z</time>
      </trkpt>
      <trkpt lat="45.78951" lon="4.82537">
        <ele>177.3</ele>
        <time>2011-09-11T11:03:45Z</time>
      </trkpt>
      <trkpt lat="45.78954" lon="4.8255">
        <ele>177.7</ele>
        <time>2011-09-11T11:03:48Z</time>
      </trkpt>
      <trkpt lat="45.78953" lon="4.82563">
        <ele>178.2</ele>
        <time>2011-09-11T11:03:53Z</time>
      </trkpt>
      <trkpt lat="45.78947" lon="4.82574">
        <ele>179.2</ele>
        <time>2011-09-11T11:03:58Z</time>
      </trkpt>
      <trkpt lat="45.78942" lon="4.82585">
        <ele>180.2</ele>
        <time>2011-09-11T11:04:03Z</time>
      </trkpt>
      <trkpt lat="45.78936" lon="4.82597">
        <ele>181.2</ele>
        <time>2011-09-11T11:04:09Z</time>
      </trkpt>
      <trkpt lat="45.7893" lon="4.82608">
        <ele>182.2</ele>
        <time>2011-09-11T11:04:15Z</time>
      </trkpt>
      <trkpt lat="45.78923" lon="4.82619">
        <ele>182.7</ele>
        <time>2011-09-11T11:04:22Z</time>
      </trkpt>
      <trkpt lat="45.78918" lon="4.82631">
        <ele>183.3</ele>
        <time>2011-09-11T11:04:29Z</time>
      </trkpt>
      <trkpt lat="45.78911" lon="4.82642">
        <ele>186.3</ele>
        <time>2011-09-11T11:04:37Z</time>
      </trkpt>
      <trkpt lat="45.78904" lon="4.82651">
        <ele>189.3</ele>
        <time>2011-09-11T11:04:44Z</time>
      </trkpt>
      <trkpt lat="45.78897" lon="4.8266">
        <ele>192.3</ele>
        <time>2011-09-11T11:04:52Z</time>
      </trkpt>
      <trkpt lat="45.78891" lon="4.82669">
        <ele>195.5</ele>
        <time>2011-09-11T11:05:00Z</time>
      </trkpt>
      <trkpt lat="45.78882" lon="4.82678">
        <ele>198.6</ele>
        <time>2011-09-11T11:05:08Z</time>
      </trkpt>
      <trkpt lat="45.78876" lon="4.82689">
        <ele>201.3</ele>
        <time>2011-09-11T11:05:16Z</time>
      </trkpt>
      <trkpt lat="45.78869" lon="4.82698">
        <ele>203.9</ele>
        <time>2011-09-11T11:05:24Z</time>
      </trkpt>
      <trkpt lat="45.7886" lon="4.82705">
        <ele>206.5</ele>
        <time>2011-09-11T11:05:32Z</time>
      </trkpt>
      <trkpt lat="45.78853" lon="4.82715">
        <ele>209.2</ele>
        <time>2011-09-11T11:05:39Z</time>
      </trkpt>
      <trkpt lat="45.78844" lon="4.82722">
        <ele>211.8</ele>
        <time>2011-09-11T11:05:46Z</time>
      </trkpt>
      <trkpt lat="45.78837" lon="4.82733">
        <ele>214.5</ele>
        <time>2011-09-11T11:05:55Z</time>
      </trkpt>
      <trkpt lat="45.78832" lon="4.82746">
        <ele>215.8</ele>
        <time>2011-09-11T11:06:04Z</time>
      </trkpt>
      <trkpt lat="45.78826" lon="4.82755">
        <ele>217.2</ele>
        <time>2011-09-11T11:06:12Z</time>
      </trkpt>
      <trkpt lat="45.78819" lon="4.82764">
        <ele>218.5</ele>
        <time>2011-09-11T11:06:21Z</time>
      </trkpt>
      <trkpt lat="45.78813" lon="4.82774">
        <ele>220.5</ele>
        <time>2011-09-11T11:06:29Z</time>
      </trkpt>
      <trkpt lat="45.78809" lon="4.82786">
        <ele>222.5</ele>
        <time>2011-09-11T11:06:37Z</time>
      </trkpt>
      <trkpt lat="45.78805" lon="4.82797">
        <ele>224.5</ele>
        <time>2011-09-11T11:06:45Z</time>
      </trkpt>
      <trkpt lat="45.78802" lon="4.8281">
        <ele>226.5</ele>
        <time>2011-09-11T11:06:53Z</time>
      </trkpt>
      <trkpt lat="45.78798" lon="4.82822">
        <ele>228.5</ele>
        <time>2011-09-11T11:07:02Z</time>
      </trkpt>
      <trkpt lat="45.78792" lon="4.82833">
        <ele>231.4</ele>
        <time>2011-09-11T11:07:13Z</time>
      </trkpt>
      <trkpt lat="45.78786" lon="4.82845">
        <ele>234.2</ele>
        <time>2011-09-11T11:07:22Z</time>
      </trkpt>
      <trkpt lat="45.7878" lon="4.82856">
        <ele>237</ele>
        <time>2011-09-11T11:07:32Z</time>
      </trkpt>
      <trkpt lat="45.78774" lon="4.82868">
        <ele>238.6</ele>
        <time>2011-09-11T11:07:40Z</time>
      </trkpt>
      <trkpt lat="45.78767" lon="4.82876">
        <ele>240.3</ele>
        <time>2011-09-11T11:07:47Z</time>
      </trkpt>
      <trkpt lat="45.7876" lon="4.82886">
        <ele>241.9</ele>
        <time>2011-09-11T11:07:55Z</time>
      </trkpt>
      <trkpt lat="45.78751" lon="4.82888">
        <ele>242.7</ele>
        <time>2011-09-11T11:08:13Z</time>
      </trkpt>
      <trkpt lat="45.78743" lon="4.82894">
        <ele>243.5</ele>
        <time>2011-09-11T11:08:38Z</time>
      </trkpt>
      <trkpt lat="45.78731" lon="4.82892">
        <ele>244.4</ele>
        <time>2011-09-11T11:09:28Z</time>
      </trkpt>
      <trkpt lat="45.78724" lon="4.829">
        <ele>245.2</ele>
        <time>2011-09-11T11:10:31Z</time>
      </trkpt>
      <trkpt lat="45.78733" lon="4.82904">
        <ele>246</ele>
        <time>2011-09-11T11:13:06Z</time>
      </trkpt>
      <trkpt lat="45.78742" lon="4.82902">
        <ele>245.2</ele>
        <time>2011-09-11T11:13:14Z</time>
      </trkpt>
      <trkpt lat="45.78753" lon="4.82902">
        <ele>244.4</ele>
        <time>2011-09-11T11:13:40Z</time>
      </trkpt>
      <trkpt lat="45.78763" lon="4.829">
        <ele>242.7</ele>
        <time>2011-09-11T11:14:13Z</time>
      </trkpt>
      <trkpt lat="45.7877" lon="4.82891">
        <ele>241.1</ele>
        <time>2011-09-11T11:14:17Z</time>
      </trkpt>
      <trkpt lat="45.78776" lon="4.82881">
        <ele>239.5</ele>
        <time>2011-09-11T11:14:23Z</time>
      </trkpt>
      <trkpt lat="45.78782" lon="4.82871">
        <ele>237.8</ele>
        <time>2011-09-11T11:14:30Z</time>
      </trkpt>
      <trkpt lat="45.78788" lon="4.82859">
        <ele>236.2</ele>
        <time>2011-09-11T11:14:35Z</time>
      </trkpt>
      <trkpt lat="45.78795" lon="4.8285">
        <ele>234.5</ele>
        <time>2011-09-11T11:14:40Z</time>
      </trkpt>
      <trkpt lat="45.78804" lon="4.82842">
        <ele>232.9</ele>
        <time>2011-09-11T11:14:43Z</time>
      </trkpt>
      <trkpt lat="45.78815" lon="4.82834">
        <ele>231.3</ele>
        <time>2011-09-11T11:14:46Z</time>
      </trkpt>
      <trkpt lat="45.78827" lon="4.82828">
        <ele>229.6</ele>
        <time>2011-09-11T11:14:49Z</time>
      </trkpt>
      <trkpt lat="45.78838" lon="4.82824">
        <ele>228.3</ele>
        <time>2011-09-11T11:14:53Z</time>
      </trkpt>
      <trkpt lat="45.78847" lon="4.82821">
        <ele>226.9</ele>
        <time>2011-09-11T11:14:56Z</time>
      </trkpt>
      <trkpt lat="45.78859" lon="4.82819">
        <ele>226.4</ele>
        <time>2011-09-11T11:14:59Z</time>
      </trkpt>
      <trkpt lat="45.78869" lon="4.82817">
        <ele>225.8</ele>
        <time>2011-09-11T11:15:02Z</time>
      </trkpt>
      <trkpt lat="45.78878" lon="4.82816">
        <ele>223.2</ele>
        <time>2011-09-11T11:15:04Z</time>
      </trkpt>
      <trkpt lat="45.78891" lon="4.82818">
        <ele>222</ele>
        <time>2011-09-11T11:15:07Z</time>
      </trkpt>
      <trkpt lat="45.789" lon="4.8282">
        <ele>219.4</ele>
        <time>2011-09-11T11:15:10Z</time>
      </trkpt>
      <trkpt lat="45.78904" lon="4.82805">
        <ele>216.7</ele>
        <time>2011-09-11T11:15:15Z</time>
      </trkpt>
      <trkpt lat="45.78897" lon="4.82796">
        <ele>214.1</ele>
        <time>2011-09-11T11:15:19Z</time>
      </trkpt>
      <trkpt lat="45.78888" lon="4.82788">
        <ele>211.5</ele>
        <time>2011-09-11T11:15:23Z</time>
      </trkpt>
      <trkpt lat="45.7888" lon="4.82781">
        <ele>208.8</ele>
        <time>2011-09-11T11:15:27Z</time>
      </trkpt>
      <trkpt lat="45.78889" lon="4.82769">
        <ele>206.7</ele>
        <time>2011-09-11T11:15:33Z</time>
      </trkpt>
      <trkpt lat="45.78899" lon="4.82771">
        <ele>204.6</ele>
        <time>2011-09-11T11:15:35Z</time>
      </trkpt>
      <trkpt lat="45.78913" lon="4.82768">
        <ele>202.5</ele>
        <time>2011-09-11T11:15:38Z</time>
      </trkpt>
      <trkpt lat="45.78923" lon="4.82766">
        <ele>198.8</ele>
        <time>2011-09-11T11:15:41Z</time>
      </trkpt>
      <trkpt lat="45.78933" lon="4.82767">
        <ele>197.2</ele>
        <time>2011-09-11T11:15:46Z</time>
      </trkpt>
      <trkpt lat="45.78942" lon="4.82773">
        <ele>195.9</ele>
        <time>2011-09-11T11:15:55Z</time>
      </trkpt>
      <trkpt lat="45.78951" lon="4.82776">
        <ele>196.1</ele>
        <time>2011-09-11T11:16:02Z</time>
      </trkpt>
      <trkpt lat="45.7896" lon="4.82781">
        <ele>196.3</ele>
        <time>2011-09-11T11:16:08Z</time>
      </trkpt>
      <trkpt lat="45.78973" lon="4.82786">
        <ele>196.5</ele>
        <time>2011-09-11T11:16:39Z</time>
      </trkpt>
      <trkpt lat="45.78981" lon="4.82795">
        <ele>196.6</ele>
        <time>2011-09-11T11:16:43Z</time>
      </trkpt>
      <trkpt lat="45.78988" lon="4.8281">
        <ele>196.8</ele>
        <time>2011-09-11T11:18:47Z</time>
      </trkpt>
      <trkpt lat="45.78985" lon="4.82823">
        <ele>197</ele>
        <time>2011-09-11T11:19:19Z</time>
      </trkpt>
      <trkpt lat="45.78993" lon="4.82816">
        <ele>197.2</ele>
        <time>2011-09-11T11:20:06Z</time>
      </trkpt>
      <trkpt lat="45.79003" lon="4.82815">
        <ele>195.8</ele>
        <time>2011-09-11T11:20:16Z</time>
      </trkpt>
      <trkpt lat="45.79012" lon="4.82814">
        <ele>196.1</ele>
        <time>2011-09-11T11:20:24Z</time>
      </trkpt>
      <trkpt lat="45.79023" lon="4.82817">
        <ele>196.4</ele>
        <time>2011-09-11T11:20:29Z</time>
      </trkpt>
      <trkpt lat="45.79033" lon="4.8282">
        <ele>194.8</ele>
        <time>2011-09-11T11:20:32Z</time>
      </trkpt>
      <trkpt lat="45.79044" lon="4.82826">
        <ele>193.3</ele>
        <time>2011-09-11T11:20:35Z</time>
      </trkpt>
      <trkpt lat="45.79054" lon="4.8283">
        <ele>191.7</ele>
        <time>2011-09-11T11:20:38Z</time>
      </trkpt>
      <trkpt lat="45.79063" lon="4.82832">
        <ele>189.3</ele>
        <time>2011-09-11T11:20:41Z</time>
      </trkpt>
      <trkpt lat="45.79074" lon="4.82832">
        <ele>186.8</ele>
        <time>2011-09-11T11:20:46Z</time>
      </trkpt>
      <trkpt lat="45.79081" lon="4.82824">
        <ele>184.4</ele>
        <time>2011-09-11T11:20:51Z</time>
      </trkpt>
      <trkpt lat="45.79085" lon="4.82811">
        <ele>181.9</ele>
        <time>2011-09-11T11:20:56Z</time>
      </trkpt>
      <trkpt lat="45.79092" lon="4.82803">
        <ele>179.5</ele>
        <time>2011-09-11T11:20:59Z</time>
      </trkpt>
      <trkpt lat="45.79098" lon="4.82791">
        <ele>178.5</ele>
        <time>2011-09-11T11:21:03Z</time>
      </trkpt>
      <trkpt lat="45.79087" lon="4.82785">
        <ele>177.6</ele>
        <time>2011-09-11T11:21:13Z</time>
      </trkpt>
      <trkpt lat="45.79078" lon="4.82779">
        <ele>177.4</ele>
        <time>2011-09-11T11:21:24Z</time>
      </trkpt>
      <trkpt lat="45.79074" lon="4.82767">
        <ele>176.5</ele>
        <time>2011-09-11T11:21:29Z</time>
      </trkpt>
      <trkpt lat="45.79067" lon="4.82754">
        <ele>175.7</ele>
        <time>2011-09-11T11:21:34Z</time>
      </trkpt>
      <trkpt lat="45.79057" lon="4.82746">
        <ele>174.9</ele>
        <time>2011-09-11T11:21:37Z</time>
      </trkpt>
      <trkpt lat="45.79047" lon="4.82737">
        <ele>175</ele>
        <time>2011-09-11T11:21:40Z</time>
      </trkpt>
      <trkpt lat="45.79037" lon="4.82725">
        <ele>175.1</ele>
        <time>2011-09-11T11:21:43Z</time>
      </trkpt>
      <trkpt lat="45.79027" lon="4.82712">
        <ele>175.2</ele>
        <time>2011-09-11T11:21:47Z</time>
      </trkpt>
      <trkpt lat="45.79018" lon="4.82701">
        <ele>175.3</ele>
        <time>2011-09-11T11:21:50Z</time>
      </trkpt>
      <trkpt lat="45.79007" lon="4.82694">
        <ele>175.9</ele>
        <time>2011-09-11T11:21:58Z</time>
      </trkpt>
      <trkpt lat="45.78999" lon="4.82689">
        <ele>176.5</ele>
        <time>2011-09-11T11:22:07Z</time>
      </trkpt>
      <trkpt lat="45.79009" lon="4.82685">
        <ele>176.5</ele>
        <time>2011-09-11T11:22:19Z</time>
      </trkpt>
      <trkpt lat="45.79015" lon="4.82696">
        <ele>175.9</ele>
        <time>2011-09-11T11:22:24Z</time>
      </trkpt>
      <trkpt lat="45.79022" lon="4.8271">
        <ele>175.8</ele>
        <time>2011-09-11T11:22:28Z</time>
      </trkpt>
      <trkpt lat="45.7903" lon="4.82722">
        <ele>175.7</ele>
        <time>2011-09-11T11:22:31Z</time>
      </trkpt>
      <trkpt lat="45.79039" lon="4.82729">
        <ele>175.6</ele>
        <time>2011-09-11T11:22:33Z</time>
      </trkpt>
      <trkpt lat="45.79047" lon="4.82738">
        <ele>175.5</ele>
        <time>2011-09-11T11:22:35Z</time>
      </trkpt>
      <trkpt lat="45.79055" lon="4.82747">
        <ele>175.5</ele>
        <time>2011-09-11T11:22:37Z</time>
      </trkpt>
      <trkpt lat="45.79063" lon="4.82755">
        <ele>176.3</ele>
        <time>2011-09-11T11:22:39Z</time>
      </trkpt>
      <trkpt lat="45.7907" lon="4.82763">
        <ele>177.1</ele>
        <time>2011-09-11T11:22:41Z</time>
      </trkpt>
      <trkpt lat="45.79079" lon="4.82774">
        <ele>177.4</ele>
        <time>2011-09-11T11:22:44Z</time>
      </trkpt>
      <trkpt lat="45.79088" lon="4.82783">
        <ele>177.1</ele>
        <time>2011-09-11T11:22:48Z</time>
      </trkpt>
      <trkpt lat="45.79098" lon="4.82791">
        <ele>177.5</ele>
        <time>2011-09-11T11:23:58Z</time>
      </trkpt>
      <trkpt lat="45.79108" lon="4.82798">
        <ele>177.8</ele>
        <time>2011-09-11T11:24:02Z</time>
      </trkpt>
      <trkpt lat="45.79117" lon="4.82807">
        <ele>178.2</ele>
        <time>2011-09-11T11:24:06Z</time>
      </trkpt>
      <trkpt lat="45.79125" lon="4.82813">
        <ele>178.5</ele>
        <time>2011-09-11T11:24:09Z</time>
      </trkpt>
      <trkpt lat="45.79133" lon="4.82819">
        <ele>178.9</ele>
        <time>2011-09-11T11:24:12Z</time>
      </trkpt>
      <trkpt lat="45.79143" lon="4.82825">
        <ele>179.3</ele>
        <time>2011-09-11T11:24:15Z</time>
      </trkpt>
      <trkpt lat="45.79153" lon="4.82828">
        <ele>179.4</ele>
        <time>2011-09-11T11:24:18Z</time>
      </trkpt>
      <trkpt lat="45.79165" lon="4.82828">
        <ele>178.5</ele>
        <time>2011-09-11T11:24:21Z</time>
      </trkpt>
      <trkpt lat="45.79177" lon="4.82827">
        <ele>177.7</ele>
        <time>2011-09-11T11:24:24Z</time>
      </trkpt>
      <trkpt lat="45.7919" lon="4.82826">
        <ele>176.9</ele>
        <time>2011-09-11T11:24:27Z</time>
      </trkpt>
      <trkpt lat="45.79203" lon="4.82828">
        <ele>176.6</ele>
        <time>2011-09-11T11:24:30Z</time>
      </trkpt>
      <trkpt lat="45.79215" lon="4.82831">
        <ele>176.4</ele>
        <time>2011-09-11T11:24:33Z</time>
      </trkpt>
      <trkpt lat="45.79227" lon="4.82835">
        <ele>176.1</ele>
        <time>2011-09-11T11:24:36Z</time>
      </trkpt>
      <trkpt lat="45.7924" lon="4.8284">
        <ele>175.8</ele>
        <time>2011-09-11T11:24:39Z</time>
      </trkpt>
      <trkpt lat="45.79253" lon="4.8284">
        <ele>175.6</ele>
        <time>2011-09-11T11:24:42Z</time>
      </trkpt>
      <trkpt lat="45.79262" lon="4.82844">
        <ele>175.5</ele>
        <time>2011-09-11T11:24:44Z</time>
      </trkpt>
      <trkpt lat="45.79271" lon="4.82849">
        <ele>175.3</ele>
        <time>2011-09-11T11:24:46Z</time>
      </trkpt>
      <trkpt lat="45.79281" lon="4.8285">
        <ele>175.4</ele>
        <time>2011-09-11T11:24:48Z</time>
      </trkpt>
      <trkpt lat="45.79291" lon="4.82848">
        <ele>175.5</ele>
        <time>2011-09-11T11:24:50Z</time>
      </trkpt>
      <trkpt lat="45.79301" lon="4.82845">
        <ele>175.5</ele>
        <time>2011-09-11T11:24:52Z</time>
      </trkpt>
      <trkpt lat="45.79311" lon="4.82841">
        <ele>175.6</ele>
        <time>2011-09-11T11:24:54Z</time>
      </trkpt>
      <trkpt lat="45.79321" lon="4.82836">
        <ele>175.7</ele>
        <time>2011-09-11T11:24:56Z</time>
      </trkpt>
      <trkpt lat="45.79332" lon="4.8283">
        <ele>175.5</ele>
        <time>2011-09-11T11:24:59Z</time>
      </trkpt>
      <trkpt lat="45.79342" lon="4.82828">
        <ele>175.4</ele>
        <time>2011-09-11T11:25:03Z</time>
      </trkpt>
      <trkpt lat="45.79353" lon="4.82843">
        <ele>176.2</ele>
        <time>2011-09-11T11:26:15Z</time>
      </trkpt>
      <trkpt lat="45.79364" lon="4.82852">
        <ele>176.9</ele>
        <time>2011-09-11T11:26:20Z</time>
      </trkpt>
      <trkpt lat="45.79374" lon="4.82857">
        <ele>177.6</ele>
        <time>2011-09-11T11:26:26Z</time>
      </trkpt>
      <trkpt lat="45.79384" lon="4.8286">
        <ele>178.4</ele>
        <time>2011-09-11T11:26:30Z</time>
      </trkpt>
      <trkpt lat="45.79391" lon="4.82868">
        <ele>179.5</ele>
        <time>2011-09-11T11:26:34Z</time>
      </trkpt>
      <trkpt lat="45.79397" lon="4.82881">
        <ele>180.5</ele>
        <time>2011-09-11T11:26:39Z</time>
      </trkpt>
      <trkpt lat="45.79405" lon="4.82894">
        <ele>181.6</ele>
        <time>2011-09-11T11:26:45Z</time>
      </trkpt>
      <trkpt lat="45.794" lon="4.8291">
        <ele>182.7</ele>
        <time>2011-09-11T11:26:55Z</time>
      </trkpt>
      <trkpt lat="45.79391" lon="4.82919">
        <ele>183.8</ele>
        <time>2011-09-11T11:27:09Z</time>
      </trkpt>
      <trkpt lat="45.79381" lon="4.82922">
        <ele>185.2</ele>
        <time>2011-09-11T11:27:15Z</time>
      </trkpt>
      <trkpt lat="45.79373" lon="4.82925">
        <ele>188.3</ele>
        <time>2011-09-11T11:27:23Z</time>
      </trkpt>
      <trkpt lat="45.79364" lon="4.82932">
        <ele>190.4</ele>
        <time>2011-09-11T11:27:30Z</time>
      </trkpt>
      <trkpt lat="45.79356" lon="4.82939">
        <ele>192.5</ele>
        <time>2011-09-11T11:27:38Z</time>
      </trkpt>
      <trkpt lat="45.79347" lon="4.82946">
        <ele>194.5</ele>
        <time>2011-09-11T11:27:46Z</time>
      </trkpt>
      <trkpt lat="45.79339" lon="4.82953">
        <ele>196.6</ele>
        <time>2011-09-11T11:27:54Z</time>
      </trkpt>
      <trkpt lat="45.7933" lon="4.82961">
        <ele>199.3</ele>
        <time>2011-09-11T11:28:02Z</time>
      </trkpt>
      <trkpt lat="45.79323" lon="4.82969">
        <ele>201.9</ele>
        <time>2011-09-11T11:28:09Z</time>
      </trkpt>
      <trkpt lat="45.79315" lon="4.82977">
        <ele>204.5</ele>
        <time>2011-09-11T11:28:18Z</time>
      </trkpt>
      <trkpt lat="45.79307" lon="4.82985">
        <ele>207.2</ele>
        <time>2011-09-11T11:28:28Z</time>
      </trkpt>
      <trkpt lat="45.793" lon="4.82994">
        <ele>209.8</ele>
        <time>2011-09-11T11:28:37Z</time>
      </trkpt>
      <trkpt lat="45.79291" lon="4.83">
        <ele>212.5</ele>
        <time>2011-09-11T11:28:44Z</time>
      </trkpt>
      <trkpt lat="45.79281" lon="4.83">
        <ele>213.4</ele>
        <time>2011-09-11T11:28:50Z</time>
      </trkpt>
      <trkpt lat="45.79271" lon="4.83002">
        <ele>214.3</ele>
        <time>2011-09-11T11:28:57Z</time>
      </trkpt>
      <trkpt lat="45.79263" lon="4.83009">
        <ele>215.2</ele>
        <time>2011-09-11T11:29:03Z</time>
      </trkpt>
      <trkpt lat="45.79254" lon="4.83016">
        <ele>217</ele>
        <time>2011-09-11T11:29:09Z</time>
      </trkpt>
      <trkpt lat="45.79244" lon="4.83021">
        <ele>218.8</ele>
        <time>2011-09-11T11:29:16Z</time>
      </trkpt>
      <trkpt lat="45.79236" lon="4.83027">
        <ele>219.7</ele>
        <time>2011-09-11T11:29:24Z</time>
      </trkpt>
      <trkpt lat="45.79227" lon="4.83032">
        <ele>220.6</ele>
        <time>2011-09-11T11:29:34Z</time>
      </trkpt>
      <trkpt lat="45.79218" lon="4.83031">
        <ele>221.5</ele>
        <time>2011-09-11T11:29:43Z</time>
      </trkpt>
      <trkpt lat="45.79209" lon="4.83031">
        <ele>222.5</ele>
        <time>2011-09-11T11:29:53Z</time>
      </trkpt>
      <trkpt lat="45.79199" lon="4.83034">
        <ele>223.4</ele>
        <time>2011-09-11T11:30:01Z</time>
      </trkpt>
      <trkpt lat="45.79189" lon="4.83033">
        <ele>224.3</ele>
        <time>2011-09-11T11:30:08Z</time>
      </trkpt>
      <trkpt lat="45.79179" lon="4.83035">
        <ele>225.2</ele>
        <time>2011-09-11T11:30:13Z</time>
      </trkpt>
      <trkpt lat="45.79169" lon="4.83035">
        <ele>226.7</ele>
        <time>2011-09-11T11:30:19Z</time>
      </trkpt>
      <trkpt lat="45.7916" lon="4.83037">
        <ele>228.3</ele>
        <time>2011-09-11T11:30:26Z</time>
      </trkpt>
      <trkpt lat="45.7915" lon="4.83036">
        <ele>228.9</ele>
        <time>2011-09-11T11:30:33Z</time>
      </trkpt>
      <trkpt lat="45.79141" lon="4.83034">
        <ele>229.5</ele>
        <time>2011-09-11T11:30:41Z</time>
      </trkpt>
      <trkpt lat="45.79131" lon="4.83035">
        <ele>230.2</ele>
        <time>2011-09-11T11:30:49Z</time>
      </trkpt>
      <trkpt lat="45.79121" lon="4.83034">
        <ele>230.8</ele>
        <time>2011-09-11T11:30:57Z</time>
      </trkpt>
      <trkpt lat="45.79111" lon="4.8303">
        <ele>231.5</ele>
        <time>2011-09-11T11:31:03Z</time>
      </trkpt>
      <trkpt lat="45.79101" lon="4.83029">
        <ele>233.1</ele>
        <time>2011-09-11T11:31:08Z</time>
      </trkpt>
      <trkpt lat="45.79091" lon="4.83029">
        <ele>234.7</ele>
        <time>2011-09-11T11:31:13Z</time>
      </trkpt>
      <trkpt lat="45.79082" lon="4.83033">
        <ele>236.4</ele>
        <time>2011-09-11T11:31:19Z</time>
      </trkpt>
      <trkpt lat="45.79074" lon="4.83041">
        <ele>238</ele>
        <time>2011-09-11T11:31:25Z</time>
      </trkpt>
      <trkpt lat="45.79068" lon="4.83051">
        <ele>239</ele>
        <time>2011-09-11T11:31:32Z</time>
      </trkpt>
      <trkpt lat="45.79062" lon="4.83062">
        <ele>240</ele>
        <time>2011-09-11T11:31:39Z</time>
      </trkpt>
      <trkpt lat="45.79061" lon="4.83075">
        <ele>240.7</ele>
        <time>2011-09-11T11:31:54Z</time>
      </trkpt>
      <trkpt lat="45.79059" lon="4.83088">
        <ele>241.5</ele>
        <time>2011-09-11T11:32:04Z</time>
      </trkpt>
      <trkpt lat="45.79058" lon="4.83101">
        <ele>242.2</ele>
        <time>2011-09-11T11:32:07Z</time>
      </trkpt>
      <trkpt lat="45.79056" lon="4.83118">
        <ele>242.9</ele>
        <time>2011-09-11T11:32:10Z</time>
      </trkpt>
      <trkpt lat="45.79054" lon="4.83132">
        <ele>243.6</ele>
        <time>2011-09-11T11:32:13Z</time>
      </trkpt>
      <trkpt lat="45.79052" lon="4.83151">
        <ele>243.5</ele>
        <time>2011-09-11T11:32:32Z</time>
      </trkpt>
      <trkpt lat="45.79047" lon="4.83164">
        <ele>243.3</ele>
        <time>2011-09-11T11:33:09Z</time>
      </trkpt>
      <trkpt lat="45.79043" lon="4.83179">
        <ele>243.1</ele>
        <time>2011-09-11T11:33:13Z</time>
      </trkpt>
      <trkpt lat="45.79039" lon="4.83195">
        <ele>242.9</ele>
        <time>2011-09-11T11:33:17Z</time>
      </trkpt>
      <trkpt lat="45.79038" lon="4.8321">
        <ele>242.7</ele>
        <time>2011-09-11T11:33:20Z</time>
      </trkpt>
      <trkpt lat="45.79034" lon="4.83226">
        <ele>242.5</ele>
        <time>2011-09-11T11:33:23Z</time>
      </trkpt>
      <trkpt lat="45.79031" lon="4.83242">
        <ele>242.8</ele>
        <time>2011-09-11T11:33:26Z</time>
      </trkpt>
      <trkpt lat="45.79028" lon="4.83256">
        <ele>243.1</ele>
        <time>2011-09-11T11:33:29Z</time>
      </trkpt>
      <trkpt lat="45.79025" lon="4.83269">
        <ele>243.4</ele>
        <time>2011-09-11T11:33:32Z</time>
      </trkpt>
      <trkpt lat="45.79022" lon="4.83283">
        <ele>243.6</ele>
        <time>2011-09-11T11:33:35Z</time>
      </trkpt>
      <trkpt lat="45.79019" lon="4.83299">
        <ele>243.9</ele>
        <time>2011-09-11T11:33:38Z</time>
      </trkpt>
      <trkpt lat="45.79016" lon="4.83316">
        <ele>244</ele>
        <time>2011-09-11T11:33:41Z</time>
      </trkpt>
      <trkpt lat="45.79014" lon="4.83332">
        <ele>244.1</ele>
        <time>2011-09-11T11:33:44Z</time>
      </trkpt>
      <trkpt lat="45.79012" lon="4.83349">
        <ele>244.2</ele>
        <time>2011-09-11T11:33:47Z</time>
      </trkpt>
      <trkpt lat="45.79011" lon="4.83365">
        <ele>244.3</ele>
        <time>2011-09-11T11:37:59Z</time>
      </trkpt>
      <trkpt lat="45.79009" lon="4.83383">
        <ele>244.4</ele>
        <time>2011-09-11T11:39:27Z</time>
      </trkpt>
      <trkpt lat="45.79003" lon="4.834">
        <ele>244.2</ele>
        <time>2011-09-11T11:39:30Z</time>
      </trkpt>
      <trkpt lat="45.78999" lon="4.83413">
        <ele>243.8</ele>
        <time>2011-09-11T11:39:32Z</time>
      </trkpt>
      <trkpt lat="45.78996" lon="4.83426">
        <ele>243.5</ele>
        <time>2011-09-11T11:39:34Z</time>
      </trkpt>
      <trkpt lat="45.78993" lon="4.83439">
        <ele>243.1</ele>
        <time>2011-09-11T11:39:36Z</time>
      </trkpt>
      <trkpt lat="45.78991" lon="4.83452">
        <ele>242.7</ele>
        <time>2011-09-11T11:39:38Z</time>
      </trkpt>
      <trkpt lat="45.78987" lon="4.83469">
        <ele>242.5</ele>
        <time>2011-09-11T11:39:41Z</time>
      </trkpt>
      <trkpt lat="45.78985" lon="4.83486">
        <ele>242.3</ele>
        <time>2011-09-11T11:39:44Z</time>
      </trkpt>
      <trkpt lat="45.78982" lon="4.83501">
        <ele>242.1</ele>
        <time>2011-09-11T11:39:47Z</time>
      </trkpt>
      <trkpt lat="45.78979" lon="4.83514">
        <ele>241.9</ele>
        <time>2011-09-11T11:39:50Z</time>
      </trkpt>
      <trkpt lat="45.78977" lon="4.83531">
        <ele>241.7</ele>
        <time>2011-09-11T11:39:53Z</time>
      </trkpt>
      <trkpt lat="45.78976" lon="4.83549">
        <ele>241.5</ele>
        <time>2011-09-11T11:39:56Z</time>
      </trkpt>
      <trkpt lat="45.78976" lon="4.83564">
        <ele>241.6</ele>
        <time>2011-09-11T11:39:59Z</time>
      </trkpt>
      <trkpt lat="45.78984" lon="4.83577">
        <ele>241.7</ele>
        <time>2011-09-11T11:40:02Z</time>
      </trkpt>
      <trkpt lat="45.78994" lon="4.83588">
        <ele>241.8</ele>
        <time>2011-09-11T11:40:05Z</time>
      </trkpt>
      <trkpt lat="45.79002" lon="4.83594">
        <ele>242</ele>
        <time>2011-09-11T11:40:07Z</time>
      </trkpt>
      <trkpt lat="45.79014" lon="4.83604">
        <ele>242.2</ele>
        <time>2011-09-11T11:40:10Z</time>
      </trkpt>
      <trkpt lat="45.79022" lon="4.8361">
        <ele>242.3</ele>
        <time>2011-09-11T11:40:12Z</time>
      </trkpt>
      <trkpt lat="45.7903" lon="4.83618">
        <ele>242.4</ele>
        <time>2011-09-11T11:40:14Z</time>
      </trkpt>
      <trkpt lat="45.79038" lon="4.83627">
        <ele>242.5</ele>
        <time>2011-09-11T11:40:16Z</time>
      </trkpt>
      <trkpt lat="45.79046" lon="4.83635">
        <ele>242.5</ele>
        <time>2011-09-11T11:40:18Z</time>
      </trkpt>
      <trkpt lat="45.79054" lon="4.83643">
        <ele>242.6</ele>
        <time>2011-09-11T11:40:20Z</time>
      </trkpt>
      <trkpt lat="45.79061" lon="4.83651">
        <ele>242.7</ele>
        <time>2011-09-11T11:40:22Z</time>
      </trkpt>
      <trkpt lat="45.79069" lon="4.83659">
        <ele>242.8</ele>
        <time>2011-09-11T11:40:24Z</time>
      </trkpt>
      <trkpt lat="45.79077" lon="4.83666">
        <ele>242.9</ele>
        <time>2011-09-11T11:40:26Z</time>
      </trkpt>
      <trkpt lat="45.79084" lon="4.83673">
        <ele>243</ele>
        <time>2011-09-11T11:40:28Z</time>
      </trkpt>
      <trkpt lat="45.79092" lon="4.83681">
        <ele>242.9</ele>
        <time>2011-09-11T11:40:30Z</time>
      </trkpt>
      <trkpt lat="45.791" lon="4.83688">
        <ele>242.8</ele>
        <time>2011-09-11T11:40:32Z</time>
      </trkpt>
      <trkpt lat="45.79108" lon="4.83696">
        <ele>242.7</ele>
        <time>2011-09-11T11:40:34Z</time>
      </trkpt>
      <trkpt lat="45.79116" lon="4.83703">
        <ele>242.6</ele>
        <time>2011-09-11T11:40:36Z</time>
      </trkpt>
      <trkpt lat="45.79127" lon="4.83713">
        <ele>242.5</ele>
        <time>2011-09-11T11:40:39Z</time>
      </trkpt>
      <trkpt lat="45.79135" lon="4.83721">
        <ele>242.5</ele>
        <time>2011-09-11T11:40:42Z</time>
      </trkpt>
      <trkpt lat="45.79144" lon="4.83729">
        <ele>242.4</ele>
        <time>2011-09-11T11:40:55Z</time>
      </trkpt>
      <trkpt lat="45.79154" lon="4.83732">
        <ele>242.3</ele>
        <time>2011-09-11T11:40:59Z</time>
      </trkpt>
      <trkpt lat="45.79164" lon="4.83727">
        <ele>242.2</ele>
        <time>2011-09-11T11:41:02Z</time>
      </trkpt>
      <trkpt lat="45.79172" lon="4.83715">
        <ele>242.1</ele>
        <time>2011-09-11T11:41:05Z</time>
      </trkpt>
      <trkpt lat="45.79176" lon="4.83703">
        <ele>241.6</ele>
        <time>2011-09-11T11:41:07Z</time>
      </trkpt>
      <trkpt lat="45.79177" lon="4.83689">
        <ele>241.3</ele>
        <time>2011-09-11T11:41:09Z</time>
      </trkpt>
      <trkpt lat="45.79179" lon="4.83674">
        <ele>240.9</ele>
        <time>2011-09-11T11:41:11Z</time>
      </trkpt>
      <trkpt lat="45.79181" lon="4.83659">
        <ele>240.8</ele>
        <time>2011-09-11T11:41:13Z</time>
      </trkpt>
      <trkpt lat="45.79183" lon="4.83643">
        <ele>240.7</ele>
        <time>2011-09-11T11:41:15Z</time>
      </trkpt>
      <trkpt lat="45.79187" lon="4.83627">
        <ele>240.6</ele>
        <time>2011-09-11T11:41:17Z</time>
      </trkpt>
      <trkpt lat="45.79193" lon="4.8361">
        <ele>240.5</ele>
        <time>2011-09-11T11:41:19Z</time>
      </trkpt>
      <trkpt lat="45.79201" lon="4.83594">
        <ele>239.9</ele>
        <time>2011-09-11T11:41:21Z</time>
      </trkpt>
      <trkpt lat="45.79212" lon="4.83582">
        <ele>239.3</ele>
        <time>2011-09-11T11:41:23Z</time>
      </trkpt>
      <trkpt lat="45.79225" lon="4.8357">
        <ele>239.2</ele>
        <time>2011-09-11T11:41:25Z</time>
      </trkpt>
      <trkpt lat="45.79236" lon="4.83559">
        <ele>239.1</ele>
        <time>2011-09-11T11:41:27Z</time>
      </trkpt>
      <trkpt lat="45.79247" lon="4.8355">
        <ele>239.4</ele>
        <time>2011-09-11T11:41:29Z</time>
      </trkpt>
      <trkpt lat="45.79258" lon="4.83542">
        <ele>239.6</ele>
        <time>2011-09-11T11:41:31Z</time>
      </trkpt>
      <trkpt lat="45.79269" lon="4.83544">
        <ele>239.9</ele>
        <time>2011-09-11T11:41:33Z</time>
      </trkpt>
      <trkpt lat="45.7928" lon="4.83552">
        <ele>239.9</ele>
        <time>2011-09-11T11:41:35Z</time>
      </trkpt>
      <trkpt lat="45.7929" lon="4.83565">
        <ele>239.9</ele>
        <time>2011-09-11T11:41:37Z</time>
      </trkpt>
      <trkpt lat="45.79299" lon="4.83574">
        <ele>239.9</ele>
        <time>2011-09-11T11:41:39Z</time>
      </trkpt>
      <trkpt lat="45.79309" lon="4.83574">
        <ele>239.9</ele>
        <time>2011-09-11T11:41:42Z</time>
      </trkpt>
      <trkpt lat="45.7932" lon="4.83572">
        <ele>239.3</ele>
        <time>2011-09-11T11:41:45Z</time>
      </trkpt>
      <trkpt lat="45.79331" lon="4.83567">
        <ele>239.2</ele>
        <time>2011-09-11T11:41:48Z</time>
      </trkpt>
      <trkpt lat="45.79342" lon="4.83563">
        <ele>238.5</ele>
        <time>2011-09-11T11:41:51Z</time>
      </trkpt>
      <trkpt lat="45.79354" lon="4.83558">
        <ele>237.9</ele>
        <time>2011-09-11T11:41:54Z</time>
      </trkpt>
      <trkpt lat="45.79367" lon="4.83553">
        <ele>237.3</ele>
        <time>2011-09-11T11:41:57Z</time>
      </trkpt>
      <trkpt lat="45.79377" lon="4.83548">
        <ele>236.6</ele>
        <time>2011-09-11T11:41:59Z</time>
      </trkpt>
      <trkpt lat="45.79386" lon="4.83541">
        <ele>236</ele>
        <time>2011-09-11T11:42:01Z</time>
      </trkpt>
      <trkpt lat="45.79395" lon="4.83534">
        <ele>235.4</ele>
        <time>2011-09-11T11:42:03Z</time>
      </trkpt>
      <trkpt lat="45.79405" lon="4.83527">
        <ele>234.7</ele>
        <time>2011-09-11T11:42:05Z</time>
      </trkpt>
      <trkpt lat="45.79414" lon="4.83518">
        <ele>234.1</ele>
        <time>2011-09-11T11:42:07Z</time>
      </trkpt>
      <trkpt lat="45.79423" lon="4.83508">
        <ele>233.7</ele>
        <time>2011-09-11T11:42:09Z</time>
      </trkpt>
      <trkpt lat="45.79431" lon="4.83497">
        <ele>234.5</ele>
        <time>2011-09-11T11:42:11Z</time>
      </trkpt>
      <trkpt lat="45.79441" lon="4.83488">
        <ele>234.8</ele>
        <time>2011-09-11T11:42:13Z</time>
      </trkpt>
      <trkpt lat="45.7945" lon="4.83489">
        <ele>235.1</ele>
        <time>2011-09-11T11:42:15Z</time>
      </trkpt>
      <trkpt lat="45.79459" lon="4.83498">
        <ele>235.7</ele>
        <time>2011-09-11T11:42:17Z</time>
      </trkpt>
      <trkpt lat="45.79465" lon="4.83507">
        <ele>236.4</ele>
        <time>2011-09-11T11:42:19Z</time>
      </trkpt>
      <trkpt lat="45.79467" lon="4.8352">
        <ele>237</ele>
        <time>2011-09-11T11:42:21Z</time>
      </trkpt>
      <trkpt lat="45.79466" lon="4.83533">
        <ele>237.6</ele>
        <time>2011-09-11T11:42:23Z</time>
      </trkpt>
      <trkpt lat="45.79465" lon="4.83547">
        <ele>238.3</ele>
        <time>2011-09-11T11:42:25Z</time>
      </trkpt>
      <trkpt lat="45.79463" lon="4.8356">
        <ele>239.2</ele>
        <time>2011-09-11T11:42:27Z</time>
      </trkpt>
      <trkpt lat="45.79462" lon="4.83573">
        <ele>240.1</ele>
        <time>2011-09-11T11:42:29Z</time>
      </trkpt>
      <trkpt lat="45.7946" lon="4.83592">
        <ele>240.7</ele>
        <time>2011-09-11T11:42:32Z</time>
      </trkpt>
      <trkpt lat="45.79457" lon="4.8361">
        <ele>241.4</ele>
        <time>2011-09-11T11:42:35Z</time>
      </trkpt>
      <trkpt lat="45.79454" lon="4.83622">
        <ele>242</ele>
        <time>2011-09-11T11:42:37Z</time>
      </trkpt>
      <trkpt lat="45.7945" lon="4.83635">
        <ele>242.6</ele>
        <time>2011-09-11T11:42:39Z</time>
      </trkpt>
      <trkpt lat="45.79447" lon="4.83647">
        <ele>242.9</ele>
        <time>2011-09-11T11:42:41Z</time>
      </trkpt>
      <trkpt lat="45.79444" lon="4.8366">
        <ele>243.2</ele>
        <time>2011-09-11T11:42:43Z</time>
      </trkpt>
      <trkpt lat="45.79441" lon="4.83679">
        <ele>243.5</ele>
        <time>2011-09-11T11:42:46Z</time>
      </trkpt>
      <trkpt lat="45.79439" lon="4.83692">
        <ele>243.7</ele>
        <time>2011-09-11T11:42:48Z</time>
      </trkpt>
      <trkpt lat="45.79436" lon="4.83705">
        <ele>244</ele>
        <time>2011-09-11T11:42:50Z</time>
      </trkpt>
      <trkpt lat="45.79434" lon="4.83718">
        <ele>243.9</ele>
        <time>2011-09-11T11:42:52Z</time>
      </trkpt>
      <trkpt lat="45.79433" lon="4.83732">
        <ele>243.8</ele>
        <time>2011-09-11T11:42:54Z</time>
      </trkpt>
      <trkpt lat="45.79431" lon="4.83751">
        <ele>243.7</ele>
        <time>2011-09-11T11:42:57Z</time>
      </trkpt>
      <trkpt lat="45.79428" lon="4.83765">
        <ele>243.6</ele>
        <time>2011-09-11T11:43:00Z</time>
      </trkpt>
      <trkpt lat="45.79424" lon="4.83781">
        <ele>243.5</ele>
        <time>2011-09-11T11:43:03Z</time>
      </trkpt>
      <trkpt lat="45.79423" lon="4.83799">
        <ele>243.4</ele>
        <time>2011-09-11T11:43:06Z</time>
      </trkpt>
      <trkpt lat="45.79425" lon="4.83816">
        <ele>243.2</ele>
        <time>2011-09-11T11:43:09Z</time>
      </trkpt>
      <trkpt lat="45.79426" lon="4.83832">
        <ele>243</ele>
        <time>2011-09-11T11:43:12Z</time>
      </trkpt>
      <trkpt lat="45.79428" lon="4.83848">
        <ele>242.8</ele>
        <time>2011-09-11T11:43:15Z</time>
      </trkpt>
      <trkpt lat="45.79432" lon="4.83864">
        <ele>242.6</ele>
        <time>2011-09-11T11:43:18Z</time>
      </trkpt>
      <trkpt lat="45.79436" lon="4.83881">
        <ele>242.5</ele>
        <time>2011-09-11T11:43:21Z</time>
      </trkpt>
      <trkpt lat="45.79441" lon="4.83899">
        <ele>242.5</ele>
        <time>2011-09-11T11:43:24Z</time>
      </trkpt>
      <trkpt lat="45.79445" lon="4.83912">
        <ele>242.6</ele>
        <time>2011-09-11T11:43:26Z</time>
      </trkpt>
      <trkpt lat="45.79449" lon="4.83925">
        <ele>242.7</ele>
        <time>2011-09-11T11:43:28Z</time>
      </trkpt>
      <trkpt lat="45.79453" lon="4.83938">
        <ele>242.8</ele>
        <time>2011-09-11T11:43:30Z</time>
      </trkpt>
      <trkpt lat="45.79457" lon="4.83956">
        <ele>242.9</ele>
        <time>2011-09-11T11:43:33Z</time>
      </trkpt>
      <trkpt lat="45.79461" lon="4.83971">
        <ele>243.1</ele>
        <time>2011-09-11T11:43:36Z</time>
      </trkpt>
      <trkpt lat="45.79465" lon="4.83984">
        <ele>243.4</ele>
        <time>2011-09-11T11:43:39Z</time>
      </trkpt>
      <trkpt lat="45.79471" lon="4.84002">
        <ele>243.6</ele>
        <time>2011-09-11T11:43:42Z</time>
      </trkpt>
      <trkpt lat="45.79474" lon="4.84016">
        <ele>243.9</ele>
        <time>2011-09-11T11:43:44Z</time>
      </trkpt>
      <trkpt lat="45.79472" lon="4.84034">
        <ele>244.2</ele>
        <time>2011-09-11T11:43:47Z</time>
      </trkpt>
      <trkpt lat="45.79476" lon="4.84051">
        <ele>244.5</ele>
        <time>2011-09-11T11:43:50Z</time>
      </trkpt>
      <trkpt lat="45.79486" lon="4.84063">
        <ele>244.5</ele>
        <time>2011-09-11T11:43:53Z</time>
      </trkpt>
      <trkpt lat="45.79494" lon="4.84071">
        <ele>244.6</ele>
        <time>2011-09-11T11:43:55Z</time>
      </trkpt>
      <trkpt lat="45.79502" lon="4.84079">
        <ele>244.7</ele>
        <time>2011-09-11T11:43:57Z</time>
      </trkpt>
      <trkpt lat="45.7951" lon="4.84087">
        <ele>244.6</ele>
        <time>2011-09-11T11:43:59Z</time>
      </trkpt>
      <trkpt lat="45.79518" lon="4.84096">
        <ele>244.5</ele>
        <time>2011-09-11T11:44:01Z</time>
      </trkpt>
      <trkpt lat="45.79527" lon="4.84107">
        <ele>244.5</ele>
        <time>2011-09-11T11:44:03Z</time>
      </trkpt>
      <trkpt lat="45.79536" lon="4.84118">
        <ele>244.3</ele>
        <time>2011-09-11T11:44:05Z</time>
      </trkpt>
      <trkpt lat="45.79545" lon="4.84131">
        <ele>244.1</ele>
        <time>2011-09-11T11:44:07Z</time>
      </trkpt>
      <trkpt lat="45.79556" lon="4.84143">
        <ele>243.9</ele>
        <time>2011-09-11T11:44:09Z</time>
      </trkpt>
      <trkpt lat="45.79566" lon="4.84156">
        <ele>243.7</ele>
        <time>2011-09-11T11:44:11Z</time>
      </trkpt>
      <trkpt lat="45.79577" lon="4.84168">
        <ele>243.5</ele>
        <time>2011-09-11T11:44:13Z</time>
      </trkpt>
      <trkpt lat="45.79588" lon="4.84182">
        <ele>243.1</ele>
        <time>2011-09-11T11:44:15Z</time>
      </trkpt>
      <trkpt lat="45.79599" lon="4.84195">
        <ele>242.6</ele>
        <time>2011-09-11T11:44:17Z</time>
      </trkpt>
      <trkpt lat="45.7961" lon="4.84208">
        <ele>242.2</ele>
        <time>2011-09-11T11:44:19Z</time>
      </trkpt>
      <trkpt lat="45.79619" lon="4.84216">
        <ele>241.9</ele>
        <time>2011-09-11T11:44:21Z</time>
      </trkpt>
      <trkpt lat="45.79627" lon="4.84211">
        <ele>241.6</ele>
        <time>2011-09-11T11:44:23Z</time>
      </trkpt>
      <trkpt lat="45.79635" lon="4.84201">
        <ele>241.4</ele>
        <time>2011-09-11T11:44:25Z</time>
      </trkpt>
      <trkpt lat="45.79644" lon="4.8419">
        <ele>241.1</ele>
        <time>2011-09-11T11:44:27Z</time>
      </trkpt>
      <trkpt lat="45.79653" lon="4.84177">
        <ele>240.8</ele>
        <time>2011-09-11T11:44:29Z</time>
      </trkpt>
      <trkpt lat="45.79662" lon="4.84164">
        <ele>239.8</ele>
        <time>2011-09-11T11:44:31Z</time>
      </trkpt>
      <trkpt lat="45.79671" lon="4.84151">
        <ele>238.8</ele>
        <time>2011-09-11T11:44:33Z</time>
      </trkpt>
      <trkpt lat="45.79681" lon="4.84146">
        <ele>237.8</ele>
        <time>2011-09-11T11:44:35Z</time>
      </trkpt>
      <trkpt lat="45.79693" lon="4.84151">
        <ele>237.8</ele>
        <time>2011-09-11T11:44:37Z</time>
      </trkpt>
      <trkpt lat="45.79703" lon="4.8416">
        <ele>237.1</ele>
        <time>2011-09-11T11:44:39Z</time>
      </trkpt>
      <trkpt lat="45.79712" lon="4.84169">
        <ele>236.4</ele>
        <time>2011-09-11T11:44:41Z</time>
      </trkpt>
      <trkpt lat="45.7972" lon="4.84179">
        <ele>235.6</ele>
        <time>2011-09-11T11:44:44Z</time>
      </trkpt>
      <trkpt lat="45.79719" lon="4.84193">
        <ele>234.9</ele>
        <time>2011-09-11T11:44:48Z</time>
      </trkpt>
      <trkpt lat="45.79708" lon="4.84197">
        <ele>234.2</ele>
        <time>2011-09-11T11:45:45Z</time>
      </trkpt>
      <trkpt lat="45.79717" lon="4.84202">
        <ele>233.5</ele>
        <time>2011-09-11T11:45:59Z</time>
      </trkpt>
      <trkpt lat="45.79726" lon="4.84202">
        <ele>232.7</ele>
        <time>2011-09-11T11:46:07Z</time>
      </trkpt>
      <trkpt lat="45.79736" lon="4.84206">
        <ele>232.7</ele>
        <time>2011-09-11T11:46:55Z</time>
      </trkpt>
      <trkpt lat="45.79747" lon="4.84212">
        <ele>232.7</ele>
        <time>2011-09-11T11:48:39Z</time>
      </trkpt>
      <trkpt lat="45.79741" lon="4.84202">
        <ele>232.7</ele>
        <time>2011-09-11T11:49:20Z</time>
      </trkpt>
      <trkpt lat="45.79732" lon="4.84202">
        <ele>232</ele>
        <time>2011-09-11T11:50:44Z</time>
      </trkpt>
      <trkpt lat="45.79723" lon="4.84206">
        <ele>232</ele>
        <time>2011-09-11T11:51:12Z</time>
      </trkpt>
      <trkpt lat="45.79715" lon="4.84197">
        <ele>232</ele>
        <time>2011-09-11T11:51:48Z</time>
      </trkpt>
      <trkpt lat="45.79726" lon="4.84197">
        <ele>232</ele>
        <time>2011-09-11T11:51:59Z</time>
      </trkpt>
      <trkpt lat="45.79735" lon="4.842">
        <ele>232</ele>
        <time>2011-09-11T11:52:03Z</time>
      </trkpt>
      <trkpt lat="45.79742" lon="4.84208">
        <ele>232</ele>
        <time>2011-09-11T11:52:07Z</time>
      </trkpt>
      <trkpt lat="45.79748" lon="4.84222">
        <ele>232</ele>
        <time>2011-09-11T11:52:11Z</time>
      </trkpt>
      <trkpt lat="45.79754" lon="4.84235">
        <ele>232</ele>
        <time>2011-09-11T11:52:16Z</time>
      </trkpt>
      <trkpt lat="45.79752" lon="4.84248">
        <ele>232.3</ele>
        <time>2011-09-11T11:52:19Z</time>
      </trkpt>
      <trkpt lat="45.79748" lon="4.8426">
        <ele>232.5</ele>
        <time>2011-09-11T11:52:22Z</time>
      </trkpt>
      <trkpt lat="45.79742" lon="4.84274">
        <ele>232.8</ele>
        <time>2011-09-11T11:52:26Z</time>
      </trkpt>
      <trkpt lat="45.79739" lon="4.84286">
        <ele>233.1</ele>
        <time>2011-09-11T11:52:29Z</time>
      </trkpt>
      <trkpt lat="45.79735" lon="4.84299">
        <ele>233.4</ele>
        <time>2011-09-11T11:52:31Z</time>
      </trkpt>
      <trkpt lat="45.7973" lon="4.84313">
        <ele>233.6</ele>
        <time>2011-09-11T11:52:32Z</time>
      </trkpt>
      <trkpt lat="45.79725" lon="4.84326">
        <ele>234.2</ele>
        <time>2011-09-11T11:52:34Z</time>
      </trkpt>
      <trkpt lat="45.79722" lon="4.84338">
        <ele>234.7</ele>
        <time>2011-09-11T11:52:36Z</time>
      </trkpt>
      <trkpt lat="45.79721" lon="4.84351">
        <ele>235.3</ele>
        <time>2011-09-11T11:52:38Z</time>
      </trkpt>
      <trkpt lat="45.79727" lon="4.84367">
        <ele>235.8</ele>
        <time>2011-09-11T11:52:41Z</time>
      </trkpt>
      <trkpt lat="45.79733" lon="4.84377">
        <ele>236.4</ele>
        <time>2011-09-11T11:52:43Z</time>
      </trkpt>
      <trkpt lat="45.7974" lon="4.84388">
        <ele>236.6</ele>
        <time>2011-09-11T11:52:45Z</time>
      </trkpt>
      <trkpt lat="45.79748" lon="4.84399">
        <ele>236.9</ele>
        <time>2011-09-11T11:52:47Z</time>
      </trkpt>
      <trkpt lat="45.79755" lon="4.8441">
        <ele>236.9</ele>
        <time>2011-09-11T11:52:49Z</time>
      </trkpt>
      <trkpt lat="45.79762" lon="4.84419">
        <ele>236.9</ele>
        <time>2011-09-11T11:52:51Z</time>
      </trkpt>
      <trkpt lat="45.79771" lon="4.84432">
        <ele>236.9</ele>
        <time>2011-09-11T11:52:54Z</time>
      </trkpt>
      <trkpt lat="45.79777" lon="4.84443">
        <ele>236.9</ele>
        <time>2011-09-11T11:52:56Z</time>
      </trkpt>
      <trkpt lat="45.79786" lon="4.84456">
        <ele>236.6</ele>
        <time>2011-09-11T11:52:59Z</time>
      </trkpt>
      <trkpt lat="45.79795" lon="4.84469">
        <ele>236.4</ele>
        <time>2011-09-11T11:53:02Z</time>
      </trkpt>
      <trkpt lat="45.79804" lon="4.84482">
        <ele>236.1</ele>
        <time>2011-09-11T11:53:05Z</time>
      </trkpt>
      <trkpt lat="45.79814" lon="4.84495">
        <ele>236.2</ele>
        <time>2011-09-11T11:53:08Z</time>
      </trkpt>
      <trkpt lat="45.79822" lon="4.84508">
        <ele>236.3</ele>
        <time>2011-09-11T11:53:11Z</time>
      </trkpt>
      <trkpt lat="45.7983" lon="4.84522">
        <ele>236.4</ele>
        <time>2011-09-11T11:53:14Z</time>
      </trkpt>
      <trkpt lat="45.79838" lon="4.84534">
        <ele>236.5</ele>
        <time>2011-09-11T11:53:17Z</time>
      </trkpt>
      <trkpt lat="45.79846" lon="4.84543">
        <ele>236.8</ele>
        <time>2011-09-11T11:53:20Z</time>
      </trkpt>
      <trkpt lat="45.79855" lon="4.8455">
        <ele>237.2</ele>
        <time>2011-09-11T11:53:23Z</time>
      </trkpt>
      <trkpt lat="45.79866" lon="4.8456">
        <ele>237.5</ele>
        <time>2011-09-11T11:53:26Z</time>
      </trkpt>
      <trkpt lat="45.79873" lon="4.84568">
        <ele>237.9</ele>
        <time>2011-09-11T11:53:28Z</time>
      </trkpt>
      <trkpt lat="45.79879" lon="4.84579">
        <ele>238.3</ele>
        <time>2011-09-11T11:53:30Z</time>
      </trkpt>
      <trkpt lat="45.79882" lon="4.84593">
        <ele>238.6</ele>
        <time>2011-09-11T11:53:32Z</time>
      </trkpt>
      <trkpt lat="45.79885" lon="4.84607">
        <ele>239</ele>
        <time>2011-09-11T11:53:34Z</time>
      </trkpt>
      <trkpt lat="45.79889" lon="4.8462">
        <ele>239</ele>
        <time>2011-09-11T11:53:37Z</time>
      </trkpt>
      <trkpt lat="45.79897" lon="4.84627">
        <ele>239</ele>
        <time>2011-09-11T11:53:39Z</time>
      </trkpt>
      <trkpt lat="45.79908" lon="4.84625">
        <ele>237.7</ele>
        <time>2011-09-11T11:53:41Z</time>
      </trkpt>
      <trkpt lat="45.79911" lon="4.8461">
        <ele>236.5</ele>
        <time>2011-09-11T11:53:43Z</time>
      </trkpt>
      <trkpt lat="45.7991" lon="4.84593">
        <ele>236.1</ele>
        <time>2011-09-11T11:53:45Z</time>
      </trkpt>
      <trkpt lat="45.79907" lon="4.84574">
        <ele>235.7</ele>
        <time>2011-09-11T11:53:47Z</time>
      </trkpt>
      <trkpt lat="45.79904" lon="4.84559">
        <ele>235.4</ele>
        <time>2011-09-11T11:53:49Z</time>
      </trkpt>
      <trkpt lat="45.79896" lon="4.84539">
        <ele>235</ele>
        <time>2011-09-11T11:53:51Z</time>
      </trkpt>
      <trkpt lat="45.7989" lon="4.8453">
        <ele>234.6</ele>
        <time>2011-09-11T11:53:52Z</time>
      </trkpt>
      <trkpt lat="45.79877" lon="4.84513">
        <ele>234.3</ele>
        <time>2011-09-11T11:53:54Z</time>
      </trkpt>
      <trkpt lat="45.79866" lon="4.84501">
        <ele>233</ele>
        <time>2011-09-11T11:53:56Z</time>
      </trkpt>
      <trkpt lat="45.79858" lon="4.84492">
        <ele>231.7</ele>
        <time>2011-09-11T11:53:58Z</time>
      </trkpt>
      <trkpt lat="45.7985" lon="4.84484">
        <ele>230.5</ele>
        <time>2011-09-11T11:54:00Z</time>
      </trkpt>
      <trkpt lat="45.79856" lon="4.84494">
        <ele>230.5</ele>
        <time>2011-09-11T11:54:04Z</time>
      </trkpt>
      <trkpt lat="45.79879" lon="4.84498">
        <ele>230.5</ele>
        <time>2011-09-11T11:54:06Z</time>
      </trkpt>
      <trkpt lat="45.7989" lon="4.84501">
        <ele>229.5</ele>
        <time>2011-09-11T11:54:07Z</time>
      </trkpt>
      <trkpt lat="45.79899" lon="4.84504">
        <ele>227.3</ele>
        <time>2011-09-11T11:54:08Z</time>
      </trkpt>
      <trkpt lat="45.79913" lon="4.8451">
        <ele>225</ele>
        <time>2011-09-11T11:54:10Z</time>
      </trkpt>
      <trkpt lat="45.79924" lon="4.84509">
        <ele>222.7</ele>
        <time>2011-09-11T11:54:12Z</time>
      </trkpt>
      <trkpt lat="45.79931" lon="4.8449">
        <ele>220.5</ele>
        <time>2011-09-11T11:54:14Z</time>
      </trkpt>
      <trkpt lat="45.79933" lon="4.84477">
        <ele>218.2</ele>
        <time>2011-09-11T11:54:15Z</time>
      </trkpt>
      <trkpt lat="45.79934" lon="4.84461">
        <ele>216.3</ele>
        <time>2011-09-11T11:54:16Z</time>
      </trkpt>
      <trkpt lat="45.79935" lon="4.84443">
        <ele>214.4</ele>
        <time>2011-09-11T11:54:17Z</time>
      </trkpt>
      <trkpt lat="45.79936" lon="4.84424">
        <ele>212.5</ele>
        <time>2011-09-11T11:54:18Z</time>
      </trkpt>
      <trkpt lat="45.79935" lon="4.84405">
        <ele>210.5</ele>
        <time>2011-09-11T11:54:19Z</time>
      </trkpt>
      <trkpt lat="45.79934" lon="4.84386">
        <ele>208</ele>
        <time>2011-09-11T11:54:20Z</time>
      </trkpt>
      <trkpt lat="45.79934" lon="4.84368">
        <ele>205.5</ele>
        <time>2011-09-11T11:54:21Z</time>
      </trkpt>
      <trkpt lat="45.79934" lon="4.84351">
        <ele>204.3</ele>
        <time>2011-09-11T11:54:22Z</time>
      </trkpt>
      <trkpt lat="45.79935" lon="4.84333">
        <ele>203.1</ele>
        <time>2011-09-11T11:54:23Z</time>
      </trkpt>
      <trkpt lat="45.79937" lon="4.84315">
        <ele>201.9</ele>
        <time>2011-09-11T11:54:24Z</time>
      </trkpt>
      <trkpt lat="45.7994" lon="4.84297">
        <ele>200.3</ele>
        <time>2011-09-11T11:54:25Z</time>
      </trkpt>
      <trkpt lat="45.79944" lon="4.84279">
        <ele>197.1</ele>
        <time>2011-09-11T11:54:26Z</time>
      </trkpt>
      <trkpt lat="45.79948" lon="4.84261">
        <ele>194.5</ele>
        <time>2011-09-11T11:54:27Z</time>
      </trkpt>
      <trkpt lat="45.79953" lon="4.84243">
        <ele>191.8</ele>
        <time>2011-09-11T11:54:28Z</time>
      </trkpt>
      <trkpt lat="45.79957" lon="4.84225">
        <ele>189.3</ele>
        <time>2011-09-11T11:54:29Z</time>
      </trkpt>
      <trkpt lat="45.79963" lon="4.84206">
        <ele>186.7</ele>
        <time>2011-09-11T11:54:30Z</time>
      </trkpt>
      <trkpt lat="45.79968" lon="4.84185">
        <ele>184.8</ele>
        <time>2011-09-11T11:54:31Z</time>
      </trkpt>
      <trkpt lat="45.79973" lon="4.84166">
        <ele>182.9</ele>
        <time>2011-09-11T11:54:32Z</time>
      </trkpt>
      <trkpt lat="45.79977" lon="4.84151">
        <ele>181</ele>
        <time>2011-09-11T11:54:33Z</time>
      </trkpt>
      <trkpt lat="45.7998" lon="4.84135">
        <ele>179.1</ele>
        <time>2011-09-11T11:54:34Z</time>
      </trkpt>
      <trkpt lat="45.79983" lon="4.84123">
        <ele>177.2</ele>
        <time>2011-09-11T11:54:35Z</time>
      </trkpt>
      <trkpt lat="45.79988" lon="4.84104">
        <ele>175.7</ele>
        <time>2011-09-11T11:54:37Z</time>
      </trkpt>
      <trkpt lat="45.79994" lon="4.8409">
        <ele>175.8</ele>
        <time>2011-09-11T11:54:39Z</time>
      </trkpt>
      <trkpt lat="45.79999" lon="4.84077">
        <ele>175.9</ele>
        <time>2011-09-11T11:54:41Z</time>
      </trkpt>
      <trkpt lat="45.8001" lon="4.84073">
        <ele>175</ele>
        <time>2011-09-11T11:54:44Z</time>
      </trkpt>
      <trkpt lat="45.80018" lon="4.84083">
        <ele>174</ele>
        <time>2011-09-11T11:54:46Z</time>
      </trkpt>
      <trkpt lat="45.80026" lon="4.84093">
        <ele>173</ele>
        <time>2011-09-11T11:54:48Z</time>
      </trkpt>
      <trkpt lat="45.80034" lon="4.84101">
        <ele>172.9</ele>
        <time>2011-09-11T11:54:50Z</time>
      </trkpt>
      <trkpt lat="45.80043" lon="4.84109">
        <ele>172.8</ele>
        <time>2011-09-11T11:54:52Z</time>
      </trkpt>
      <trkpt lat="45.80053" lon="4.84117">
        <ele>172.7</ele>
        <time>2011-09-11T11:54:54Z</time>
      </trkpt>
      <trkpt lat="45.80063" lon="4.84126">
        <ele>172.6</ele>
        <time>2011-09-11T11:54:56Z</time>
      </trkpt>
      <trkpt lat="45.80075" lon="4.84135">
        <ele>172</ele>
        <time>2011-09-11T11:54:58Z</time>
      </trkpt>
      <trkpt lat="45.80087" lon="4.84145">
        <ele>171.4</ele>
        <time>2011-09-11T11:55:00Z</time>
      </trkpt>
      <trkpt lat="45.80099" lon="4.84154">
        <ele>170.7</ele>
        <time>2011-09-11T11:55:02Z</time>
      </trkpt>
      <trkpt lat="45.80111" lon="4.84162">
        <ele>170.1</ele>
        <time>2011-09-11T11:55:04Z</time>
      </trkpt>
      <trkpt lat="45.80123" lon="4.84171">
        <ele>170.5</ele>
        <time>2011-09-11T11:55:06Z</time>
      </trkpt>
      <trkpt lat="45.80135" lon="4.84181">
        <ele>170.8</ele>
        <time>2011-09-11T11:55:08Z</time>
      </trkpt>
      <trkpt lat="45.80147" lon="4.8419">
        <ele>171.2</ele>
        <time>2011-09-11T11:55:10Z</time>
      </trkpt>
      <trkpt lat="45.80159" lon="4.84198">
        <ele>170.7</ele>
        <time>2011-09-11T11:55:12Z</time>
      </trkpt>
      <trkpt lat="45.8017" lon="4.84205">
        <ele>170.3</ele>
        <time>2011-09-11T11:55:14Z</time>
      </trkpt>
      <trkpt lat="45.80182" lon="4.84211">
        <ele>169.8</ele>
        <time>2011-09-11T11:55:16Z</time>
      </trkpt>
      <trkpt lat="45.80195" lon="4.84217">
        <ele>169.4</ele>
        <time>2011-09-11T11:55:18Z</time>
      </trkpt>
      <trkpt lat="45.80208" lon="4.84222">
        <ele>169.5</ele>
        <time>2011-09-11T11:55:20Z</time>
      </trkpt>
      <trkpt lat="45.80221" lon="4.84227">
        <ele>169.5</ele>
        <time>2011-09-11T11:55:22Z</time>
      </trkpt>
      <trkpt lat="45.80235" lon="4.84231">
        <ele>169.9</ele>
        <time>2011-09-11T11:55:24Z</time>
      </trkpt>
      <trkpt lat="45.80248" lon="4.84235">
        <ele>170.3</ele>
        <time>2011-09-11T11:55:26Z</time>
      </trkpt>
      <trkpt lat="45.80262" lon="4.8424">
        <ele>170.6</ele>
        <time>2011-09-11T11:55:28Z</time>
      </trkpt>
      <trkpt lat="45.80275" lon="4.84244">
        <ele>171</ele>
        <time>2011-09-11T11:55:30Z</time>
      </trkpt>
      <trkpt lat="45.80287" lon="4.84248">
        <ele>171.4</ele>
        <time>2011-09-11T11:55:32Z</time>
      </trkpt>
      <trkpt lat="45.803" lon="4.84252">
        <ele>171.6</ele>
        <time>2011-09-11T11:55:34Z</time>
      </trkpt>
      <trkpt lat="45.80312" lon="4.84256">
        <ele>171.9</ele>
        <time>2011-09-11T11:55:36Z</time>
      </trkpt>
      <trkpt lat="45.80324" lon="4.84259">
        <ele>171.5</ele>
        <time>2011-09-11T11:55:38Z</time>
      </trkpt>
      <trkpt lat="45.80335" lon="4.84262">
        <ele>171</ele>
        <time>2011-09-11T11:55:40Z</time>
      </trkpt>
      <trkpt lat="45.80348" lon="4.84265">
        <ele>170.5</ele>
        <time>2011-09-11T11:55:42Z</time>
      </trkpt>
      <trkpt lat="45.80361" lon="4.84268">
        <ele>170.1</ele>
        <time>2011-09-11T11:55:44Z</time>
      </trkpt>
      <trkpt lat="45.80376" lon="4.84274">
        <ele>169.4</ele>
        <time>2011-09-11T11:55:46Z</time>
      </trkpt>
      <trkpt lat="45.80391" lon="4.8428">
        <ele>169.5</ele>
        <time>2011-09-11T11:55:48Z</time>
      </trkpt>
      <trkpt lat="45.80406" lon="4.84285">
        <ele>169.7</ele>
        <time>2011-09-11T11:55:50Z</time>
      </trkpt>
      <trkpt lat="45.8042" lon="4.84289">
        <ele>169.9</ele>
        <time>2011-09-11T11:55:52Z</time>
      </trkpt>
      <trkpt lat="45.80435" lon="4.84294">
        <ele>170.1</ele>
        <time>2011-09-11T11:55:54Z</time>
      </trkpt>
      <trkpt lat="45.8045" lon="4.84299">
        <ele>170.3</ele>
        <time>2011-09-11T11:55:56Z</time>
      </trkpt>
      <trkpt lat="45.80465" lon="4.84304">
        <ele>170.5</ele>
        <time>2011-09-11T11:55:58Z</time>
      </trkpt>
      <trkpt lat="45.8048" lon="4.84308">
        <ele>171</ele>
        <time>2011-09-11T11:56:00Z</time>
      </trkpt>
      <trkpt lat="45.80494" lon="4.84311">
        <ele>171.5</ele>
        <time>2011-09-11T11:56:02Z</time>
      </trkpt>
      <trkpt lat="45.80507" lon="4.84315">
        <ele>172.1</ele>
        <time>2011-09-11T11:56:04Z</time>
      </trkpt>
      <trkpt lat="45.80522" lon="4.84322">
        <ele>172.6</ele>
        <time>2011-09-11T11:56:06Z</time>
      </trkpt>
      <trkpt lat="45.80537" lon="4.8433">
        <ele>173.2</ele>
        <time>2011-09-11T11:56:08Z</time>
      </trkpt>
      <trkpt lat="45.80552" lon="4.84337">
        <ele>172.8</ele>
        <time>2011-09-11T11:56:10Z</time>
      </trkpt>
      <trkpt lat="45.80567" lon="4.84342">
        <ele>171.9</ele>
        <time>2011-09-11T11:56:12Z</time>
      </trkpt>
      <trkpt lat="45.80582" lon="4.84347">
        <ele>171</ele>
        <time>2011-09-11T11:56:14Z</time>
      </trkpt>
      <trkpt lat="45.80597" lon="4.84351">
        <ele>170.1</ele>
        <time>2011-09-11T11:56:16Z</time>
      </trkpt>
      <trkpt lat="45.80611" lon="4.84355">
        <ele>169.2</ele>
        <time>2011-09-11T11:56:18Z</time>
      </trkpt>
      <trkpt lat="45.80626" lon="4.84359">
        <ele>168.3</ele>
        <time>2011-09-11T11:56:20Z</time>
      </trkpt>
      <trkpt lat="45.80642" lon="4.84362">
        <ele>167.7</ele>
        <time>2011-09-11T11:56:22Z</time>
      </trkpt>
      <trkpt lat="45.80657" lon="4.84365">
        <ele>167.2</ele>
        <time>2011-09-11T11:56:24Z</time>
      </trkpt>
      <trkpt lat="45.80671" lon="4.84367">
        <ele>167.5</ele>
        <time>2011-09-11T11:56:26Z</time>
      </trkpt>
      <trkpt lat="45.80685" lon="4.84368">
        <ele>167.7</ele>
        <time>2011-09-11T11:56:28Z</time>
      </trkpt>
      <trkpt lat="45.807" lon="4.84369">
        <ele>168</ele>
        <time>2011-09-11T11:56:30Z</time>
      </trkpt>
      <trkpt lat="45.80714" lon="4.84372">
        <ele>168.3</ele>
        <time>2011-09-11T11:56:32Z</time>
      </trkpt>
      <trkpt lat="45.80729" lon="4.84379">
        <ele>169</ele>
        <time>2011-09-11T11:56:34Z</time>
      </trkpt>
      <trkpt lat="45.80744" lon="4.84384">
        <ele>169.7</ele>
        <time>2011-09-11T11:56:36Z</time>
      </trkpt>
      <trkpt lat="45.80759" lon="4.84388">
        <ele>170.5</ele>
        <time>2011-09-11T11:56:38Z</time>
      </trkpt>
      <trkpt lat="45.80773" lon="4.84389">
        <ele>171.2</ele>
        <time>2011-09-11T11:56:40Z</time>
      </trkpt>
      <trkpt lat="45.80787" lon="4.8439">
        <ele>171.9</ele>
        <time>2011-09-11T11:56:42Z</time>
      </trkpt>
      <trkpt lat="45.80802" lon="4.84391">
        <ele>172.6</ele>
        <time>2011-09-11T11:56:44Z</time>
      </trkpt>
      <trkpt lat="45.80816" lon="4.84393">
        <ele>173.4</ele>
        <time>2011-09-11T11:56:46Z</time>
      </trkpt>
      <trkpt lat="45.80827" lon="4.84396">
        <ele>173.3</ele>
        <time>2011-09-11T11:56:48Z</time>
      </trkpt>
      <trkpt lat="45.80836" lon="4.844">
        <ele>173.5</ele>
        <time>2011-09-11T11:56:51Z</time>
      </trkpt>
      <trkpt lat="45.80839" lon="4.84415">
        <ele>173.6</ele>
        <time>2011-09-11T11:56:55Z</time>
      </trkpt>
      <trkpt lat="45.80839" lon="4.84429">
        <ele>173.8</ele>
        <time>2011-09-11T11:56:59Z</time>
      </trkpt>
      <trkpt lat="45.80838" lon="4.84443">
        <ele>174.1</ele>
        <time>2011-09-11T11:57:04Z</time>
      </trkpt>
      <trkpt lat="45.80837" lon="4.84456">
        <ele>174.4</ele>
        <time>2011-09-11T11:57:09Z</time>
      </trkpt>
      <trkpt lat="45.80835" lon="4.84469">
        <ele>174.6</ele>
        <time>2011-09-11T11:57:13Z</time>
      </trkpt>
      <trkpt lat="45.80837" lon="4.84485">
        <ele>175.1</ele>
        <time>2011-09-11T11:57:18Z</time>
      </trkpt>
      <trkpt lat="45.80837" lon="4.84501">
        <ele>175.5</ele>
        <time>2011-09-11T11:57:23Z</time>
      </trkpt>
      <trkpt lat="45.80837" lon="4.84514">
        <ele>176</ele>
        <time>2011-09-11T11:57:27Z</time>
      </trkpt>
      <trkpt lat="45.80838" lon="4.84529">
        <ele>176.5</ele>
        <time>2011-09-11T11:57:31Z</time>
      </trkpt>
      <trkpt lat="45.80841" lon="4.84545">
        <ele>176.9</ele>
        <time>2011-09-11T11:57:37Z</time>
      </trkpt>
      <trkpt lat="45.80843" lon="4.84559">
        <ele>178.5</ele>
        <time>2011-09-11T11:57:43Z</time>
      </trkpt>
      <trkpt lat="45.80842" lon="4.84577">
        <ele>180.2</ele>
        <time>2011-09-11T11:57:54Z</time>
      </trkpt>
      <trkpt lat="45.80844" lon="4.84593">
        <ele>181.8</ele>
        <time>2011-09-11T11:58:04Z</time>
      </trkpt>
      <trkpt lat="45.8084" lon="4.84605">
        <ele>183.5</ele>
        <time>2011-09-11T11:58:15Z</time>
      </trkpt>
      <trkpt lat="45.80836" lon="4.84619">
        <ele>185.1</ele>
        <time>2011-09-11T11:58:29Z</time>
      </trkpt>
      <trkpt lat="45.80835" lon="4.84637">
        <ele>186.7</ele>
        <time>2011-09-11T11:58:37Z</time>
      </trkpt>
      <trkpt lat="45.80845" lon="4.84651">
        <ele>188.2</ele>
        <time>2011-09-11T11:59:02Z</time>
      </trkpt>
      <trkpt lat="45.80852" lon="4.84661">
        <ele>189.1</ele>
        <time>2011-09-11T11:59:10Z</time>
      </trkpt>
      <trkpt lat="45.8086" lon="4.84672">
        <ele>191.9</ele>
        <time>2011-09-11T11:59:18Z</time>
      </trkpt>
      <trkpt lat="45.80869" lon="4.84679">
        <ele>194.7</ele>
        <time>2011-09-11T11:59:25Z</time>
      </trkpt>
      <trkpt lat="45.80876" lon="4.8469">
        <ele>197.5</ele>
        <time>2011-09-11T11:59:33Z</time>
      </trkpt>
      <trkpt lat="45.80881" lon="4.84702">
        <ele>198.9</ele>
        <time>2011-09-11T11:59:41Z</time>
      </trkpt>
      <trkpt lat="45.80887" lon="4.84712">
        <ele>200.3</ele>
        <time>2011-09-11T11:59:50Z</time>
      </trkpt>
      <trkpt lat="45.80894" lon="4.84722">
        <ele>201.6</ele>
        <time>2011-09-11T12:00:01Z</time>
      </trkpt>
      <trkpt lat="45.80897" lon="4.84734">
        <ele>204.5</ele>
        <time>2011-09-11T12:00:10Z</time>
      </trkpt>
      <trkpt lat="45.80899" lon="4.84748">
        <ele>207.5</ele>
        <time>2011-09-11T12:00:20Z</time>
      </trkpt>
      <trkpt lat="45.80907" lon="4.84763">
        <ele>210.4</ele>
        <time>2011-09-11T12:00:41Z</time>
      </trkpt>
      <trkpt lat="45.80906" lon="4.84777">
        <ele>213.3</ele>
        <time>2011-09-11T12:00:53Z</time>
      </trkpt>
      <trkpt lat="45.80898" lon="4.84786">
        <ele>216.7</ele>
        <time>2011-09-11T12:01:02Z</time>
      </trkpt>
      <trkpt lat="45.80894" lon="4.84798">
        <ele>218.3</ele>
        <time>2011-09-11T12:01:12Z</time>
      </trkpt>
      <trkpt lat="45.80895" lon="4.84813">
        <ele>220.7</ele>
        <time>2011-09-11T12:01:22Z</time>
      </trkpt>
      <trkpt lat="45.80891" lon="4.84826">
        <ele>223.2</ele>
        <time>2011-09-11T12:01:32Z</time>
      </trkpt>
      <trkpt lat="45.80888" lon="4.84839">
        <ele>225.6</ele>
        <time>2011-09-11T12:01:42Z</time>
      </trkpt>
      <trkpt lat="45.80887" lon="4.84852">
        <ele>228.1</ele>
        <time>2011-09-11T12:01:52Z</time>
      </trkpt>
      <trkpt lat="45.80883" lon="4.84864">
        <ele>230.5</ele>
        <time>2011-09-11T12:02:07Z</time>
      </trkpt>
      <trkpt lat="45.80883" lon="4.84878">
        <ele>231.5</ele>
        <time>2011-09-11T12:02:19Z</time>
      </trkpt>
      <trkpt lat="45.80888" lon="4.8489">
        <ele>232.5</ele>
        <time>2011-09-11T12:02:28Z</time>
      </trkpt>
      <trkpt lat="45.80896" lon="4.84897">
        <ele>233.6</ele>
        <time>2011-09-11T12:02:36Z</time>
      </trkpt>
      <trkpt lat="45.80899" lon="4.8491">
        <ele>234.7</ele>
        <time>2011-09-11T12:02:44Z</time>
      </trkpt>
      <trkpt lat="45.80893" lon="4.84922">
        <ele>236.3</ele>
        <time>2011-09-11T12:02:53Z</time>
      </trkpt>
      <trkpt lat="45.80885" lon="4.84929">
        <ele>237.8</ele>
        <time>2011-09-11T12:02:59Z</time>
      </trkpt>
      <trkpt lat="45.80879" lon="4.8494">
        <ele>238.5</ele>
        <time>2011-09-11T12:03:09Z</time>
      </trkpt>
      <trkpt lat="45.80873" lon="4.84951">
        <ele>239.1</ele>
        <time>2011-09-11T12:03:20Z</time>
      </trkpt>
      <trkpt lat="45.80865" lon="4.84959">
        <ele>239.7</ele>
        <time>2011-09-11T12:03:30Z</time>
      </trkpt>
      <trkpt lat="45.80855" lon="4.84961">
        <ele>240.4</ele>
        <time>2011-09-11T12:03:38Z</time>
      </trkpt>
      <trkpt lat="45.80846" lon="4.8496">
        <ele>241</ele>
        <time>2011-09-11T12:03:42Z</time>
      </trkpt>
      <trkpt lat="45.80838" lon="4.84968">
        <ele>241.6</ele>
        <time>2011-09-11T12:03:51Z</time>
      </trkpt>
      <trkpt lat="45.80832" lon="4.84977">
        <ele>242.1</ele>
        <time>2011-09-11T12:04:01Z</time>
      </trkpt>
      <trkpt lat="45.80829" lon="4.8499">
        <ele>242.5</ele>
        <time>2011-09-11T12:04:09Z</time>
      </trkpt>
      <trkpt lat="45.80823" lon="4.85002">
        <ele>243.9</ele>
        <time>2011-09-11T12:04:15Z</time>
      </trkpt>
      <trkpt lat="45.80817" lon="4.85013">
        <ele>244.5</ele>
        <time>2011-09-11T12:04:21Z</time>
      </trkpt>
      <trkpt lat="45.80811" lon="4.85024">
        <ele>245.2</ele>
        <time>2011-09-11T12:04:28Z</time>
      </trkpt>
      <trkpt lat="45.80807" lon="4.85036">
        <ele>245.8</ele>
        <time>2011-09-11T12:04:34Z</time>
      </trkpt>
      <trkpt lat="45.808" lon="4.85045">
        <ele>246.5</ele>
        <time>2011-09-11T12:04:39Z</time>
      </trkpt>
      <trkpt lat="45.80795" lon="4.85057">
        <ele>247.1</ele>
        <time>2011-09-11T12:04:44Z</time>
      </trkpt>
      <trkpt lat="45.80789" lon="4.85068">
        <ele>247.7</ele>
        <time>2011-09-11T12:04:49Z</time>
      </trkpt>
      <trkpt lat="45.80782" lon="4.85079">
        <ele>248.4</ele>
        <time>2011-09-11T12:04:54Z</time>
      </trkpt>
      <trkpt lat="45.80779" lon="4.85093">
        <ele>249</ele>
        <time>2011-09-11T12:05:00Z</time>
      </trkpt>
      <trkpt lat="45.80774" lon="4.85104">
        <ele>249.6</ele>
        <time>2011-09-11T12:05:05Z</time>
      </trkpt>
      <trkpt lat="45.80768" lon="4.85117">
        <ele>250.3</ele>
        <time>2011-09-11T12:05:11Z</time>
      </trkpt>
      <trkpt lat="45.80762" lon="4.85127">
        <ele>250</ele>
        <time>2011-09-11T12:05:16Z</time>
      </trkpt>
      <trkpt lat="45.80752" lon="4.85128">
        <ele>250</ele>
        <time>2011-09-11T12:05:23Z</time>
      </trkpt>
      <trkpt lat="45.80743" lon="4.85136">
        <ele>250.3</ele>
        <time>2011-09-11T12:06:56Z</time>
      </trkpt>
      <trkpt lat="45.80737" lon="4.85124">
        <ele>250.5</ele>
        <time>2011-09-11T12:07:46Z</time>
      </trkpt>
      <trkpt lat="45.8073" lon="4.85115">
        <ele>250.8</ele>
        <time>2011-09-11T12:07:53Z</time>
      </trkpt>
      <trkpt lat="45.80721" lon="4.8511">
        <ele>251.1</ele>
        <time>2011-09-11T12:07:58Z</time>
      </trkpt>
      <trkpt lat="45.80711" lon="4.85105">
        <ele>251.4</ele>
        <time>2011-09-11T12:08:02Z</time>
      </trkpt>
      <trkpt lat="45.80701" lon="4.851">
        <ele>251.6</ele>
        <time>2011-09-11T12:08:06Z</time>
      </trkpt>
      <trkpt lat="45.8069" lon="4.85098">
        <ele>251.9</ele>
        <time>2011-09-11T12:08:10Z</time>
      </trkpt>
      <trkpt lat="45.80681" lon="4.85108">
        <ele>252.2</ele>
        <time>2011-09-11T12:08:14Z</time>
      </trkpt>
      <trkpt lat="45.80674" lon="4.85119">
        <ele>252.5</ele>
        <time>2011-09-11T12:08:17Z</time>
      </trkpt>
      <trkpt lat="45.80669" lon="4.85133">
        <ele>252.7</ele>
        <time>2011-09-11T12:08:21Z</time>
      </trkpt>
      <trkpt lat="45.80666" lon="4.85146">
        <ele>253</ele>
        <time>2011-09-11T12:08:24Z</time>
      </trkpt>
      <trkpt lat="45.80662" lon="4.85161">
        <ele>253</ele>
        <time>2011-09-11T12:08:28Z</time>
      </trkpt>
      <trkpt lat="45.80658" lon="4.85177">
        <ele>253</ele>
        <time>2011-09-11T12:08:32Z</time>
      </trkpt>
      <trkpt lat="45.80655" lon="4.8519">
        <ele>253</ele>
        <time>2011-09-11T12:08:35Z</time>
      </trkpt>
      <trkpt lat="45.80652" lon="4.85204">
        <ele>253</ele>
        <time>2011-09-11T12:08:38Z</time>
      </trkpt>
      <trkpt lat="45.80649" lon="4.85217">
        <ele>253</ele>
        <time>2011-09-11T12:08:41Z</time>
      </trkpt>
      <trkpt lat="45.80646" lon="4.8523">
        <ele>253.1</ele>
        <time>2011-09-11T12:08:44Z</time>
      </trkpt>
      <trkpt lat="45.80643" lon="4.85245">
        <ele>253.5</ele>
        <time>2011-09-11T12:08:47Z</time>
      </trkpt>
      <trkpt lat="45.8064" lon="4.85258">
        <ele>254</ele>
        <time>2011-09-11T12:08:50Z</time>
      </trkpt>
      <trkpt lat="45.80638" lon="4.85273">
        <ele>254.5</ele>
        <time>2011-09-11T12:08:54Z</time>
      </trkpt>
      <trkpt lat="45.80634" lon="4.85288">
        <ele>254.9</ele>
        <time>2011-09-11T12:08:58Z</time>
      </trkpt>
      <trkpt lat="45.80631" lon="4.85304">
        <ele>255.4</ele>
        <time>2011-09-11T12:09:02Z</time>
      </trkpt>
      <trkpt lat="45.80625" lon="4.85316">
        <ele>255.8</ele>
        <time>2011-09-11T12:09:06Z</time>
      </trkpt>
      <trkpt lat="45.80617" lon="4.85322">
        <ele>256.3</ele>
        <time>2011-09-11T12:09:10Z</time>
      </trkpt>
      <trkpt lat="45.80608" lon="4.85331">
        <ele>256.7</ele>
        <time>2011-09-11T12:09:14Z</time>
      </trkpt>
      <trkpt lat="45.80602" lon="4.85341">
        <ele>257.2</ele>
        <time>2011-09-11T12:09:18Z</time>
      </trkpt>
      <trkpt lat="45.8059" lon="4.85343">
        <ele>257.5</ele>
        <time>2011-09-11T12:09:22Z</time>
      </trkpt>
      <trkpt lat="45.80579" lon="4.85342">
        <ele>257.8</ele>
        <time>2011-09-11T12:09:25Z</time>
      </trkpt>
      <trkpt lat="45.80569" lon="4.85339">
        <ele>257.7</ele>
        <time>2011-09-11T12:09:28Z</time>
      </trkpt>
      <trkpt lat="45.8056" lon="4.85339">
        <ele>257.6</ele>
        <time>2011-09-11T12:09:31Z</time>
      </trkpt>
      <trkpt lat="45.8055" lon="4.85343">
        <ele>257.5</ele>
        <time>2011-09-11T12:09:36Z</time>
      </trkpt>
      <trkpt lat="45.80541" lon="4.85346">
        <ele>257.5</ele>
        <time>2011-09-11T12:09:40Z</time>
      </trkpt>
      <trkpt lat="45.80531" lon="4.85343">
        <ele>257.4</ele>
        <time>2011-09-11T12:09:43Z</time>
      </trkpt>
      <trkpt lat="45.80521" lon="4.85339">
        <ele>257.3</ele>
        <time>2011-09-11T12:09:46Z</time>
      </trkpt>
      <trkpt lat="45.80512" lon="4.85334">
        <ele>257.5</ele>
        <time>2011-09-11T12:09:49Z</time>
      </trkpt>
      <trkpt lat="45.80503" lon="4.85339">
        <ele>257.8</ele>
        <time>2011-09-11T12:09:54Z</time>
      </trkpt>
      <trkpt lat="45.80503" lon="4.85355">
        <ele>258.1</ele>
        <time>2011-09-11T12:10:00Z</time>
      </trkpt>
      <trkpt lat="45.80505" lon="4.8537">
        <ele>258.5</ele>
        <time>2011-09-11T12:10:04Z</time>
      </trkpt>
      <trkpt lat="45.80509" lon="4.85383">
        <ele>258.8</ele>
        <time>2011-09-11T12:10:08Z</time>
      </trkpt>
      <trkpt lat="45.80514" lon="4.85397">
        <ele>259.3</ele>
        <time>2011-09-11T12:10:12Z</time>
      </trkpt>
      <trkpt lat="45.80517" lon="4.85411">
        <ele>259.7</ele>
        <time>2011-09-11T12:10:15Z</time>
      </trkpt>
      <trkpt lat="45.80521" lon="4.85423">
        <ele>260.2</ele>
        <time>2011-09-11T12:10:17Z</time>
      </trkpt>
      <trkpt lat="45.80524" lon="4.85435">
        <ele>260.6</ele>
        <time>2011-09-11T12:10:19Z</time>
      </trkpt>
      <trkpt lat="45.80529" lon="4.85453">
        <ele>261.1</ele>
        <time>2011-09-11T12:10:22Z</time>
      </trkpt>
      <trkpt lat="45.80533" lon="4.85472">
        <ele>261.5</ele>
        <time>2011-09-11T12:10:25Z</time>
      </trkpt>
      <trkpt lat="45.80535" lon="4.85486">
        <ele>261.8</ele>
        <time>2011-09-11T12:10:27Z</time>
      </trkpt>
      <trkpt lat="45.80538" lon="4.85499">
        <ele>262.1</ele>
        <time>2011-09-11T12:10:29Z</time>
      </trkpt>
      <trkpt lat="45.8054" lon="4.85512">
        <ele>262.4</ele>
        <time>2011-09-11T12:10:31Z</time>
      </trkpt>
      <trkpt lat="45.80542" lon="4.8553">
        <ele>262.6</ele>
        <time>2011-09-11T12:10:34Z</time>
      </trkpt>
      <trkpt lat="45.80545" lon="4.85544">
        <ele>262.9</ele>
        <time>2011-09-11T12:10:37Z</time>
      </trkpt>
      <trkpt lat="45.8055" lon="4.85556">
        <ele>263.1</ele>
        <time>2011-09-11T12:10:40Z</time>
      </trkpt>
      <trkpt lat="45.80555" lon="4.85568">
        <ele>263.2</ele>
        <time>2011-09-11T12:10:43Z</time>
      </trkpt>
      <trkpt lat="45.8056" lon="4.85579">
        <ele>263.3</ele>
        <time>2011-09-11T12:10:46Z</time>
      </trkpt>
      <trkpt lat="45.80565" lon="4.85592">
        <ele>263.4</ele>
        <time>2011-09-11T12:10:50Z</time>
      </trkpt>
      <trkpt lat="45.8057" lon="4.85608">
        <ele>263.5</ele>
        <time>2011-09-11T12:10:54Z</time>
      </trkpt>
      <trkpt lat="45.80575" lon="4.85623">
        <ele>263.5</ele>
        <time>2011-09-11T12:10:57Z</time>
      </trkpt>
      <trkpt lat="45.80578" lon="4.85635">
        <ele>263.5</ele>
        <time>2011-09-11T12:10:59Z</time>
      </trkpt>
      <trkpt lat="45.80582" lon="4.85647">
        <ele>263.4</ele>
        <time>2011-09-11T12:11:01Z</time>
      </trkpt>
      <trkpt lat="45.80586" lon="4.85659">
        <ele>263.4</ele>
        <time>2011-09-11T12:11:03Z</time>
      </trkpt>
      <trkpt lat="45.80595" lon="4.85673">
        <ele>263.4</ele>
        <time>2011-09-11T12:11:06Z</time>
      </trkpt>
      <trkpt lat="45.80604" lon="4.85683">
        <ele>263.5</ele>
        <time>2011-09-11T12:11:09Z</time>
      </trkpt>
      <trkpt lat="45.80614" lon="4.8569">
        <ele>263.5</ele>
        <time>2011-09-11T12:11:12Z</time>
      </trkpt>
      <trkpt lat="45.80622" lon="4.85697">
        <ele>263.7</ele>
        <time>2011-09-11T12:11:15Z</time>
      </trkpt>
      <trkpt lat="45.8063" lon="4.85703">
        <ele>263.9</ele>
        <time>2011-09-11T12:11:18Z</time>
      </trkpt>
      <trkpt lat="45.80639" lon="4.85713">
        <ele>264.1</ele>
        <time>2011-09-11T12:11:22Z</time>
      </trkpt>
      <trkpt lat="45.80651" lon="4.85726">
        <ele>264.3</ele>
        <time>2011-09-11T12:13:10Z</time>
      </trkpt>
      <trkpt lat="45.80655" lon="4.85739">
        <ele>264.2</ele>
        <time>2011-09-11T12:13:20Z</time>
      </trkpt>
      <trkpt lat="45.80646" lon="4.8574">
        <ele>264.1</ele>
        <time>2011-09-11T12:14:55Z</time>
      </trkpt>
      <trkpt lat="45.80648" lon="4.85753">
        <ele>264</ele>
        <time>2011-09-11T12:15:29Z</time>
      </trkpt>
      <trkpt lat="45.80641" lon="4.85761">
        <ele>263.8</ele>
        <time>2011-09-11T12:15:50Z</time>
      </trkpt>
      <trkpt lat="45.8063" lon="4.85761">
        <ele>263.6</ele>
        <time>2011-09-11T12:16:04Z</time>
      </trkpt>
      <trkpt lat="45.8062" lon="4.85754">
        <ele>263.4</ele>
        <time>2011-09-11T12:16:08Z</time>
      </trkpt>
      <trkpt lat="45.80612" lon="4.85749">
        <ele>263.1</ele>
        <time>2011-09-11T12:16:12Z</time>
      </trkpt>
      <trkpt lat="45.80603" lon="4.85742">
        <ele>262.9</ele>
        <time>2011-09-11T12:16:17Z</time>
      </trkpt>
      <trkpt lat="45.80595" lon="4.85735">
        <ele>262.7</ele>
        <time>2011-09-11T12:16:20Z</time>
      </trkpt>
      <trkpt lat="45.80586" lon="4.85729">
        <ele>262.4</ele>
        <time>2011-09-11T12:16:23Z</time>
      </trkpt>
      <trkpt lat="45.80578" lon="4.85724">
        <ele>262</ele>
        <time>2011-09-11T12:16:25Z</time>
      </trkpt>
      <trkpt lat="45.80569" lon="4.85717">
        <ele>261.9</ele>
        <time>2011-09-11T12:16:27Z</time>
      </trkpt>
      <trkpt lat="45.80558" lon="4.8571">
        <ele>261.8</ele>
        <time>2011-09-11T12:16:30Z</time>
      </trkpt>
      <trkpt lat="45.80546" lon="4.85704">
        <ele>261.7</ele>
        <time>2011-09-11T12:16:33Z</time>
      </trkpt>
      <trkpt lat="45.80537" lon="4.85699">
        <ele>261.6</ele>
        <time>2011-09-11T12:16:35Z</time>
      </trkpt>
      <trkpt lat="45.80528" lon="4.85693">
        <ele>261.5</ele>
        <time>2011-09-11T12:16:37Z</time>
      </trkpt>
      <trkpt lat="45.80519" lon="4.85685">
        <ele>261.5</ele>
        <time>2011-09-11T12:16:39Z</time>
      </trkpt>
      <trkpt lat="45.80508" lon="4.85676">
        <ele>261.7</ele>
        <time>2011-09-11T12:16:42Z</time>
      </trkpt>
      <trkpt lat="45.805" lon="4.8567">
        <ele>261.5</ele>
        <time>2011-09-11T12:16:44Z</time>
      </trkpt>
      <trkpt lat="45.80488" lon="4.85661">
        <ele>261.4</ele>
        <time>2011-09-11T12:16:47Z</time>
      </trkpt>
      <trkpt lat="45.80479" lon="4.85653">
        <ele>261.4</ele>
        <time>2011-09-11T12:16:50Z</time>
      </trkpt>
      <trkpt lat="45.80469" lon="4.85645">
        <ele>261.4</ele>
        <time>2011-09-11T12:16:53Z</time>
      </trkpt>
      <trkpt lat="45.80459" lon="4.85636">
        <ele>261.4</ele>
        <time>2011-09-11T12:16:56Z</time>
      </trkpt>
      <trkpt lat="45.80449" lon="4.85626">
        <ele>261.4</ele>
        <time>2011-09-11T12:16:59Z</time>
      </trkpt>
      <trkpt lat="45.8044" lon="4.85618">
        <ele>261.4</ele>
        <time>2011-09-11T12:17:02Z</time>
      </trkpt>
      <trkpt lat="45.80432" lon="4.85612">
        <ele>261.4</ele>
        <time>2011-09-11T12:17:04Z</time>
      </trkpt>
      <trkpt lat="45.80424" lon="4.85604">
        <ele>261.3</ele>
        <time>2011-09-11T12:17:06Z</time>
      </trkpt>
      <trkpt lat="45.80415" lon="4.85598">
        <ele>261.2</ele>
        <time>2011-09-11T12:17:08Z</time>
      </trkpt>
      <trkpt lat="45.80404" lon="4.85591">
        <ele>260.7</ele>
        <time>2011-09-11T12:17:11Z</time>
      </trkpt>
      <trkpt lat="45.80394" lon="4.85584">
        <ele>260.5</ele>
        <time>2011-09-11T12:17:14Z</time>
      </trkpt>
      <trkpt lat="45.80382" lon="4.85577">
        <ele>260.2</ele>
        <time>2011-09-11T12:17:17Z</time>
      </trkpt>
      <trkpt lat="45.80373" lon="4.8557">
        <ele>259.9</ele>
        <time>2011-09-11T12:17:21Z</time>
      </trkpt>
      <trkpt lat="45.80364" lon="4.85561">
        <ele>259.6</ele>
        <time>2011-09-11T12:17:24Z</time>
      </trkpt>
      <trkpt lat="45.80353" lon="4.85553">
        <ele>259.4</ele>
        <time>2011-09-11T12:17:27Z</time>
      </trkpt>
      <trkpt lat="45.80342" lon="4.85546">
        <ele>259.2</ele>
        <time>2011-09-11T12:17:30Z</time>
      </trkpt>
      <trkpt lat="45.80333" lon="4.8554">
        <ele>259</ele>
        <time>2011-09-11T12:17:32Z</time>
      </trkpt>
      <trkpt lat="45.80324" lon="4.85535">
        <ele>258.8</ele>
        <time>2011-09-11T12:17:34Z</time>
      </trkpt>
      <trkpt lat="45.80313" lon="4.85528">
        <ele>258.7</ele>
        <time>2011-09-11T12:17:37Z</time>
      </trkpt>
      <trkpt lat="45.80302" lon="4.8552">
        <ele>258.6</ele>
        <time>2011-09-11T12:17:40Z</time>
      </trkpt>
      <trkpt lat="45.80291" lon="4.85511">
        <ele>258.5</ele>
        <time>2011-09-11T12:17:43Z</time>
      </trkpt>
      <trkpt lat="45.80283" lon="4.85503">
        <ele>258.6</ele>
        <time>2011-09-11T12:17:46Z</time>
      </trkpt>
      <trkpt lat="45.80274" lon="4.85494">
        <ele>258.4</ele>
        <time>2011-09-11T12:18:49Z</time>
      </trkpt>
      <trkpt lat="45.80261" lon="4.85487">
        <ele>258.1</ele>
        <time>2011-09-11T12:18:52Z</time>
      </trkpt>
      <trkpt lat="45.80251" lon="4.85481">
        <ele>257.8</ele>
        <time>2011-09-11T12:18:54Z</time>
      </trkpt>
      <trkpt lat="45.80241" lon="4.85474">
        <ele>257.5</ele>
        <time>2011-09-11T12:18:56Z</time>
      </trkpt>
      <trkpt lat="45.8023" lon="4.85466">
        <ele>257.2</ele>
        <time>2011-09-11T12:18:58Z</time>
      </trkpt>
      <trkpt lat="45.8022" lon="4.85459">
        <ele>256.8</ele>
        <time>2011-09-11T12:19:00Z</time>
      </trkpt>
      <trkpt lat="45.80209" lon="4.8545">
        <ele>256.5</ele>
        <time>2011-09-11T12:19:02Z</time>
      </trkpt>
      <trkpt lat="45.80198" lon="4.85442">
        <ele>256.1</ele>
        <time>2011-09-11T12:19:04Z</time>
      </trkpt>
      <trkpt lat="45.80187" lon="4.85431">
        <ele>255.7</ele>
        <time>2011-09-11T12:19:06Z</time>
      </trkpt>
      <trkpt lat="45.80175" lon="4.85422">
        <ele>255.4</ele>
        <time>2011-09-11T12:19:08Z</time>
      </trkpt>
      <trkpt lat="45.80163" lon="4.85415">
        <ele>255</ele>
        <time>2011-09-11T12:19:10Z</time>
      </trkpt>
      <trkpt lat="45.8015" lon="4.85407">
        <ele>255</ele>
        <time>2011-09-11T12:19:12Z</time>
      </trkpt>
      <trkpt lat="45.80138" lon="4.85397">
        <ele>255</ele>
        <time>2011-09-11T12:19:14Z</time>
      </trkpt>
      <trkpt lat="45.80127" lon="4.85389">
        <ele>255</ele>
        <time>2011-09-11T12:19:16Z</time>
      </trkpt>
      <trkpt lat="45.80119" lon="4.85379">
        <ele>255</ele>
        <time>2011-09-11T12:19:18Z</time>
      </trkpt>
      <trkpt lat="45.80112" lon="4.85371">
        <ele>255</ele>
        <time>2011-09-11T12:19:20Z</time>
      </trkpt>
      <trkpt lat="45.80105" lon="4.85362">
        <ele>255</ele>
        <time>2011-09-11T12:19:23Z</time>
      </trkpt>
      <trkpt lat="45.80098" lon="4.85352">
        <ele>255</ele>
        <time>2011-09-11T12:19:27Z</time>
      </trkpt>
      <trkpt lat="45.80088" lon="4.85354">
        <ele>255</ele>
        <time>2011-09-11T12:19:33Z</time>
      </trkpt>
      <trkpt lat="45.80085" lon="4.85366">
        <ele>255</ele>
        <time>2011-09-11T12:19:37Z</time>
      </trkpt>
      <trkpt lat="45.80085" lon="4.85381">
        <ele>255</ele>
        <time>2011-09-11T12:19:41Z</time>
      </trkpt>
      <trkpt lat="45.80086" lon="4.85397">
        <ele>255</ele>
        <time>2011-09-11T12:19:45Z</time>
      </trkpt>
      <trkpt lat="45.80088" lon="4.85412">
        <ele>255</ele>
        <time>2011-09-11T12:19:49Z</time>
      </trkpt>
      <trkpt lat="45.8009" lon="4.85429">
        <ele>255</ele>
        <time>2011-09-11T12:19:53Z</time>
      </trkpt>
      <trkpt lat="45.80091" lon="4.85442">
        <ele>255</ele>
        <time>2011-09-11T12:19:56Z</time>
      </trkpt>
      <trkpt lat="45.80091" lon="4.85455">
        <ele>255</ele>
        <time>2011-09-11T12:20:00Z</time>
      </trkpt>
      <trkpt lat="45.8009" lon="4.85471">
        <ele>255</ele>
        <time>2011-09-11T12:20:05Z</time>
      </trkpt>
      <trkpt lat="45.80092" lon="4.85483">
        <ele>254.8</ele>
        <time>2011-09-11T12:20:15Z</time>
      </trkpt>
      <trkpt lat="45.80096" lon="4.85496">
        <ele>254.6</ele>
        <time>2011-09-11T12:21:03Z</time>
      </trkpt>
      <trkpt lat="45.80096" lon="4.85511">
        <ele>254.5</ele>
        <time>2011-09-11T12:21:06Z</time>
      </trkpt>
      <trkpt lat="45.80096" lon="4.85528">
        <ele>254.3</ele>
        <time>2011-09-11T12:21:09Z</time>
      </trkpt>
      <trkpt lat="45.80096" lon="4.85546">
        <ele>254.1</ele>
        <time>2011-09-11T12:21:12Z</time>
      </trkpt>
      <trkpt lat="45.80097" lon="4.8556">
        <ele>253.9</ele>
        <time>2011-09-11T12:21:14Z</time>
      </trkpt>
      <trkpt lat="45.80098" lon="4.85574">
        <ele>253.7</ele>
        <time>2011-09-11T12:21:16Z</time>
      </trkpt>
      <trkpt lat="45.801" lon="4.85589">
        <ele>253.5</ele>
        <time>2011-09-11T12:21:18Z</time>
      </trkpt>
      <trkpt lat="45.80101" lon="4.85603">
        <ele>253.4</ele>
        <time>2011-09-11T12:21:20Z</time>
      </trkpt>
      <trkpt lat="45.80103" lon="4.85622">
        <ele>253.2</ele>
        <time>2011-09-11T12:21:23Z</time>
      </trkpt>
      <trkpt lat="45.80103" lon="4.85641">
        <ele>253.5</ele>
        <time>2011-09-11T12:21:26Z</time>
      </trkpt>
      <trkpt lat="45.80104" lon="4.85655">
        <ele>253.9</ele>
        <time>2011-09-11T12:21:28Z</time>
      </trkpt>
      <trkpt lat="45.80106" lon="4.8567">
        <ele>254.4</ele>
        <time>2011-09-11T12:21:30Z</time>
      </trkpt>
      <trkpt lat="45.80107" lon="4.85684">
        <ele>254.8</ele>
        <time>2011-09-11T12:21:32Z</time>
      </trkpt>
      <trkpt lat="45.80108" lon="4.85698">
        <ele>255.3</ele>
        <time>2011-09-11T12:21:34Z</time>
      </trkpt>
      <trkpt lat="45.8011" lon="4.85713">
        <ele>255.7</ele>
        <time>2011-09-11T12:21:36Z</time>
      </trkpt>
      <trkpt lat="45.80111" lon="4.85727">
        <ele>256.2</ele>
        <time>2011-09-11T12:21:38Z</time>
      </trkpt>
      <trkpt lat="45.8011" lon="4.85746">
        <ele>256.6</ele>
        <time>2011-09-11T12:21:41Z</time>
      </trkpt>
      <trkpt lat="45.80111" lon="4.85759">
        <ele>257.1</ele>
        <time>2011-09-11T12:21:43Z</time>
      </trkpt>
      <trkpt lat="45.80111" lon="4.85772">
        <ele>257.5</ele>
        <time>2011-09-11T12:21:45Z</time>
      </trkpt>
      <trkpt lat="45.80113" lon="4.85791">
        <ele>258</ele>
        <time>2011-09-11T12:21:48Z</time>
      </trkpt>
      <trkpt lat="45.80114" lon="4.85804">
        <ele>258</ele>
        <time>2011-09-11T12:21:50Z</time>
      </trkpt>
      <trkpt lat="45.80114" lon="4.85817">
        <ele>257.8</ele>
        <time>2011-09-11T12:21:52Z</time>
      </trkpt>
      <trkpt lat="45.80115" lon="4.8583">
        <ele>257.6</ele>
        <time>2011-09-11T12:21:54Z</time>
      </trkpt>
      <trkpt lat="45.80116" lon="4.85843">
        <ele>257.5</ele>
        <time>2011-09-11T12:21:56Z</time>
      </trkpt>
      <trkpt lat="45.80116" lon="4.85857">
        <ele>257.3</ele>
        <time>2011-09-11T12:21:58Z</time>
      </trkpt>
      <trkpt lat="45.80117" lon="4.85871">
        <ele>257.1</ele>
        <time>2011-09-11T12:22:00Z</time>
      </trkpt>
      <trkpt lat="45.80118" lon="4.85886">
        <ele>256.9</ele>
        <time>2011-09-11T12:22:02Z</time>
      </trkpt>
      <trkpt lat="45.80118" lon="4.859">
        <ele>256.7</ele>
        <time>2011-09-11T12:22:04Z</time>
      </trkpt>
      <trkpt lat="45.80119" lon="4.85914">
        <ele>256.5</ele>
        <time>2011-09-11T12:22:06Z</time>
      </trkpt>
      <trkpt lat="45.8012" lon="4.85927">
        <ele>256.4</ele>
        <time>2011-09-11T12:22:08Z</time>
      </trkpt>
      <trkpt lat="45.80121" lon="4.8594">
        <ele>256.2</ele>
        <time>2011-09-11T12:22:10Z</time>
      </trkpt>
      <trkpt lat="45.80122" lon="4.85953">
        <ele>256</ele>
        <time>2011-09-11T12:22:12Z</time>
      </trkpt>
      <trkpt lat="45.80122" lon="4.85967">
        <ele>256</ele>
        <time>2011-09-11T12:22:14Z</time>
      </trkpt>
      <trkpt lat="45.80123" lon="4.8598">
        <ele>256</ele>
        <time>2011-09-11T12:22:16Z</time>
      </trkpt>
      <trkpt lat="45.80124" lon="4.85992">
        <ele>256.4</ele>
        <time>2011-09-11T12:22:18Z</time>
      </trkpt>
      <trkpt lat="45.80125" lon="4.86005">
        <ele>256.7</ele>
        <time>2011-09-11T12:22:20Z</time>
      </trkpt>
      <trkpt lat="45.80125" lon="4.86019">
        <ele>257.1</ele>
        <time>2011-09-11T12:22:22Z</time>
      </trkpt>
      <trkpt lat="45.80127" lon="4.86038">
        <ele>257.5</ele>
        <time>2011-09-11T12:22:25Z</time>
      </trkpt>
      <trkpt lat="45.80127" lon="4.86051">
        <ele>257.8</ele>
        <time>2011-09-11T12:22:27Z</time>
      </trkpt>
      <trkpt lat="45.80128" lon="4.86066">
        <ele>258</ele>
        <time>2011-09-11T12:22:29Z</time>
      </trkpt>
      <trkpt lat="45.80129" lon="4.8608">
        <ele>258.2</ele>
        <time>2011-09-11T12:22:31Z</time>
      </trkpt>
      <trkpt lat="45.8013" lon="4.86093">
        <ele>258.4</ele>
        <time>2011-09-11T12:22:33Z</time>
      </trkpt>
      <trkpt lat="45.80132" lon="4.86112">
        <ele>258.5</ele>
        <time>2011-09-11T12:22:36Z</time>
      </trkpt>
      <trkpt lat="45.80132" lon="4.8613">
        <ele>258.7</ele>
        <time>2011-09-11T12:22:39Z</time>
      </trkpt>
      <trkpt lat="45.80126" lon="4.8614">
        <ele>258.9</ele>
        <time>2011-09-11T12:22:41Z</time>
      </trkpt>
      <trkpt lat="45.80119" lon="4.86149">
        <ele>258.7</ele>
        <time>2011-09-11T12:22:43Z</time>
      </trkpt>
      <trkpt lat="45.80108" lon="4.86159">
        <ele>258.5</ele>
        <time>2011-09-11T12:22:46Z</time>
      </trkpt>
      <trkpt lat="45.801" lon="4.86165">
        <ele>258.4</ele>
        <time>2011-09-11T12:22:48Z</time>
      </trkpt>
      <trkpt lat="45.80092" lon="4.86172">
        <ele>258.2</ele>
        <time>2011-09-11T12:22:50Z</time>
      </trkpt>
      <trkpt lat="45.80081" lon="4.86182">
        <ele>258.1</ele>
        <time>2011-09-11T12:22:53Z</time>
      </trkpt>
      <trkpt lat="45.80073" lon="4.8619">
        <ele>258.2</ele>
        <time>2011-09-11T12:22:55Z</time>
      </trkpt>
      <trkpt lat="45.80066" lon="4.86198">
        <ele>258.3</ele>
        <time>2011-09-11T12:22:57Z</time>
      </trkpt>
      <trkpt lat="45.80058" lon="4.86207">
        <ele>258.4</ele>
        <time>2011-09-11T12:22:59Z</time>
      </trkpt>
      <trkpt lat="45.8005" lon="4.86215">
        <ele>258.5</ele>
        <time>2011-09-11T12:23:01Z</time>
      </trkpt>
      <trkpt lat="45.80042" lon="4.86222">
        <ele>258.5</ele>
        <time>2011-09-11T12:23:03Z</time>
      </trkpt>
      <trkpt lat="45.80033" lon="4.8623">
        <ele>258.6</ele>
        <time>2011-09-11T12:23:05Z</time>
      </trkpt>
      <trkpt lat="45.80025" lon="4.86237">
        <ele>258.7</ele>
        <time>2011-09-11T12:23:07Z</time>
      </trkpt>
      <trkpt lat="45.80014" lon="4.86246">
        <ele>258.8</ele>
        <time>2011-09-11T12:23:10Z</time>
      </trkpt>
      <trkpt lat="45.80005" lon="4.86253">
        <ele>258.7</ele>
        <time>2011-09-11T12:23:12Z</time>
      </trkpt>
      <trkpt lat="45.79997" lon="4.86259">
        <ele>258.6</ele>
        <time>2011-09-11T12:23:14Z</time>
      </trkpt>
      <trkpt lat="45.79988" lon="4.86265">
        <ele>258.6</ele>
        <time>2011-09-11T12:23:16Z</time>
      </trkpt>
      <trkpt lat="45.7998" lon="4.8627">
        <ele>258.6</ele>
        <time>2011-09-11T12:23:18Z</time>
      </trkpt>
      <trkpt lat="45.7997" lon="4.8628">
        <ele>258.6</ele>
        <time>2011-09-11T12:23:21Z</time>
      </trkpt>
      <trkpt lat="45.7996" lon="4.8629">
        <ele>258.6</ele>
        <time>2011-09-11T12:23:24Z</time>
      </trkpt>
      <trkpt lat="45.79949" lon="4.86298">
        <ele>258.6</ele>
        <time>2011-09-11T12:23:27Z</time>
      </trkpt>
      <trkpt lat="45.79939" lon="4.86305">
        <ele>258.6</ele>
        <time>2011-09-11T12:23:30Z</time>
      </trkpt>
      <trkpt lat="45.79929" lon="4.86314">
        <ele>258.6</ele>
        <time>2011-09-11T12:23:33Z</time>
      </trkpt>
      <trkpt lat="45.79919" lon="4.86323">
        <ele>258.5</ele>
        <time>2011-09-11T12:23:36Z</time>
      </trkpt>
      <trkpt lat="45.79909" lon="4.86327">
        <ele>258.5</ele>
        <time>2011-09-11T12:23:38Z</time>
      </trkpt>
      <trkpt lat="45.799" lon="4.86331">
        <ele>258.5</ele>
        <time>2011-09-11T12:23:40Z</time>
      </trkpt>
      <trkpt lat="45.79891" lon="4.86337">
        <ele>258.6</ele>
        <time>2011-09-11T12:23:42Z</time>
      </trkpt>
      <trkpt lat="45.79882" lon="4.86342">
        <ele>258.5</ele>
        <time>2011-09-11T12:23:44Z</time>
      </trkpt>
      <trkpt lat="45.79871" lon="4.86347">
        <ele>258.5</ele>
        <time>2011-09-11T12:23:46Z</time>
      </trkpt>
      <trkpt lat="45.79857" lon="4.86351">
        <ele>258</ele>
        <time>2011-09-11T12:23:48Z</time>
      </trkpt>
      <trkpt lat="45.79842" lon="4.86356">
        <ele>257.5</ele>
        <time>2011-09-11T12:23:50Z</time>
      </trkpt>
      <trkpt lat="45.79826" lon="4.8636">
        <ele>257.1</ele>
        <time>2011-09-11T12:23:52Z</time>
      </trkpt>
      <trkpt lat="45.7981" lon="4.86364">
        <ele>256.6</ele>
        <time>2011-09-11T12:23:54Z</time>
      </trkpt>
      <trkpt lat="45.79797" lon="4.86367">
        <ele>256.2</ele>
        <time>2011-09-11T12:23:56Z</time>
      </trkpt>
      <trkpt lat="45.79785" lon="4.8637">
        <ele>255.8</ele>
        <time>2011-09-11T12:23:58Z</time>
      </trkpt>
      <trkpt lat="45.79776" lon="4.86374">
        <ele>254.5</ele>
        <time>2011-09-11T12:24:00Z</time>
      </trkpt>
      <trkpt lat="45.79764" lon="4.86378">
        <ele>253.3</ele>
        <time>2011-09-11T12:24:02Z</time>
      </trkpt>
      <trkpt lat="45.7975" lon="4.86377">
        <ele>252</ele>
        <time>2011-09-11T12:24:04Z</time>
      </trkpt>
      <trkpt lat="45.79735" lon="4.86373">
        <ele>250.7</ele>
        <time>2011-09-11T12:24:06Z</time>
      </trkpt>
      <trkpt lat="45.7972" lon="4.86366">
        <ele>249.5</ele>
        <time>2011-09-11T12:24:08Z</time>
      </trkpt>
      <trkpt lat="45.79704" lon="4.86358">
        <ele>248.5</ele>
        <time>2011-09-11T12:24:10Z</time>
      </trkpt>
      <trkpt lat="45.79687" lon="4.86349">
        <ele>247.6</ele>
        <time>2011-09-11T12:24:12Z</time>
      </trkpt>
      <trkpt lat="45.79678" lon="4.86344">
        <ele>246.7</ele>
        <time>2011-09-11T12:24:13Z</time>
      </trkpt>
      <trkpt lat="45.79669" lon="4.86339">
        <ele>245.6</ele>
        <time>2011-09-11T12:24:14Z</time>
      </trkpt>
      <trkpt lat="45.7966" lon="4.86334">
        <ele>244.5</ele>
        <time>2011-09-11T12:24:15Z</time>
      </trkpt>
      <trkpt lat="45.79649" lon="4.8633">
        <ele>243.5</ele>
        <time>2011-09-11T12:24:17Z</time>
      </trkpt>
      <trkpt lat="45.79641" lon="4.86323">
        <ele>243.3</ele>
        <time>2011-09-11T12:24:20Z</time>
      </trkpt>
      <trkpt lat="45.79644" lon="4.86309">
        <ele>243.1</ele>
        <time>2011-09-11T12:24:23Z</time>
      </trkpt>
      <trkpt lat="45.7965" lon="4.86293">
        <ele>242.9</ele>
        <time>2011-09-11T12:24:26Z</time>
      </trkpt>
      <trkpt lat="45.79655" lon="4.8628">
        <ele>242.5</ele>
        <time>2011-09-11T12:24:28Z</time>
      </trkpt>
      <trkpt lat="45.7966" lon="4.86267">
        <ele>242</ele>
        <time>2011-09-11T12:24:30Z</time>
      </trkpt>
      <trkpt lat="45.79666" lon="4.86254">
        <ele>241.5</ele>
        <time>2011-09-11T12:24:32Z</time>
      </trkpt>
      <trkpt lat="45.79671" lon="4.86239">
        <ele>241.1</ele>
        <time>2011-09-11T12:24:34Z</time>
      </trkpt>
      <trkpt lat="45.79677" lon="4.86223">
        <ele>241.3</ele>
        <time>2011-09-11T12:24:36Z</time>
      </trkpt>
      <trkpt lat="45.79685" lon="4.86207">
        <ele>240.7</ele>
        <time>2011-09-11T12:24:38Z</time>
      </trkpt>
      <trkpt lat="45.79692" lon="4.86191">
        <ele>240.2</ele>
        <time>2011-09-11T12:24:40Z</time>
      </trkpt>
      <trkpt lat="45.797" lon="4.86175">
        <ele>239.6</ele>
        <time>2011-09-11T12:24:42Z</time>
      </trkpt>
      <trkpt lat="45.79708" lon="4.8616">
        <ele>239.1</ele>
        <time>2011-09-11T12:24:44Z</time>
      </trkpt>
      <trkpt lat="45.79715" lon="4.86148">
        <ele>238.5</ele>
        <time>2011-09-11T12:24:46Z</time>
      </trkpt>
      <trkpt lat="45.79708" lon="4.86133">
        <ele>238</ele>
        <time>2011-09-11T12:24:49Z</time>
      </trkpt>
      <trkpt lat="45.79696" lon="4.86124">
        <ele>237.5</ele>
        <time>2011-09-11T12:24:51Z</time>
      </trkpt>
      <trkpt lat="45.79683" lon="4.86116">
        <ele>236.9</ele>
        <time>2011-09-11T12:24:53Z</time>
      </trkpt>
      <trkpt lat="45.79669" lon="4.86107">
        <ele>236.4</ele>
        <time>2011-09-11T12:24:55Z</time>
      </trkpt>
      <trkpt lat="45.79656" lon="4.86099">
        <ele>235.8</ele>
        <time>2011-09-11T12:24:57Z</time>
      </trkpt>
      <trkpt lat="45.79642" lon="4.86096">
        <ele>234.6</ele>
        <time>2011-09-11T12:24:59Z</time>
      </trkpt>
      <trkpt lat="45.79627" lon="4.86095">
        <ele>234.4</ele>
        <time>2011-09-11T12:25:01Z</time>
      </trkpt>
      <trkpt lat="45.79613" lon="4.86097">
        <ele>234.1</ele>
        <time>2011-09-11T12:25:03Z</time>
      </trkpt>
      <trkpt lat="45.79599" lon="4.86098">
        <ele>234.1</ele>
        <time>2011-09-11T12:25:05Z</time>
      </trkpt>
      <trkpt lat="45.79589" lon="4.86098">
        <ele>234.1</ele>
        <time>2011-09-11T12:25:08Z</time>
      </trkpt>
      <trkpt lat="45.7958" lon="4.86104">
        <ele>234.1</ele>
        <time>2011-09-11T12:25:12Z</time>
      </trkpt>
      <trkpt lat="45.79576" lon="4.86116">
        <ele>234.1</ele>
        <time>2011-09-11T12:26:24Z</time>
      </trkpt>
      <trkpt lat="45.79579" lon="4.86131">
        <ele>234.4</ele>
        <time>2011-09-11T12:26:28Z</time>
      </trkpt>
      <trkpt lat="45.7958" lon="4.86149">
        <ele>234.6</ele>
        <time>2011-09-11T12:26:31Z</time>
      </trkpt>
      <trkpt lat="45.79582" lon="4.86163">
        <ele>234.9</ele>
        <time>2011-09-11T12:26:33Z</time>
      </trkpt>
      <trkpt lat="45.79583" lon="4.86178">
        <ele>235.2</ele>
        <time>2011-09-11T12:26:35Z</time>
      </trkpt>
      <trkpt lat="45.79584" lon="4.86194">
        <ele>234.5</ele>
        <time>2011-09-11T12:26:37Z</time>
      </trkpt>
      <trkpt lat="45.79579" lon="4.86208">
        <ele>233.9</ele>
        <time>2011-09-11T12:26:40Z</time>
      </trkpt>
      <trkpt lat="45.79569" lon="4.86204">
        <ele>233.3</ele>
        <time>2011-09-11T12:26:43Z</time>
      </trkpt>
      <trkpt lat="45.7956" lon="4.86194">
        <ele>232.4</ele>
        <time>2011-09-11T12:26:45Z</time>
      </trkpt>
      <trkpt lat="45.7955" lon="4.86187">
        <ele>231.5</ele>
        <time>2011-09-11T12:26:47Z</time>
      </trkpt>
      <trkpt lat="45.79539" lon="4.86184">
        <ele>230.5</ele>
        <time>2011-09-11T12:26:49Z</time>
      </trkpt>
      <trkpt lat="45.79526" lon="4.86183">
        <ele>228.2</ele>
        <time>2011-09-11T12:26:51Z</time>
      </trkpt>
      <trkpt lat="45.7951" lon="4.86184">
        <ele>226.8</ele>
        <time>2011-09-11T12:26:53Z</time>
      </trkpt>
      <trkpt lat="45.79495" lon="4.86185">
        <ele>225.5</ele>
        <time>2011-09-11T12:26:55Z</time>
      </trkpt>
      <trkpt lat="45.7948" lon="4.86188">
        <ele>224.1</ele>
        <time>2011-09-11T12:26:57Z</time>
      </trkpt>
      <trkpt lat="45.79466" lon="4.86192">
        <ele>222.7</ele>
        <time>2011-09-11T12:26:59Z</time>
      </trkpt>
      <trkpt lat="45.79455" lon="4.86204">
        <ele>222.3</ele>
        <time>2011-09-11T12:27:01Z</time>
      </trkpt>
      <trkpt lat="45.79444" lon="4.8622">
        <ele>221.8</ele>
        <time>2011-09-11T12:27:03Z</time>
      </trkpt>
      <trkpt lat="45.79434" lon="4.86237">
        <ele>221.6</ele>
        <time>2011-09-11T12:27:05Z</time>
      </trkpt>
      <trkpt lat="45.79425" lon="4.86256">
        <ele>221.5</ele>
        <time>2011-09-11T12:27:07Z</time>
      </trkpt>
      <trkpt lat="45.79422" lon="4.86269">
        <ele>221.3</ele>
        <time>2011-09-11T12:27:08Z</time>
      </trkpt>
      <trkpt lat="45.7942" lon="4.86282">
        <ele>221.1</ele>
        <time>2011-09-11T12:27:09Z</time>
      </trkpt>
      <trkpt lat="45.79417" lon="4.86294">
        <ele>222.4</ele>
        <time>2011-09-11T12:27:10Z</time>
      </trkpt>
      <trkpt lat="45.79413" lon="4.86306">
        <ele>221.6</ele>
        <time>2011-09-11T12:27:11Z</time>
      </trkpt>
      <trkpt lat="45.79409" lon="4.86319">
        <ele>220.9</ele>
        <time>2011-09-11T12:27:12Z</time>
      </trkpt>
      <trkpt lat="45.79402" lon="4.86328">
        <ele>220.2</ele>
        <time>2011-09-11T12:27:13Z</time>
      </trkpt>
      <trkpt lat="45.79395" lon="4.86336">
        <ele>219.5</ele>
        <time>2011-09-11T12:27:14Z</time>
      </trkpt>
      <trkpt lat="45.79387" lon="4.86345">
        <ele>218.7</ele>
        <time>2011-09-11T12:27:15Z</time>
      </trkpt>
      <trkpt lat="45.79378" lon="4.86349">
        <ele>218</ele>
        <time>2011-09-11T12:27:16Z</time>
      </trkpt>
      <trkpt lat="45.79368" lon="4.86354">
        <ele>217</ele>
        <time>2011-09-11T12:27:17Z</time>
      </trkpt>
      <trkpt lat="45.79358" lon="4.86359">
        <ele>216</ele>
        <time>2011-09-11T12:27:18Z</time>
      </trkpt>
      <trkpt lat="45.79342" lon="4.86372">
        <ele>215</ele>
        <time>2011-09-11T12:27:20Z</time>
      </trkpt>
      <trkpt lat="45.79334" lon="4.8638">
        <ele>213.4</ele>
        <time>2011-09-11T12:27:21Z</time>
      </trkpt>
      <trkpt lat="45.79326" lon="4.86389">
        <ele>211.7</ele>
        <time>2011-09-11T12:27:22Z</time>
      </trkpt>
      <trkpt lat="45.79316" lon="4.86394">
        <ele>211.1</ele>
        <time>2011-09-11T12:27:23Z</time>
      </trkpt>
      <trkpt lat="45.79306" lon="4.86399">
        <ele>209.7</ele>
        <time>2011-09-11T12:27:24Z</time>
      </trkpt>
      <trkpt lat="45.79296" lon="4.86403">
        <ele>208.4</ele>
        <time>2011-09-11T12:27:25Z</time>
      </trkpt>
      <trkpt lat="45.79283" lon="4.86407">
        <ele>208.4</ele>
        <time>2011-09-11T12:27:27Z</time>
      </trkpt>
      <trkpt lat="45.79272" lon="4.86406">
        <ele>208.4</ele>
        <time>2011-09-11T12:27:29Z</time>
      </trkpt>
      <trkpt lat="45.7927" lon="4.86392">
        <ele>207.4</ele>
        <time>2011-09-11T12:27:31Z</time>
      </trkpt>
      <trkpt lat="45.79278" lon="4.86375">
        <ele>206.4</ele>
        <time>2011-09-11T12:27:33Z</time>
      </trkpt>
      <trkpt lat="45.79286" lon="4.86357">
        <ele>205.4</ele>
        <time>2011-09-11T12:27:35Z</time>
      </trkpt>
      <trkpt lat="45.79292" lon="4.86337">
        <ele>204.4</ele>
        <time>2011-09-11T12:27:37Z</time>
      </trkpt>
      <trkpt lat="45.793" lon="4.86316">
        <ele>204</ele>
        <time>2011-09-11T12:27:39Z</time>
      </trkpt>
      <trkpt lat="45.7931" lon="4.86296">
        <ele>203.6</ele>
        <time>2011-09-11T12:27:41Z</time>
      </trkpt>
      <trkpt lat="45.79322" lon="4.86281">
        <ele>202.5</ele>
        <time>2011-09-11T12:27:43Z</time>
      </trkpt>
      <trkpt lat="45.79335" lon="4.86269">
        <ele>202</ele>
        <time>2011-09-11T12:27:45Z</time>
      </trkpt>
      <trkpt lat="45.7934" lon="4.86251">
        <ele>201.5</ele>
        <time>2011-09-11T12:27:47Z</time>
      </trkpt>
      <trkpt lat="45.79337" lon="4.86238">
        <ele>199</ele>
        <time>2011-09-11T12:27:49Z</time>
      </trkpt>
      <trkpt lat="45.79333" lon="4.86225">
        <ele>196.5</ele>
        <time>2011-09-11T12:27:53Z</time>
      </trkpt>
      <trkpt lat="45.79322" lon="4.86211">
        <ele>194.9</ele>
        <time>2011-09-11T12:29:58Z</time>
      </trkpt>
      <trkpt lat="45.79312" lon="4.86206">
        <ele>193.4</ele>
        <time>2011-09-11T12:30:10Z</time>
      </trkpt>
      <trkpt lat="45.79301" lon="4.86205">
        <ele>191.8</ele>
        <time>2011-09-11T12:30:14Z</time>
      </trkpt>
      <trkpt lat="45.7929" lon="4.86203">
        <ele>190.3</ele>
        <time>2011-09-11T12:30:16Z</time>
      </trkpt>
      <trkpt lat="45.79276" lon="4.86203">
        <ele>188.7</ele>
        <time>2011-09-11T12:30:18Z</time>
      </trkpt>
      <trkpt lat="45.79263" lon="4.86203">
        <ele>187</ele>
        <time>2011-09-11T12:30:20Z</time>
      </trkpt>
      <trkpt lat="45.79249" lon="4.86202">
        <ele>186.1</ele>
        <time>2011-09-11T12:30:22Z</time>
      </trkpt>
      <trkpt lat="45.79236" lon="4.862">
        <ele>185.2</ele>
        <time>2011-09-11T12:30:24Z</time>
      </trkpt>
      <trkpt lat="45.79225" lon="4.86196">
        <ele>184.3</ele>
        <time>2011-09-11T12:30:26Z</time>
      </trkpt>
      <trkpt lat="45.79215" lon="4.86191">
        <ele>184.1</ele>
        <time>2011-09-11T12:30:28Z</time>
      </trkpt>
      <trkpt lat="45.79204" lon="4.86186">
        <ele>183.9</ele>
        <time>2011-09-11T12:30:30Z</time>
      </trkpt>
      <trkpt lat="45.79194" lon="4.86174">
        <ele>183.7</ele>
        <time>2011-09-11T12:30:32Z</time>
      </trkpt>
      <trkpt lat="45.79185" lon="4.8616">
        <ele>183.5</ele>
        <time>2011-09-11T12:30:34Z</time>
      </trkpt>
      <trkpt lat="45.79177" lon="4.86149">
        <ele>183.2</ele>
        <time>2011-09-11T12:30:36Z</time>
      </trkpt>
      <trkpt lat="45.79165" lon="4.86142">
        <ele>182.8</ele>
        <time>2011-09-11T12:30:39Z</time>
      </trkpt>
      <trkpt lat="45.79153" lon="4.86145">
        <ele>182.5</ele>
        <time>2011-09-11T12:30:42Z</time>
      </trkpt>
      <trkpt lat="45.79139" lon="4.86146">
        <ele>182.3</ele>
        <time>2011-09-11T12:30:45Z</time>
      </trkpt>
      <trkpt lat="45.79128" lon="4.8614">
        <ele>182.1</ele>
        <time>2011-09-11T12:30:47Z</time>
      </trkpt>
      <trkpt lat="45.79125" lon="4.86127">
        <ele>181.9</ele>
        <time>2011-09-11T12:30:49Z</time>
      </trkpt>
      <trkpt lat="45.79123" lon="4.86112">
        <ele>181.9</ele>
        <time>2011-09-11T12:30:52Z</time>
      </trkpt>
      <trkpt lat="45.79125" lon="4.861">
        <ele>181.9</ele>
        <time>2011-09-11T12:31:43Z</time>
      </trkpt>
      <trkpt lat="45.79127" lon="4.86086">
        <ele>181.9</ele>
        <time>2011-09-11T12:31:47Z</time>
      </trkpt>
      <trkpt lat="45.79126" lon="4.86072">
        <ele>181.9</ele>
        <time>2011-09-11T12:31:50Z</time>
      </trkpt>
      <trkpt lat="45.79124" lon="4.86057">
        <ele>181.9</ele>
        <time>2011-09-11T12:31:53Z</time>
      </trkpt>
      <trkpt lat="45.7912" lon="4.8604">
        <ele>182.1</ele>
        <time>2011-09-11T12:31:56Z</time>
      </trkpt>
      <trkpt lat="45.79116" lon="4.86026">
        <ele>182.7</ele>
        <time>2011-09-11T12:31:58Z</time>
      </trkpt>
      <trkpt lat="45.79111" lon="4.86012">
        <ele>183.4</ele>
        <time>2011-09-11T12:32:00Z</time>
      </trkpt>
      <trkpt lat="45.79105" lon="4.85997">
        <ele>184</ele>
        <time>2011-09-11T12:32:02Z</time>
      </trkpt>
      <trkpt lat="45.79099" lon="4.85981">
        <ele>184.6</ele>
        <time>2011-09-11T12:32:04Z</time>
      </trkpt>
      <trkpt lat="45.79093" lon="4.85965">
        <ele>185.3</ele>
        <time>2011-09-11T12:32:06Z</time>
      </trkpt>
      <trkpt lat="45.79087" lon="4.85949">
        <ele>185.7</ele>
        <time>2011-09-11T12:32:08Z</time>
      </trkpt>
      <trkpt lat="45.79081" lon="4.85933">
        <ele>186.2</ele>
        <time>2011-09-11T12:32:10Z</time>
      </trkpt>
      <trkpt lat="45.79076" lon="4.85919">
        <ele>186.2</ele>
        <time>2011-09-11T12:32:12Z</time>
      </trkpt>
      <trkpt lat="45.79072" lon="4.85907">
        <ele>186.2</ele>
        <time>2011-09-11T12:32:14Z</time>
      </trkpt>
      <trkpt lat="45.79067" lon="4.85893">
        <ele>185.8</ele>
        <time>2011-09-11T12:32:17Z</time>
      </trkpt>
      <trkpt lat="45.79057" lon="4.85896">
        <ele>185.5</ele>
        <time>2011-09-11T12:32:22Z</time>
      </trkpt>
      <trkpt lat="45.79048" lon="4.85897">
        <ele>185</ele>
        <time>2011-09-11T12:32:25Z</time>
      </trkpt>
      <trkpt lat="45.79032" lon="4.85891">
        <ele>184.5</ele>
        <time>2011-09-11T12:32:27Z</time>
      </trkpt>
      <trkpt lat="45.79013" lon="4.85884">
        <ele>183.3</ele>
        <time>2011-09-11T12:32:30Z</time>
      </trkpt>
      <trkpt lat="45.79" lon="4.85877">
        <ele>182</ele>
        <time>2011-09-11T12:32:32Z</time>
      </trkpt>
      <trkpt lat="45.78988" lon="4.85876">
        <ele>180.7</ele>
        <time>2011-09-11T12:32:35Z</time>
      </trkpt>
      <trkpt lat="45.78979" lon="4.85883">
        <ele>179.5</ele>
        <time>2011-09-11T12:32:37Z</time>
      </trkpt>
      <trkpt lat="45.7897" lon="4.85896">
        <ele>178.2</ele>
        <time>2011-09-11T12:32:39Z</time>
      </trkpt>
      <trkpt lat="45.78962" lon="4.85908">
        <ele>177.4</ele>
        <time>2011-09-11T12:32:41Z</time>
      </trkpt>
      <trkpt lat="45.78956" lon="4.85919">
        <ele>176.5</ele>
        <time>2011-09-11T12:32:43Z</time>
      </trkpt>
      <trkpt lat="45.78947" lon="4.85931">
        <ele>176.1</ele>
        <time>2011-09-11T12:32:46Z</time>
      </trkpt>
      <trkpt lat="45.78935" lon="4.85932">
        <ele>175.7</ele>
        <time>2011-09-11T12:32:49Z</time>
      </trkpt>
      <trkpt lat="45.78925" lon="4.85933">
        <ele>175</ele>
        <time>2011-09-11T12:32:51Z</time>
      </trkpt>
      <trkpt lat="45.78912" lon="4.85933">
        <ele>174.3</ele>
        <time>2011-09-11T12:32:54Z</time>
      </trkpt>
      <trkpt lat="45.78899" lon="4.85931">
        <ele>174.4</ele>
        <time>2011-09-11T12:32:57Z</time>
      </trkpt>
      <trkpt lat="45.78887" lon="4.8593">
        <ele>174.5</ele>
        <time>2011-09-11T12:33:00Z</time>
      </trkpt>
      <trkpt lat="45.78875" lon="4.85924">
        <ele>174.5</ele>
        <time>2011-09-11T12:33:03Z</time>
      </trkpt>
      <trkpt lat="45.78866" lon="4.85919">
        <ele>174.6</ele>
        <time>2011-09-11T12:33:05Z</time>
      </trkpt>
      <trkpt lat="45.78857" lon="4.85914">
        <ele>174.7</ele>
        <time>2011-09-11T12:33:07Z</time>
      </trkpt>
      <trkpt lat="45.78847" lon="4.85909">
        <ele>174.5</ele>
        <time>2011-09-11T12:33:09Z</time>
      </trkpt>
      <trkpt lat="45.78837" lon="4.85904">
        <ele>174.2</ele>
        <time>2011-09-11T12:33:11Z</time>
      </trkpt>
      <trkpt lat="45.78829" lon="4.85898">
        <ele>173.9</ele>
        <time>2011-09-11T12:33:13Z</time>
      </trkpt>
      <trkpt lat="45.7882" lon="4.8589">
        <ele>173.5</ele>
        <time>2011-09-11T12:33:16Z</time>
      </trkpt>
      <trkpt lat="45.78811" lon="4.85885">
        <ele>173.2</ele>
        <time>2011-09-11T12:33:20Z</time>
      </trkpt>
      <trkpt lat="45.78807" lon="4.85871">
        <ele>172.9</ele>
        <time>2011-09-11T12:33:24Z</time>
      </trkpt>
      <trkpt lat="45.78806" lon="4.85854">
        <ele>172.6</ele>
        <time>2011-09-11T12:33:27Z</time>
      </trkpt>
      <trkpt lat="45.78806" lon="4.85839">
        <ele>172.4</ele>
        <time>2011-09-11T12:33:30Z</time>
      </trkpt>
      <trkpt lat="45.78806" lon="4.85824">
        <ele>172.1</ele>
        <time>2011-09-11T12:33:33Z</time>
      </trkpt>
      <trkpt lat="45.78806" lon="4.85808">
        <ele>171.8</ele>
        <time>2011-09-11T12:33:36Z</time>
      </trkpt>
      <trkpt lat="45.78807" lon="4.85791">
        <ele>171.5</ele>
        <time>2011-09-11T12:33:39Z</time>
      </trkpt>
      <trkpt lat="45.78807" lon="4.85774">
        <ele>171.6</ele>
        <time>2011-09-11T12:33:42Z</time>
      </trkpt>
      <trkpt lat="45.78808" lon="4.85755">
        <ele>171.7</ele>
        <time>2011-09-11T12:33:45Z</time>
      </trkpt>
      <trkpt lat="45.78808" lon="4.85737">
        <ele>171.8</ele>
        <time>2011-09-11T12:33:48Z</time>
      </trkpt>
      <trkpt lat="45.78809" lon="4.85719">
        <ele>171.9</ele>
        <time>2011-09-11T12:33:51Z</time>
      </trkpt>
      <trkpt lat="45.78809" lon="4.857">
        <ele>172.2</ele>
        <time>2011-09-11T12:33:54Z</time>
      </trkpt>
      <trkpt lat="45.7881" lon="4.85687">
        <ele>172.4</ele>
        <time>2011-09-11T12:33:56Z</time>
      </trkpt>
      <trkpt lat="45.7881" lon="4.85674">
        <ele>172.5</ele>
        <time>2011-09-11T12:33:58Z</time>
      </trkpt>
      <trkpt lat="45.7881" lon="4.85661">
        <ele>172.7</ele>
        <time>2011-09-11T12:34:00Z</time>
      </trkpt>
      <trkpt lat="45.7881" lon="4.85643">
        <ele>172.9</ele>
        <time>2011-09-11T12:34:03Z</time>
      </trkpt>
      <trkpt lat="45.7881" lon="4.85625">
        <ele>173.3</ele>
        <time>2011-09-11T12:34:06Z</time>
      </trkpt>
      <trkpt lat="45.7881" lon="4.85607">
        <ele>173.6</ele>
        <time>2011-09-11T12:34:09Z</time>
      </trkpt>
      <trkpt lat="45.7881" lon="4.85588">
        <ele>174</ele>
        <time>2011-09-11T12:34:12Z</time>
      </trkpt>
      <trkpt lat="45.7881" lon="4.85572">
        <ele>174.4</ele>
        <time>2011-09-11T12:34:15Z</time>
      </trkpt>
      <trkpt lat="45.7881" lon="4.85557">
        <ele>174.7</ele>
        <time>2011-09-11T12:34:18Z</time>
      </trkpt>
      <trkpt lat="45.7881" lon="4.85542">
        <ele>175.1</ele>
        <time>2011-09-11T12:34:21Z</time>
      </trkpt>
      <trkpt lat="45.78812" lon="4.85526">
        <ele>175.3</ele>
        <time>2011-09-11T12:34:24Z</time>
      </trkpt>
      <trkpt lat="45.7882" lon="4.85516">
        <ele>175.5</ele>
        <time>2011-09-11T12:34:27Z</time>
      </trkpt>
      <trkpt lat="45.78829" lon="4.85514">
        <ele>175.6</ele>
        <time>2011-09-11T12:34:32Z</time>
      </trkpt>
      <trkpt lat="45.78839" lon="4.85511">
        <ele>176.7</ele>
        <time>2011-09-11T12:34:36Z</time>
      </trkpt>
      <trkpt lat="45.78849" lon="4.85508">
        <ele>177.8</ele>
        <time>2011-09-11T12:34:41Z</time>
      </trkpt>
      <trkpt lat="45.78858" lon="4.85506">
        <ele>178.7</ele>
        <time>2011-09-11T12:34:45Z</time>
      </trkpt>
      <trkpt lat="45.7887" lon="4.85508">
        <ele>179.6</ele>
        <time>2011-09-11T12:34:51Z</time>
      </trkpt>
      <trkpt lat="45.7888" lon="4.85511">
        <ele>181.1</ele>
        <time>2011-09-11T12:35:00Z</time>
      </trkpt>
      <trkpt lat="45.78889" lon="4.85505">
        <ele>182.5</ele>
        <time>2011-09-11T12:35:08Z</time>
      </trkpt>
      <trkpt lat="45.78898" lon="4.85499">
        <ele>184</ele>
        <time>2011-09-11T12:35:12Z</time>
      </trkpt>
      <trkpt lat="45.78908" lon="4.85492">
        <ele>185.5</ele>
        <time>2011-09-11T12:35:16Z</time>
      </trkpt>
      <trkpt lat="45.78914" lon="4.85481">
        <ele>186.9</ele>
        <time>2011-09-11T12:35:19Z</time>
      </trkpt>
      <trkpt lat="45.78912" lon="4.85466">
        <ele>188.4</ele>
        <time>2011-09-11T12:35:22Z</time>
      </trkpt>
      <trkpt lat="45.78906" lon="4.8545">
        <ele>190.3</ele>
        <time>2011-09-11T12:35:25Z</time>
      </trkpt>
      <trkpt lat="45.78899" lon="4.85436">
        <ele>191.3</ele>
        <time>2011-09-11T12:35:28Z</time>
      </trkpt>
      <trkpt lat="45.78896" lon="4.85419">
        <ele>190.5</ele>
        <time>2011-09-11T12:35:31Z</time>
      </trkpt>
      <trkpt lat="45.78899" lon="4.85402">
        <ele>189.6</ele>
        <time>2011-09-11T12:35:34Z</time>
      </trkpt>
      <trkpt lat="45.78894" lon="4.85387">
        <ele>188.8</ele>
        <time>2011-09-11T12:35:37Z</time>
      </trkpt>
      <trkpt lat="45.78887" lon="4.85376">
        <ele>187.5</ele>
        <time>2011-09-11T12:35:39Z</time>
      </trkpt>
      <trkpt lat="45.78882" lon="4.85366">
        <ele>186.1</ele>
        <time>2011-09-11T12:35:41Z</time>
      </trkpt>
      <trkpt lat="45.78875" lon="4.85353">
        <ele>186.7</ele>
        <time>2011-09-11T12:35:44Z</time>
      </trkpt>
      <trkpt lat="45.78869" lon="4.85341">
        <ele>187.4</ele>
        <time>2011-09-11T12:35:47Z</time>
      </trkpt>
      <trkpt lat="45.78863" lon="4.85327">
        <ele>188</ele>
        <time>2011-09-11T12:35:50Z</time>
      </trkpt>
      <trkpt lat="45.78861" lon="4.85313">
        <ele>188.6</ele>
        <time>2011-09-11T12:35:53Z</time>
      </trkpt>
      <trkpt lat="45.7887" lon="4.85307">
        <ele>188.8</ele>
        <time>2011-09-11T12:36:00Z</time>
      </trkpt>
      <trkpt lat="45.78883" lon="4.85294">
        <ele>189</ele>
        <time>2011-09-11T12:36:10Z</time>
      </trkpt>
      <trkpt lat="45.78893" lon="4.85284">
        <ele>191</ele>
        <time>2011-09-11T12:36:18Z</time>
      </trkpt>
      <trkpt lat="45.78903" lon="4.85278">
        <ele>193</ele>
        <time>2011-09-11T12:36:24Z</time>
      </trkpt>
      <trkpt lat="45.78915" lon="4.85276">
        <ele>195</ele>
        <time>2011-09-11T12:36:32Z</time>
      </trkpt>
      <trkpt lat="45.78924" lon="4.85275">
        <ele>197</ele>
        <time>2011-09-11T12:36:39Z</time>
      </trkpt>
      <trkpt lat="45.78934" lon="4.85278">
        <ele>199.6</ele>
        <time>2011-09-11T12:36:46Z</time>
      </trkpt>
      <trkpt lat="45.78943" lon="4.85272">
        <ele>200.3</ele>
        <time>2011-09-11T12:36:55Z</time>
      </trkpt>
      <trkpt lat="45.78945" lon="4.85258">
        <ele>200.9</ele>
        <time>2011-09-11T12:37:03Z</time>
      </trkpt>
      <trkpt lat="45.78942" lon="4.85245">
        <ele>201.5</ele>
        <time>2011-09-11T12:37:10Z</time>
      </trkpt>
      <trkpt lat="45.7894" lon="4.85232">
        <ele>202.2</ele>
        <time>2011-09-11T12:37:16Z</time>
      </trkpt>
      <trkpt lat="45.78937" lon="4.85217">
        <ele>202.8</ele>
        <time>2011-09-11T12:37:24Z</time>
      </trkpt>
      <trkpt lat="45.78933" lon="4.85202">
        <ele>204.4</ele>
        <time>2011-09-11T12:37:32Z</time>
      </trkpt>
      <trkpt lat="45.78929" lon="4.85189">
        <ele>205.9</ele>
        <time>2011-09-11T12:37:39Z</time>
      </trkpt>
      <trkpt lat="45.78925" lon="4.85177">
        <ele>207.5</ele>
        <time>2011-09-11T12:37:46Z</time>
      </trkpt>
      <trkpt lat="45.78922" lon="4.85163">
        <ele>209</ele>
        <time>2011-09-11T12:37:53Z</time>
      </trkpt>
      <trkpt lat="45.78918" lon="4.8515">
        <ele>210.5</ele>
        <time>2011-09-11T12:38:01Z</time>
      </trkpt>
      <trkpt lat="45.78917" lon="4.85137">
        <ele>211.5</ele>
        <time>2011-09-11T12:38:08Z</time>
      </trkpt>
      <trkpt lat="45.78914" lon="4.85125">
        <ele>213.8</ele>
        <time>2011-09-11T12:38:16Z</time>
      </trkpt>
      <trkpt lat="45.78913" lon="4.8511">
        <ele>216.2</ele>
        <time>2011-09-11T12:38:24Z</time>
      </trkpt>
      <trkpt lat="45.78912" lon="4.85097">
        <ele>218.5</ele>
        <time>2011-09-11T12:38:32Z</time>
      </trkpt>
      <trkpt lat="45.78912" lon="4.85081">
        <ele>220.9</ele>
        <time>2011-09-11T12:38:40Z</time>
      </trkpt>
      <trkpt lat="45.78912" lon="4.85068">
        <ele>223.3</ele>
        <time>2011-09-11T12:38:48Z</time>
      </trkpt>
      <trkpt lat="45.78914" lon="4.85053">
        <ele>224.7</ele>
        <time>2011-09-11T12:38:56Z</time>
      </trkpt>
      <trkpt lat="45.78916" lon="4.8504">
        <ele>226.2</ele>
        <time>2011-09-11T12:39:03Z</time>
      </trkpt>
      <trkpt lat="45.78913" lon="4.85027">
        <ele>227.6</ele>
        <time>2011-09-11T12:39:12Z</time>
      </trkpt>
      <trkpt lat="45.78913" lon="4.85014">
        <ele>229.1</ele>
        <time>2011-09-11T12:39:22Z</time>
      </trkpt>
      <trkpt lat="45.78919" lon="4.85004">
        <ele>230.5</ele>
        <time>2011-09-11T12:39:29Z</time>
      </trkpt>
      <trkpt lat="45.78929" lon="4.85001">
        <ele>233.3</ele>
        <time>2011-09-11T12:39:37Z</time>
      </trkpt>
      <trkpt lat="45.7894" lon="4.84996">
        <ele>234.5</ele>
        <time>2011-09-11T12:39:44Z</time>
      </trkpt>
      <trkpt lat="45.78929" lon="4.84994">
        <ele>235.8</ele>
        <time>2011-09-11T12:40:07Z</time>
      </trkpt>
      <trkpt lat="45.78921" lon="4.84985">
        <ele>237.1</ele>
        <time>2011-09-11T12:40:13Z</time>
      </trkpt>
      <trkpt lat="45.78918" lon="4.84971">
        <ele>238.4</ele>
        <time>2011-09-11T12:40:20Z</time>
      </trkpt>
      <trkpt lat="45.7892" lon="4.84958">
        <ele>239.6</ele>
        <time>2011-09-11T12:40:28Z</time>
      </trkpt>
      <trkpt lat="45.78921" lon="4.84944">
        <ele>241.6</ele>
        <time>2011-09-11T12:40:36Z</time>
      </trkpt>
      <trkpt lat="45.78923" lon="4.84931">
        <ele>243.6</ele>
        <time>2011-09-11T12:40:43Z</time>
      </trkpt>
      <trkpt lat="45.78926" lon="4.84917">
        <ele>245.6</ele>
        <time>2011-09-11T12:40:52Z</time>
      </trkpt>
      <trkpt lat="45.78924" lon="4.84904">
        <ele>247.6</ele>
        <time>2011-09-11T12:41:04Z</time>
      </trkpt>
      <trkpt lat="45.78923" lon="4.84889">
        <ele>249.6</ele>
        <time>2011-09-11T12:41:12Z</time>
      </trkpt>
      <trkpt lat="45.78923" lon="4.84875">
        <ele>250.4</ele>
        <time>2011-09-11T12:41:20Z</time>
      </trkpt>
      <trkpt lat="45.78923" lon="4.84861">
        <ele>251.1</ele>
        <time>2011-09-11T12:41:27Z</time>
      </trkpt>
      <trkpt lat="45.78925" lon="4.84847">
        <ele>252.1</ele>
        <time>2011-09-11T12:41:34Z</time>
      </trkpt>
      <trkpt lat="45.78928" lon="4.84835">
        <ele>253.1</ele>
        <time>2011-09-11T12:41:40Z</time>
      </trkpt>
      <trkpt lat="45.78931" lon="4.84822">
        <ele>254.1</ele>
        <time>2011-09-11T12:41:47Z</time>
      </trkpt>
      <trkpt lat="45.78933" lon="4.84809">
        <ele>255.1</ele>
        <time>2011-09-11T12:41:56Z</time>
      </trkpt>
      <trkpt lat="45.78935" lon="4.84797">
        <ele>255.4</ele>
        <time>2011-09-11T12:42:21Z</time>
      </trkpt>
      <trkpt lat="45.78934" lon="4.84781">
        <ele>255.4</ele>
        <time>2011-09-11T12:42:27Z</time>
      </trkpt>
      <trkpt lat="45.78932" lon="4.84768">
        <ele>255.4</ele>
        <time>2011-09-11T12:42:31Z</time>
      </trkpt>
      <trkpt lat="45.78931" lon="4.84752">
        <ele>255.4</ele>
        <time>2011-09-11T12:42:35Z</time>
      </trkpt>
      <trkpt lat="45.7893" lon="4.84736">
        <ele>255.4</ele>
        <time>2011-09-11T12:42:38Z</time>
      </trkpt>
      <trkpt lat="45.78929" lon="4.84718">
        <ele>255.4</ele>
        <time>2011-09-11T12:42:41Z</time>
      </trkpt>
      <trkpt lat="45.78928" lon="4.84705">
        <ele>255.4</ele>
        <time>2011-09-11T12:42:43Z</time>
      </trkpt>
      <trkpt lat="45.78928" lon="4.84692">
        <ele>255.3</ele>
        <time>2011-09-11T12:42:45Z</time>
      </trkpt>
      <trkpt lat="45.78927" lon="4.84678">
        <ele>255.2</ele>
        <time>2011-09-11T12:42:47Z</time>
      </trkpt>
      <trkpt lat="45.78926" lon="4.84663">
        <ele>255.1</ele>
        <time>2011-09-11T12:42:49Z</time>
      </trkpt>
      <trkpt lat="45.78925" lon="4.84648">
        <ele>255</ele>
        <time>2011-09-11T12:42:51Z</time>
      </trkpt>
      <trkpt lat="45.78924" lon="4.84632">
        <ele>254.9</ele>
        <time>2011-09-11T12:42:53Z</time>
      </trkpt>
      <trkpt lat="45.78922" lon="4.84615">
        <ele>254.6</ele>
        <time>2011-09-11T12:42:55Z</time>
      </trkpt>
      <trkpt lat="45.7892" lon="4.84598">
        <ele>254.4</ele>
        <time>2011-09-11T12:42:57Z</time>
      </trkpt>
      <trkpt lat="45.78916" lon="4.84581">
        <ele>254.1</ele>
        <time>2011-09-11T12:42:59Z</time>
      </trkpt>
      <trkpt lat="45.78911" lon="4.84565">
        <ele>253.8</ele>
        <time>2011-09-11T12:43:01Z</time>
      </trkpt>
      <trkpt lat="45.78908" lon="4.84549">
        <ele>253</ele>
        <time>2011-09-11T12:43:03Z</time>
      </trkpt>
      <trkpt lat="45.78902" lon="4.84535">
        <ele>252.2</ele>
        <time>2011-09-11T12:43:05Z</time>
      </trkpt>
      <trkpt lat="45.78896" lon="4.84521">
        <ele>251.6</ele>
        <time>2011-09-11T12:43:07Z</time>
      </trkpt>
      <trkpt lat="45.78889" lon="4.84507">
        <ele>251.1</ele>
        <time>2011-09-11T12:43:09Z</time>
      </trkpt>
      <trkpt lat="45.78883" lon="4.84494">
        <ele>250.5</ele>
        <time>2011-09-11T12:43:11Z</time>
      </trkpt>
      <trkpt lat="45.78876" lon="4.84483">
        <ele>250</ele>
        <time>2011-09-11T12:43:13Z</time>
      </trkpt>
      <trkpt lat="45.78868" lon="4.84473">
        <ele>249.5</ele>
        <time>2011-09-11T12:43:15Z</time>
      </trkpt>
      <trkpt lat="45.78861" lon="4.84463">
        <ele>249.4</ele>
        <time>2011-09-11T12:43:17Z</time>
      </trkpt>
      <trkpt lat="45.78853" lon="4.84453">
        <ele>249.3</ele>
        <time>2011-09-11T12:43:19Z</time>
      </trkpt>
      <trkpt lat="45.78846" lon="4.84441">
        <ele>249.2</ele>
        <time>2011-09-11T12:43:21Z</time>
      </trkpt>
      <trkpt lat="45.7884" lon="4.8443">
        <ele>249.3</ele>
        <time>2011-09-11T12:43:23Z</time>
      </trkpt>
      <trkpt lat="45.78834" lon="4.84419">
        <ele>249.9</ele>
        <time>2011-09-11T12:43:25Z</time>
      </trkpt>
      <trkpt lat="45.78828" lon="4.84408">
        <ele>250.5</ele>
        <time>2011-09-11T12:43:27Z</time>
      </trkpt>
      <trkpt lat="45.78823" lon="4.84397">
        <ele>250.7</ele>
        <time>2011-09-11T12:43:29Z</time>
      </trkpt>
      <trkpt lat="45.78818" lon="4.84387">
        <ele>250.2</ele>
        <time>2011-09-11T12:43:31Z</time>
      </trkpt>
      <trkpt lat="45.78812" lon="4.84375">
        <ele>249.6</ele>
        <time>2011-09-11T12:43:33Z</time>
      </trkpt>
      <trkpt lat="45.78806" lon="4.84364">
        <ele>249.1</ele>
        <time>2011-09-11T12:43:35Z</time>
      </trkpt>
      <trkpt lat="45.788" lon="4.84352">
        <ele>248.5</ele>
        <time>2011-09-11T12:43:37Z</time>
      </trkpt>
      <trkpt lat="45.78796" lon="4.84339">
        <ele>248</ele>
        <time>2011-09-11T12:43:39Z</time>
      </trkpt>
      <trkpt lat="45.78784" lon="4.84334">
        <ele>247.4</ele>
        <time>2011-09-11T12:43:42Z</time>
      </trkpt>
      <trkpt lat="45.78773" lon="4.84344">
        <ele>246.7</ele>
        <time>2011-09-11T12:43:44Z</time>
      </trkpt>
      <trkpt lat="45.7876" lon="4.84362">
        <ele>245.9</ele>
        <time>2011-09-11T12:43:46Z</time>
      </trkpt>
      <trkpt lat="45.78752" lon="4.84373">
        <ele>245.1</ele>
        <time>2011-09-11T12:43:47Z</time>
      </trkpt>
      <trkpt lat="45.78745" lon="4.84383">
        <ele>243.4</ele>
        <time>2011-09-11T12:43:48Z</time>
      </trkpt>
      <trkpt lat="45.78738" lon="4.84393">
        <ele>241.6</ele>
        <time>2011-09-11T12:43:49Z</time>
      </trkpt>
      <trkpt lat="45.78731" lon="4.84403">
        <ele>240.6</ele>
        <time>2011-09-11T12:43:50Z</time>
      </trkpt>
      <trkpt lat="45.78723" lon="4.84413">
        <ele>239</ele>
        <time>2011-09-11T12:43:51Z</time>
      </trkpt>
      <trkpt lat="45.78715" lon="4.84424">
        <ele>237.4</ele>
        <time>2011-09-11T12:43:52Z</time>
      </trkpt>
      <trkpt lat="45.78708" lon="4.84434">
        <ele>235.7</ele>
        <time>2011-09-11T12:43:53Z</time>
      </trkpt>
      <trkpt lat="45.787" lon="4.84444">
        <ele>234.1</ele>
        <time>2011-09-11T12:43:54Z</time>
      </trkpt>
      <trkpt lat="45.78693" lon="4.84453">
        <ele>232.5</ele>
        <time>2011-09-11T12:43:55Z</time>
      </trkpt>
      <trkpt lat="45.78681" lon="4.8447">
        <ele>232</ele>
        <time>2011-09-11T12:43:57Z</time>
      </trkpt>
      <trkpt lat="45.78671" lon="4.84482">
        <ele>231.5</ele>
        <time>2011-09-11T12:43:59Z</time>
      </trkpt>
      <trkpt lat="45.78668" lon="4.84499">
        <ele>230.9</ele>
        <time>2011-09-11T12:44:02Z</time>
      </trkpt>
      <trkpt lat="45.78681" lon="4.8451">
        <ele>230.9</ele>
        <time>2011-09-11T12:44:04Z</time>
      </trkpt>
      <trkpt lat="45.78696" lon="4.84521">
        <ele>230.9</ele>
        <time>2011-09-11T12:44:06Z</time>
      </trkpt>
      <trkpt lat="45.78712" lon="4.84532">
        <ele>230.9</ele>
        <time>2011-09-11T12:44:08Z</time>
      </trkpt>
      <trkpt lat="45.78728" lon="4.8454">
        <ele>229.7</ele>
        <time>2011-09-11T12:44:10Z</time>
      </trkpt>
      <trkpt lat="45.78736" lon="4.84546">
        <ele>228.5</ele>
        <time>2011-09-11T12:44:12Z</time>
      </trkpt>
      <trkpt lat="45.78736" lon="4.84561">
        <ele>227.4</ele>
        <time>2011-09-11T12:44:15Z</time>
      </trkpt>
      <trkpt lat="45.78726" lon="4.84568">
        <ele>226.2</ele>
        <time>2011-09-11T12:44:17Z</time>
      </trkpt>
      <trkpt lat="45.78712" lon="4.84576">
        <ele>225</ele>
        <time>2011-09-11T12:44:19Z</time>
      </trkpt>
      <trkpt lat="45.78703" lon="4.8458">
        <ele>222.8</ele>
        <time>2011-09-11T12:44:20Z</time>
      </trkpt>
      <trkpt lat="45.78694" lon="4.84585">
        <ele>220.6</ele>
        <time>2011-09-11T12:44:21Z</time>
      </trkpt>
      <trkpt lat="45.78685" lon="4.84589">
        <ele>218.5</ele>
        <time>2011-09-11T12:44:22Z</time>
      </trkpt>
      <trkpt lat="45.78668" lon="4.84598">
        <ele>215.7</ele>
        <time>2011-09-11T12:44:24Z</time>
      </trkpt>
      <trkpt lat="45.78659" lon="4.84602">
        <ele>213</ele>
        <time>2011-09-11T12:44:25Z</time>
      </trkpt>
      <trkpt lat="45.78649" lon="4.84605">
        <ele>209.4</ele>
        <time>2011-09-11T12:44:26Z</time>
      </trkpt>
      <trkpt lat="45.7864" lon="4.84608">
        <ele>207.5</ele>
        <time>2011-09-11T12:44:27Z</time>
      </trkpt>
      <trkpt lat="45.78631" lon="4.84611">
        <ele>205.7</ele>
        <time>2011-09-11T12:44:28Z</time>
      </trkpt>
      <trkpt lat="45.78614" lon="4.84618">
        <ele>203.9</ele>
        <time>2011-09-11T12:44:30Z</time>
      </trkpt>
      <trkpt lat="45.78601" lon="4.8463">
        <ele>202.1</ele>
        <time>2011-09-11T12:44:32Z</time>
      </trkpt>
      <trkpt lat="45.78583" lon="4.84645">
        <ele>198.7</ele>
        <time>2011-09-11T12:44:34Z</time>
      </trkpt>
      <trkpt lat="45.78574" lon="4.84654">
        <ele>195.4</ele>
        <time>2011-09-11T12:44:35Z</time>
      </trkpt>
      <trkpt lat="45.78565" lon="4.8466">
        <ele>192</ele>
        <time>2011-09-11T12:44:36Z</time>
      </trkpt>
      <trkpt lat="45.78558" lon="4.84668">
        <ele>188.6</ele>
        <time>2011-09-11T12:44:37Z</time>
      </trkpt>
      <trkpt lat="45.7855" lon="4.84676">
        <ele>186.2</ele>
        <time>2011-09-11T12:44:38Z</time>
      </trkpt>
      <trkpt lat="45.78536" lon="4.84689">
        <ele>183.7</ele>
        <time>2011-09-11T12:44:40Z</time>
      </trkpt>
      <trkpt lat="45.78526" lon="4.84696">
        <ele>182.2</ele>
        <time>2011-09-11T12:44:43Z</time>
      </trkpt>
      <trkpt lat="45.78514" lon="4.84694">
        <ele>180.6</ele>
        <time>2011-09-11T12:44:47Z</time>
      </trkpt>
      <trkpt lat="45.78507" lon="4.84686">
        <ele>178.2</ele>
        <time>2011-09-11T12:44:49Z</time>
      </trkpt>
      <trkpt lat="45.78498" lon="4.84676">
        <ele>176.5</ele>
        <time>2011-09-11T12:44:51Z</time>
      </trkpt>
      <trkpt lat="45.78489" lon="4.84664">
        <ele>174.9</ele>
        <time>2011-09-11T12:44:53Z</time>
      </trkpt>
      <trkpt lat="45.7848" lon="4.84653">
        <ele>174.8</ele>
        <time>2011-09-11T12:44:55Z</time>
      </trkpt>
      <trkpt lat="45.78471" lon="4.84642">
        <ele>174.7</ele>
        <time>2011-09-11T12:44:57Z</time>
      </trkpt>
      <trkpt lat="45.78463" lon="4.84633">
        <ele>174.6</ele>
        <time>2011-09-11T12:44:59Z</time>
      </trkpt>
      <trkpt lat="45.78455" lon="4.84625">
        <ele>174.5</ele>
        <time>2011-09-11T12:45:01Z</time>
      </trkpt>
      <trkpt lat="45.78446" lon="4.84619">
        <ele>174.5</ele>
        <time>2011-09-11T12:45:03Z</time>
      </trkpt>
      <trkpt lat="45.78438" lon="4.84612">
        <ele>174.4</ele>
        <time>2011-09-11T12:45:05Z</time>
      </trkpt>
      <trkpt lat="45.78431" lon="4.84604">
        <ele>174.3</ele>
        <time>2011-09-11T12:45:07Z</time>
      </trkpt>
      <trkpt lat="45.78423" lon="4.84595">
        <ele>173.4</ele>
        <time>2011-09-11T12:45:09Z</time>
      </trkpt>
      <trkpt lat="45.78416" lon="4.84585">
        <ele>173.4</ele>
        <time>2011-09-11T12:45:11Z</time>
      </trkpt>
      <trkpt lat="45.78408" lon="4.84576">
        <ele>172.5</ele>
        <time>2011-09-11T12:45:13Z</time>
      </trkpt>
      <trkpt lat="45.78401" lon="4.84567">
        <ele>171.7</ele>
        <time>2011-09-11T12:45:15Z</time>
      </trkpt>
      <trkpt lat="45.7839" lon="4.84555">
        <ele>170.9</ele>
        <time>2011-09-11T12:45:18Z</time>
      </trkpt>
      <trkpt lat="45.7838" lon="4.84543">
        <ele>170.1</ele>
        <time>2011-09-11T12:45:21Z</time>
      </trkpt>
      <trkpt lat="45.7837" lon="4.84532">
        <ele>169.3</ele>
        <time>2011-09-11T12:45:24Z</time>
      </trkpt>
      <trkpt lat="45.78361" lon="4.8452">
        <ele>170.7</ele>
        <time>2011-09-11T12:45:27Z</time>
      </trkpt>
      <trkpt lat="45.78353" lon="4.84508">
        <ele>172.2</ele>
        <time>2011-09-11T12:45:30Z</time>
      </trkpt>
      <trkpt lat="45.78345" lon="4.84497">
        <ele>173.6</ele>
        <time>2011-09-11T12:45:33Z</time>
      </trkpt>
      <trkpt lat="45.78336" lon="4.84485">
        <ele>175.1</ele>
        <time>2011-09-11T12:45:36Z</time>
      </trkpt>
      <trkpt lat="45.7833" lon="4.84475">
        <ele>175.1</ele>
        <time>2011-09-11T12:45:38Z</time>
      </trkpt>
      <trkpt lat="45.7832" lon="4.84462">
        <ele>175.1</ele>
        <time>2011-09-11T12:45:41Z</time>
      </trkpt>
      <trkpt lat="45.7831" lon="4.84449">
        <ele>175.1</ele>
        <time>2011-09-11T12:45:44Z</time>
      </trkpt>
      <trkpt lat="45.78303" lon="4.84439">
        <ele>175.1</ele>
        <time>2011-09-11T12:45:46Z</time>
      </trkpt>
      <trkpt lat="45.78295" lon="4.84428">
        <ele>177.8</ele>
        <time>2011-09-11T12:45:48Z</time>
      </trkpt>
      <trkpt lat="45.78287" lon="4.84418">
        <ele>180.5</ele>
        <time>2011-09-11T12:45:50Z</time>
      </trkpt>
      <trkpt lat="45.78279" lon="4.84407">
        <ele>183.3</ele>
        <time>2011-09-11T12:45:52Z</time>
      </trkpt>
      <trkpt lat="45.78271" lon="4.84397">
        <ele>183.7</ele>
        <time>2011-09-11T12:45:54Z</time>
      </trkpt>
      <trkpt lat="45.78263" lon="4.84387">
        <ele>184.2</ele>
        <time>2011-09-11T12:45:56Z</time>
      </trkpt>
      <trkpt lat="45.78254" lon="4.84378">
        <ele>182.9</ele>
        <time>2011-09-11T12:45:58Z</time>
      </trkpt>
      <trkpt lat="45.78244" lon="4.84368">
        <ele>181.6</ele>
        <time>2011-09-11T12:46:00Z</time>
      </trkpt>
      <trkpt lat="45.78234" lon="4.84359">
        <ele>182.6</ele>
        <time>2011-09-11T12:46:02Z</time>
      </trkpt>
      <trkpt lat="45.78224" lon="4.8435">
        <ele>183.6</ele>
        <time>2011-09-11T12:46:04Z</time>
      </trkpt>
      <trkpt lat="45.78215" lon="4.84342">
        <ele>186.5</ele>
        <time>2011-09-11T12:46:06Z</time>
      </trkpt>
      <trkpt lat="45.78205" lon="4.84334">
        <ele>189.3</ele>
        <time>2011-09-11T12:46:08Z</time>
      </trkpt>
      <trkpt lat="45.78196" lon="4.84325">
        <ele>189.4</ele>
        <time>2011-09-11T12:46:10Z</time>
      </trkpt>
      <trkpt lat="45.78187" lon="4.84316">
        <ele>189.5</ele>
        <time>2011-09-11T12:46:12Z</time>
      </trkpt>
      <trkpt lat="45.78178" lon="4.84307">
        <ele>189.5</ele>
        <time>2011-09-11T12:46:14Z</time>
      </trkpt>
      <trkpt lat="45.78169" lon="4.84299">
        <ele>187.6</ele>
        <time>2011-09-11T12:46:16Z</time>
      </trkpt>
      <trkpt lat="45.7816" lon="4.8429">
        <ele>185.7</ele>
        <time>2011-09-11T12:46:18Z</time>
      </trkpt>
      <trkpt lat="45.78151" lon="4.84281">
        <ele>185.5</ele>
        <time>2011-09-11T12:46:20Z</time>
      </trkpt>
      <trkpt lat="45.78142" lon="4.84272">
        <ele>185.4</ele>
        <time>2011-09-11T12:46:22Z</time>
      </trkpt>
      <trkpt lat="45.78133" lon="4.84264">
        <ele>185.2</ele>
        <time>2011-09-11T12:46:24Z</time>
      </trkpt>
      <trkpt lat="45.78123" lon="4.84256">
        <ele>185</ele>
        <time>2011-09-11T12:46:26Z</time>
      </trkpt>
      <trkpt lat="45.78114" lon="4.84249">
        <ele>185</ele>
        <time>2011-09-11T12:46:28Z</time>
      </trkpt>
      <trkpt lat="45.78105" lon="4.84242">
        <ele>185</ele>
        <time>2011-09-11T12:46:30Z</time>
      </trkpt>
      <trkpt lat="45.78095" lon="4.84236">
        <ele>183.6</ele>
        <time>2011-09-11T12:46:32Z</time>
      </trkpt>
      <trkpt lat="45.78084" lon="4.8423">
        <ele>182.3</ele>
        <time>2011-09-11T12:46:34Z</time>
      </trkpt>
      <trkpt lat="45.78075" lon="4.84223">
        <ele>180.9</ele>
        <time>2011-09-11T12:46:36Z</time>
      </trkpt>
      <trkpt lat="45.78064" lon="4.84217">
        <ele>181.5</ele>
        <time>2011-09-11T12:46:38Z</time>
      </trkpt>
      <trkpt lat="45.78054" lon="4.8421">
        <ele>182.2</ele>
        <time>2011-09-11T12:46:40Z</time>
      </trkpt>
      <trkpt lat="45.78045" lon="4.84203">
        <ele>182.8</ele>
        <time>2011-09-11T12:46:42Z</time>
      </trkpt>
      <trkpt lat="45.78035" lon="4.84197">
        <ele>183.5</ele>
        <time>2011-09-11T12:46:44Z</time>
      </trkpt>
      <trkpt lat="45.78025" lon="4.8419">
        <ele>184.1</ele>
        <time>2011-09-11T12:46:46Z</time>
      </trkpt>
      <trkpt lat="45.78016" lon="4.84183">
        <ele>183.8</ele>
        <time>2011-09-11T12:46:48Z</time>
      </trkpt>
      <trkpt lat="45.78007" lon="4.84177">
        <ele>181.5</ele>
        <time>2011-09-11T12:46:50Z</time>
      </trkpt>
      <trkpt lat="45.77996" lon="4.84169">
        <ele>179.9</ele>
        <time>2011-09-11T12:46:53Z</time>
      </trkpt>
      <trkpt lat="45.77984" lon="4.84162">
        <ele>179.6</ele>
        <time>2011-09-11T12:46:56Z</time>
      </trkpt>
      <trkpt lat="45.77971" lon="4.84158">
        <ele>179.4</ele>
        <time>2011-09-11T12:46:59Z</time>
      </trkpt>
      <trkpt lat="45.77961" lon="4.84154">
        <ele>179.8</ele>
        <time>2011-09-11T12:47:02Z</time>
      </trkpt>
      <trkpt lat="45.77952" lon="4.84146">
        <ele>180.3</ele>
        <time>2011-09-11T12:47:06Z</time>
      </trkpt>
      <trkpt lat="45.77947" lon="4.84133">
        <ele>180.7</ele>
        <time>2011-09-11T12:47:09Z</time>
      </trkpt>
      <trkpt lat="45.77954" lon="4.84114">
        <ele>181.2</ele>
        <time>2011-09-11T12:47:13Z</time>
      </trkpt>
      <trkpt lat="45.77962" lon="4.84104">
        <ele>182.1</ele>
        <time>2011-09-11T12:47:18Z</time>
      </trkpt>
      <trkpt lat="45.77969" lon="4.84095">
        <ele>183</ele>
        <time>2011-09-11T12:47:24Z</time>
      </trkpt>
      <trkpt lat="45.77978" lon="4.84085">
        <ele>184.8</ele>
        <time>2011-09-11T12:47:32Z</time>
      </trkpt>
      <trkpt lat="45.77987" lon="4.84078">
        <ele>186.6</ele>
        <time>2011-09-11T12:47:40Z</time>
      </trkpt>
      <trkpt lat="45.77996" lon="4.84066">
        <ele>187.8</ele>
        <time>2011-09-11T12:47:44Z</time>
      </trkpt>
      <trkpt lat="45.78003" lon="4.84053">
        <ele>189.9</ele>
        <time>2011-09-11T12:47:47Z</time>
      </trkpt>
      <trkpt lat="45.78018" lon="4.84041">
        <ele>192</ele>
        <time>2011-09-11T12:47:52Z</time>
      </trkpt>
      <trkpt lat="45.78027" lon="4.84035">
        <ele>193.4</ele>
        <time>2011-09-11T12:47:58Z</time>
      </trkpt>
      <trkpt lat="45.78033" lon="4.84026">
        <ele>194.7</ele>
        <time>2011-09-11T12:48:04Z</time>
      </trkpt>
      <trkpt lat="45.78041" lon="4.84018">
        <ele>196.1</ele>
        <time>2011-09-11T12:48:09Z</time>
      </trkpt>
      <trkpt lat="45.78052" lon="4.8401">
        <ele>197.5</ele>
        <time>2011-09-11T12:48:15Z</time>
      </trkpt>
      <trkpt lat="45.78063" lon="4.84001">
        <ele>198.4</ele>
        <time>2011-09-11T12:48:24Z</time>
      </trkpt>
      <trkpt lat="45.78076" lon="4.83992">
        <ele>199.3</ele>
        <time>2011-09-11T12:48:34Z</time>
      </trkpt>
      <trkpt lat="45.78081" lon="4.84004">
        <ele>200.9</ele>
        <time>2011-09-11T12:48:48Z</time>
      </trkpt>
      <trkpt lat="45.78092" lon="4.83995">
        <ele>202.5</ele>
        <time>2011-09-11T12:49:06Z</time>
      </trkpt>
      <trkpt lat="45.78101" lon="4.83985">
        <ele>204.2</ele>
        <time>2011-09-11T12:49:12Z</time>
      </trkpt>
      <trkpt lat="45.78111" lon="4.83975">
        <ele>204.9</ele>
        <time>2011-09-11T12:49:18Z</time>
      </trkpt>
      <trkpt lat="45.78121" lon="4.83965">
        <ele>205.6</ele>
        <time>2011-09-11T12:49:24Z</time>
      </trkpt>
      <trkpt lat="45.78132" lon="4.83956">
        <ele>206.4</ele>
        <time>2011-09-11T12:49:31Z</time>
      </trkpt>
      <trkpt lat="45.7814" lon="4.83946">
        <ele>207.1</ele>
        <time>2011-09-11T12:49:38Z</time>
      </trkpt>
      <trkpt lat="45.7815" lon="4.83942">
        <ele>207.5</ele>
        <time>2011-09-11T12:49:44Z</time>
      </trkpt>
      <trkpt lat="45.78154" lon="4.83931">
        <ele>207.8</ele>
        <time>2011-09-11T12:49:52Z</time>
      </trkpt>
      <trkpt lat="45.78151" lon="4.83916">
        <ele>208.2</ele>
        <time>2011-09-11T12:49:59Z</time>
      </trkpt>
      <trkpt lat="45.7814" lon="4.83911">
        <ele>208.5</ele>
        <time>2011-09-11T12:50:05Z</time>
      </trkpt>
      <trkpt lat="45.7813" lon="4.83913">
        <ele>208.2</ele>
        <time>2011-09-11T12:50:07Z</time>
      </trkpt>
      <trkpt lat="45.78116" lon="4.83913">
        <ele>207.8</ele>
        <time>2011-09-11T12:50:10Z</time>
      </trkpt>
      <trkpt lat="45.78107" lon="4.83915">
        <ele>207.5</ele>
        <time>2011-09-11T12:50:12Z</time>
      </trkpt>
      <trkpt lat="45.78098" lon="4.83917">
        <ele>207.1</ele>
        <time>2011-09-11T12:50:14Z</time>
      </trkpt>
      <trkpt lat="45.78086" lon="4.8392">
        <ele>207.7</ele>
        <time>2011-09-11T12:50:17Z</time>
      </trkpt>
      <trkpt lat="45.78075" lon="4.83922">
        <ele>208.4</ele>
        <time>2011-09-11T12:50:22Z</time>
      </trkpt>
      <trkpt lat="45.78065" lon="4.83917">
        <ele>209</ele>
        <time>2011-09-11T12:50:25Z</time>
      </trkpt>
      <trkpt lat="45.78059" lon="4.83905">
        <ele>210</ele>
        <time>2011-09-11T12:50:30Z</time>
      </trkpt>
      <trkpt lat="45.7806" lon="4.83891">
        <ele>211</ele>
        <time>2011-09-11T12:50:36Z</time>
      </trkpt>
      <trkpt lat="45.78065" lon="4.83877">
        <ele>212</ele>
        <time>2011-09-11T12:50:42Z</time>
      </trkpt>
      <trkpt lat="45.78069" lon="4.83864">
        <ele>213</ele>
        <time>2011-09-11T12:50:48Z</time>
      </trkpt>
      <trkpt lat="45.78078" lon="4.83855">
        <ele>214</ele>
        <time>2011-09-11T12:50:54Z</time>
      </trkpt>
      <trkpt lat="45.78086" lon="4.83846">
        <ele>215</ele>
        <time>2011-09-11T12:50:59Z</time>
      </trkpt>
      <trkpt lat="45.78092" lon="4.83836">
        <ele>216.7</ele>
        <time>2011-09-11T12:51:05Z</time>
      </trkpt>
      <trkpt lat="45.781" lon="4.83827">
        <ele>218.5</ele>
        <time>2011-09-11T12:51:10Z</time>
      </trkpt>
      <trkpt lat="45.78106" lon="4.83818">
        <ele>219.2</ele>
        <time>2011-09-11T12:51:15Z</time>
      </trkpt>
      <trkpt lat="45.78115" lon="4.83806">
        <ele>219.9</ele>
        <time>2011-09-11T12:51:19Z</time>
      </trkpt>
      <trkpt lat="45.78123" lon="4.83797">
        <ele>220.6</ele>
        <time>2011-09-11T12:51:23Z</time>
      </trkpt>
      <trkpt lat="45.78132" lon="4.83789">
        <ele>221.4</ele>
        <time>2011-09-11T12:51:27Z</time>
      </trkpt>
      <trkpt lat="45.7814" lon="4.83779">
        <ele>222.1</ele>
        <time>2011-09-11T12:51:33Z</time>
      </trkpt>
      <trkpt lat="45.78149" lon="4.83771">
        <ele>222.8</ele>
        <time>2011-09-11T12:51:39Z</time>
      </trkpt>
      <trkpt lat="45.78158" lon="4.83765">
        <ele>224</ele>
        <time>2011-09-11T12:51:45Z</time>
      </trkpt>
      <trkpt lat="45.78165" lon="4.83755">
        <ele>225.2</ele>
        <time>2011-09-11T12:51:49Z</time>
      </trkpt>
      <trkpt lat="45.78172" lon="4.83744">
        <ele>226.4</ele>
        <time>2011-09-11T12:51:54Z</time>
      </trkpt>
      <trkpt lat="45.78179" lon="4.83734">
        <ele>226.8</ele>
        <time>2011-09-11T12:51:59Z</time>
      </trkpt>
      <trkpt lat="45.78185" lon="4.83717">
        <ele>227.3</ele>
        <time>2011-09-11T12:52:07Z</time>
      </trkpt>
      <trkpt lat="45.7819" lon="4.83703">
        <ele>227.6</ele>
        <time>2011-09-11T12:52:13Z</time>
      </trkpt>
      <trkpt lat="45.78196" lon="4.83687">
        <ele>228</ele>
        <time>2011-09-11T12:52:17Z</time>
      </trkpt>
      <trkpt lat="45.782" lon="4.83672">
        <ele>228.4</ele>
        <time>2011-09-11T12:52:21Z</time>
      </trkpt>
      <trkpt lat="45.782" lon="4.83657">
        <ele>228.7</ele>
        <time>2011-09-11T12:52:26Z</time>
      </trkpt>
      <trkpt lat="45.78197" lon="4.83641">
        <ele>229.1</ele>
        <time>2011-09-11T12:52:31Z</time>
      </trkpt>
      <trkpt lat="45.78194" lon="4.83627">
        <ele>229.5</ele>
        <time>2011-09-11T12:52:36Z</time>
      </trkpt>
      <trkpt lat="45.78191" lon="4.83613">
        <ele>229.4</ele>
        <time>2011-09-11T12:52:41Z</time>
      </trkpt>
      <trkpt lat="45.78186" lon="4.83601">
        <ele>229.3</ele>
        <time>2011-09-11T12:52:46Z</time>
      </trkpt>
      <trkpt lat="45.78183" lon="4.83586">
        <ele>229.8</ele>
        <time>2011-09-11T12:52:50Z</time>
      </trkpt>
      <trkpt lat="45.78177" lon="4.83573">
        <ele>230.4</ele>
        <time>2011-09-11T12:52:55Z</time>
      </trkpt>
      <trkpt lat="45.78169" lon="4.83562">
        <ele>231.7</ele>
        <time>2011-09-11T12:53:00Z</time>
      </trkpt>
      <trkpt lat="45.78162" lon="4.83554">
        <ele>233.2</ele>
        <time>2011-09-11T12:53:05Z</time>
      </trkpt>
      <trkpt lat="45.78152" lon="4.83551">
        <ele>234.6</ele>
        <time>2011-09-11T12:53:10Z</time>
      </trkpt>
      <trkpt lat="45.78143" lon="4.83547">
        <ele>236.1</ele>
        <time>2011-09-11T12:53:14Z</time>
      </trkpt>
      <trkpt lat="45.78132" lon="4.83541">
        <ele>237.5</ele>
        <time>2011-09-11T12:53:19Z</time>
      </trkpt>
      <trkpt lat="45.78123" lon="4.83549">
        <ele>239</ele>
        <time>2011-09-11T12:53:24Z</time>
      </trkpt>
      <trkpt lat="45.78119" lon="4.83561">
        <ele>240.5</ele>
        <time>2011-09-11T12:53:27Z</time>
      </trkpt>
      <trkpt lat="45.78117" lon="4.83574">
        <ele>241.9</ele>
        <time>2011-09-11T12:53:30Z</time>
      </trkpt>
      <trkpt lat="45.78115" lon="4.83587">
        <ele>243.4</ele>
        <time>2011-09-11T12:53:33Z</time>
      </trkpt>
      <trkpt lat="45.78113" lon="4.83602">
        <ele>243.5</ele>
        <time>2011-09-11T12:53:36Z</time>
      </trkpt>
      <trkpt lat="45.78108" lon="4.83615">
        <ele>244.4</ele>
        <time>2011-09-11T12:53:39Z</time>
      </trkpt>
      <trkpt lat="45.78103" lon="4.83626">
        <ele>244.4</ele>
        <time>2011-09-11T12:53:42Z</time>
      </trkpt>
      <trkpt lat="45.78093" lon="4.83627">
        <ele>244.8</ele>
        <time>2011-09-11T12:53:51Z</time>
      </trkpt>
      <trkpt lat="45.78083" lon="4.8363">
        <ele>245.3</ele>
        <time>2011-09-11T12:54:00Z</time>
      </trkpt>
      <trkpt lat="45.78072" lon="4.83631">
        <ele>245.7</ele>
        <time>2011-09-11T12:54:04Z</time>
      </trkpt>
      <trkpt lat="45.78063" lon="4.83628">
        <ele>246.2</ele>
        <time>2011-09-11T12:54:07Z</time>
      </trkpt>
      <trkpt lat="45.78054" lon="4.83624">
        <ele>246.6</ele>
        <time>2011-09-11T12:54:11Z</time>
      </trkpt>
      <trkpt lat="45.78044" lon="4.83625">
        <ele>247.1</ele>
        <time>2011-09-11T12:54:16Z</time>
      </trkpt>
      <trkpt lat="45.78035" lon="4.83627">
        <ele>247.5</ele>
        <time>2011-09-11T12:54:21Z</time>
      </trkpt>
      <trkpt lat="45.78024" lon="4.83627">
        <ele>248</ele>
        <time>2011-09-11T12:54:27Z</time>
      </trkpt>
      <trkpt lat="45.78014" lon="4.83627">
        <ele>249.1</ele>
        <time>2011-09-11T12:54:32Z</time>
      </trkpt>
      <trkpt lat="45.78005" lon="4.83626">
        <ele>249.5</ele>
        <time>2011-09-11T12:54:36Z</time>
      </trkpt>
      <trkpt lat="45.77993" lon="4.83624">
        <ele>250</ele>
        <time>2011-09-11T12:54:40Z</time>
      </trkpt>
      <trkpt lat="45.77984" lon="4.8362">
        <ele>250</ele>
        <time>2011-09-11T12:54:45Z</time>
      </trkpt>
      <trkpt lat="45.77977" lon="4.83612">
        <ele>250</ele>
        <time>2011-09-11T12:55:08Z</time>
      </trkpt>
      <trkpt lat="45.77977" lon="4.83599">
        <ele>250</ele>
        <time>2011-09-11T12:55:20Z</time>
      </trkpt>
      <trkpt lat="45.77976" lon="4.83584">
        <ele>250</ele>
        <time>2011-09-11T12:56:01Z</time>
      </trkpt>
      <trkpt lat="45.77988" lon="4.83585">
        <ele>250</ele>
        <time>2011-09-11T12:56:06Z</time>
      </trkpt>
      <trkpt lat="45.77984" lon="4.836">
        <ele>250</ele>
        <time>2011-09-11T12:56:26Z</time>
      </trkpt>
      <trkpt lat="45.77974" lon="4.83603">
        <ele>250</ele>
        <time>2011-09-11T12:56:59Z</time>
      </trkpt>
      <trkpt lat="45.77968" lon="4.83616">
        <ele>250</ele>
        <time>2011-09-11T12:57:45Z</time>
      </trkpt>
      <trkpt lat="45.77974" lon="4.83605">
        <ele>250</ele>
        <time>2011-09-11T12:58:10Z</time>
      </trkpt>
      <trkpt lat="45.77965" lon="4.83611">
        <ele>250</ele>
        <time>2011-09-11T12:58:40Z</time>
      </trkpt>
      <trkpt lat="45.77972" lon="4.83603">
        <ele>250</ele>
        <time>2011-09-11T12:59:24Z</time>
      </trkpt>
      <trkpt lat="45.7798" lon="4.8359">
        <ele>249.7</ele>
        <time>2011-09-11T12:59:43Z</time>
      </trkpt>
      <trkpt lat="45.77979" lon="4.83604">
        <ele>249.5</ele>
        <time>2011-09-11T13:00:04Z</time>
      </trkpt>
      <trkpt lat="45.77976" lon="4.83589">
        <ele>249.2</ele>
        <time>2011-09-11T13:00:32Z</time>
      </trkpt>
      <trkpt lat="45.77973" lon="4.83603">
        <ele>248.9</ele>
        <time>2011-09-11T13:01:06Z</time>
      </trkpt>
      <trkpt lat="45.77972" lon="4.8362">
        <ele>248.6</ele>
        <time>2011-09-11T13:01:10Z</time>
      </trkpt>
      <trkpt lat="45.77972" lon="4.83636">
        <ele>248.2</ele>
        <time>2011-09-11T13:01:13Z</time>
      </trkpt>
      <trkpt lat="45.77972" lon="4.83654">
        <ele>247.7</ele>
        <time>2011-09-11T13:01:16Z</time>
      </trkpt>
      <trkpt lat="45.7797" lon="4.83672">
        <ele>247.6</ele>
        <time>2011-09-11T13:01:19Z</time>
      </trkpt>
      <trkpt lat="45.77968" lon="4.83686">
        <ele>247.5</ele>
        <time>2011-09-11T13:01:22Z</time>
      </trkpt>
      <trkpt lat="45.77966" lon="4.83701">
        <ele>247.5</ele>
        <time>2011-09-11T13:01:25Z</time>
      </trkpt>
      <trkpt lat="45.77966" lon="4.83716">
        <ele>247.4</ele>
        <time>2011-09-11T13:01:27Z</time>
      </trkpt>
      <trkpt lat="45.77966" lon="4.83731">
        <ele>247.5</ele>
        <time>2011-09-11T13:01:29Z</time>
      </trkpt>
      <trkpt lat="45.77953" lon="4.83736">
        <ele>247.7</ele>
        <time>2011-09-11T13:01:32Z</time>
      </trkpt>
      <trkpt lat="45.7794" lon="4.83733">
        <ele>247.9</ele>
        <time>2011-09-11T13:01:35Z</time>
      </trkpt>
      <trkpt lat="45.77931" lon="4.83732">
        <ele>247.9</ele>
        <time>2011-09-11T13:01:37Z</time>
      </trkpt>
      <trkpt lat="45.77922" lon="4.83732">
        <ele>247.9</ele>
        <time>2011-09-11T13:01:39Z</time>
      </trkpt>
      <trkpt lat="45.77911" lon="4.8373">
        <ele>248.1</ele>
        <time>2011-09-11T13:01:42Z</time>
      </trkpt>
      <trkpt lat="45.779" lon="4.83729">
        <ele>248.6</ele>
        <time>2011-09-11T13:01:45Z</time>
      </trkpt>
      <trkpt lat="45.77887" lon="4.83728">
        <ele>248.8</ele>
        <time>2011-09-11T13:01:48Z</time>
      </trkpt>
      <trkpt lat="45.77874" lon="4.83727">
        <ele>248.6</ele>
        <time>2011-09-11T13:01:51Z</time>
      </trkpt>
      <trkpt lat="45.77861" lon="4.83725">
        <ele>248.5</ele>
        <time>2011-09-11T13:01:54Z</time>
      </trkpt>
      <trkpt lat="45.77852" lon="4.83713">
        <ele>248.3</ele>
        <time>2011-09-11T13:02:07Z</time>
      </trkpt>
      <trkpt lat="45.77842" lon="4.8371">
        <ele>248.1</ele>
        <time>2011-09-11T13:02:09Z</time>
      </trkpt>
      <trkpt lat="45.77832" lon="4.83711">
        <ele>247.9</ele>
        <time>2011-09-11T13:02:11Z</time>
      </trkpt>
      <trkpt lat="45.77821" lon="4.83714">
        <ele>247.7</ele>
        <time>2011-09-11T13:02:13Z</time>
      </trkpt>
      <trkpt lat="45.77809" lon="4.83716">
        <ele>247.7</ele>
        <time>2011-09-11T13:02:15Z</time>
      </trkpt>
      <trkpt lat="45.77799" lon="4.83716">
        <ele>247.7</ele>
        <time>2011-09-11T13:02:17Z</time>
      </trkpt>
      <trkpt lat="45.77788" lon="4.83717">
        <ele>247.7</ele>
        <time>2011-09-11T13:02:20Z</time>
      </trkpt>
      <trkpt lat="45.77778" lon="4.83719">
        <ele>247.6</ele>
        <time>2011-09-11T13:02:24Z</time>
      </trkpt>
      <trkpt lat="45.77767" lon="4.83719">
        <ele>247.5</ele>
        <time>2011-09-11T13:02:28Z</time>
      </trkpt>
      <trkpt lat="45.77758" lon="4.83719">
        <ele>247.6</ele>
        <time>2011-09-11T13:02:31Z</time>
      </trkpt>
      <trkpt lat="45.77746" lon="4.83717">
        <ele>247.7</ele>
        <time>2011-09-11T13:02:35Z</time>
      </trkpt>
      <trkpt lat="45.77736" lon="4.83714">
        <ele>247.8</ele>
        <time>2011-09-11T13:02:38Z</time>
      </trkpt>
      <trkpt lat="45.77724" lon="4.83713">
        <ele>247.9</ele>
        <time>2011-09-11T13:02:41Z</time>
      </trkpt>
      <trkpt lat="45.77714" lon="4.83712">
        <ele>248</ele>
        <time>2011-09-11T13:02:43Z</time>
      </trkpt>
      <trkpt lat="45.77704" lon="4.83711">
        <ele>248.1</ele>
        <time>2011-09-11T13:02:45Z</time>
      </trkpt>
      <trkpt lat="45.77694" lon="4.83711">
        <ele>248.2</ele>
        <time>2011-09-11T13:02:47Z</time>
      </trkpt>
      <trkpt lat="45.77684" lon="4.83707">
        <ele>248.3</ele>
        <time>2011-09-11T13:02:49Z</time>
      </trkpt>
      <trkpt lat="45.77672" lon="4.83694">
        <ele>248.7</ele>
        <time>2011-09-11T13:02:51Z</time>
      </trkpt>
      <trkpt lat="45.77665" lon="4.83679">
        <ele>248.9</ele>
        <time>2011-09-11T13:02:53Z</time>
      </trkpt>
      <trkpt lat="45.7766" lon="4.83662">
        <ele>248.6</ele>
        <time>2011-09-11T13:02:55Z</time>
      </trkpt>
      <trkpt lat="45.77656" lon="4.83647">
        <ele>248.5</ele>
        <time>2011-09-11T13:02:57Z</time>
      </trkpt>
      <trkpt lat="45.77652" lon="4.83634">
        <ele>248.5</ele>
        <time>2011-09-11T13:02:59Z</time>
      </trkpt>
      <trkpt lat="45.77648" lon="4.83616">
        <ele>248.4</ele>
        <time>2011-09-11T13:03:02Z</time>
      </trkpt>
      <trkpt lat="45.77633" lon="4.83607">
        <ele>248.3</ele>
        <time>2011-09-11T13:03:29Z</time>
      </trkpt>
      <trkpt lat="45.77624" lon="4.83595">
        <ele>248.2</ele>
        <time>2011-09-11T13:04:19Z</time>
      </trkpt>
      <trkpt lat="45.77613" lon="4.83592">
        <ele>248.1</ele>
        <time>2011-09-11T13:05:36Z</time>
      </trkpt>
      <trkpt lat="45.77603" lon="4.83594">
        <ele>248</ele>
        <time>2011-09-11T13:05:39Z</time>
      </trkpt>
      <trkpt lat="45.77593" lon="4.83595">
        <ele>247.7</ele>
        <time>2011-09-11T13:05:42Z</time>
      </trkpt>
      <trkpt lat="45.77582" lon="4.83595">
        <ele>247.1</ele>
        <time>2011-09-11T13:05:46Z</time>
      </trkpt>
      <trkpt lat="45.77573" lon="4.83597">
        <ele>246.5</ele>
        <time>2011-09-11T13:05:52Z</time>
      </trkpt>
      <trkpt lat="45.77564" lon="4.83602">
        <ele>246.3</ele>
        <time>2011-09-11T13:05:59Z</time>
      </trkpt>
      <trkpt lat="45.7755" lon="4.83601">
        <ele>246.1</ele>
        <time>2011-09-11T13:06:02Z</time>
      </trkpt>
      <trkpt lat="45.77536" lon="4.83602">
        <ele>245.9</ele>
        <time>2011-09-11T13:06:04Z</time>
      </trkpt>
      <trkpt lat="45.77521" lon="4.83602">
        <ele>245.7</ele>
        <time>2011-09-11T13:06:06Z</time>
      </trkpt>
      <trkpt lat="45.77507" lon="4.83597">
        <ele>245</ele>
        <time>2011-09-11T13:06:07Z</time>
      </trkpt>
      <trkpt lat="45.77498" lon="4.83597">
        <ele>244.3</ele>
        <time>2011-09-11T13:06:08Z</time>
      </trkpt>
      <trkpt lat="45.77485" lon="4.836">
        <ele>241.8</ele>
        <time>2011-09-11T13:06:10Z</time>
      </trkpt>
      <trkpt lat="45.77478" lon="4.83612">
        <ele>239.4</ele>
        <time>2011-09-11T13:06:13Z</time>
      </trkpt>
      <trkpt lat="45.77475" lon="4.83625">
        <ele>237.1</ele>
        <time>2011-09-11T13:06:16Z</time>
      </trkpt>
      <trkpt lat="45.77463" lon="4.83627">
        <ele>234.8</ele>
        <time>2011-09-11T13:06:20Z</time>
      </trkpt>
      <trkpt lat="45.77452" lon="4.83629">
        <ele>232.5</ele>
        <time>2011-09-11T13:06:25Z</time>
      </trkpt>
      <trkpt lat="45.77442" lon="4.83635">
        <ele>230.3</ele>
        <time>2011-09-11T13:06:29Z</time>
      </trkpt>
      <trkpt lat="45.77436" lon="4.83647">
        <ele>228</ele>
        <time>2011-09-11T13:06:52Z</time>
      </trkpt>
      <trkpt lat="45.77436" lon="4.8366">
        <ele>225.7</ele>
        <time>2011-09-11T13:07:02Z</time>
      </trkpt>
      <trkpt lat="45.77429" lon="4.83673">
        <ele>223.5</ele>
        <time>2011-09-11T13:07:24Z</time>
      </trkpt>
      <trkpt lat="45.7742" lon="4.83672">
        <ele>221.7</ele>
        <time>2011-09-11T13:07:46Z</time>
      </trkpt>
      <trkpt lat="45.77413" lon="4.83664">
        <ele>220.9</ele>
        <time>2011-09-11T13:07:59Z</time>
      </trkpt>
      <trkpt lat="45.77403" lon="4.83663">
        <ele>221.8</ele>
        <time>2011-09-11T13:08:12Z</time>
      </trkpt>
      <trkpt lat="45.77395" lon="4.83656">
        <ele>222.7</ele>
        <time>2011-09-11T13:08:21Z</time>
      </trkpt>
      <trkpt lat="45.77389" lon="4.83645">
        <ele>223.6</ele>
        <time>2011-09-11T13:08:27Z</time>
      </trkpt>
      <trkpt lat="45.77382" lon="4.83635">
        <ele>224.5</ele>
        <time>2011-09-11T13:08:33Z</time>
      </trkpt>
      <trkpt lat="45.77376" lon="4.83624">
        <ele>225.5</ele>
        <time>2011-09-11T13:08:38Z</time>
      </trkpt>
      <trkpt lat="45.77369" lon="4.83614">
        <ele>226.4</ele>
        <time>2011-09-11T13:08:42Z</time>
      </trkpt>
      <trkpt lat="45.77362" lon="4.83604">
        <ele>227.3</ele>
        <time>2011-09-11T13:08:45Z</time>
      </trkpt>
      <trkpt lat="45.77357" lon="4.83592">
        <ele>228.2</ele>
        <time>2011-09-11T13:08:49Z</time>
      </trkpt>
      <trkpt lat="45.77348" lon="4.83582">
        <ele>230.4</ele>
        <time>2011-09-11T13:08:54Z</time>
      </trkpt>
      <trkpt lat="45.77339" lon="4.83575">
        <ele>232.5</ele>
        <time>2011-09-11T13:08:58Z</time>
      </trkpt>
      <trkpt lat="45.7733" lon="4.83567">
        <ele>232.5</ele>
        <time>2011-09-11T13:09:01Z</time>
      </trkpt>
      <trkpt lat="45.77322" lon="4.83561">
        <ele>232.5</ele>
        <time>2011-09-11T13:09:04Z</time>
      </trkpt>
      <trkpt lat="45.77312" lon="4.83553">
        <ele>232.5</ele>
        <time>2011-09-11T13:09:08Z</time>
      </trkpt>
      <trkpt lat="45.77304" lon="4.83544">
        <ele>232.5</ele>
        <time>2011-09-11T13:09:11Z</time>
      </trkpt>
      <trkpt lat="45.77295" lon="4.83537">
        <ele>232.5</ele>
        <time>2011-09-11T13:09:14Z</time>
      </trkpt>
      <trkpt lat="45.77284" lon="4.8353">
        <ele>232.5</ele>
        <time>2011-09-11T13:09:17Z</time>
      </trkpt>
      <trkpt lat="45.77273" lon="4.83519">
        <ele>230.9</ele>
        <time>2011-09-11T13:09:20Z</time>
      </trkpt>
      <trkpt lat="45.77263" lon="4.83512">
        <ele>229.3</ele>
        <time>2011-09-11T13:09:23Z</time>
      </trkpt>
      <trkpt lat="45.77252" lon="4.83515">
        <ele>227.6</ele>
        <time>2011-09-11T13:09:25Z</time>
      </trkpt>
      <trkpt lat="45.77239" lon="4.83525">
        <ele>224.7</ele>
        <time>2011-09-11T13:09:27Z</time>
      </trkpt>
      <trkpt lat="45.77224" lon="4.83536">
        <ele>221.8</ele>
        <time>2011-09-11T13:09:29Z</time>
      </trkpt>
      <trkpt lat="45.77209" lon="4.8355">
        <ele>220.2</ele>
        <time>2011-09-11T13:09:31Z</time>
      </trkpt>
      <trkpt lat="45.77201" lon="4.83558">
        <ele>220.1</ele>
        <time>2011-09-11T13:09:32Z</time>
      </trkpt>
      <trkpt lat="45.77193" lon="4.83566">
        <ele>220</ele>
        <time>2011-09-11T13:09:33Z</time>
      </trkpt>
      <trkpt lat="45.77182" lon="4.83573">
        <ele>219.9</ele>
        <time>2011-09-11T13:09:35Z</time>
      </trkpt>
      <trkpt lat="45.77171" lon="4.83569">
        <ele>219.8</ele>
        <time>2011-09-11T13:09:39Z</time>
      </trkpt>
      <trkpt lat="45.7717" lon="4.83551">
        <ele>219.7</ele>
        <time>2011-09-11T13:09:42Z</time>
      </trkpt>
      <trkpt lat="45.77168" lon="4.83535">
        <ele>221.5</ele>
        <time>2011-09-11T13:09:45Z</time>
      </trkpt>
      <trkpt lat="45.77167" lon="4.83521">
        <ele>223.4</ele>
        <time>2011-09-11T13:09:48Z</time>
      </trkpt>
      <trkpt lat="45.77164" lon="4.83506">
        <ele>225.2</ele>
        <time>2011-09-11T13:09:52Z</time>
      </trkpt>
      <trkpt lat="45.77166" lon="4.8349">
        <ele>227</ele>
        <time>2011-09-11T13:09:57Z</time>
      </trkpt>
      <trkpt lat="45.77165" lon="4.83474">
        <ele>228.8</ele>
        <time>2011-09-11T13:10:02Z</time>
      </trkpt>
      <trkpt lat="45.77163" lon="4.8346">
        <ele>230.6</ele>
        <time>2011-09-11T13:10:05Z</time>
      </trkpt>
      <trkpt lat="45.77161" lon="4.83446">
        <ele>231</ele>
        <time>2011-09-11T13:10:08Z</time>
      </trkpt>
      <trkpt lat="45.7716" lon="4.8343">
        <ele>231.4</ele>
        <time>2011-09-11T13:10:12Z</time>
      </trkpt>
      <trkpt lat="45.77161" lon="4.83417">
        <ele>231.7</ele>
        <time>2011-09-11T13:10:15Z</time>
      </trkpt>
      <trkpt lat="45.77162" lon="4.834">
        <ele>232.1</ele>
        <time>2011-09-11T13:10:19Z</time>
      </trkpt>
      <trkpt lat="45.77165" lon="4.83385">
        <ele>232.5</ele>
        <time>2011-09-11T13:10:23Z</time>
      </trkpt>
      <trkpt lat="45.77166" lon="4.8337">
        <ele>232.4</ele>
        <time>2011-09-11T13:10:27Z</time>
      </trkpt>
      <trkpt lat="45.77165" lon="4.83355">
        <ele>232.3</ele>
        <time>2011-09-11T13:10:31Z</time>
      </trkpt>
      <trkpt lat="45.77159" lon="4.83337">
        <ele>232.2</ele>
        <time>2011-09-11T13:10:35Z</time>
      </trkpt>
      <trkpt lat="45.77153" lon="4.83326">
        <ele>230.9</ele>
        <time>2011-09-11T13:10:38Z</time>
      </trkpt>
      <trkpt lat="45.77149" lon="4.8331">
        <ele>229.6</ele>
        <time>2011-09-11T13:10:42Z</time>
      </trkpt>
      <trkpt lat="45.77144" lon="4.83294">
        <ele>228.4</ele>
        <time>2011-09-11T13:10:57Z</time>
      </trkpt>
      <trkpt lat="45.77137" lon="4.83283">
        <ele>226.6</ele>
        <time>2011-09-11T13:12:47Z</time>
      </trkpt>
      <trkpt lat="45.77129" lon="4.83276">
        <ele>224.9</ele>
        <time>2011-09-11T13:13:28Z</time>
      </trkpt>
      <trkpt lat="45.77125" lon="4.83261">
        <ele>223.2</ele>
        <time>2011-09-11T13:13:50Z</time>
      </trkpt>
      <trkpt lat="45.77124" lon="4.83245">
        <ele>221.5</ele>
        <time>2011-09-11T13:13:54Z</time>
      </trkpt>
      <trkpt lat="45.77125" lon="4.83226">
        <ele>219.7</ele>
        <time>2011-09-11T13:13:57Z</time>
      </trkpt>
      <trkpt lat="45.77125" lon="4.83213">
        <ele>218.2</ele>
        <time>2011-09-11T13:13:59Z</time>
      </trkpt>
      <trkpt lat="45.77125" lon="4.83199">
        <ele>216.6</ele>
        <time>2011-09-11T13:14:01Z</time>
      </trkpt>
      <trkpt lat="45.77124" lon="4.83184">
        <ele>215.1</ele>
        <time>2011-09-11T13:14:04Z</time>
      </trkpt>
      <trkpt lat="45.7712" lon="4.83166">
        <ele>214.7</ele>
        <time>2011-09-11T13:14:09Z</time>
      </trkpt>
      <trkpt lat="45.77108" lon="4.83164">
        <ele>214.4</ele>
        <time>2011-09-11T13:14:11Z</time>
      </trkpt>
      <trkpt lat="45.77097" lon="4.83162">
        <ele>212.7</ele>
        <time>2011-09-11T13:14:13Z</time>
      </trkpt>
      <trkpt lat="45.77088" lon="4.8316">
        <ele>211.5</ele>
        <time>2011-09-11T13:14:15Z</time>
      </trkpt>
      <trkpt lat="45.77076" lon="4.83159">
        <ele>210.2</ele>
        <time>2011-09-11T13:14:17Z</time>
      </trkpt>
      <trkpt lat="45.77064" lon="4.83157">
        <ele>208.9</ele>
        <time>2011-09-11T13:14:19Z</time>
      </trkpt>
      <trkpt lat="45.77053" lon="4.83156">
        <ele>207.6</ele>
        <time>2011-09-11T13:14:21Z</time>
      </trkpt>
      <trkpt lat="45.77043" lon="4.83155">
        <ele>206.4</ele>
        <time>2011-09-11T13:14:23Z</time>
      </trkpt>
      <trkpt lat="45.77033" lon="4.83155">
        <ele>205.1</ele>
        <time>2011-09-11T13:14:27Z</time>
      </trkpt>
      <trkpt lat="45.7702" lon="4.83158">
        <ele>203.8</ele>
        <time>2011-09-11T13:14:32Z</time>
      </trkpt>
      <trkpt lat="45.77009" lon="4.8316">
        <ele>202.1</ele>
        <time>2011-09-11T13:14:35Z</time>
      </trkpt>
      <trkpt lat="45.77" lon="4.83161">
        <ele>200.4</ele>
        <time>2011-09-11T13:14:37Z</time>
      </trkpt>
      <trkpt lat="45.76991" lon="4.83163">
        <ele>198.6</ele>
        <time>2011-09-11T13:14:39Z</time>
      </trkpt>
      <trkpt lat="45.76982" lon="4.83168">
        <ele>198.2</ele>
        <time>2011-09-11T13:14:41Z</time>
      </trkpt>
      <trkpt lat="45.7697" lon="4.83177">
        <ele>198</ele>
        <time>2011-09-11T13:14:43Z</time>
      </trkpt>
      <trkpt lat="45.76958" lon="4.83189">
        <ele>197.8</ele>
        <time>2011-09-11T13:14:45Z</time>
      </trkpt>
      <trkpt lat="45.76945" lon="4.83199">
        <ele>196.7</ele>
        <time>2011-09-11T13:14:47Z</time>
      </trkpt>
      <trkpt lat="45.76931" lon="4.83208">
        <ele>195.6</ele>
        <time>2011-09-11T13:14:49Z</time>
      </trkpt>
      <trkpt lat="45.76918" lon="4.83213">
        <ele>194.5</ele>
        <time>2011-09-11T13:14:51Z</time>
      </trkpt>
      <trkpt lat="45.76906" lon="4.83221">
        <ele>193.5</ele>
        <time>2011-09-11T13:14:56Z</time>
      </trkpt>
      <trkpt lat="45.76899" lon="4.83232">
        <ele>192.4</ele>
        <time>2011-09-11T13:15:00Z</time>
      </trkpt>
      <trkpt lat="45.76881" lon="4.83235">
        <ele>191.7</ele>
        <time>2011-09-11T13:16:14Z</time>
      </trkpt>
      <trkpt lat="45.76869" lon="4.83233">
        <ele>190.9</ele>
        <time>2011-09-11T13:16:17Z</time>
      </trkpt>
      <trkpt lat="45.76857" lon="4.83242">
        <ele>190.1</ele>
        <time>2011-09-11T13:16:19Z</time>
      </trkpt>
      <trkpt lat="45.76847" lon="4.83247">
        <ele>189.3</ele>
        <time>2011-09-11T13:16:21Z</time>
      </trkpt>
      <trkpt lat="45.76839" lon="4.83237">
        <ele>188.1</ele>
        <time>2011-09-11T13:16:26Z</time>
      </trkpt>
      <trkpt lat="45.76829" lon="4.83223">
        <ele>186.9</ele>
        <time>2011-09-11T13:16:34Z</time>
      </trkpt>
      <trkpt lat="45.76821" lon="4.83216">
        <ele>186.6</ele>
        <time>2011-09-11T13:16:38Z</time>
      </trkpt>
      <trkpt lat="45.76809" lon="4.83216">
        <ele>186.1</ele>
        <time>2011-09-11T13:16:42Z</time>
      </trkpt>
      <trkpt lat="45.76797" lon="4.83218">
        <ele>185.8</ele>
        <time>2011-09-11T13:16:45Z</time>
      </trkpt>
      <trkpt lat="45.76783" lon="4.83219">
        <ele>185.5</ele>
        <time>2011-09-11T13:16:49Z</time>
      </trkpt>
      <trkpt lat="45.76764" lon="4.83215">
        <ele>185.3</ele>
        <time>2011-09-11T13:17:21Z</time>
      </trkpt>
      <trkpt lat="45.76755" lon="4.83217">
        <ele>185.3</ele>
        <time>2011-09-11T13:17:25Z</time>
      </trkpt>
      <trkpt lat="45.76875" lon="4.82973">
        <ele>185.2</ele>
        <time>2011-09-11T13:18:04Z</time>
      </trkpt>
      <trkpt lat="45.76763" lon="4.83255">
        <ele>185.1</ele>
        <time>2011-09-11T13:18:10Z</time>
      </trkpt>
      <trkpt lat="45.76778" lon="4.83249">
        <ele>185</ele>
        <time>2011-09-11T13:18:14Z</time>
      </trkpt>
      <trkpt lat="45.76791" lon="4.83254">
        <ele>185</ele>
        <time>2011-09-11T13:18:18Z</time>
      </trkpt>
      <trkpt lat="45.76803" lon="4.83258">
        <ele>185</ele>
        <time>2011-09-11T13:18:25Z</time>
      </trkpt>
      <trkpt lat="45.76792" lon="4.83264">
        <ele>184.8</ele>
        <time>2011-09-11T13:18:31Z</time>
      </trkpt>
      <trkpt lat="45.76787" lon="4.83279">
        <ele>185.1</ele>
        <time>2011-09-11T13:18:34Z</time>
      </trkpt>
      <trkpt lat="45.76781" lon="4.8329">
        <ele>184.9</ele>
        <time>2011-09-11T13:18:36Z</time>
      </trkpt>
      <trkpt lat="45.76771" lon="4.83297">
        <ele>184.7</ele>
        <time>2011-09-11T13:18:39Z</time>
      </trkpt>
      <trkpt lat="45.76761" lon="4.83299">
        <ele>184.5</ele>
        <time>2011-09-11T13:18:43Z</time>
      </trkpt>
      <trkpt lat="45.76752" lon="4.83305">
        <ele>184.1</ele>
        <time>2011-09-11T13:18:47Z</time>
      </trkpt>
      <trkpt lat="45.7675" lon="4.83288">
        <ele>184.1</ele>
        <time>2011-09-11T13:19:05Z</time>
      </trkpt>
      <trkpt lat="45.76752" lon="4.83302">
        <ele>184.1</ele>
        <time>2011-09-11T13:19:14Z</time>
      </trkpt>
      <trkpt lat="45.76758" lon="4.83314">
        <ele>184.1</ele>
        <time>2011-09-11T13:19:19Z</time>
      </trkpt>
      <trkpt lat="45.76768" lon="4.8332">
        <ele>183.9</ele>
        <time>2011-09-11T13:19:29Z</time>
      </trkpt>
      <trkpt lat="45.76758" lon="4.83306">
        <ele>183.7</ele>
        <time>2011-09-11T13:19:45Z</time>
      </trkpt>
      <trkpt lat="45.76751" lon="4.83297">
        <ele>183.7</ele>
        <time>2011-09-11T13:20:23Z</time>
      </trkpt>
      <trkpt lat="45.76748" lon="4.83284">
        <ele>183.7</ele>
        <time>2011-09-11T13:20:56Z</time>
      </trkpt>
      <trkpt lat="45.76747" lon="4.83299">
        <ele>183.7</ele>
        <time>2011-09-11T13:21:31Z</time>
      </trkpt>
      <trkpt lat="45.76746" lon="4.83315">
        <ele>183.7</ele>
        <time>2011-09-11T13:21:35Z</time>
      </trkpt>
      <trkpt lat="45.7676" lon="4.83315">
        <ele>183.7</ele>
        <time>2011-09-11T13:25:25Z</time>
      </trkpt>
      <trkpt lat="45.7675" lon="4.83309">
        <ele>183.9</ele>
        <time>2011-09-11T13:26:04Z</time>
      </trkpt>
      <trkpt lat="45.76742" lon="4.83295">
        <ele>183.7</ele>
        <time>2011-09-11T13:26:11Z</time>
      </trkpt>
      <trkpt lat="45.76743" lon="4.8331">
        <ele>183.7</ele>
        <time>2011-09-11T13:26:50Z</time>
      </trkpt>
      <trkpt lat="45.76748" lon="4.8332">
        <ele>183.5</ele>
        <time>2011-09-11T13:27:32Z</time>
      </trkpt>
      <trkpt lat="45.76741" lon="4.8331">
        <ele>183.7</ele>
        <time>2011-09-11T13:27:42Z</time>
      </trkpt>
      <trkpt lat="45.76734" lon="4.83296">
        <ele>183.9</ele>
        <time>2011-09-11T13:27:56Z</time>
      </trkpt>
      <trkpt lat="45.76743" lon="4.83305">
        <ele>184.1</ele>
        <time>2011-09-11T13:28:18Z</time>
      </trkpt>
      <trkpt lat="45.76744" lon="4.83292">
        <ele>184.2</ele>
        <time>2011-09-11T13:28:41Z</time>
      </trkpt>
      <trkpt lat="45.76749" lon="4.83309">
        <ele>184.5</ele>
        <time>2011-09-11T13:28:52Z</time>
      </trkpt>
      <trkpt lat="45.7674" lon="4.833">
        <ele>184.7</ele>
        <time>2011-09-11T13:29:12Z</time>
      </trkpt>
      <trkpt lat="45.76729" lon="4.83293">
        <ele>185</ele>
        <time>2011-09-11T13:29:16Z</time>
      </trkpt>
      <trkpt lat="45.76718" lon="4.83289">
        <ele>185.1</ele>
        <time>2011-09-11T13:29:19Z</time>
      </trkpt>
      <trkpt lat="45.76706" lon="4.83287">
        <ele>185.4</ele>
        <time>2011-09-11T13:29:22Z</time>
      </trkpt>
      <trkpt lat="45.76696" lon="4.83285">
        <ele>185.5</ele>
        <time>2011-09-11T13:29:25Z</time>
      </trkpt>
      <trkpt lat="45.76686" lon="4.83285">
        <ele>185.7</ele>
        <time>2011-09-11T13:29:28Z</time>
      </trkpt>
      <trkpt lat="45.76675" lon="4.83285">
        <ele>185.8</ele>
        <time>2011-09-11T13:29:31Z</time>
      </trkpt>
      <trkpt lat="45.76664" lon="4.83285">
        <ele>185.9</ele>
        <time>2011-09-11T13:29:34Z</time>
      </trkpt>
      <trkpt lat="45.76652" lon="4.83285">
        <ele>186</ele>
        <time>2011-09-11T13:29:37Z</time>
      </trkpt>
      <trkpt lat="45.76637" lon="4.83287">
        <ele>186</ele>
        <time>2011-09-11T13:29:40Z</time>
      </trkpt>
      <trkpt lat="45.76622" lon="4.83292">
        <ele>186</ele>
        <time>2011-09-11T13:29:42Z</time>
      </trkpt>
      <trkpt lat="45.76609" lon="4.83292">
        <ele>186</ele>
        <time>2011-09-11T13:29:44Z</time>
      </trkpt>
      <trkpt lat="45.76599" lon="4.83293">
        <ele>185.5</ele>
        <time>2011-09-11T13:29:46Z</time>
      </trkpt>
      <trkpt lat="45.7659" lon="4.83293">
        <ele>185.1</ele>
        <time>2011-09-11T13:29:49Z</time>
      </trkpt>
      <trkpt lat="45.7658" lon="4.8329">
        <ele>184.6</ele>
        <time>2011-09-11T13:29:52Z</time>
      </trkpt>
      <trkpt lat="45.76566" lon="4.83289">
        <ele>184.5</ele>
        <time>2011-09-11T13:29:55Z</time>
      </trkpt>
      <trkpt lat="45.76554" lon="4.83289">
        <ele>184.5</ele>
        <time>2011-09-11T13:29:58Z</time>
      </trkpt>
      <trkpt lat="45.76543" lon="4.83291">
        <ele>184.4</ele>
        <time>2011-09-11T13:30:01Z</time>
      </trkpt>
      <trkpt lat="45.76533" lon="4.8329">
        <ele>184.3</ele>
        <time>2011-09-11T13:30:04Z</time>
      </trkpt>
      <trkpt lat="45.76517" lon="4.833">
        <ele>184.2</ele>
        <time>2011-09-11T13:30:17Z</time>
      </trkpt>
      <trkpt lat="45.76504" lon="4.83306">
        <ele>184.1</ele>
        <time>2011-09-11T13:30:20Z</time>
      </trkpt>
      <trkpt lat="45.76494" lon="4.83309">
        <ele>184</ele>
        <time>2011-09-11T13:30:22Z</time>
      </trkpt>
      <trkpt lat="45.76484" lon="4.8331">
        <ele>183.9</ele>
        <time>2011-09-11T13:30:24Z</time>
      </trkpt>
      <trkpt lat="45.76475" lon="4.83314">
        <ele>184.3</ele>
        <time>2011-09-11T13:30:27Z</time>
      </trkpt>
      <trkpt lat="45.76463" lon="4.83315">
        <ele>184.6</ele>
        <time>2011-09-11T13:30:30Z</time>
      </trkpt>
      <trkpt lat="45.7645" lon="4.83313">
        <ele>185</ele>
        <time>2011-09-11T13:30:33Z</time>
      </trkpt>
      <trkpt lat="45.76439" lon="4.83311">
        <ele>185</ele>
        <time>2011-09-11T13:30:35Z</time>
      </trkpt>
      <trkpt lat="45.76429" lon="4.8331">
        <ele>185.1</ele>
        <time>2011-09-11T13:30:37Z</time>
      </trkpt>
      <trkpt lat="45.76417" lon="4.83306">
        <ele>185.2</ele>
        <time>2011-09-11T13:30:40Z</time>
      </trkpt>
      <trkpt lat="45.76404" lon="4.83305">
        <ele>185.3</ele>
        <time>2011-09-11T13:30:43Z</time>
      </trkpt>
      <trkpt lat="45.76394" lon="4.83306">
        <ele>185.4</ele>
        <time>2011-09-11T13:30:45Z</time>
      </trkpt>
      <trkpt lat="45.76383" lon="4.83305">
        <ele>185.5</ele>
        <time>2011-09-11T13:30:48Z</time>
      </trkpt>
      <trkpt lat="45.76372" lon="4.83306">
        <ele>185.5</ele>
        <time>2011-09-11T13:30:51Z</time>
      </trkpt>
      <trkpt lat="45.76358" lon="4.83306">
        <ele>185.6</ele>
        <time>2011-09-11T13:30:54Z</time>
      </trkpt>
      <trkpt lat="45.76346" lon="4.83307">
        <ele>185.8</ele>
        <time>2011-09-11T13:30:56Z</time>
      </trkpt>
      <trkpt lat="45.76333" lon="4.83307">
        <ele>186</ele>
        <time>2011-09-11T13:30:58Z</time>
      </trkpt>
      <trkpt lat="45.76323" lon="4.83307">
        <ele>186.2</ele>
        <time>2011-09-11T13:31:00Z</time>
      </trkpt>
      <trkpt lat="45.76311" lon="4.83306">
        <ele>186.4</ele>
        <time>2011-09-11T13:31:03Z</time>
      </trkpt>
      <trkpt lat="45.76298" lon="4.83305">
        <ele>186.5</ele>
        <time>2011-09-11T13:31:06Z</time>
      </trkpt>
      <trkpt lat="45.76287" lon="4.83305">
        <ele>186.5</ele>
        <time>2011-09-11T13:31:09Z</time>
      </trkpt>
      <trkpt lat="45.76278" lon="4.83306">
        <ele>186.6</ele>
        <time>2011-09-11T13:31:11Z</time>
      </trkpt>
      <trkpt lat="45.76265" lon="4.83307">
        <ele>186.5</ele>
        <time>2011-09-11T13:31:14Z</time>
      </trkpt>
      <trkpt lat="45.76253" lon="4.83309">
        <ele>186.3</ele>
        <time>2011-09-11T13:31:17Z</time>
      </trkpt>
      <trkpt lat="45.76242" lon="4.8331">
        <ele>186.1</ele>
        <time>2011-09-11T13:31:20Z</time>
      </trkpt>
      <trkpt lat="45.7623" lon="4.83309">
        <ele>185.9</ele>
        <time>2011-09-11T13:31:23Z</time>
      </trkpt>
      <trkpt lat="45.76217" lon="4.83311">
        <ele>185.6</ele>
        <time>2011-09-11T13:31:26Z</time>
      </trkpt>
      <trkpt lat="45.76203" lon="4.83313">
        <ele>185.4</ele>
        <time>2011-09-11T13:31:29Z</time>
      </trkpt>
      <trkpt lat="45.7619" lon="4.83318">
        <ele>185.1</ele>
        <time>2011-09-11T13:31:31Z</time>
      </trkpt>
      <trkpt lat="45.76177" lon="4.83325">
        <ele>184.3</ele>
        <time>2011-09-11T13:31:33Z</time>
      </trkpt>
      <trkpt lat="45.76165" lon="4.83332">
        <ele>183.5</ele>
        <time>2011-09-11T13:31:35Z</time>
      </trkpt>
      <trkpt lat="45.76152" lon="4.83336">
        <ele>182.6</ele>
        <time>2011-09-11T13:31:37Z</time>
      </trkpt>
      <trkpt lat="45.76141" lon="4.83339">
        <ele>181.8</ele>
        <time>2011-09-11T13:31:39Z</time>
      </trkpt>
      <trkpt lat="45.7613" lon="4.8334">
        <ele>181.3</ele>
        <time>2011-09-11T13:31:41Z</time>
      </trkpt>
      <trkpt lat="45.76119" lon="4.83341">
        <ele>180.7</ele>
        <time>2011-09-11T13:31:43Z</time>
      </trkpt>
      <trkpt lat="45.76109" lon="4.83339">
        <ele>180.2</ele>
        <time>2011-09-11T13:31:45Z</time>
      </trkpt>
      <trkpt lat="45.76098" lon="4.83335">
        <ele>180.2</ele>
        <time>2011-09-11T13:31:47Z</time>
      </trkpt>
      <trkpt lat="45.76087" lon="4.8333">
        <ele>180.2</ele>
        <time>2011-09-11T13:31:49Z</time>
      </trkpt>
      <trkpt lat="45.76076" lon="4.83329">
        <ele>180.2</ele>
        <time>2011-09-11T13:31:51Z</time>
      </trkpt>
      <trkpt lat="45.76063" lon="4.8333">
        <ele>180.2</ele>
        <time>2011-09-11T13:31:53Z</time>
      </trkpt>
      <trkpt lat="45.76051" lon="4.83339">
        <ele>180.7</ele>
        <time>2011-09-11T13:31:55Z</time>
      </trkpt>
      <trkpt lat="45.76039" lon="4.83347">
        <ele>181.3</ele>
        <time>2011-09-11T13:31:57Z</time>
      </trkpt>
      <trkpt lat="45.76027" lon="4.83347">
        <ele>181.8</ele>
        <time>2011-09-11T13:31:59Z</time>
      </trkpt>
      <trkpt lat="45.76016" lon="4.83346">
        <ele>182.4</ele>
        <time>2011-09-11T13:32:01Z</time>
      </trkpt>
      <trkpt lat="45.76006" lon="4.83344">
        <ele>182.9</ele>
        <time>2011-09-11T13:32:03Z</time>
      </trkpt>
      <trkpt lat="45.75997" lon="4.8334">
        <ele>183.5</ele>
        <time>2011-09-11T13:32:05Z</time>
      </trkpt>
      <trkpt lat="45.75988" lon="4.83337">
        <ele>184.1</ele>
        <time>2011-09-11T13:32:07Z</time>
      </trkpt>
      <trkpt lat="45.75975" lon="4.83333">
        <ele>184.2</ele>
        <time>2011-09-11T13:32:10Z</time>
      </trkpt>
      <trkpt lat="45.75963" lon="4.83329">
        <ele>184.3</ele>
        <time>2011-09-11T13:32:13Z</time>
      </trkpt>
      <trkpt lat="45.75952" lon="4.83322">
        <ele>184.4</ele>
        <time>2011-09-11T13:32:16Z</time>
      </trkpt>
      <trkpt lat="45.75951" lon="4.83306">
        <ele>184.5</ele>
        <time>2011-09-11T13:32:19Z</time>
      </trkpt>
      <trkpt lat="45.75951" lon="4.8329">
        <ele>184.3</ele>
        <time>2011-09-11T13:32:22Z</time>
      </trkpt>
      <trkpt lat="45.75953" lon="4.83274">
        <ele>184.1</ele>
        <time>2011-09-11T13:32:25Z</time>
      </trkpt>
      <trkpt lat="45.75954" lon="4.83255">
        <ele>183.9</ele>
        <time>2011-09-11T13:32:28Z</time>
      </trkpt>
      <trkpt lat="45.75955" lon="4.83238">
        <ele>183.7</ele>
        <time>2011-09-11T13:32:31Z</time>
      </trkpt>
      <trkpt lat="45.75962" lon="4.83225">
        <ele>183.5</ele>
        <time>2011-09-11T13:32:35Z</time>
      </trkpt>
      <trkpt lat="45.75971" lon="4.83218">
        <ele>183.4</ele>
        <time>2011-09-11T13:32:38Z</time>
      </trkpt>
      <trkpt lat="45.75972" lon="4.83203">
        <ele>183.1</ele>
        <time>2011-09-11T13:32:45Z</time>
      </trkpt>
      <trkpt lat="45.75979" lon="4.83184">
        <ele>182.8</ele>
        <time>2011-09-11T13:32:48Z</time>
      </trkpt>
      <trkpt lat="45.75984" lon="4.83172">
        <ele>182.5</ele>
        <time>2011-09-11T13:32:49Z</time>
      </trkpt>
      <trkpt lat="45.75993" lon="4.83154">
        <ele>181.4</ele>
        <time>2011-09-11T13:32:51Z</time>
      </trkpt>
      <trkpt lat="45.75999" lon="4.83141">
        <ele>180.2</ele>
        <time>2011-09-11T13:32:54Z</time>
      </trkpt>
      <trkpt lat="45.75996" lon="4.83155">
        <ele>179.6</ele>
        <time>2011-09-11T13:32:59Z</time>
      </trkpt>
      <trkpt lat="45.7599" lon="4.83167">
        <ele>179.1</ele>
        <time>2011-09-11T13:33:01Z</time>
      </trkpt>
      <trkpt lat="45.75984" lon="4.83178">
        <ele>178.5</ele>
        <time>2011-09-11T13:33:03Z</time>
      </trkpt>
      <trkpt lat="45.75156" lon="4.82462">
        <ele>178.5</ele>
        <time>2011-09-11T13:35:28Z</time>
      </trkpt>
      <trkpt lat="45.7519" lon="4.82438">
        <ele>178.5</ele>
        <time>2011-09-11T13:35:38Z</time>
      </trkpt>
      <trkpt lat="45.7599" lon="4.83092">
        <ele>178.5</ele>
        <time>2011-09-11T13:35:48Z</time>
      </trkpt>
      <trkpt lat="45.75989" lon="4.8311">
        <ele>178.4</ele>
        <time>2011-09-11T13:37:10Z</time>
      </trkpt>
      <trkpt lat="45.75985" lon="4.83126">
        <ele>178.2</ele>
        <time>2011-09-11T13:37:13Z</time>
      </trkpt>
      <trkpt lat="45.75983" lon="4.83141">
        <ele>178</ele>
        <time>2011-09-11T13:37:16Z</time>
      </trkpt>
      <trkpt lat="45.75975" lon="4.83157">
        <ele>178.7</ele>
        <time>2011-09-11T13:37:19Z</time>
      </trkpt>
      <trkpt lat="45.7597" lon="4.83169">
        <ele>179.3</ele>
        <time>2011-09-11T13:37:21Z</time>
      </trkpt>
      <trkpt lat="45.75963" lon="4.83178">
        <ele>179.5</ele>
        <time>2011-09-11T13:37:24Z</time>
      </trkpt>
      <trkpt lat="45.75954" lon="4.83178">
        <ele>179.5</ele>
        <time>2011-09-11T13:37:27Z</time>
      </trkpt>
      <trkpt lat="45.75943" lon="4.83161">
        <ele>179.5</ele>
        <time>2011-09-11T13:37:33Z</time>
      </trkpt>
      <trkpt lat="45.75946" lon="4.83147">
        <ele>179.1</ele>
        <time>2011-09-11T13:37:35Z</time>
      </trkpt>
      <trkpt lat="45.75951" lon="4.83136">
        <ele>178.7</ele>
        <time>2011-09-11T13:37:37Z</time>
      </trkpt>
      <trkpt lat="45.75957" lon="4.83127">
        <ele>178.4</ele>
        <time>2011-09-11T13:37:39Z</time>
      </trkpt>
      <trkpt lat="45.75964" lon="4.83114">
        <ele>178.2</ele>
        <time>2011-09-11T13:37:42Z</time>
      </trkpt>
      <trkpt lat="45.75967" lon="4.83101">
        <ele>177.6</ele>
        <time>2011-09-11T13:37:46Z</time>
      </trkpt>
      <trkpt lat="45.75958" lon="4.83092">
        <ele>177.1</ele>
        <time>2011-09-11T13:37:50Z</time>
      </trkpt>
      <trkpt lat="45.75947" lon="4.83087">
        <ele>176.5</ele>
        <time>2011-09-11T13:37:53Z</time>
      </trkpt>
      <trkpt lat="45.75948" lon="4.8307">
        <ele>176.2</ele>
        <time>2011-09-11T13:37:57Z</time>
      </trkpt>
      <trkpt lat="45.75954" lon="4.83057">
        <ele>175.8</ele>
        <time>2011-09-11T13:38:00Z</time>
      </trkpt>
      <trkpt lat="45.75958" lon="4.83045">
        <ele>175.6</ele>
        <time>2011-09-11T13:38:03Z</time>
      </trkpt>
      <trkpt lat="45.75952" lon="4.83025">
        <ele>175</ele>
        <time>2011-09-11T13:38:19Z</time>
      </trkpt>
      <trkpt lat="45.75953" lon="4.83007">
        <ele>174.2</ele>
        <time>2011-09-11T13:38:21Z</time>
      </trkpt>
      <trkpt lat="45.75943" lon="4.82991">
        <ele>173.4</ele>
        <time>2011-09-11T13:38:31Z</time>
      </trkpt>
      <trkpt lat="45.75937" lon="4.8298">
        <ele>172.5</ele>
        <time>2011-09-11T13:38:33Z</time>
      </trkpt>
      <trkpt lat="45.75931" lon="4.82965">
        <ele>171.7</ele>
        <time>2011-09-11T13:38:36Z</time>
      </trkpt>
      <trkpt lat="45.75924" lon="4.82957">
        <ele>172.3</ele>
        <time>2011-09-11T13:38:38Z</time>
      </trkpt>
      <trkpt lat="45.75914" lon="4.82948">
        <ele>172.8</ele>
        <time>2011-09-11T13:38:40Z</time>
      </trkpt>
      <trkpt lat="45.75905" lon="4.82937">
        <ele>173.4</ele>
        <time>2011-09-11T13:38:42Z</time>
      </trkpt>
      <trkpt lat="45.75895" lon="4.82926">
        <ele>173.2</ele>
        <time>2011-09-11T13:38:44Z</time>
      </trkpt>
      <trkpt lat="45.75884" lon="4.82913">
        <ele>173</ele>
        <time>2011-09-11T13:38:46Z</time>
      </trkpt>
      <trkpt lat="45.75871" lon="4.82902">
        <ele>172.8</ele>
        <time>2011-09-11T13:38:48Z</time>
      </trkpt>
      <trkpt lat="45.7586" lon="4.82891">
        <ele>173.1</ele>
        <time>2011-09-11T13:38:50Z</time>
      </trkpt>
      <trkpt lat="45.75849" lon="4.8288">
        <ele>173.4</ele>
        <time>2011-09-11T13:38:52Z</time>
      </trkpt>
      <trkpt lat="45.75839" lon="4.82869">
        <ele>174.1</ele>
        <time>2011-09-11T13:38:54Z</time>
      </trkpt>
      <trkpt lat="45.75829" lon="4.82858">
        <ele>174.8</ele>
        <time>2011-09-11T13:38:56Z</time>
      </trkpt>
      <trkpt lat="45.75819" lon="4.82846">
        <ele>175.5</ele>
        <time>2011-09-11T13:38:58Z</time>
      </trkpt>
      <trkpt lat="45.75808" lon="4.82835">
        <ele>175.1</ele>
        <time>2011-09-11T13:39:00Z</time>
      </trkpt>
      <trkpt lat="45.75799" lon="4.82827">
        <ele>174.7</ele>
        <time>2011-09-11T13:39:02Z</time>
      </trkpt>
      <trkpt lat="45.7579" lon="4.82817">
        <ele>174.4</ele>
        <time>2011-09-11T13:39:05Z</time>
      </trkpt>
      <trkpt lat="45.75784" lon="4.82803">
        <ele>174.7</ele>
        <time>2011-09-11T13:39:08Z</time>
      </trkpt>
      <trkpt lat="45.75776" lon="4.82786">
        <ele>175.1</ele>
        <time>2011-09-11T13:39:11Z</time>
      </trkpt>
      <trkpt lat="45.75764" lon="4.82771">
        <ele>174.5</ele>
        <time>2011-09-11T13:39:13Z</time>
      </trkpt>
      <trkpt lat="45.75751" lon="4.82754">
        <ele>174.5</ele>
        <time>2011-09-11T13:39:15Z</time>
      </trkpt>
      <trkpt lat="45.75744" lon="4.82745">
        <ele>174.5</ele>
        <time>2011-09-11T13:39:16Z</time>
      </trkpt>
      <trkpt lat="45.75737" lon="4.82737">
        <ele>174</ele>
        <time>2011-09-11T13:39:17Z</time>
      </trkpt>
      <trkpt lat="45.75723" lon="4.82723">
        <ele>173.5</ele>
        <time>2011-09-11T13:39:19Z</time>
      </trkpt>
      <trkpt lat="45.75711" lon="4.82708">
        <ele>173.2</ele>
        <time>2011-09-11T13:39:21Z</time>
      </trkpt>
      <trkpt lat="45.75699" lon="4.82694">
        <ele>172.8</ele>
        <time>2011-09-11T13:39:23Z</time>
      </trkpt>
      <trkpt lat="45.75687" lon="4.82681">
        <ele>171.8</ele>
        <time>2011-09-11T13:39:25Z</time>
      </trkpt>
      <trkpt lat="45.75674" lon="4.82669">
        <ele>171.7</ele>
        <time>2011-09-11T13:39:27Z</time>
      </trkpt>
      <trkpt lat="45.75662" lon="4.82657">
        <ele>171.6</ele>
        <time>2011-09-11T13:39:29Z</time>
      </trkpt>
      <trkpt lat="45.75651" lon="4.82645">
        <ele>171.5</ele>
        <time>2011-09-11T13:39:31Z</time>
      </trkpt>
      <trkpt lat="45.75639" lon="4.82633">
        <ele>172.5</ele>
        <time>2011-09-11T13:39:33Z</time>
      </trkpt>
      <trkpt lat="45.75629" lon="4.82623">
        <ele>172.7</ele>
        <time>2011-09-11T13:39:35Z</time>
      </trkpt>
      <trkpt lat="45.7562" lon="4.82616">
        <ele>173</ele>
        <time>2011-09-11T13:39:37Z</time>
      </trkpt>
      <trkpt lat="45.7561" lon="4.82611">
        <ele>173.3</ele>
        <time>2011-09-11T13:39:39Z</time>
      </trkpt>
      <trkpt lat="45.756" lon="4.82606">
        <ele>174</ele>
        <time>2011-09-11T13:39:41Z</time>
      </trkpt>
      <trkpt lat="45.75588" lon="4.82601">
        <ele>174.7</ele>
        <time>2011-09-11T13:39:43Z</time>
      </trkpt>
      <trkpt lat="45.75575" lon="4.82595">
        <ele>175.5</ele>
        <time>2011-09-11T13:39:45Z</time>
      </trkpt>
      <trkpt lat="45.75561" lon="4.82587">
        <ele>176.8</ele>
        <time>2011-09-11T13:39:47Z</time>
      </trkpt>
      <trkpt lat="45.75548" lon="4.8258">
        <ele>177.3</ele>
        <time>2011-09-11T13:39:49Z</time>
      </trkpt>
      <trkpt lat="45.75535" lon="4.82575">
        <ele>177.7</ele>
        <time>2011-09-11T13:39:51Z</time>
      </trkpt>
      <trkpt lat="45.75521" lon="4.82571">
        <ele>176.8</ele>
        <time>2011-09-11T13:39:53Z</time>
      </trkpt>
      <trkpt lat="45.75508" lon="4.82565">
        <ele>175.9</ele>
        <time>2011-09-11T13:39:55Z</time>
      </trkpt>
      <trkpt lat="45.75495" lon="4.82559">
        <ele>175</ele>
        <time>2011-09-11T13:39:57Z</time>
      </trkpt>
      <trkpt lat="45.75483" lon="4.82554">
        <ele>174.1</ele>
        <time>2011-09-11T13:39:59Z</time>
      </trkpt>
      <trkpt lat="45.75471" lon="4.82549">
        <ele>173.2</ele>
        <time>2011-09-11T13:40:01Z</time>
      </trkpt>
      <trkpt lat="45.75459" lon="4.82545">
        <ele>171.8</ele>
        <time>2011-09-11T13:40:03Z</time>
      </trkpt>
      <trkpt lat="45.75447" lon="4.82541">
        <ele>170.5</ele>
        <time>2011-09-11T13:40:05Z</time>
      </trkpt>
      <trkpt lat="45.75435" lon="4.82536">
        <ele>169.6</ele>
        <time>2011-09-11T13:40:07Z</time>
      </trkpt>
      <trkpt lat="45.75424" lon="4.82531">
        <ele>168.8</ele>
        <time>2011-09-11T13:40:09Z</time>
      </trkpt>
      <trkpt lat="45.75413" lon="4.82527">
        <ele>168</ele>
        <time>2011-09-11T13:40:11Z</time>
      </trkpt>
      <trkpt lat="45.75402" lon="4.82522">
        <ele>167.2</ele>
        <time>2011-09-11T13:40:13Z</time>
      </trkpt>
      <trkpt lat="45.75392" lon="4.82517">
        <ele>167.7</ele>
        <time>2011-09-11T13:40:15Z</time>
      </trkpt>
      <trkpt lat="45.7538" lon="4.82512">
        <ele>168.3</ele>
        <time>2011-09-11T13:40:18Z</time>
      </trkpt>
      <trkpt lat="45.75368" lon="4.82507">
        <ele>168.8</ele>
        <time>2011-09-11T13:40:21Z</time>
      </trkpt>
      <trkpt lat="45.75356" lon="4.825">
        <ele>169.4</ele>
        <time>2011-09-11T13:40:24Z</time>
      </trkpt>
      <trkpt lat="45.75347" lon="4.82494">
        <ele>169.9</ele>
        <time>2011-09-11T13:40:26Z</time>
      </trkpt>
      <trkpt lat="45.75338" lon="4.82488">
        <ele>170.5</ele>
        <time>2011-09-11T13:40:28Z</time>
      </trkpt>
      <trkpt lat="45.75329" lon="4.82481">
        <ele>171</ele>
        <time>2011-09-11T13:40:30Z</time>
      </trkpt>
      <trkpt lat="45.75319" lon="4.82475">
        <ele>171</ele>
        <time>2011-09-11T13:40:32Z</time>
      </trkpt>
      <trkpt lat="45.7531" lon="4.8247">
        <ele>171</ele>
        <time>2011-09-11T13:40:34Z</time>
      </trkpt>
      <trkpt lat="45.75301" lon="4.82466">
        <ele>171</ele>
        <time>2011-09-11T13:40:36Z</time>
      </trkpt>
      <trkpt lat="45.75292" lon="4.82462">
        <ele>171</ele>
        <time>2011-09-11T13:40:38Z</time>
      </trkpt>
      <trkpt lat="45.75282" lon="4.82456">
        <ele>171</ele>
        <time>2011-09-11T13:40:40Z</time>
      </trkpt>
      <trkpt lat="45.75272" lon="4.82451">
        <ele>171</ele>
        <time>2011-09-11T13:40:42Z</time>
      </trkpt>
      <trkpt lat="45.75262" lon="4.82445">
        <ele>171</ele>
        <time>2011-09-11T13:40:44Z</time>
      </trkpt>
      <trkpt lat="45.75252" lon="4.8244">
        <ele>171.1</ele>
        <time>2011-09-11T13:40:46Z</time>
      </trkpt>
      <trkpt lat="45.75242" lon="4.82437">
        <ele>171.2</ele>
        <time>2011-09-11T13:40:48Z</time>
      </trkpt>
      <trkpt lat="45.75231" lon="4.82433">
        <ele>171.3</ele>
        <time>2011-09-11T13:40:50Z</time>
      </trkpt>
      <trkpt lat="45.75222" lon="4.82427">
        <ele>171.4</ele>
        <time>2011-09-11T13:40:52Z</time>
      </trkpt>
      <trkpt lat="45.75213" lon="4.8242">
        <ele>171.3</ele>
        <time>2011-09-11T13:40:54Z</time>
      </trkpt>
      <trkpt lat="45.75204" lon="4.82413">
        <ele>171.2</ele>
        <time>2011-09-11T13:40:56Z</time>
      </trkpt>
      <trkpt lat="45.75195" lon="4.82404">
        <ele>171.1</ele>
        <time>2011-09-11T13:40:58Z</time>
      </trkpt>
      <trkpt lat="45.75186" lon="4.82396">
        <ele>171</ele>
        <time>2011-09-11T13:41:00Z</time>
      </trkpt>
      <trkpt lat="45.75178" lon="4.82387">
        <ele>170.9</ele>
        <time>2011-09-11T13:41:02Z</time>
      </trkpt>
      <trkpt lat="45.75165" lon="4.82373">
        <ele>170.8</ele>
        <time>2011-09-11T13:41:05Z</time>
      </trkpt>
      <trkpt lat="45.75157" lon="4.82363">
        <ele>170.7</ele>
        <time>2011-09-11T13:41:07Z</time>
      </trkpt>
      <trkpt lat="45.7515" lon="4.8235">
        <ele>170.2</ele>
        <time>2011-09-11T13:41:09Z</time>
      </trkpt>
      <trkpt lat="45.75141" lon="4.82338">
        <ele>169.6</ele>
        <time>2011-09-11T13:41:11Z</time>
      </trkpt>
      <trkpt lat="45.75131" lon="4.82329">
        <ele>169.1</ele>
        <time>2011-09-11T13:41:13Z</time>
      </trkpt>
      <trkpt lat="45.75121" lon="4.82319">
        <ele>168.5</ele>
        <time>2011-09-11T13:41:15Z</time>
      </trkpt>
      <trkpt lat="45.75103" lon="4.82302">
        <ele>168.2</ele>
        <time>2011-09-11T13:41:19Z</time>
      </trkpt>
      <trkpt lat="45.75096" lon="4.82292">
        <ele>167.8</ele>
        <time>2011-09-11T13:41:21Z</time>
      </trkpt>
      <trkpt lat="45.75089" lon="4.82279">
        <ele>167.4</ele>
        <time>2011-09-11T13:41:24Z</time>
      </trkpt>
      <trkpt lat="45.75083" lon="4.82269">
        <ele>167.2</ele>
        <time>2011-09-11T13:41:26Z</time>
      </trkpt>
      <trkpt lat="45.75075" lon="4.82256">
        <ele>167</ele>
        <time>2011-09-11T13:41:28Z</time>
      </trkpt>
      <trkpt lat="45.75067" lon="4.82244">
        <ele>166.8</ele>
        <time>2011-09-11T13:41:30Z</time>
      </trkpt>
      <trkpt lat="45.75058" lon="4.82231">
        <ele>166.6</ele>
        <time>2011-09-11T13:41:32Z</time>
      </trkpt>
      <trkpt lat="45.75049" lon="4.82217">
        <ele>166.8</ele>
        <time>2011-09-11T13:41:34Z</time>
      </trkpt>
      <trkpt lat="45.7504" lon="4.82204">
        <ele>166.7</ele>
        <time>2011-09-11T13:41:36Z</time>
      </trkpt>
      <trkpt lat="45.75032" lon="4.82191">
        <ele>166.6</ele>
        <time>2011-09-11T13:41:38Z</time>
      </trkpt>
      <trkpt lat="45.75024" lon="4.82178">
        <ele>166.5</ele>
        <time>2011-09-11T13:41:40Z</time>
      </trkpt>
      <trkpt lat="45.75016" lon="4.82165">
        <ele>166.5</ele>
        <time>2011-09-11T13:41:42Z</time>
      </trkpt>
      <trkpt lat="45.75007" lon="4.82152">
        <ele>166.6</ele>
        <time>2011-09-11T13:41:44Z</time>
      </trkpt>
      <trkpt lat="45.74998" lon="4.82136">
        <ele>166.5</ele>
        <time>2011-09-11T13:41:46Z</time>
      </trkpt>
      <trkpt lat="45.7499" lon="4.82118">
        <ele>166.2</ele>
        <time>2011-09-11T13:41:48Z</time>
      </trkpt>
      <trkpt lat="45.74981" lon="4.82101">
        <ele>165.8</ele>
        <time>2011-09-11T13:41:50Z</time>
      </trkpt>
      <trkpt lat="45.74972" lon="4.82084">
        <ele>165.5</ele>
        <time>2011-09-11T13:41:52Z</time>
      </trkpt>
      <trkpt lat="45.74962" lon="4.82067">
        <ele>165.1</ele>
        <time>2011-09-11T13:41:54Z</time>
      </trkpt>
      <trkpt lat="45.74952" lon="4.82052">
        <ele>164.7</ele>
        <time>2011-09-11T13:41:56Z</time>
      </trkpt>
      <trkpt lat="45.74942" lon="4.82037">
        <ele>164.6</ele>
        <time>2011-09-11T13:41:58Z</time>
      </trkpt>
      <trkpt lat="45.74931" lon="4.82021">
        <ele>164.6</ele>
        <time>2011-09-11T13:42:00Z</time>
      </trkpt>
      <trkpt lat="45.74921" lon="4.82006">
        <ele>164.7</ele>
        <time>2011-09-11T13:42:02Z</time>
      </trkpt>
      <trkpt lat="45.74911" lon="4.81993">
        <ele>164.8</ele>
        <time>2011-09-11T13:42:04Z</time>
      </trkpt>
      <trkpt lat="45.74902" lon="4.81981">
        <ele>164.6</ele>
        <time>2011-09-11T13:42:06Z</time>
      </trkpt>
      <trkpt lat="45.74893" lon="4.81969">
        <ele>164.8</ele>
        <time>2011-09-11T13:42:08Z</time>
      </trkpt>
      <trkpt lat="45.74884" lon="4.81955">
        <ele>165</ele>
        <time>2011-09-11T13:42:10Z</time>
      </trkpt>
      <trkpt lat="45.74874" lon="4.81942">
        <ele>164.7</ele>
        <time>2011-09-11T13:42:12Z</time>
      </trkpt>
      <trkpt lat="45.74865" lon="4.81928">
        <ele>164.5</ele>
        <time>2011-09-11T13:42:14Z</time>
      </trkpt>
      <trkpt lat="45.74855" lon="4.81914">
        <ele>164.2</ele>
        <time>2011-09-11T13:42:16Z</time>
      </trkpt>
      <trkpt lat="45.74845" lon="4.81901">
        <ele>163.9</ele>
        <time>2011-09-11T13:42:18Z</time>
      </trkpt>
      <trkpt lat="45.74836" lon="4.81887">
        <ele>164</ele>
        <time>2011-09-11T13:42:20Z</time>
      </trkpt>
      <trkpt lat="45.74826" lon="4.81873">
        <ele>164</ele>
        <time>2011-09-11T13:42:22Z</time>
      </trkpt>
      <trkpt lat="45.74816" lon="4.8186">
        <ele>163.9</ele>
        <time>2011-09-11T13:42:24Z</time>
      </trkpt>
      <trkpt lat="45.74806" lon="4.81847">
        <ele>163.4</ele>
        <time>2011-09-11T13:42:26Z</time>
      </trkpt>
      <trkpt lat="45.74796" lon="4.81834">
        <ele>162.8</ele>
        <time>2011-09-11T13:42:28Z</time>
      </trkpt>
      <trkpt lat="45.74787" lon="4.81821">
        <ele>162.3</ele>
        <time>2011-09-11T13:42:30Z</time>
      </trkpt>
      <trkpt lat="45.74777" lon="4.81808">
        <ele>161.7</ele>
        <time>2011-09-11T13:42:32Z</time>
      </trkpt>
      <trkpt lat="45.74767" lon="4.81796">
        <ele>161.6</ele>
        <time>2011-09-11T13:42:34Z</time>
      </trkpt>
      <trkpt lat="45.74757" lon="4.81785">
        <ele>161.7</ele>
        <time>2011-09-11T13:42:36Z</time>
      </trkpt>
      <trkpt lat="45.74746" lon="4.81774">
        <ele>161.8</ele>
        <time>2011-09-11T13:42:38Z</time>
      </trkpt>
      <trkpt lat="45.74736" lon="4.81762">
        <ele>161.9</ele>
        <time>2011-09-11T13:42:40Z</time>
      </trkpt>
      <trkpt lat="45.74725" lon="4.8175">
        <ele>161.6</ele>
        <time>2011-09-11T13:42:42Z</time>
      </trkpt>
      <trkpt lat="45.74715" lon="4.81738">
        <ele>161.4</ele>
        <time>2011-09-11T13:42:44Z</time>
      </trkpt>
      <trkpt lat="45.74705" lon="4.81727">
        <ele>161.1</ele>
        <time>2011-09-11T13:42:46Z</time>
      </trkpt>
      <trkpt lat="45.74696" lon="4.81715">
        <ele>161.3</ele>
        <time>2011-09-11T13:42:48Z</time>
      </trkpt>
      <trkpt lat="45.74685" lon="4.81707">
        <ele>161.5</ele>
        <time>2011-09-11T13:42:50Z</time>
      </trkpt>
      <trkpt lat="45.74673" lon="4.81702">
        <ele>162.1</ele>
        <time>2011-09-11T13:42:52Z</time>
      </trkpt>
      <trkpt lat="45.74662" lon="4.81701">
        <ele>162.7</ele>
        <time>2011-09-11T13:42:54Z</time>
      </trkpt>
      <trkpt lat="45.74653" lon="4.81702">
        <ele>163.4</ele>
        <time>2011-09-11T13:42:56Z</time>
      </trkpt>
      <trkpt lat="45.74641" lon="4.81701">
        <ele>163.8</ele>
        <time>2011-09-11T13:42:59Z</time>
      </trkpt>
      <trkpt lat="45.74631" lon="4.81694">
        <ele>164.3</ele>
        <time>2011-09-11T13:43:02Z</time>
      </trkpt>
      <trkpt lat="45.74621" lon="4.81685">
        <ele>164.7</ele>
        <time>2011-09-11T13:43:05Z</time>
      </trkpt>
      <trkpt lat="45.74613" lon="4.81678">
        <ele>165.2</ele>
        <time>2011-09-11T13:43:07Z</time>
      </trkpt>
      <trkpt lat="45.74604" lon="4.8167">
        <ele>165.6</ele>
        <time>2011-09-11T13:43:09Z</time>
      </trkpt>
      <trkpt lat="45.74595" lon="4.81664">
        <ele>165.8</ele>
        <time>2011-09-11T13:43:11Z</time>
      </trkpt>
      <trkpt lat="45.74587" lon="4.81657">
        <ele>165.7</ele>
        <time>2011-09-11T13:43:13Z</time>
      </trkpt>
      <trkpt lat="45.74579" lon="4.8165">
        <ele>165.6</ele>
        <time>2011-09-11T13:43:15Z</time>
      </trkpt>
      <trkpt lat="45.7457" lon="4.81643">
        <ele>165.1</ele>
        <time>2011-09-11T13:43:17Z</time>
      </trkpt>
      <trkpt lat="45.74562" lon="4.81636">
        <ele>164.5</ele>
        <time>2011-09-11T13:43:19Z</time>
      </trkpt>
      <trkpt lat="45.74554" lon="4.81629">
        <ele>164</ele>
        <time>2011-09-11T13:43:21Z</time>
      </trkpt>
      <trkpt lat="45.74542" lon="4.8162">
        <ele>163.5</ele>
        <time>2011-09-11T13:43:24Z</time>
      </trkpt>
      <trkpt lat="45.74535" lon="4.81611">
        <ele>162.9</ele>
        <time>2011-09-11T13:43:26Z</time>
      </trkpt>
      <trkpt lat="45.74529" lon="4.816">
        <ele>162.4</ele>
        <time>2011-09-11T13:43:28Z</time>
      </trkpt>
      <trkpt lat="45.74522" lon="4.8159">
        <ele>161.8</ele>
        <time>2011-09-11T13:43:30Z</time>
      </trkpt>
      <trkpt lat="45.74514" lon="4.81584">
        <ele>161.2</ele>
        <time>2011-09-11T13:43:32Z</time>
      </trkpt>
      <trkpt lat="45.74505" lon="4.81577">
        <ele>161.1</ele>
        <time>2011-09-11T13:43:34Z</time>
      </trkpt>
      <trkpt lat="45.74495" lon="4.81568">
        <ele>161.3</ele>
        <time>2011-09-11T13:43:36Z</time>
      </trkpt>
      <trkpt lat="45.74486" lon="4.81561">
        <ele>161.5</ele>
        <time>2011-09-11T13:43:38Z</time>
      </trkpt>
      <trkpt lat="45.74477" lon="4.81553">
        <ele>161.6</ele>
        <time>2011-09-11T13:43:40Z</time>
      </trkpt>
      <trkpt lat="45.74468" lon="4.81545">
        <ele>161.8</ele>
        <time>2011-09-11T13:43:42Z</time>
      </trkpt>
      <trkpt lat="45.74458" lon="4.81537">
        <ele>162</ele>
        <time>2011-09-11T13:43:44Z</time>
      </trkpt>
      <trkpt lat="45.74448" lon="4.81531">
        <ele>162.2</ele>
        <time>2011-09-11T13:43:46Z</time>
      </trkpt>
      <trkpt lat="45.74438" lon="4.81527">
        <ele>162.4</ele>
        <time>2011-09-11T13:43:48Z</time>
      </trkpt>
      <trkpt lat="45.74429" lon="4.81521">
        <ele>162.5</ele>
        <time>2011-09-11T13:43:50Z</time>
      </trkpt>
      <trkpt lat="45.7442" lon="4.81514">
        <ele>163</ele>
        <time>2011-09-11T13:43:52Z</time>
      </trkpt>
      <trkpt lat="45.7441" lon="4.81506">
        <ele>163.5</ele>
        <time>2011-09-11T13:43:54Z</time>
      </trkpt>
      <trkpt lat="45.744" lon="4.81499">
        <ele>163.8</ele>
        <time>2011-09-11T13:43:56Z</time>
      </trkpt>
      <trkpt lat="45.74391" lon="4.81493">
        <ele>164.1</ele>
        <time>2011-09-11T13:43:58Z</time>
      </trkpt>
      <trkpt lat="45.74382" lon="4.81489">
        <ele>164.4</ele>
        <time>2011-09-11T13:44:00Z</time>
      </trkpt>
      <trkpt lat="45.74373" lon="4.81485">
        <ele>163.9</ele>
        <time>2011-09-11T13:44:02Z</time>
      </trkpt>
      <trkpt lat="45.74364" lon="4.81481">
        <ele>163.5</ele>
        <time>2011-09-11T13:44:04Z</time>
      </trkpt>
      <trkpt lat="45.74355" lon="4.81476">
        <ele>163</ele>
        <time>2011-09-11T13:44:06Z</time>
      </trkpt>
      <trkpt lat="45.74346" lon="4.81473">
        <ele>162.8</ele>
        <time>2011-09-11T13:44:08Z</time>
      </trkpt>
      <trkpt lat="45.74334" lon="4.81468">
        <ele>162.6</ele>
        <time>2011-09-11T13:44:11Z</time>
      </trkpt>
      <trkpt lat="45.74323" lon="4.81463">
        <ele>162.5</ele>
        <time>2011-09-11T13:44:14Z</time>
      </trkpt>
      <trkpt lat="45.74312" lon="4.81459">
        <ele>162</ele>
        <time>2011-09-11T13:44:17Z</time>
      </trkpt>
      <trkpt lat="45.74303" lon="4.81457">
        <ele>161.5</ele>
        <time>2011-09-11T13:44:20Z</time>
      </trkpt>
      <trkpt lat="45.74292" lon="4.81455">
        <ele>161.1</ele>
        <time>2011-09-11T13:44:24Z</time>
      </trkpt>
      <trkpt lat="45.7428" lon="4.81453">
        <ele>160.6</ele>
        <time>2011-09-11T13:44:28Z</time>
      </trkpt>
      <trkpt lat="45.74269" lon="4.81451">
        <ele>160.2</ele>
        <time>2011-09-11T13:44:31Z</time>
      </trkpt>
      <trkpt lat="45.74258" lon="4.81446">
        <ele>160.5</ele>
        <time>2011-09-11T13:44:34Z</time>
      </trkpt>
      <trkpt lat="45.7425" lon="4.8144">
        <ele>160.8</ele>
        <time>2011-09-11T13:44:36Z</time>
      </trkpt>
      <trkpt lat="45.74242" lon="4.81433">
        <ele>161.2</ele>
        <time>2011-09-11T13:44:38Z</time>
      </trkpt>
      <trkpt lat="45.74233" lon="4.8143">
        <ele>161.3</ele>
        <time>2011-09-11T13:44:40Z</time>
      </trkpt>
      <trkpt lat="45.74224" lon="4.81427">
        <ele>161.4</ele>
        <time>2011-09-11T13:44:42Z</time>
      </trkpt>
      <trkpt lat="45.74211" lon="4.81425">
        <ele>161.5</ele>
        <time>2011-09-11T13:44:45Z</time>
      </trkpt>
      <trkpt lat="45.74199" lon="4.81423">
        <ele>161.5</ele>
        <time>2011-09-11T13:44:48Z</time>
      </trkpt>
      <trkpt lat="45.74187" lon="4.8142">
        <ele>161.6</ele>
        <time>2011-09-11T13:44:51Z</time>
      </trkpt>
      <trkpt lat="45.74176" lon="4.81418">
        <ele>161.7</ele>
        <time>2011-09-11T13:44:54Z</time>
      </trkpt>
      <trkpt lat="45.74164" lon="4.81416">
        <ele>161.8</ele>
        <time>2011-09-11T13:44:57Z</time>
      </trkpt>
      <trkpt lat="45.74153" lon="4.81414">
        <ele>161.9</ele>
        <time>2011-09-11T13:45:00Z</time>
      </trkpt>
      <trkpt lat="45.74142" lon="4.81413">
        <ele>162</ele>
        <time>2011-09-11T13:45:03Z</time>
      </trkpt>
      <trkpt lat="45.74131" lon="4.81412">
        <ele>162</ele>
        <time>2011-09-11T13:45:06Z</time>
      </trkpt>
      <trkpt lat="45.7412" lon="4.81414">
        <ele>162</ele>
        <time>2011-09-11T13:45:09Z</time>
      </trkpt>
      <trkpt lat="45.74109" lon="4.81421">
        <ele>162</ele>
        <time>2011-09-11T13:45:12Z</time>
      </trkpt>
      <trkpt lat="45.74099" lon="4.81423">
        <ele>162.3</ele>
        <time>2011-09-11T13:45:15Z</time>
      </trkpt>
      <trkpt lat="45.74088" lon="4.81423">
        <ele>162.5</ele>
        <time>2011-09-11T13:45:18Z</time>
      </trkpt>
      <trkpt lat="45.74076" lon="4.81422">
        <ele>162.8</ele>
        <time>2011-09-11T13:45:21Z</time>
      </trkpt>
      <trkpt lat="45.74063" lon="4.81422">
        <ele>163.1</ele>
        <time>2011-09-11T13:45:24Z</time>
      </trkpt>
      <trkpt lat="45.74051" lon="4.81422">
        <ele>163.4</ele>
        <time>2011-09-11T13:45:27Z</time>
      </trkpt>
      <trkpt lat="45.74038" lon="4.81419">
        <ele>163.6</ele>
        <time>2011-09-11T13:45:30Z</time>
      </trkpt>
      <trkpt lat="45.74026" lon="4.81417">
        <ele>163.9</ele>
        <time>2011-09-11T13:45:33Z</time>
      </trkpt>
      <trkpt lat="45.74014" lon="4.81415">
        <ele>164</ele>
        <time>2011-09-11T13:45:36Z</time>
      </trkpt>
      <trkpt lat="45.74002" lon="4.81414">
        <ele>164.1</ele>
        <time>2011-09-11T13:45:39Z</time>
      </trkpt>
      <trkpt lat="45.7399" lon="4.81415">
        <ele>164.2</ele>
        <time>2011-09-11T13:45:42Z</time>
      </trkpt>
      <trkpt lat="45.73978" lon="4.81418">
        <ele>164.3</ele>
        <time>2011-09-11T13:45:45Z</time>
      </trkpt>
      <trkpt lat="45.73966" lon="4.81421">
        <ele>164.1</ele>
        <time>2011-09-11T13:45:48Z</time>
      </trkpt>
      <trkpt lat="45.73954" lon="4.81424">
        <ele>163.9</ele>
        <time>2011-09-11T13:45:51Z</time>
      </trkpt>
      <trkpt lat="45.73944" lon="4.81426">
        <ele>163.7</ele>
        <time>2011-09-11T13:45:53Z</time>
      </trkpt>
      <trkpt lat="45.73931" lon="4.81427">
        <ele>163.8</ele>
        <time>2011-09-11T13:45:56Z</time>
      </trkpt>
      <trkpt lat="45.73919" lon="4.81429">
        <ele>163.9</ele>
        <time>2011-09-11T13:45:59Z</time>
      </trkpt>
      <trkpt lat="45.73907" lon="4.81434">
        <ele>164</ele>
        <time>2011-09-11T13:46:02Z</time>
      </trkpt>
      <trkpt lat="45.73897" lon="4.81438">
        <ele>164.1</ele>
        <time>2011-09-11T13:46:05Z</time>
      </trkpt>
      <trkpt lat="45.73886" lon="4.8144">
        <ele>164.4</ele>
        <time>2011-09-11T13:46:08Z</time>
      </trkpt>
      <trkpt lat="45.73876" lon="4.81442">
        <ele>164.6</ele>
        <time>2011-09-11T13:46:10Z</time>
      </trkpt>
      <trkpt lat="45.73865" lon="4.81444">
        <ele>164.9</ele>
        <time>2011-09-11T13:46:12Z</time>
      </trkpt>
      <trkpt lat="45.73852" lon="4.81444">
        <ele>165.2</ele>
        <time>2011-09-11T13:46:14Z</time>
      </trkpt>
      <trkpt lat="45.73841" lon="4.81446">
        <ele>165.5</ele>
        <time>2011-09-11T13:46:16Z</time>
      </trkpt>
      <trkpt lat="45.73828" lon="4.81449">
        <ele>165.7</ele>
        <time>2011-09-11T13:46:19Z</time>
      </trkpt>
      <trkpt lat="45.73815" lon="4.81454">
        <ele>166</ele>
        <time>2011-09-11T13:46:22Z</time>
      </trkpt>
      <trkpt lat="45.73803" lon="4.81459">
        <ele>166</ele>
        <time>2011-09-11T13:46:25Z</time>
      </trkpt>
      <trkpt lat="45.73791" lon="4.81462">
        <ele>165.9</ele>
        <time>2011-09-11T13:46:28Z</time>
      </trkpt>
      <trkpt lat="45.73781" lon="4.81463">
        <ele>165.8</ele>
        <time>2011-09-11T13:46:30Z</time>
      </trkpt>
      <trkpt lat="45.73771" lon="4.81464">
        <ele>165.7</ele>
        <time>2011-09-11T13:46:32Z</time>
      </trkpt>
      <trkpt lat="45.73761" lon="4.81465">
        <ele>165.8</ele>
        <time>2011-09-11T13:46:34Z</time>
      </trkpt>
      <trkpt lat="45.73751" lon="4.81466">
        <ele>165.9</ele>
        <time>2011-09-11T13:46:36Z</time>
      </trkpt>
      <trkpt lat="45.73741" lon="4.81467">
        <ele>166</ele>
        <time>2011-09-11T13:46:38Z</time>
      </trkpt>
      <trkpt lat="45.73731" lon="4.81469">
        <ele>166.1</ele>
        <time>2011-09-11T13:46:40Z</time>
      </trkpt>
      <trkpt lat="45.73719" lon="4.81471">
        <ele>166.2</ele>
        <time>2011-09-11T13:46:42Z</time>
      </trkpt>
      <trkpt lat="45.73709" lon="4.81474">
        <ele>166.3</ele>
        <time>2011-09-11T13:46:44Z</time>
      </trkpt>
      <trkpt lat="45.73698" lon="4.81477">
        <ele>166.4</ele>
        <time>2011-09-11T13:46:46Z</time>
      </trkpt>
      <trkpt lat="45.73687" lon="4.81478">
        <ele>166.5</ele>
        <time>2011-09-11T13:46:48Z</time>
      </trkpt>
      <trkpt lat="45.73676" lon="4.81479">
        <ele>166.3</ele>
        <time>2011-09-11T13:46:50Z</time>
      </trkpt>
      <trkpt lat="45.73666" lon="4.8148">
        <ele>166.1</ele>
        <time>2011-09-11T13:46:52Z</time>
      </trkpt>
      <trkpt lat="45.73655" lon="4.81481">
        <ele>165.9</ele>
        <time>2011-09-11T13:46:54Z</time>
      </trkpt>
      <trkpt lat="45.73646" lon="4.81482">
        <ele>165.5</ele>
        <time>2011-09-11T13:46:56Z</time>
      </trkpt>
      <trkpt lat="45.73636" lon="4.81485">
        <ele>165.2</ele>
        <time>2011-09-11T13:46:58Z</time>
      </trkpt>
      <trkpt lat="45.73626" lon="4.81488">
        <ele>164.8</ele>
        <time>2011-09-11T13:47:00Z</time>
      </trkpt>
      <trkpt lat="45.73615" lon="4.81491">
        <ele>164.5</ele>
        <time>2011-09-11T13:47:02Z</time>
      </trkpt>
      <trkpt lat="45.73605" lon="4.81492">
        <ele>164.1</ele>
        <time>2011-09-11T13:47:04Z</time>
      </trkpt>
      <trkpt lat="45.73595" lon="4.81495">
        <ele>163.9</ele>
        <time>2011-09-11T13:47:06Z</time>
      </trkpt>
      <trkpt lat="45.73585" lon="4.81497">
        <ele>163.7</ele>
        <time>2011-09-11T13:47:08Z</time>
      </trkpt>
      <trkpt lat="45.73574" lon="4.81499">
        <ele>163.5</ele>
        <time>2011-09-11T13:47:10Z</time>
      </trkpt>
      <trkpt lat="45.73563" lon="4.81502">
        <ele>163.7</ele>
        <time>2011-09-11T13:47:12Z</time>
      </trkpt>
      <trkpt lat="45.73551" lon="4.81503">
        <ele>163.9</ele>
        <time>2011-09-11T13:47:14Z</time>
      </trkpt>
      <trkpt lat="45.7354" lon="4.81505">
        <ele>164.1</ele>
        <time>2011-09-11T13:47:16Z</time>
      </trkpt>
      <trkpt lat="45.73529" lon="4.81507">
        <ele>164.3</ele>
        <time>2011-09-11T13:47:18Z</time>
      </trkpt>
      <trkpt lat="45.73518" lon="4.81509">
        <ele>164.5</ele>
        <time>2011-09-11T13:47:20Z</time>
      </trkpt>
      <trkpt lat="45.73508" lon="4.81511">
        <ele>164.6</ele>
        <time>2011-09-11T13:47:22Z</time>
      </trkpt>
      <trkpt lat="45.73498" lon="4.81513">
        <ele>164.8</ele>
        <time>2011-09-11T13:47:24Z</time>
      </trkpt>
      <trkpt lat="45.73488" lon="4.81515">
        <ele>165</ele>
        <time>2011-09-11T13:47:26Z</time>
      </trkpt>
      <trkpt lat="45.73478" lon="4.81515">
        <ele>165</ele>
        <time>2011-09-11T13:47:28Z</time>
      </trkpt>
      <trkpt lat="45.73467" lon="4.81515">
        <ele>165</ele>
        <time>2011-09-11T13:47:30Z</time>
      </trkpt>
      <trkpt lat="45.73456" lon="4.81517">
        <ele>165</ele>
        <time>2011-09-11T13:47:32Z</time>
      </trkpt>
      <trkpt lat="45.73445" lon="4.8152">
        <ele>165</ele>
        <time>2011-09-11T13:47:34Z</time>
      </trkpt>
      <trkpt lat="45.73434" lon="4.81522">
        <ele>165</ele>
        <time>2011-09-11T13:47:36Z</time>
      </trkpt>
      <trkpt lat="45.73424" lon="4.81524">
        <ele>165</ele>
        <time>2011-09-11T13:47:38Z</time>
      </trkpt>
      <trkpt lat="45.73413" lon="4.81529">
        <ele>165</ele>
        <time>2011-09-11T13:47:41Z</time>
      </trkpt>
      <trkpt lat="45.7341" lon="4.81544">
        <ele>165</ele>
        <time>2011-09-11T13:47:58Z</time>
      </trkpt>
      <trkpt lat="45.73407" lon="4.81559">
        <ele>164.8</ele>
        <time>2011-09-11T13:48:19Z</time>
      </trkpt>
      <trkpt lat="45.73401" lon="4.81571">
        <ele>164.6</ele>
        <time>2011-09-11T13:48:23Z</time>
      </trkpt>
      <trkpt lat="45.73403" lon="4.81587">
        <ele>164.5</ele>
        <time>2011-09-11T13:48:27Z</time>
      </trkpt>
      <trkpt lat="45.734" lon="4.81601">
        <ele>164.3</ele>
        <time>2011-09-11T13:48:31Z</time>
      </trkpt>
      <trkpt lat="45.73386" lon="4.81604">
        <ele>164.1</ele>
        <time>2011-09-11T13:50:12Z</time>
      </trkpt>
      <trkpt lat="45.73375" lon="4.81612">
        <ele>163.9</ele>
        <time>2011-09-11T13:50:17Z</time>
      </trkpt>
      <trkpt lat="45.73363" lon="4.81616">
        <ele>163.7</ele>
        <time>2011-09-11T13:50:20Z</time>
      </trkpt>
      <trkpt lat="45.73349" lon="4.81612">
        <ele>163.7</ele>
        <time>2011-09-11T13:50:23Z</time>
      </trkpt>
      <trkpt lat="45.73337" lon="4.81604">
        <ele>163.7</ele>
        <time>2011-09-11T13:50:25Z</time>
      </trkpt>
      <trkpt lat="45.73325" lon="4.81595">
        <ele>163.7</ele>
        <time>2011-09-11T13:50:27Z</time>
      </trkpt>
      <trkpt lat="45.73314" lon="4.81587">
        <ele>163.7</ele>
        <time>2011-09-11T13:50:29Z</time>
      </trkpt>
      <trkpt lat="45.733" lon="4.81582">
        <ele>163.9</ele>
        <time>2011-09-11T13:50:31Z</time>
      </trkpt>
      <trkpt lat="45.73284" lon="4.81577">
        <ele>164.1</ele>
        <time>2011-09-11T13:50:33Z</time>
      </trkpt>
      <trkpt lat="45.7327" lon="4.81572">
        <ele>164.3</ele>
        <time>2011-09-11T13:50:35Z</time>
      </trkpt>
      <trkpt lat="45.73258" lon="4.81574">
        <ele>164.5</ele>
        <time>2011-09-11T13:50:37Z</time>
      </trkpt>
      <trkpt lat="45.73247" lon="4.81573">
        <ele>164.6</ele>
        <time>2011-09-11T13:50:40Z</time>
      </trkpt>
      <trkpt lat="45.73238" lon="4.81573">
        <ele>164.8</ele>
        <time>2011-09-11T13:50:43Z</time>
      </trkpt>
      <trkpt lat="45.73225" lon="4.8158">
        <ele>165</ele>
        <time>2011-09-11T13:50:46Z</time>
      </trkpt>
      <trkpt lat="45.73216" lon="4.81588">
        <ele>164.8</ele>
        <time>2011-09-11T13:50:48Z</time>
      </trkpt>
      <trkpt lat="45.73209" lon="4.81597">
        <ele>164.6</ele>
        <time>2011-09-11T13:50:50Z</time>
      </trkpt>
      <trkpt lat="45.73204" lon="4.81608">
        <ele>164.5</ele>
        <time>2011-09-11T13:50:52Z</time>
      </trkpt>
      <trkpt lat="45.73198" lon="4.8162">
        <ele>164.3</ele>
        <time>2011-09-11T13:50:54Z</time>
      </trkpt>
      <trkpt lat="45.73189" lon="4.8163">
        <ele>164.3</ele>
        <time>2011-09-11T13:51:05Z</time>
      </trkpt>
      <trkpt lat="45.73184" lon="4.8166">
        <ele>164.3</ele>
        <time>2011-09-11T13:51:08Z</time>
      </trkpt>
      <trkpt lat="45.73179" lon="4.81681">
        <ele>164.3</ele>
        <time>2011-09-11T13:51:10Z</time>
      </trkpt>
      <trkpt lat="45.73174" lon="4.81695">
        <ele>164.3</ele>
        <time>2011-09-11T13:51:12Z</time>
      </trkpt>
      <trkpt lat="45.73169" lon="4.81706">
        <ele>164.2</ele>
        <time>2011-09-11T13:51:14Z</time>
      </trkpt>
      <trkpt lat="45.7316" lon="4.8172">
        <ele>164.1</ele>
        <time>2011-09-11T13:51:17Z</time>
      </trkpt>
      <trkpt lat="45.73151" lon="4.81733">
        <ele>164</ele>
        <time>2011-09-11T13:51:20Z</time>
      </trkpt>
      <trkpt lat="45.73141" lon="4.81745">
        <ele>164.1</ele>
        <time>2011-09-11T13:51:23Z</time>
      </trkpt>
      <trkpt lat="45.7313" lon="4.81756">
        <ele>164.2</ele>
        <time>2011-09-11T13:51:26Z</time>
      </trkpt>
      <trkpt lat="45.73123" lon="4.81763">
        <ele>164.1</ele>
        <time>2011-09-11T13:51:28Z</time>
      </trkpt>
      <trkpt lat="45.73115" lon="4.81772">
        <ele>164</ele>
        <time>2011-09-11T13:51:30Z</time>
      </trkpt>
      <trkpt lat="45.73106" lon="4.81782">
        <ele>163.7</ele>
        <time>2011-09-11T13:51:33Z</time>
      </trkpt>
      <trkpt lat="45.73094" lon="4.81788">
        <ele>163.6</ele>
        <time>2011-09-11T13:51:36Z</time>
      </trkpt>
      <trkpt lat="45.73084" lon="4.81792">
        <ele>163.5</ele>
        <time>2011-09-11T13:51:38Z</time>
      </trkpt>
      <trkpt lat="45.73074" lon="4.81797">
        <ele>163.5</ele>
        <time>2011-09-11T13:51:40Z</time>
      </trkpt>
      <trkpt lat="45.73064" lon="4.81802">
        <ele>163.5</ele>
        <time>2011-09-11T13:51:42Z</time>
      </trkpt>
      <trkpt lat="45.73054" lon="4.81807">
        <ele>163.5</ele>
        <time>2011-09-11T13:51:44Z</time>
      </trkpt>
      <trkpt lat="45.73045" lon="4.81811">
        <ele>163.5</ele>
        <time>2011-09-11T13:51:46Z</time>
      </trkpt>
      <trkpt lat="45.73036" lon="4.81815">
        <ele>163.5</ele>
        <time>2011-09-11T13:51:48Z</time>
      </trkpt>
      <trkpt lat="45.73026" lon="4.81819">
        <ele>163.5</ele>
        <time>2011-09-11T13:51:50Z</time>
      </trkpt>
      <trkpt lat="45.73016" lon="4.81822">
        <ele>163.6</ele>
        <time>2011-09-11T13:51:52Z</time>
      </trkpt>
      <trkpt lat="45.73006" lon="4.81825">
        <ele>163.8</ele>
        <time>2011-09-11T13:51:54Z</time>
      </trkpt>
      <trkpt lat="45.72997" lon="4.81828">
        <ele>164</ele>
        <time>2011-09-11T13:51:56Z</time>
      </trkpt>
      <trkpt lat="45.72987" lon="4.81831">
        <ele>164</ele>
        <time>2011-09-11T13:51:58Z</time>
      </trkpt>
      <trkpt lat="45.72978" lon="4.81833">
        <ele>164</ele>
        <time>2011-09-11T13:52:00Z</time>
      </trkpt>
      <trkpt lat="45.72968" lon="4.81835">
        <ele>164</ele>
        <time>2011-09-11T13:52:02Z</time>
      </trkpt>
      <trkpt lat="45.72958" lon="4.81838">
        <ele>164</ele>
        <time>2011-09-11T13:52:04Z</time>
      </trkpt>
      <trkpt lat="45.72947" lon="4.81841">
        <ele>164</ele>
        <time>2011-09-11T13:52:06Z</time>
      </trkpt>
      <trkpt lat="45.72934" lon="4.81843">
        <ele>164</ele>
        <time>2011-09-11T13:52:08Z</time>
      </trkpt>
      <trkpt lat="45.72921" lon="4.81844">
        <ele>164</ele>
        <time>2011-09-11T13:52:10Z</time>
      </trkpt>
      <trkpt lat="45.72909" lon="4.81845">
        <ele>164</ele>
        <time>2011-09-11T13:52:12Z</time>
      </trkpt>
      <trkpt lat="45.72898" lon="4.81846">
        <ele>164</ele>
        <time>2011-09-11T13:52:14Z</time>
      </trkpt>
      <trkpt lat="45.72886" lon="4.81846">
        <ele>164</ele>
        <time>2011-09-11T13:52:17Z</time>
      </trkpt>
      <trkpt lat="45.72878" lon="4.81855">
        <ele>164</ele>
        <time>2011-09-11T13:52:21Z</time>
      </trkpt>
      <trkpt lat="45.72889" lon="4.81859">
        <ele>164</ele>
        <time>2011-09-11T13:52:24Z</time>
      </trkpt>
      <trkpt lat="45.729" lon="4.81859">
        <ele>164</ele>
        <time>2011-09-11T13:52:26Z</time>
      </trkpt>
      <trkpt lat="45.7291" lon="4.81858">
        <ele>164</ele>
        <time>2011-09-11T13:52:28Z</time>
      </trkpt>
      <trkpt lat="45.72921" lon="4.81858">
        <ele>164</ele>
        <time>2011-09-11T13:52:30Z</time>
      </trkpt>
      <trkpt lat="45.72932" lon="4.81858">
        <ele>164</ele>
        <time>2011-09-11T13:52:32Z</time>
      </trkpt>
      <trkpt lat="45.72944" lon="4.81858">
        <ele>164</ele>
        <time>2011-09-11T13:52:34Z</time>
      </trkpt>
      <trkpt lat="45.72955" lon="4.81857">
        <ele>164</ele>
        <time>2011-09-11T13:52:36Z</time>
      </trkpt>
      <trkpt lat="45.72967" lon="4.81856">
        <ele>164</ele>
        <time>2011-09-11T13:52:38Z</time>
      </trkpt>
      <trkpt lat="45.72978" lon="4.81855">
        <ele>164</ele>
        <time>2011-09-11T13:52:40Z</time>
      </trkpt>
      <trkpt lat="45.72987" lon="4.81854">
        <ele>163.8</ele>
        <time>2011-09-11T13:52:42Z</time>
      </trkpt>
      <trkpt lat="45.73" lon="4.81854">
        <ele>163.6</ele>
        <time>2011-09-11T13:52:45Z</time>
      </trkpt>
      <trkpt lat="45.73012" lon="4.81853">
        <ele>163.5</ele>
        <time>2011-09-11T13:52:48Z</time>
      </trkpt>
      <trkpt lat="45.73025" lon="4.81853">
        <ele>163.3</ele>
        <time>2011-09-11T13:52:51Z</time>
      </trkpt>
      <trkpt lat="45.73038" lon="4.81853">
        <ele>163.1</ele>
        <time>2011-09-11T13:52:54Z</time>
      </trkpt>
      <trkpt lat="45.73047" lon="4.81854">
        <ele>162.9</ele>
        <time>2011-09-11T13:52:56Z</time>
      </trkpt>
      <trkpt lat="45.73057" lon="4.81854">
        <ele>162.7</ele>
        <time>2011-09-11T13:52:58Z</time>
      </trkpt>
      <trkpt lat="45.73066" lon="4.81854">
        <ele>162.5</ele>
        <time>2011-09-11T13:53:00Z</time>
      </trkpt>
      <trkpt lat="45.73076" lon="4.81855">
        <ele>162.6</ele>
        <time>2011-09-11T13:53:02Z</time>
      </trkpt>
      <trkpt lat="45.73088" lon="4.81858">
        <ele>162.7</ele>
        <time>2011-09-11T13:53:05Z</time>
      </trkpt>
      <trkpt lat="45.731" lon="4.81859">
        <ele>162.8</ele>
        <time>2011-09-11T13:53:08Z</time>
      </trkpt>
      <trkpt lat="45.73113" lon="4.81857">
        <ele>163.1</ele>
        <time>2011-09-11T13:53:11Z</time>
      </trkpt>
      <trkpt lat="45.73126" lon="4.81856">
        <ele>163.4</ele>
        <time>2011-09-11T13:53:14Z</time>
      </trkpt>
      <trkpt lat="45.73138" lon="4.81859">
        <ele>163.6</ele>
        <time>2011-09-11T13:53:17Z</time>
      </trkpt>
      <trkpt lat="45.73148" lon="4.81863">
        <ele>163.9</ele>
        <time>2011-09-11T13:53:20Z</time>
      </trkpt>
      <trkpt lat="45.73158" lon="4.81868">
        <ele>164.1</ele>
        <time>2011-09-11T13:53:23Z</time>
      </trkpt>
      <trkpt lat="45.7317" lon="4.81871">
        <ele>164.3</ele>
        <time>2011-09-11T13:53:26Z</time>
      </trkpt>
      <trkpt lat="45.7318" lon="4.81873">
        <ele>164.5</ele>
        <time>2011-09-11T13:53:28Z</time>
      </trkpt>
      <trkpt lat="45.73193" lon="4.81874">
        <ele>164.6</ele>
        <time>2011-09-11T13:53:30Z</time>
      </trkpt>
      <trkpt lat="45.73206" lon="4.81876">
        <ele>164.5</ele>
        <time>2011-09-11T13:53:32Z</time>
      </trkpt>
      <trkpt lat="45.73219" lon="4.81879">
        <ele>164.5</ele>
        <time>2011-09-11T13:53:34Z</time>
      </trkpt>
      <trkpt lat="45.73233" lon="4.81881">
        <ele>164.4</ele>
        <time>2011-09-11T13:53:36Z</time>
      </trkpt>
      <trkpt lat="45.73242" lon="4.81883">
        <ele>164.3</ele>
        <time>2011-09-11T13:53:38Z</time>
      </trkpt>
      <trkpt lat="45.73253" lon="4.81885">
        <ele>164.2</ele>
        <time>2011-09-11T13:53:41Z</time>
      </trkpt>
      <trkpt lat="45.73266" lon="4.81888">
        <ele>164.1</ele>
        <time>2011-09-11T13:53:44Z</time>
      </trkpt>
      <trkpt lat="45.73279" lon="4.81891">
        <ele>164</ele>
        <time>2011-09-11T13:53:47Z</time>
      </trkpt>
      <trkpt lat="45.73289" lon="4.81892">
        <ele>164</ele>
        <time>2011-09-11T13:53:49Z</time>
      </trkpt>
      <trkpt lat="45.73301" lon="4.81895">
        <ele>164</ele>
        <time>2011-09-11T13:53:51Z</time>
      </trkpt>
      <trkpt lat="45.73313" lon="4.81899">
        <ele>164</ele>
        <time>2011-09-11T13:53:53Z</time>
      </trkpt>
      <trkpt lat="45.73325" lon="4.81904">
        <ele>164.2</ele>
        <time>2011-09-11T13:53:55Z</time>
      </trkpt>
      <trkpt lat="45.73336" lon="4.81907">
        <ele>164.4</ele>
        <time>2011-09-11T13:53:57Z</time>
      </trkpt>
      <trkpt lat="45.73348" lon="4.8191">
        <ele>164.5</ele>
        <time>2011-09-11T13:53:59Z</time>
      </trkpt>
      <trkpt lat="45.73361" lon="4.81914">
        <ele>164.7</ele>
        <time>2011-09-11T13:54:01Z</time>
      </trkpt>
      <trkpt lat="45.73372" lon="4.81917">
        <ele>164.9</ele>
        <time>2011-09-11T13:54:03Z</time>
      </trkpt>
      <trkpt lat="45.73384" lon="4.8192">
        <ele>165.1</ele>
        <time>2011-09-11T13:54:05Z</time>
      </trkpt>
      <trkpt lat="45.73396" lon="4.81923">
        <ele>165.3</ele>
        <time>2011-09-11T13:54:07Z</time>
      </trkpt>
      <trkpt lat="45.73409" lon="4.81928">
        <ele>165.5</ele>
        <time>2011-09-11T13:54:09Z</time>
      </trkpt>
      <trkpt lat="45.73422" lon="4.81932">
        <ele>165.6</ele>
        <time>2011-09-11T13:54:11Z</time>
      </trkpt>
      <trkpt lat="45.73433" lon="4.81938">
        <ele>165.8</ele>
        <time>2011-09-11T13:54:13Z</time>
      </trkpt>
      <trkpt lat="45.73442" lon="4.81941">
        <ele>166</ele>
        <time>2011-09-11T13:54:15Z</time>
      </trkpt>
      <trkpt lat="45.73452" lon="4.81938">
        <ele>166</ele>
        <time>2011-09-11T13:54:19Z</time>
      </trkpt>
      <trkpt lat="45.73441" lon="4.81933">
        <ele>166</ele>
        <time>2011-09-11T13:54:25Z</time>
      </trkpt>
      <trkpt lat="45.73429" lon="4.81929">
        <ele>166</ele>
        <time>2011-09-11T13:54:28Z</time>
      </trkpt>
      <trkpt lat="45.73417" lon="4.81923">
        <ele>165.8</ele>
        <time>2011-09-11T13:54:31Z</time>
      </trkpt>
      <trkpt lat="45.73408" lon="4.81917">
        <ele>165.6</ele>
        <time>2011-09-11T13:54:33Z</time>
      </trkpt>
      <trkpt lat="45.734" lon="4.8191">
        <ele>165.5</ele>
        <time>2011-09-11T13:54:35Z</time>
      </trkpt>
      <trkpt lat="45.73389" lon="4.81908">
        <ele>165.3</ele>
        <time>2011-09-11T13:54:38Z</time>
      </trkpt>
      <trkpt lat="45.73384" lon="4.8192">
        <ele>165.1</ele>
        <time>2011-09-11T13:54:41Z</time>
      </trkpt>
      <trkpt lat="45.73379" lon="4.81936">
        <ele>164.9</ele>
        <time>2011-09-11T13:54:44Z</time>
      </trkpt>
      <trkpt lat="45.73375" lon="4.81953">
        <ele>164.7</ele>
        <time>2011-09-11T13:54:47Z</time>
      </trkpt>
      <trkpt lat="45.73371" lon="4.81965">
        <ele>164.5</ele>
        <time>2011-09-11T13:54:49Z</time>
      </trkpt>
      <trkpt lat="45.73366" lon="4.81983">
        <ele>164.4</ele>
        <time>2011-09-11T13:54:52Z</time>
      </trkpt>
      <trkpt lat="45.73362" lon="4.81995">
        <ele>164.2</ele>
        <time>2011-09-11T13:54:54Z</time>
      </trkpt>
      <trkpt lat="45.73358" lon="4.82008">
        <ele>164</ele>
        <time>2011-09-11T13:54:56Z</time>
      </trkpt>
      <trkpt lat="45.73354" lon="4.82021">
        <ele>164</ele>
        <time>2011-09-11T13:54:58Z</time>
      </trkpt>
      <trkpt lat="45.73351" lon="4.82033">
        <ele>164</ele>
        <time>2011-09-11T13:55:00Z</time>
      </trkpt>
      <trkpt lat="45.73346" lon="4.82051">
        <ele>164</ele>
        <time>2011-09-11T13:55:03Z</time>
      </trkpt>
      <trkpt lat="45.73341" lon="4.82069">
        <ele>164</ele>
        <time>2011-09-11T13:55:06Z</time>
      </trkpt>
      <trkpt lat="45.73338" lon="4.82082">
        <ele>164</ele>
        <time>2011-09-11T13:55:08Z</time>
      </trkpt>
      <trkpt lat="45.73335" lon="4.82096">
        <ele>164</ele>
        <time>2011-09-11T13:55:10Z</time>
      </trkpt>
      <trkpt lat="45.73332" lon="4.8211">
        <ele>164</ele>
        <time>2011-09-11T13:55:12Z</time>
      </trkpt>
      <trkpt lat="45.73329" lon="4.82124">
        <ele>164</ele>
        <time>2011-09-11T13:55:14Z</time>
      </trkpt>
      <trkpt lat="45.73326" lon="4.82139">
        <ele>164</ele>
        <time>2011-09-11T13:55:16Z</time>
      </trkpt>
      <trkpt lat="45.73322" lon="4.82153">
        <ele>164.6</ele>
        <time>2011-09-11T13:55:18Z</time>
      </trkpt>
      <trkpt lat="45.73319" lon="4.82168">
        <ele>164.6</ele>
        <time>2011-09-11T13:55:20Z</time>
      </trkpt>
      <trkpt lat="45.73315" lon="4.82183">
        <ele>164.6</ele>
        <time>2011-09-11T13:55:22Z</time>
      </trkpt>
      <trkpt lat="45.73311" lon="4.82197">
        <ele>164.6</ele>
        <time>2011-09-11T13:55:24Z</time>
      </trkpt>
      <trkpt lat="45.73307" lon="4.82212">
        <ele>164.6</ele>
        <time>2011-09-11T13:55:26Z</time>
      </trkpt>
      <trkpt lat="45.73303" lon="4.82227">
        <ele>164.7</ele>
        <time>2011-09-11T13:55:30Z</time>
      </trkpt>
      <trkpt lat="45.73308" lon="4.82215">
        <ele>164.8</ele>
        <time>2011-09-11T13:55:36Z</time>
      </trkpt>
      <trkpt lat="45.7331" lon="4.82201">
        <ele>164.9</ele>
        <time>2011-09-11T13:55:45Z</time>
      </trkpt>
      <trkpt lat="45.73311" lon="4.82184">
        <ele>165</ele>
        <time>2011-09-11T13:56:01Z</time>
      </trkpt>
      <trkpt lat="45.73302" lon="4.8218">
        <ele>165.1</ele>
        <time>2011-09-11T13:56:03Z</time>
      </trkpt>
      <trkpt lat="45.73288" lon="4.82175">
        <ele>165.2</ele>
        <time>2011-09-11T13:56:05Z</time>
      </trkpt>
      <trkpt lat="45.73273" lon="4.8217">
        <ele>164.6</ele>
        <time>2011-09-11T13:56:07Z</time>
      </trkpt>
      <trkpt lat="45.73262" lon="4.82166">
        <ele>164.8</ele>
        <time>2011-09-11T13:56:09Z</time>
      </trkpt>
      <trkpt lat="45.73251" lon="4.82161">
        <ele>165</ele>
        <time>2011-09-11T13:56:11Z</time>
      </trkpt>
      <trkpt lat="45.73239" lon="4.82155">
        <ele>165.2</ele>
        <time>2011-09-11T13:56:13Z</time>
      </trkpt>
      <trkpt lat="45.73228" lon="4.82149">
        <ele>165.4</ele>
        <time>2011-09-11T13:56:15Z</time>
      </trkpt>
      <trkpt lat="45.73219" lon="4.82143">
        <ele>165.5</ele>
        <time>2011-09-11T13:56:18Z</time>
      </trkpt>
      <trkpt lat="45.73208" lon="4.82146">
        <ele>165.5</ele>
        <time>2011-09-11T13:56:22Z</time>
      </trkpt>
      <trkpt lat="45.73201" lon="4.82159">
        <ele>165.7</ele>
        <time>2011-09-11T13:56:25Z</time>
      </trkpt>
      <trkpt lat="45.73196" lon="4.82174">
        <ele>165.9</ele>
        <time>2011-09-11T13:56:28Z</time>
      </trkpt>
      <trkpt lat="45.73196" lon="4.8219">
        <ele>166.1</ele>
        <time>2011-09-11T13:56:31Z</time>
      </trkpt>
      <trkpt lat="45.73195" lon="4.82203">
        <ele>166.3</ele>
        <time>2011-09-11T13:56:33Z</time>
      </trkpt>
      <trkpt lat="45.73194" lon="4.82217">
        <ele>166.5</ele>
        <time>2011-09-11T13:56:35Z</time>
      </trkpt>
      <trkpt lat="45.73192" lon="4.82231">
        <ele>166.5</ele>
        <time>2011-09-11T13:56:37Z</time>
      </trkpt>
      <trkpt lat="45.73191" lon="4.82246">
        <ele>166.6</ele>
        <time>2011-09-11T13:56:39Z</time>
      </trkpt>
      <trkpt lat="45.73189" lon="4.8226">
        <ele>166.7</ele>
        <time>2011-09-11T13:56:41Z</time>
      </trkpt>
      <trkpt lat="45.73187" lon="4.82276">
        <ele>166.9</ele>
        <time>2011-09-11T13:56:44Z</time>
      </trkpt>
      <trkpt lat="45.7317" lon="4.82277">
        <ele>167.1</ele>
        <time>2011-09-11T13:56:50Z</time>
      </trkpt>
      <trkpt lat="45.73158" lon="4.82272">
        <ele>167.3</ele>
        <time>2011-09-11T13:56:52Z</time>
      </trkpt>
      <trkpt lat="45.73145" lon="4.82266">
        <ele>167.4</ele>
        <time>2011-09-11T13:56:54Z</time>
      </trkpt>
      <trkpt lat="45.73133" lon="4.82262">
        <ele>167.5</ele>
        <time>2011-09-11T13:56:56Z</time>
      </trkpt>
      <trkpt lat="45.73122" lon="4.82258">
        <ele>167.5</ele>
        <time>2011-09-11T13:56:58Z</time>
      </trkpt>
      <trkpt lat="45.73111" lon="4.82255">
        <ele>167.4</ele>
        <time>2011-09-11T13:57:00Z</time>
      </trkpt>
      <trkpt lat="45.73099" lon="4.82253">
        <ele>167.2</ele>
        <time>2011-09-11T13:57:02Z</time>
      </trkpt>
      <trkpt lat="45.73086" lon="4.82251">
        <ele>167</ele>
        <time>2011-09-11T13:57:04Z</time>
      </trkpt>
      <trkpt lat="45.73073" lon="4.8225">
        <ele>166.8</ele>
        <time>2011-09-11T13:57:06Z</time>
      </trkpt>
      <trkpt lat="45.73059" lon="4.82248">
        <ele>166.6</ele>
        <time>2011-09-11T13:57:08Z</time>
      </trkpt>
      <trkpt lat="45.73046" lon="4.82246">
        <ele>166.4</ele>
        <time>2011-09-11T13:57:10Z</time>
      </trkpt>
      <trkpt lat="45.73033" lon="4.82244">
        <ele>166.3</ele>
        <time>2011-09-11T13:57:12Z</time>
      </trkpt>
      <trkpt lat="45.7302" lon="4.82241">
        <ele>166.2</ele>
        <time>2011-09-11T13:57:14Z</time>
      </trkpt>
      <trkpt lat="45.73008" lon="4.82238">
        <ele>165.9</ele>
        <time>2011-09-11T13:57:16Z</time>
      </trkpt>
      <trkpt lat="45.72995" lon="4.82233">
        <ele>165.6</ele>
        <time>2011-09-11T13:57:18Z</time>
      </trkpt>
      <trkpt lat="45.72985" lon="4.82222">
        <ele>165.4</ele>
        <time>2011-09-11T13:57:20Z</time>
      </trkpt>
      <trkpt lat="45.72975" lon="4.82209">
        <ele>165.4</ele>
        <time>2011-09-11T13:57:22Z</time>
      </trkpt>
      <trkpt lat="45.72965" lon="4.82197">
        <ele>165.4</ele>
        <time>2011-09-11T13:57:24Z</time>
      </trkpt>
      <trkpt lat="45.72955" lon="4.82186">
        <ele>165.4</ele>
        <time>2011-09-11T13:57:26Z</time>
      </trkpt>
      <trkpt lat="45.72944" lon="4.82176">
        <ele>165.4</ele>
        <time>2011-09-11T13:57:28Z</time>
      </trkpt>
      <trkpt lat="45.72935" lon="4.82167">
        <ele>165.4</ele>
        <time>2011-09-11T13:57:30Z</time>
      </trkpt>
      <trkpt lat="45.72926" lon="4.82159">
        <ele>165.4</ele>
        <time>2011-09-11T13:57:32Z</time>
      </trkpt>
      <trkpt lat="45.72917" lon="4.82153">
        <ele>165.2</ele>
        <time>2011-09-11T13:57:34Z</time>
      </trkpt>
      <trkpt lat="45.72908" lon="4.82154">
        <ele>165</ele>
        <time>2011-09-11T13:57:36Z</time>
      </trkpt>
      <trkpt lat="45.72901" lon="4.8217">
        <ele>165.5</ele>
        <time>2011-09-11T13:57:39Z</time>
      </trkpt>
      <trkpt lat="45.72899" lon="4.82188">
        <ele>165.9</ele>
        <time>2011-09-11T13:57:42Z</time>
      </trkpt>
      <trkpt lat="45.72897" lon="4.82201">
        <ele>166.4</ele>
        <time>2011-09-11T13:57:44Z</time>
      </trkpt>
      <trkpt lat="45.72895" lon="4.82216">
        <ele>167</ele>
        <time>2011-09-11T13:57:46Z</time>
      </trkpt>
      <trkpt lat="45.7289" lon="4.8223">
        <ele>167.6</ele>
        <time>2011-09-11T13:57:48Z</time>
      </trkpt>
      <trkpt lat="45.72881" lon="4.82235">
        <ele>168.3</ele>
        <time>2011-09-11T13:57:50Z</time>
      </trkpt>
      <trkpt lat="45.72871" lon="4.82239">
        <ele>168.9</ele>
        <time>2011-09-11T13:57:56Z</time>
      </trkpt>
      <trkpt lat="45.72862" lon="4.82229">
        <ele>169.5</ele>
        <time>2011-09-11T13:58:00Z</time>
      </trkpt>
      <trkpt lat="45.72856" lon="4.82214">
        <ele>170.2</ele>
        <time>2011-09-11T13:58:03Z</time>
      </trkpt>
      <trkpt lat="45.72851" lon="4.82202">
        <ele>170.5</ele>
        <time>2011-09-11T13:58:05Z</time>
      </trkpt>
      <trkpt lat="45.72847" lon="4.82189">
        <ele>170.7</ele>
        <time>2011-09-11T13:58:07Z</time>
      </trkpt>
      <trkpt lat="45.72844" lon="4.82167">
        <ele>170.6</ele>
        <time>2011-09-11T13:58:11Z</time>
      </trkpt>
      <trkpt lat="45.72838" lon="4.82155">
        <ele>170.5</ele>
        <time>2011-09-11T13:58:13Z</time>
      </trkpt>
      <trkpt lat="45.72828" lon="4.82143">
        <ele>170.5</ele>
        <time>2011-09-11T13:58:15Z</time>
      </trkpt>
      <trkpt lat="45.72817" lon="4.82131">
        <ele>170.2</ele>
        <time>2011-09-11T13:58:17Z</time>
      </trkpt>
      <trkpt lat="45.72806" lon="4.82121">
        <ele>169.9</ele>
        <time>2011-09-11T13:58:19Z</time>
      </trkpt>
      <trkpt lat="45.72777" lon="4.82103">
        <ele>169</ele>
        <time>2011-09-11T13:58:24Z</time>
      </trkpt>
      <trkpt lat="45.72744" lon="4.82103">
        <ele>168.1</ele>
        <time>2011-09-11T13:58:29Z</time>
      </trkpt>
      <trkpt lat="45.72733" lon="4.821">
        <ele>167.2</ele>
        <time>2011-09-11T13:58:31Z</time>
      </trkpt>
      <trkpt lat="45.72721" lon="4.82094">
        <ele>166.3</ele>
        <time>2011-09-11T13:58:33Z</time>
      </trkpt>
      <trkpt lat="45.72711" lon="4.82089">
        <ele>165.7</ele>
        <time>2011-09-11T13:58:35Z</time>
      </trkpt>
      <trkpt lat="45.72699" lon="4.82088">
        <ele>165.2</ele>
        <time>2011-09-11T13:58:37Z</time>
      </trkpt>
      <trkpt lat="45.72688" lon="4.82087">
        <ele>164.5</ele>
        <time>2011-09-11T13:58:39Z</time>
      </trkpt>
      <trkpt lat="45.72677" lon="4.82087">
        <ele>163.9</ele>
        <time>2011-09-11T13:58:41Z</time>
      </trkpt>
      <trkpt lat="45.72667" lon="4.82087">
        <ele>163.5</ele>
        <time>2011-09-11T13:58:43Z</time>
      </trkpt>
      <trkpt lat="45.72658" lon="4.82088">
        <ele>163</ele>
        <time>2011-09-11T13:58:45Z</time>
      </trkpt>
      <trkpt lat="45.72648" lon="4.82088">
        <ele>162.5</ele>
        <time>2011-09-11T13:58:47Z</time>
      </trkpt>
      <trkpt lat="45.72639" lon="4.82089">
        <ele>162.7</ele>
        <time>2011-09-11T13:58:49Z</time>
      </trkpt>
      <trkpt lat="45.72629" lon="4.82091">
        <ele>162.9</ele>
        <time>2011-09-11T13:58:51Z</time>
      </trkpt>
      <trkpt lat="45.72619" lon="4.82092">
        <ele>163.1</ele>
        <time>2011-09-11T13:58:53Z</time>
      </trkpt>
      <trkpt lat="45.72609" lon="4.82095">
        <ele>163.3</ele>
        <time>2011-09-11T13:58:55Z</time>
      </trkpt>
      <trkpt lat="45.72599" lon="4.82097">
        <ele>163.5</ele>
        <time>2011-09-11T13:58:57Z</time>
      </trkpt>
      <trkpt lat="45.72589" lon="4.82098">
        <ele>164</ele>
        <time>2011-09-11T13:58:59Z</time>
      </trkpt>
      <trkpt lat="45.72579" lon="4.821">
        <ele>164.5</ele>
        <time>2011-09-11T13:59:01Z</time>
      </trkpt>
      <trkpt lat="45.72569" lon="4.82103">
        <ele>165.1</ele>
        <time>2011-09-11T13:59:03Z</time>
      </trkpt>
      <trkpt lat="45.72559" lon="4.82107">
        <ele>165.1</ele>
        <time>2011-09-11T13:59:05Z</time>
      </trkpt>
      <trkpt lat="45.7255" lon="4.82112">
        <ele>165.1</ele>
        <time>2011-09-11T13:59:07Z</time>
      </trkpt>
      <trkpt lat="45.72538" lon="4.8212">
        <ele>165.1</ele>
        <time>2011-09-11T13:59:10Z</time>
      </trkpt>
      <trkpt lat="45.72526" lon="4.82125">
        <ele>165.1</ele>
        <time>2011-09-11T13:59:13Z</time>
      </trkpt>
      <trkpt lat="45.72515" lon="4.82132">
        <ele>165.1</ele>
        <time>2011-09-11T13:59:16Z</time>
      </trkpt>
      <trkpt lat="45.72508" lon="4.82142">
        <ele>165.1</ele>
        <time>2011-09-11T13:59:18Z</time>
      </trkpt>
      <trkpt lat="45.72502" lon="4.82151">
        <ele>165.2</ele>
        <time>2011-09-11T13:59:20Z</time>
      </trkpt>
      <trkpt lat="45.72495" lon="4.82161">
        <ele>165.3</ele>
        <time>2011-09-11T13:59:22Z</time>
      </trkpt>
      <trkpt lat="45.72488" lon="4.82171">
        <ele>165</ele>
        <time>2011-09-11T13:59:24Z</time>
      </trkpt>
      <trkpt lat="45.72479" lon="4.8218">
        <ele>164.6</ele>
        <time>2011-09-11T13:59:26Z</time>
      </trkpt>
      <trkpt lat="45.72471" lon="4.82189">
        <ele>164.3</ele>
        <time>2011-09-11T13:59:28Z</time>
      </trkpt>
      <trkpt lat="45.72463" lon="4.82197">
        <ele>164.4</ele>
        <time>2011-09-11T13:59:30Z</time>
      </trkpt>
      <trkpt lat="45.72456" lon="4.82206">
        <ele>164.5</ele>
        <time>2011-09-11T13:59:32Z</time>
      </trkpt>
      <trkpt lat="45.7245" lon="4.82216">
        <ele>164.5</ele>
        <time>2011-09-11T13:59:34Z</time>
      </trkpt>
      <trkpt lat="45.7245" lon="4.82233">
        <ele>164.6</ele>
        <time>2011-09-11T13:59:37Z</time>
      </trkpt>
      <trkpt lat="45.72457" lon="4.82242">
        <ele>164.7</ele>
        <time>2011-09-11T13:59:39Z</time>
      </trkpt>
      <trkpt lat="45.72465" lon="4.82253">
        <ele>165.1</ele>
        <time>2011-09-11T13:59:41Z</time>
      </trkpt>
      <trkpt lat="45.72473" lon="4.82263">
        <ele>165.4</ele>
        <time>2011-09-11T13:59:43Z</time>
      </trkpt>
      <trkpt lat="45.7248" lon="4.82274">
        <ele>165.6</ele>
        <time>2011-09-11T13:59:45Z</time>
      </trkpt>
      <trkpt lat="45.72486" lon="4.82283">
        <ele>165.9</ele>
        <time>2011-09-11T13:59:47Z</time>
      </trkpt>
      <trkpt lat="45.72494" lon="4.82295">
        <ele>166.3</ele>
        <time>2011-09-11T13:59:50Z</time>
      </trkpt>
      <trkpt lat="45.72503" lon="4.82307">
        <ele>166.6</ele>
        <time>2011-09-11T14:02:56Z</time>
      </trkpt>
      <trkpt lat="45.72503" lon="4.8232">
        <ele>166.9</ele>
        <time>2011-09-11T14:03:16Z</time>
      </trkpt>
      <trkpt lat="45.725" lon="4.82333">
        <ele>167.1</ele>
        <time>2011-09-11T14:03:27Z</time>
      </trkpt>
      <trkpt lat="45.72496" lon="4.82345">
        <ele>167.3</ele>
        <time>2011-09-11T14:03:36Z</time>
      </trkpt>
      <trkpt lat="45.72488" lon="4.82352">
        <ele>167.6</ele>
        <time>2011-09-11T14:03:45Z</time>
      </trkpt>
      <trkpt lat="45.72477" lon="4.82346">
        <ele>168</ele>
        <time>2011-09-11T14:03:57Z</time>
      </trkpt>
      <trkpt lat="45.72472" lon="4.82354">
        <ele>168</ele>
        <time>2011-09-11T14:09:56Z</time>
      </trkpt>
    </trkseg>
  </trk>
</gpx>